<?xml version='1.0' encoding='UTF-8'?><gpx version="1.1" creator="JPX - https://github.com/jenetics/jpx" xmlns="http://www.topografix.com/GPX/1/1"><trk><trkseg><trkpt lat="44.47964805341409" lon="7.872825582021034"><ele>363.0</ele><time>2026-04-07T16:14:28.291Z</time></trkpt><trkpt lat="44.47961282290678" lon="7.8727254936651585"><ele>363.0</ele><time>2026-04-07T16:14:31.696Z</time></trkpt><trkpt lat="44.4795450251542" lon="7.872680377416911"><ele>363.0</ele><time>2026-04-07T16:14:47.998Z</time></trkpt><trkpt lat="44.47947220017996" lon="7.8726775749513225"><ele>363.0</ele><time>2026-04-07T16:15:00Z</time></trkpt><trkpt lat="44.4793842001855" lon="7.872732705303795"><ele>363.0</ele><time>2026-04-07T16:15:06Z</time></trkpt><trkpt lat="44.47931345798043" lon="7.872759835198679"><ele>363.0</ele><time>2026-04-07T16:15:08Z</time></trkpt><trkpt lat="44.47918896403738" lon="7.872821988569129"><ele>363.1666666666667</ele><time>2026-04-07T16:15:14Z</time></trkpt><trkpt lat="44.47911952181521" lon="7.87283649639974"><ele>363.3333333333333</ele><time>2026-04-07T16:15:20Z</time></trkpt><trkpt lat="44.47909428816221" lon="7.872958966984308"><ele>363.5</ele><time>2026-04-07T16:15:23Z</time></trkpt><trkpt lat="44.479121355389026" lon="7.873109673209839"><ele>363.66666666666663</ele><time>2026-04-07T16:15:25Z</time></trkpt><trkpt lat="44.47914372508449" lon="7.873201723901629"><ele>363.8333333333333</ele><time>2026-04-07T16:15:26Z</time></trkpt><trkpt lat="44.47917505598869" lon="7.873289431364855"><ele>364.0</ele><time>2026-04-07T16:15:27Z</time></trkpt><trkpt lat="44.47921591143878" lon="7.873419269462512"><ele>363.66666666666663</ele><time>2026-04-07T16:15:28Z</time></trkpt><trkpt lat="44.47924450551341" lon="7.873527678260058"><ele>363.3333333333333</ele><time>2026-04-07T16:15:29Z</time></trkpt><trkpt lat="44.47928758120785" lon="7.873642456527008"><ele>363.0</ele><time>2026-04-07T16:15:30Z</time></trkpt><trkpt lat="44.47932339996017" lon="7.873741944743543"><ele>362.6666666666667</ele><time>2026-04-07T16:15:31Z</time></trkpt><trkpt lat="44.4793570122952" lon="7.873837566675093"><ele>362.33333333333337</ele><time>2026-04-07T16:15:32Z</time></trkpt><trkpt lat="44.47937800870203" lon="7.873934245866404"><ele>362.0</ele><time>2026-04-07T16:15:33Z</time></trkpt><trkpt lat="44.479390526524824" lon="7.874024047600019"><ele>362.0</ele><time>2026-04-07T16:15:34Z</time></trkpt><trkpt lat="44.479404709116295" lon="7.874134362499071"><ele>362.0</ele><time>2026-04-07T16:15:35Z</time></trkpt><trkpt lat="44.47942346603737" lon="7.87424970386454"><ele>362.0</ele><time>2026-04-07T16:15:36Z</time></trkpt><trkpt lat="44.47944765340375" lon="7.874352660203848"><ele>362.0</ele><time>2026-04-07T16:15:37Z</time></trkpt><trkpt lat="44.47946004602246" lon="7.874476653322682"><ele>362.0</ele><time>2026-04-07T16:15:38Z</time></trkpt><trkpt lat="44.479469310284756" lon="7.874604877544855"><ele>362.0</ele><time>2026-04-07T16:15:39Z</time></trkpt><trkpt lat="44.47947031278826" lon="7.874727206295793"><ele>361.8</ele><time>2026-04-07T16:15:40Z</time></trkpt><trkpt lat="44.47948064215363" lon="7.874838161240064"><ele>361.6</ele><time>2026-04-07T16:15:41Z</time></trkpt><trkpt lat="44.4794872691877" lon="7.874971706317571"><ele>361.40000000000003</ele><time>2026-04-07T16:15:42Z</time></trkpt><trkpt lat="44.479494474373716" lon="7.875105532835922"><ele>361.20000000000005</ele><time>2026-04-07T16:15:43Z</time></trkpt><trkpt lat="44.47950280266438" lon="7.875247079439519"><ele>361.0</ele><time>2026-04-07T16:15:44Z</time></trkpt><trkpt lat="44.47949978864951" lon="7.875388747934413"><ele>361.0</ele><time>2026-04-07T16:15:45Z</time></trkpt><trkpt lat="44.479490031771725" lon="7.8755303157285566"><ele>361.0</ele><time>2026-04-07T16:15:46Z</time></trkpt><trkpt lat="44.4794776546578" lon="7.875664538737038"><ele>361.0</ele><time>2026-04-07T16:15:47Z</time></trkpt><trkpt lat="44.47946736948301" lon="7.875813118073484"><ele>361.0</ele><time>2026-04-07T16:15:48Z</time></trkpt><trkpt lat="44.4794573835913" lon="7.87595919775852"><ele>361.0</ele><time>2026-04-07T16:15:48.999Z</time></trkpt><trkpt lat="44.4794528266668" lon="7.876094935882714"><ele>361.0</ele><time>2026-04-07T16:15:49.999Z</time></trkpt><trkpt lat="44.47944576314875" lon="7.876244513128026"><ele>361.0</ele><time>2026-04-07T16:15:50.999Z</time></trkpt><trkpt lat="44.479434501001144" lon="7.876368755303944"><ele>361.0</ele><time>2026-04-07T16:15:51.999Z</time></trkpt><trkpt lat="44.479427429699484" lon="7.87648479268617"><ele>361.0</ele><time>2026-04-07T16:15:52.999Z</time></trkpt><trkpt lat="44.47943721277297" lon="7.876584461948979"><ele>361.0</ele><time>2026-04-07T16:15:53.999Z</time></trkpt><trkpt lat="44.47943892950186" lon="7.876694789292407"><ele>361.0</ele><time>2026-04-07T16:15:54.999Z</time></trkpt><trkpt lat="44.47944008237131" lon="7.876818360574011"><ele>361.6</ele><time>2026-04-07T16:15:55.999Z</time></trkpt><trkpt lat="44.479451341788526" lon="7.876934305104575"><ele>362.20000000000005</ele><time>2026-04-07T16:15:56.999Z</time></trkpt><trkpt lat="44.47946333224205" lon="7.87706389169201"><ele>362.79999999999995</ele><time>2026-04-07T16:15:57.999Z</time></trkpt><trkpt lat="44.47947927364641" lon="7.877201257678177"><ele>363.4</ele><time>2026-04-07T16:15:58.999Z</time></trkpt><trkpt lat="44.4795032942517" lon="7.877327859238664"><ele>364.0</ele><time>2026-04-07T16:15:59.999Z</time></trkpt><trkpt lat="44.47954040566013" lon="7.877475416244489"><ele>364.0</ele><time>2026-04-07T16:16:00.999Z</time></trkpt><trkpt lat="44.479561813772136" lon="7.877610438918859"><ele>364.0</ele><time>2026-04-07T16:16:01.999Z</time></trkpt><trkpt lat="44.47960306287343" lon="7.877755715674719"><ele>364.0</ele><time>2026-04-07T16:16:02.999Z</time></trkpt><trkpt lat="44.47964442172288" lon="7.8778719728792685"><ele>364.0</ele><time>2026-04-07T16:16:03.999Z</time></trkpt><trkpt lat="44.47967655570228" lon="7.877990320567286"><ele>364.0</ele><time>2026-04-07T16:16:04.999Z</time></trkpt><trkpt lat="44.47971427427275" lon="7.878100083607164"><ele>363.4</ele><time>2026-04-07T16:16:05.999Z</time></trkpt><trkpt lat="44.47975436364632" lon="7.8782224082695835"><ele>362.79999999999995</ele><time>2026-04-07T16:16:06.999Z</time></trkpt><trkpt lat="44.47980656822977" lon="7.878327903287492"><ele>362.20000000000005</ele><time>2026-04-07T16:16:07.999Z</time></trkpt><trkpt lat="44.47984062882873" lon="7.878452910853508"><ele>361.6</ele><time>2026-04-07T16:16:08.999Z</time></trkpt><trkpt lat="44.47987785007897" lon="7.878570254747636"><ele>361.0</ele><time>2026-04-07T16:16:09.999Z</time></trkpt><trkpt lat="44.47991177648794" lon="7.878678837711687"><ele>360.8333333333333</ele><time>2026-04-07T16:16:10.999Z</time></trkpt><trkpt lat="44.47994470574332" lon="7.878781889214231"><ele>360.66666666666663</ele><time>2026-04-07T16:16:11.999Z</time></trkpt><trkpt lat="44.47997844715425" lon="7.878864177325882"><ele>360.5</ele><time>2026-04-07T16:16:12.999Z</time></trkpt><trkpt lat="44.480013144449636" lon="7.879007325923305"><ele>360.3333333333333</ele><time>2026-04-07T16:16:14.999Z</time></trkpt><trkpt lat="44.48005972443474" lon="7.879101475573699"><ele>360.1666666666667</ele><time>2026-04-07T16:16:16.999Z</time></trkpt><trkpt lat="44.48011778759569" lon="7.879181476786786"><ele>360.0</ele><time>2026-04-07T16:16:19.999Z</time></trkpt><trkpt lat="44.4804297232825" lon="7.879132201729954"><ele>360.2</ele><time>2026-04-07T16:16:35.999Z</time></trkpt><trkpt lat="44.480476447450556" lon="7.879066026655925"><ele>360.4</ele><time>2026-04-07T16:16:36.999Z</time></trkpt><trkpt lat="44.480564122151534" lon="7.878941761537771"><ele>360.6</ele><time>2026-04-07T16:16:37.999Z</time></trkpt><trkpt lat="44.48065499133605" lon="7.87882449193098"><ele>360.8</ele><time>2026-04-07T16:16:38.999Z</time></trkpt><trkpt lat="44.48073211643326" lon="7.878709386474193"><ele>361.0</ele><time>2026-04-07T16:16:39.999Z</time></trkpt><trkpt lat="44.480855825636695" lon="7.878604380436279"><ele>361.0</ele><time>2026-04-07T16:16:40.999Z</time></trkpt><trkpt lat="44.48093737341613" lon="7.878514470918988"><ele>361.0</ele><time>2026-04-07T16:16:41.999Z</time></trkpt><trkpt lat="44.48102432163967" lon="7.878425881959535"><ele>361.0</ele><time>2026-04-07T16:16:42.999Z</time></trkpt><trkpt lat="44.48111948110832" lon="7.878333195009273"><ele>361.0</ele><time>2026-04-07T16:16:43.999Z</time></trkpt><trkpt lat="44.48119978868899" lon="7.878254785244404"><ele>361.0</ele><time>2026-04-07T16:16:44.999Z</time></trkpt><trkpt lat="44.481279848372964" lon="7.878182116383565"><ele>361.0</ele><time>2026-04-07T16:16:45.999Z</time></trkpt><trkpt lat="44.48137262905846" lon="7.878096605088819"><ele>361.0</ele><time>2026-04-07T16:16:46.999Z</time></trkpt><trkpt lat="44.48145370241196" lon="7.878021883836216"><ele>361.0</ele><time>2026-04-07T16:16:47.999Z</time></trkpt><trkpt lat="44.481538913555646" lon="7.877954367481262"><ele>361.0</ele><time>2026-04-07T16:16:48.999Z</time></trkpt><trkpt lat="44.48161861019424" lon="7.8778868343475175"><ele>361.0</ele><time>2026-04-07T16:16:49.999Z</time></trkpt><trkpt lat="44.48171137210732" lon="7.877808229980634"><ele>361.0</ele><time>2026-04-07T16:16:50.999Z</time></trkpt><trkpt lat="44.481792897300274" lon="7.877735672877969"><ele>361.0</ele><time>2026-04-07T16:16:51.999Z</time></trkpt><trkpt lat="44.48185300453525" lon="7.877683650213033"><ele>361.0</ele><time>2026-04-07T16:16:52.999Z</time></trkpt><trkpt lat="44.48191073148516" lon="7.877640143253137"><ele>361.0</ele><time>2026-04-07T16:16:53.999Z</time></trkpt><trkpt lat="44.4820253440076" lon="7.87756799755106"><ele>361.0</ele><time>2026-04-07T16:16:55.999Z</time></trkpt><trkpt lat="44.4821906911476" lon="7.877545256265712"><ele>360.8</ele><time>2026-04-07T16:16:58Z</time></trkpt><trkpt lat="44.482283283251306" lon="7.877508646764506"><ele>360.6</ele><time>2026-04-07T16:16:59Z</time></trkpt><trkpt lat="44.48238865092838" lon="7.877464719371783"><ele>360.4</ele><time>2026-04-07T16:17:00Z</time></trkpt><trkpt lat="44.48249290360183" lon="7.877434364844172"><ele>360.2</ele><time>2026-04-07T16:17:01Z</time></trkpt><trkpt lat="44.48256993339991" lon="7.877411425156949"><ele>360.0</ele><time>2026-04-07T16:17:02Z</time></trkpt><trkpt lat="44.48267958281503" lon="7.877377083432919"><ele>360.0</ele><time>2026-04-07T16:17:03Z</time></trkpt><trkpt lat="44.48279838930542" lon="7.8773549266485965"><ele>360.0</ele><time>2026-04-07T16:17:04Z</time></trkpt><trkpt lat="44.48291787511036" lon="7.877323510349722"><ele>360.0</ele><time>2026-04-07T16:17:05Z</time></trkpt><trkpt lat="44.48302226759295" lon="7.8772864224503945"><ele>360.0</ele><time>2026-04-07T16:17:06Z</time></trkpt><trkpt lat="44.483133966186195" lon="7.877256211189551"><ele>359.4</ele><time>2026-04-07T16:17:07Z</time></trkpt><trkpt lat="44.48324914275123" lon="7.8772272350071475"><ele>358.8</ele><time>2026-04-07T16:17:08Z</time></trkpt><trkpt lat="44.483356497092934" lon="7.877202034193776"><ele>358.20000000000005</ele><time>2026-04-07T16:17:09Z</time></trkpt><trkpt lat="44.48346036525923" lon="7.877187176566983"><ele>357.6</ele><time>2026-04-07T16:17:10Z</time></trkpt><trkpt lat="44.48356517547404" lon="7.877186799449768"><ele>357.0</ele><time>2026-04-07T16:17:11Z</time></trkpt><trkpt lat="44.483662816609844" lon="7.877186018054949"><ele>357.0</ele><time>2026-04-07T16:17:12Z</time></trkpt><trkpt lat="44.483748942282624" lon="7.877182088924578"><ele>357.0</ele><time>2026-04-07T16:17:13Z</time></trkpt><trkpt lat="44.483845873640455" lon="7.877173442787106"><ele>357.0</ele><time>2026-04-07T16:17:14Z</time></trkpt><trkpt lat="44.4839421334648" lon="7.877157833768116"><ele>357.0</ele><time>2026-04-07T16:17:15Z</time></trkpt><trkpt lat="44.48401471697005" lon="7.877160404890748"><ele>357.0</ele><time>2026-04-07T16:17:16Z</time></trkpt><trkpt lat="44.48409141045121" lon="7.8771629494157995"><ele>357.0</ele><time>2026-04-07T16:17:17Z</time></trkpt><trkpt lat="44.48416046405719" lon="7.877180892467397"><ele>357.20000000000005</ele><time>2026-04-07T16:17:18Z</time></trkpt><trkpt lat="44.4842839439012" lon="7.877234809019897"><ele>357.4</ele><time>2026-04-07T16:17:20Z</time></trkpt><trkpt lat="44.484362815131476" lon="7.877269371114746"><ele>357.6</ele><time>2026-04-07T16:17:21Z</time></trkpt><trkpt lat="44.484445518897815" lon="7.87727978876655"><ele>357.79999999999995</ele><time>2026-04-07T16:17:22Z</time></trkpt><trkpt lat="44.48454262099012" lon="7.877288522437817"><ele>358.0</ele><time>2026-04-07T16:17:23Z</time></trkpt><trkpt lat="44.484639879230016" lon="7.877234190030424"><ele>358.5</ele><time>2026-04-07T16:17:24Z</time></trkpt><trkpt lat="44.48473479507353" lon="7.877204080536853"><ele>359.0</ele><time>2026-04-07T16:17:25Z</time></trkpt><trkpt lat="44.484843620323566" lon="7.877203342542181"><ele>359.5</ele><time>2026-04-07T16:17:26Z</time></trkpt><trkpt lat="44.48494929803994" lon="7.877314399283413"><ele>360.0</ele><time>2026-04-07T16:17:27Z</time></trkpt><trkpt lat="44.48506457206745" lon="7.87737968932031"><ele>360.0</ele><time>2026-04-07T16:17:28Z</time></trkpt><trkpt lat="44.48518613294708" lon="7.877447296742024"><ele>360.0</ele><time>2026-04-07T16:17:29Z</time></trkpt><trkpt lat="44.48530687588729" lon="7.877514449278387"><ele>360.0</ele><time>2026-04-07T16:17:30Z</time></trkpt><trkpt lat="44.485443336633615" lon="7.877590343457716"><ele>360.0</ele><time>2026-04-07T16:17:31Z</time></trkpt><trkpt lat="44.485569663308034" lon="7.877641862871829"><ele>359.25</ele><time>2026-04-07T16:17:32Z</time></trkpt><trkpt lat="44.48568829813896" lon="7.877732801878547"><ele>358.5</ele><time>2026-04-07T16:17:33Z</time></trkpt><trkpt lat="44.48582225091445" lon="7.877811385685434"><ele>357.75</ele><time>2026-04-07T16:17:34Z</time></trkpt><trkpt lat="44.48595350330822" lon="7.877888385285701"><ele>357.0</ele><time>2026-04-07T16:17:35Z</time></trkpt><trkpt lat="44.48610431505234" lon="7.877977206622323"><ele>357.0</ele><time>2026-04-07T16:17:36Z</time></trkpt><trkpt lat="44.48624254986204" lon="7.87803437930676"><ele>357.0</ele><time>2026-04-07T16:17:37Z</time></trkpt><trkpt lat="44.48637841014664" lon="7.878116583652904"><ele>357.0</ele><time>2026-04-07T16:17:38Z</time></trkpt><trkpt lat="44.48651037229286" lon="7.878204162603793"><ele>357.0</ele><time>2026-04-07T16:17:39Z</time></trkpt><trkpt lat="44.48664820985699" lon="7.878292431382722"><ele>356.6666666666667</ele><time>2026-04-07T16:17:40Z</time></trkpt><trkpt lat="44.486792594096066" lon="7.878381983727461"><ele>356.33333333333337</ele><time>2026-04-07T16:17:41Z</time></trkpt><trkpt lat="44.486927484827696" lon="7.878479623942735"><ele>356.0</ele><time>2026-04-07T16:17:42Z</time></trkpt><trkpt lat="44.487066341802986" lon="7.878594555382109"><ele>356.0</ele><time>2026-04-07T16:17:43Z</time></trkpt><trkpt lat="44.48720546502816" lon="7.878711895224602"><ele>356.0</ele><time>2026-04-07T16:17:44Z</time></trkpt><trkpt lat="44.487328832619134" lon="7.878840166666995"><ele>356.0</ele><time>2026-04-07T16:17:45Z</time></trkpt><trkpt lat="44.487456786144264" lon="7.878973413723686"><ele>356.0</ele><time>2026-04-07T16:17:46Z</time></trkpt><trkpt lat="44.487588187256684" lon="7.8791271419586835"><ele>356.0</ele><time>2026-04-07T16:17:47Z</time></trkpt><trkpt lat="44.487709652968064" lon="7.87927602569869"><ele>356.0</ele><time>2026-04-07T16:17:48Z</time></trkpt><trkpt lat="44.48783666870957" lon="7.879431216065361"><ele>356.0</ele><time>2026-04-07T16:17:49Z</time></trkpt><trkpt lat="44.48795413119642" lon="7.879586875617012"><ele>356.0</ele><time>2026-04-07T16:17:49.999Z</time></trkpt><trkpt lat="44.488085792228794" lon="7.879753339874378"><ele>356.0</ele><time>2026-04-07T16:17:50.999Z</time></trkpt><trkpt lat="44.488210326241294" lon="7.8799436162315954"><ele>356.0</ele><time>2026-04-07T16:17:51.999Z</time></trkpt><trkpt lat="44.48834753579021" lon="7.880090704222358"><ele>356.0</ele><time>2026-04-07T16:17:52.999Z</time></trkpt><trkpt lat="44.488468115343615" lon="7.8802772087417745"><ele>356.0</ele><time>2026-04-07T16:17:53.999Z</time></trkpt><trkpt lat="44.48859923390763" lon="7.880447051942411"><ele>356.0</ele><time>2026-04-07T16:17:54.999Z</time></trkpt><trkpt lat="44.48872651834219" lon="7.880612115313603"><ele>356.0</ele><time>2026-04-07T16:17:55.999Z</time></trkpt><trkpt lat="44.48884875297942" lon="7.880768558904702"><ele>356.0</ele><time>2026-04-07T16:17:56.999Z</time></trkpt><trkpt lat="44.488966706340875" lon="7.880916327893365"><ele>356.25</ele><time>2026-04-07T16:17:57.999Z</time></trkpt><trkpt lat="44.48908022900699" lon="7.881045891988779"><ele>356.5</ele><time>2026-04-07T16:17:58.999Z</time></trkpt><trkpt lat="44.4891977034716" lon="7.881160534507529"><ele>356.75</ele><time>2026-04-07T16:17:59.999Z</time></trkpt><trkpt lat="44.48931867797435" lon="7.88124811919776"><ele>357.0</ele><time>2026-04-07T16:18:00.999Z</time></trkpt><trkpt lat="44.48944794226143" lon="7.881314998311417"><ele>357.0</ele><time>2026-04-07T16:18:01.999Z</time></trkpt><trkpt lat="44.489588749888" lon="7.88136792020817"><ele>357.0</ele><time>2026-04-07T16:18:02.999Z</time></trkpt><trkpt lat="44.48973309724128" lon="7.881409961558463"><ele>357.0</ele><time>2026-04-07T16:18:03.999Z</time></trkpt><trkpt lat="44.48987749324329" lon="7.881405254313199"><ele>357.0</ele><time>2026-04-07T16:18:04.999Z</time></trkpt><trkpt lat="44.49002160588343" lon="7.881414671407664"><ele>356.75</ele><time>2026-04-07T16:18:05.999Z</time></trkpt><trkpt lat="44.4901622829942" lon="7.881400879977901"><ele>356.5</ele><time>2026-04-07T16:18:06.999Z</time></trkpt><trkpt lat="44.49029286280201" lon="7.88138155515522"><ele>356.25</ele><time>2026-04-07T16:18:07.999Z</time></trkpt><trkpt lat="44.49041663285846" lon="7.881373270016596"><ele>356.0</ele><time>2026-04-07T16:18:08.999Z</time></trkpt><trkpt lat="44.49054535439536" lon="7.881366490426566"><ele>356.0</ele><time>2026-04-07T16:18:09.999Z</time></trkpt><trkpt lat="44.49067030789611" lon="7.88137797213026"><ele>356.0</ele><time>2026-04-07T16:18:10.999Z</time></trkpt><trkpt lat="44.49080666629478" lon="7.881395565186011"><ele>356.0</ele><time>2026-04-07T16:18:11.999Z</time></trkpt><trkpt lat="44.49094135282685" lon="7.881416954383613"><ele>356.0</ele><time>2026-04-07T16:18:12.999Z</time></trkpt><trkpt lat="44.49108370258176" lon="7.8814445206202794"><ele>356.0</ele><time>2026-04-07T16:18:13.999Z</time></trkpt><trkpt lat="44.49122694894515" lon="7.881477401998509"><ele>356.0</ele><time>2026-04-07T16:18:14.999Z</time></trkpt><trkpt lat="44.49135112911271" lon="7.881516767412331"><ele>356.0</ele><time>2026-04-07T16:18:15.999Z</time></trkpt><trkpt lat="44.49146751595613" lon="7.8815850632807285"><ele>356.0</ele><time>2026-04-07T16:18:16.999Z</time></trkpt><trkpt lat="44.49158991912194" lon="7.881661472230707"><ele>355.75</ele><time>2026-04-07T16:18:17.999Z</time></trkpt><trkpt lat="44.491723165506514" lon="7.881733529547493"><ele>355.5</ele><time>2026-04-07T16:18:18.999Z</time></trkpt><trkpt lat="44.491843584244336" lon="7.881799943893426"><ele>355.25</ele><time>2026-04-07T16:18:19.999Z</time></trkpt><trkpt lat="44.491966422284285" lon="7.881878474938521"><ele>355.0</ele><time>2026-04-07T16:18:20.999Z</time></trkpt><trkpt lat="44.492080255879735" lon="7.881954464923177"><ele>355.0</ele><time>2026-04-07T16:18:21.999Z</time></trkpt><trkpt lat="44.49220198746124" lon="7.882028096263104"><ele>355.0</ele><time>2026-04-07T16:18:22.999Z</time></trkpt><trkpt lat="44.49232697250366" lon="7.882100926002998"><ele>355.0</ele><time>2026-04-07T16:18:23.999Z</time></trkpt><trkpt lat="44.492453425703005" lon="7.88217041264419"><ele>355.0</ele><time>2026-04-07T16:18:24.999Z</time></trkpt><trkpt lat="44.49258130641626" lon="7.882236887792166"><ele>355.0</ele><time>2026-04-07T16:18:25.999Z</time></trkpt><trkpt lat="44.492699232777525" lon="7.882299828802381"><ele>355.0</ele><time>2026-04-07T16:18:26.999Z</time></trkpt><trkpt lat="44.49280377766924" lon="7.882358976157718"><ele>355.0</ele><time>2026-04-07T16:18:27.999Z</time></trkpt><trkpt lat="44.49291291667569" lon="7.882425678918114"><ele>355.0</ele><time>2026-04-07T16:18:28.999Z</time></trkpt><trkpt lat="44.4930309614134" lon="7.882489853434358"><ele>355.0</ele><time>2026-04-07T16:18:29.999Z</time></trkpt><trkpt lat="44.49313767765958" lon="7.882546268197562"><ele>355.0</ele><time>2026-04-07T16:18:30.999Z</time></trkpt><trkpt lat="44.49324479513816" lon="7.882605612677832"><ele>355.0</ele><time>2026-04-07T16:18:31.999Z</time></trkpt><trkpt lat="44.49336943294246" lon="7.88266232674483"><ele>355.0</ele><time>2026-04-07T16:18:32.999Z</time></trkpt><trkpt lat="44.49348743814952" lon="7.882722996173359"><ele>355.0</ele><time>2026-04-07T16:18:33.999Z</time></trkpt><trkpt lat="44.49360520013164" lon="7.8827917285987175"><ele>355.0</ele><time>2026-04-07T16:18:34.999Z</time></trkpt><trkpt lat="44.49373092281997" lon="7.882861405795977"><ele>355.0</ele><time>2026-04-07T16:18:35.999Z</time></trkpt><trkpt lat="44.49385412075471" lon="7.882933725979379"><ele>355.0</ele><time>2026-04-07T16:18:36.999Z</time></trkpt><trkpt lat="44.49397541318415" lon="7.883021510740341"><ele>354.5</ele><time>2026-04-07T16:18:37.999Z</time></trkpt><trkpt lat="44.494098700443615" lon="7.883115649522333"><ele>354.0</ele><time>2026-04-07T16:18:38.999Z</time></trkpt><trkpt lat="44.494213298983745" lon="7.8832146043214815"><ele>353.5</ele><time>2026-04-07T16:18:39.999Z</time></trkpt><trkpt lat="44.49432984341868" lon="7.88331633922189"><ele>353.0</ele><time>2026-04-07T16:18:40.999Z</time></trkpt><trkpt lat="44.49445550489125" lon="7.883421361033203"><ele>353.0</ele><time>2026-04-07T16:18:41.999Z</time></trkpt><trkpt lat="44.49457076551355" lon="7.8835311609807475"><ele>353.0</ele><time>2026-04-07T16:18:42.999Z</time></trkpt><trkpt lat="44.49469403466523" lon="7.883633053139056"><ele>353.0</ele><time>2026-04-07T16:18:43.999Z</time></trkpt><trkpt lat="44.4948137940504" lon="7.883741559160773"><ele>353.0</ele><time>2026-04-07T16:18:44.999Z</time></trkpt><trkpt lat="44.49492457551831" lon="7.883866369506457"><ele>353.0</ele><time>2026-04-07T16:18:45.999Z</time></trkpt><trkpt lat="44.49505274145491" lon="7.883975110757026"><ele>353.0</ele><time>2026-04-07T16:18:46.999Z</time></trkpt><trkpt lat="44.495181607135315" lon="7.884077370676037"><ele>353.0</ele><time>2026-04-07T16:18:47.999Z</time></trkpt><trkpt lat="44.4953110147827" lon="7.884164689483438"><ele>353.0</ele><time>2026-04-07T16:18:48.999Z</time></trkpt><trkpt lat="44.495453887024276" lon="7.884220993805705"><ele>352.75</ele><time>2026-04-07T16:18:49.999Z</time></trkpt><trkpt lat="44.49558583569482" lon="7.8843052332678045"><ele>352.5</ele><time>2026-04-07T16:18:50.999Z</time></trkpt><trkpt lat="44.495732306306074" lon="7.8843562014469635"><ele>352.25</ele><time>2026-04-07T16:18:51.999Z</time></trkpt><trkpt lat="44.495876449242914" lon="7.884378830535724"><ele>352.0</ele><time>2026-04-07T16:18:52.999Z</time></trkpt><trkpt lat="44.49601464060603" lon="7.884410198001056"><ele>352.0</ele><time>2026-04-07T16:18:53.999Z</time></trkpt><trkpt lat="44.49616018088379" lon="7.884434920722308"><ele>352.0</ele><time>2026-04-07T16:18:54.999Z</time></trkpt><trkpt lat="44.49631292639324" lon="7.884448724470115"><ele>352.0</ele><time>2026-04-07T16:18:55.999Z</time></trkpt><trkpt lat="44.49646604313642" lon="7.884443223503278"><ele>352.0</ele><time>2026-04-07T16:18:56.999Z</time></trkpt><trkpt lat="44.49662596181962" lon="7.884436669597697"><ele>352.0</ele><time>2026-04-07T16:18:57.999Z</time></trkpt><trkpt lat="44.49678055153831" lon="7.884432164960969"><ele>352.0</ele><time>2026-04-07T16:18:58.999Z</time></trkpt><trkpt lat="44.496936514791884" lon="7.884429126696464"><ele>352.25</ele><time>2026-04-07T16:18:59.999Z</time></trkpt><trkpt lat="44.49708924974534" lon="7.884428124930846"><ele>352.5</ele><time>2026-04-07T16:19:00.998Z</time></trkpt><trkpt lat="44.497236005963344" lon="7.884424631922678"><ele>352.75</ele><time>2026-04-07T16:19:01.998Z</time></trkpt><trkpt lat="44.4973853938966" lon="7.884419907837238"><ele>353.0</ele><time>2026-04-07T16:19:03Z</time></trkpt><trkpt lat="44.49753049029753" lon="7.884413034949735"><ele>353.0</ele><time>2026-04-07T16:19:04Z</time></trkpt><trkpt lat="44.49768884824904" lon="7.884409708340681"><ele>353.0</ele><time>2026-04-07T16:19:05Z</time></trkpt><trkpt lat="44.497847117950826" lon="7.884405070843703"><ele>353.0</ele><time>2026-04-07T16:19:06Z</time></trkpt><trkpt lat="44.49799768341068" lon="7.8844076336620335"><ele>352.5</ele><time>2026-04-07T16:19:07Z</time></trkpt><trkpt lat="44.498146506832455" lon="7.884400997296427"><ele>352.0</ele><time>2026-04-07T16:19:08Z</time></trkpt><trkpt lat="44.49829909064827" lon="7.884393790842631"><ele>351.5</ele><time>2026-04-07T16:19:09Z</time></trkpt><trkpt lat="44.498445457172906" lon="7.884387401490471"><ele>351.0</ele><time>2026-04-07T16:19:10Z</time></trkpt><trkpt lat="44.49860307092568" lon="7.884375694375961"><ele>350.6666666666667</ele><time>2026-04-07T16:19:11Z</time></trkpt><trkpt lat="44.49876127691546" lon="7.884361294340681"><ele>350.33333333333337</ele><time>2026-04-07T16:19:12Z</time></trkpt><trkpt lat="44.498914035369175" lon="7.884357283104772"><ele>350.0</ele><time>2026-04-07T16:19:13Z</time></trkpt><trkpt lat="44.499072021886626" lon="7.884347664177606"><ele>350.0</ele><time>2026-04-07T16:19:14Z</time></trkpt><trkpt lat="44.49923046380445" lon="7.8843413871809345"><ele>350.0</ele><time>2026-04-07T16:19:15Z</time></trkpt><trkpt lat="44.49938923312507" lon="7.884332254651322"><ele>350.0</ele><time>2026-04-07T16:19:16Z</time></trkpt><trkpt lat="44.49954503459977" lon="7.884321783842484"><ele>350.33333333333337</ele><time>2026-04-07T16:19:17Z</time></trkpt><trkpt lat="44.49970404723423" lon="7.884321637508994"><ele>350.6666666666667</ele><time>2026-04-07T16:19:18Z</time></trkpt><trkpt lat="44.49986404071052" lon="7.88430638373723"><ele>351.0</ele><time>2026-04-07T16:19:19Z</time></trkpt><trkpt lat="44.50002515890048" lon="7.884302349650824"><ele>351.0</ele><time>2026-04-07T16:19:20Z</time></trkpt><trkpt lat="44.5001822158658" lon="7.884295512311241"><ele>351.0</ele><time>2026-04-07T16:19:21Z</time></trkpt><trkpt lat="44.5003533569011" lon="7.8842858147412"><ele>351.0</ele><time>2026-04-07T16:19:22Z</time></trkpt><trkpt lat="44.50051836420057" lon="7.884276487799903"><ele>350.6666666666667</ele><time>2026-04-07T16:19:23Z</time></trkpt><trkpt lat="44.50068073469557" lon="7.884267770488144"><ele>350.33333333333337</ele><time>2026-04-07T16:19:24Z</time></trkpt><trkpt lat="44.50084071751281" lon="7.884254096058593"><ele>350.0</ele><time>2026-04-07T16:19:25Z</time></trkpt><trkpt lat="44.50100437336029" lon="7.884239733094781"><ele>350.0</ele><time>2026-04-07T16:19:26Z</time></trkpt><trkpt lat="44.50117227702959" lon="7.88422201140656"><ele>350.0</ele><time>2026-04-07T16:19:27Z</time></trkpt><trkpt lat="44.50133050799048" lon="7.884204801130128"><ele>350.0</ele><time>2026-04-07T16:19:28Z</time></trkpt><trkpt lat="44.5014915885093" lon="7.884207243835256"><ele>350.0</ele><time>2026-04-07T16:19:29Z</time></trkpt><trkpt lat="44.50164560386287" lon="7.884168591458725"><ele>350.0</ele><time>2026-04-07T16:19:30Z</time></trkpt><trkpt lat="44.501804666271816" lon="7.884147758356733"><ele>350.0</ele><time>2026-04-07T16:19:31Z</time></trkpt><trkpt lat="44.50196964369392" lon="7.88411900255604"><ele>350.0</ele><time>2026-04-07T16:19:32Z</time></trkpt><trkpt lat="44.50214109614248" lon="7.884093473656254"><ele>350.0</ele><time>2026-04-07T16:19:33Z</time></trkpt><trkpt lat="44.502308813272734" lon="7.88405994593694"><ele>350.0</ele><time>2026-04-07T16:19:34Z</time></trkpt><trkpt lat="44.50247481301971" lon="7.884020738791758"><ele>350.0</ele><time>2026-04-07T16:19:35Z</time></trkpt><trkpt lat="44.502638816590164" lon="7.883985352330965"><ele>350.0</ele><time>2026-04-07T16:19:36Z</time></trkpt><trkpt lat="44.502802596991685" lon="7.883950208474011"><ele>350.0</ele><time>2026-04-07T16:19:37Z</time></trkpt><trkpt lat="44.502969230267816" lon="7.883924143876267"><ele>350.33333333333337</ele><time>2026-04-07T16:19:38Z</time></trkpt><trkpt lat="44.503131306880675" lon="7.883892111996282"><ele>350.6666666666667</ele><time>2026-04-07T16:19:39Z</time></trkpt><trkpt lat="44.50329114898899" lon="7.883878690165303"><ele>351.0</ele><time>2026-04-07T16:19:40Z</time></trkpt><trkpt lat="44.503435771272486" lon="7.883871669851719"><ele>351.0</ele><time>2026-04-07T16:19:41Z</time></trkpt><trkpt lat="44.503597676493406" lon="7.8838630063854795"><ele>351.0</ele><time>2026-04-07T16:19:42Z</time></trkpt><trkpt lat="44.503751711266816" lon="7.883887703324581"><ele>351.0</ele><time>2026-04-07T16:19:43Z</time></trkpt><trkpt lat="44.50390575160268" lon="7.883901610613629"><ele>351.3333333333333</ele><time>2026-04-07T16:19:44Z</time></trkpt><trkpt lat="44.50405147391264" lon="7.883913963162412"><ele>351.66666666666663</ele><time>2026-04-07T16:19:45Z</time></trkpt><trkpt lat="44.50421058247856" lon="7.883901459315988"><ele>352.0</ele><time>2026-04-07T16:19:46Z</time></trkpt><trkpt lat="44.50435814670268" lon="7.883919757586075"><ele>352.0</ele><time>2026-04-07T16:19:47Z</time></trkpt><trkpt lat="44.50450505072351" lon="7.8839309393816785"><ele>352.0</ele><time>2026-04-07T16:19:48Z</time></trkpt><trkpt lat="44.504645897434855" lon="7.883952463906969"><ele>352.0</ele><time>2026-04-07T16:19:49Z</time></trkpt><trkpt lat="44.50478469147171" lon="7.883979979451347"><ele>352.0</ele><time>2026-04-07T16:19:50Z</time></trkpt><trkpt lat="44.50491105127454" lon="7.884029806762401"><ele>351.25</ele><time>2026-04-07T16:19:51Z</time></trkpt><trkpt lat="44.505007756751255" lon="7.884058505346626"><ele>350.5</ele><time>2026-04-07T16:19:52Z</time></trkpt><trkpt lat="44.50513748886233" lon="7.884083891336833"><ele>349.75</ele><time>2026-04-07T16:19:53Z</time></trkpt><trkpt lat="44.50529236879906" lon="7.884092563779808"><ele>349.0</ele><time>2026-04-07T16:19:54Z</time></trkpt><trkpt lat="44.50543853456289" lon="7.884085414033349"><ele>349.0</ele><time>2026-04-07T16:19:54.999Z</time></trkpt><trkpt lat="44.50558498740842" lon="7.884062965328988"><ele>349.0</ele><time>2026-04-07T16:19:55.999Z</time></trkpt><trkpt lat="44.50573026129108" lon="7.884010050821226"><ele>349.0</ele><time>2026-04-07T16:19:56.999Z</time></trkpt><trkpt lat="44.505871538473905" lon="7.883982025243325"><ele>349.0</ele><time>2026-04-07T16:19:57.999Z</time></trkpt><trkpt lat="44.5060161525295" lon="7.883953801321227"><ele>349.0</ele><time>2026-04-07T16:19:58.999Z</time></trkpt><trkpt lat="44.50614987938561" lon="7.883924677570219"><ele>349.0</ele><time>2026-04-07T16:19:59.999Z</time></trkpt><trkpt lat="44.50628470696496" lon="7.883918754119752"><ele>349.0</ele><time>2026-04-07T16:20:00.999Z</time></trkpt><trkpt lat="44.50641395054952" lon="7.883887880414451"><ele>349.0</ele><time>2026-04-07T16:20:01.999Z</time></trkpt><trkpt lat="44.50653783179043" lon="7.883857749788677"><ele>349.2</ele><time>2026-04-07T16:20:02.999Z</time></trkpt><trkpt lat="44.50665282231055" lon="7.883830126347745"><ele>349.4</ele><time>2026-04-07T16:20:03.999Z</time></trkpt><trkpt lat="44.50675507240413" lon="7.8838120220824095"><ele>349.6</ele><time>2026-04-07T16:20:04.999Z</time></trkpt><trkpt lat="44.50686144138551" lon="7.883801608663843"><ele>349.8</ele><time>2026-04-07T16:20:05.999Z</time></trkpt><trkpt lat="44.50695418554484" lon="7.883815549861689"><ele>350.0</ele><time>2026-04-07T16:20:06.999Z</time></trkpt><trkpt lat="44.50705670162016" lon="7.883846788170422"><ele>349.8</ele><time>2026-04-07T16:20:07.999Z</time></trkpt><trkpt lat="44.5071573118734" lon="7.883904659309046"><ele>349.6</ele><time>2026-04-07T16:20:08.999Z</time></trkpt><trkpt lat="44.507249804470526" lon="7.8839807127112875"><ele>349.4</ele><time>2026-04-07T16:20:09.999Z</time></trkpt><trkpt lat="44.50731626561595" lon="7.884093621033855"><ele>349.2</ele><time>2026-04-07T16:20:10.999Z</time></trkpt><trkpt lat="44.5073748911896" lon="7.884193905767354"><ele>349.0</ele><time>2026-04-07T16:20:11.999Z</time></trkpt><trkpt lat="44.5074234937716" lon="7.8843133782610915"><ele>348.75</ele><time>2026-04-07T16:20:12.999Z</time></trkpt><trkpt lat="44.507463722556984" lon="7.884466200093756"><ele>348.5</ele><time>2026-04-07T16:20:13.999Z</time></trkpt><trkpt lat="44.50749859874876" lon="7.8846185059938545"><ele>348.25</ele><time>2026-04-07T16:20:14.999Z</time></trkpt><trkpt lat="44.5075654669976" lon="7.884761946454974"><ele>348.0</ele><time>2026-04-07T16:20:15.999Z</time></trkpt><trkpt lat="44.50759791878586" lon="7.88491953757291"><ele>348.0</ele><time>2026-04-07T16:20:16.999Z</time></trkpt><trkpt lat="44.50762731067475" lon="7.885086671263761"><ele>348.0</ele><time>2026-04-07T16:20:17.999Z</time></trkpt><trkpt lat="44.50766195064865" lon="7.885257291654623"><ele>348.0</ele><time>2026-04-07T16:20:18.999Z</time></trkpt><trkpt lat="44.5076893358025" lon="7.885434870163454"><ele>348.0</ele><time>2026-04-07T16:20:19.999Z</time></trkpt><trkpt lat="44.5076978608368" lon="7.88560224659931"><ele>347.75</ele><time>2026-04-07T16:20:20.999Z</time></trkpt><trkpt lat="44.50773710735755" lon="7.885768488148653"><ele>347.5</ele><time>2026-04-07T16:20:21.999Z</time></trkpt><trkpt lat="44.50774794242422" lon="7.885921783543523"><ele>347.25</ele><time>2026-04-07T16:20:22.999Z</time></trkpt><trkpt lat="44.50774734089626" lon="7.8860955973622975"><ele>347.0</ele><time>2026-04-07T16:20:23.999Z</time></trkpt><trkpt lat="44.50773619553375" lon="7.88626849775081"><ele>347.0</ele><time>2026-04-07T16:20:24.999Z</time></trkpt><trkpt lat="44.507708730508014" lon="7.8864317862873055"><ele>347.0</ele><time>2026-04-07T16:20:25.999Z</time></trkpt><trkpt lat="44.50770569113051" lon="7.886608251608971"><ele>347.0</ele><time>2026-04-07T16:20:26.999Z</time></trkpt><trkpt lat="44.5077154135834" lon="7.886758409202539"><ele>347.0</ele><time>2026-04-07T16:20:27.999Z</time></trkpt><trkpt lat="44.507710255173315" lon="7.886903538649684"><ele>345.40000000000003</ele><time>2026-04-07T16:20:28.999Z</time></trkpt><trkpt lat="44.50768455306281" lon="7.887039452587008"><ele>343.8</ele><time>2026-04-07T16:20:29.999Z</time></trkpt><trkpt lat="44.50768084214628" lon="7.887178975969252"><ele>342.2</ele><time>2026-04-07T16:20:30.999Z</time></trkpt><trkpt lat="44.50767619262236" lon="7.88733280039263"><ele>340.6</ele><time>2026-04-07T16:20:31.999Z</time></trkpt><trkpt lat="44.50767350903089" lon="7.887471228507547"><ele>339.0</ele><time>2026-04-07T16:20:32.999Z</time></trkpt><trkpt lat="44.50766947765774" lon="7.8876043481396705"><ele>338.2</ele><time>2026-04-07T16:20:33.999Z</time></trkpt><trkpt lat="44.50767141281139" lon="7.887741548390052"><ele>337.4</ele><time>2026-04-07T16:20:34.999Z</time></trkpt><trkpt lat="44.50768291792188" lon="7.887879046360932"><ele>336.6</ele><time>2026-04-07T16:20:35.999Z</time></trkpt><trkpt lat="44.5077083194712" lon="7.888011608144486"><ele>335.8</ele><time>2026-04-07T16:20:36.999Z</time></trkpt><trkpt lat="44.507742642451795" lon="7.888133040703964"><ele>335.0</ele><time>2026-04-07T16:20:37.999Z</time></trkpt><trkpt lat="44.507785128090134" lon="7.888245755476744"><ele>335.0</ele><time>2026-04-07T16:20:38.999Z</time></trkpt><trkpt lat="44.50786531949261" lon="7.888334383566377"><ele>335.0</ele><time>2026-04-07T16:20:39.999Z</time></trkpt><trkpt lat="44.507927661220116" lon="7.888442093316533"><ele>335.0</ele><time>2026-04-07T16:20:40.999Z</time></trkpt><trkpt lat="44.508019446514155" lon="7.888531329623677"><ele>335.0</ele><time>2026-04-07T16:20:41.999Z</time></trkpt><trkpt lat="44.50811997906309" lon="7.888590275464584"><ele>335.0</ele><time>2026-04-07T16:20:42.999Z</time></trkpt><trkpt lat="44.50822218372032" lon="7.8886342390373025"><ele>335.0</ele><time>2026-04-07T16:20:43.999Z</time></trkpt><trkpt lat="44.508332428961396" lon="7.888673757063122"><ele>335.0</ele><time>2026-04-07T16:20:44.999Z</time></trkpt><trkpt lat="44.508436301463846" lon="7.888709971352979"><ele>335.0</ele><time>2026-04-07T16:20:45.999Z</time></trkpt><trkpt lat="44.50853930948406" lon="7.888720675502281"><ele>335.0</ele><time>2026-04-07T16:20:46.999Z</time></trkpt><trkpt lat="44.50863747490546" lon="7.888756194361803"><ele>335.0</ele><time>2026-04-07T16:20:47.999Z</time></trkpt><trkpt lat="44.50872837880014" lon="7.88880448183378"><ele>336.4</ele><time>2026-04-07T16:20:48.999Z</time></trkpt><trkpt lat="44.5088305968616" lon="7.888844662342909"><ele>337.8</ele><time>2026-04-07T16:20:49.999Z</time></trkpt><trkpt lat="44.50893312833409" lon="7.88889358134167"><ele>339.20000000000005</ele><time>2026-04-07T16:20:50.999Z</time></trkpt><trkpt lat="44.50904544220735" lon="7.888945947867051"><ele>340.6</ele><time>2026-04-07T16:20:51.999Z</time></trkpt><trkpt lat="44.50914174355096" lon="7.888994534860172"><ele>342.0</ele><time>2026-04-07T16:20:52.999Z</time></trkpt><trkpt lat="44.50923267213623" lon="7.889045899561648"><ele>342.0</ele><time>2026-04-07T16:20:53.999Z</time></trkpt><trkpt lat="44.509323211972294" lon="7.889103660960353"><ele>342.0</ele><time>2026-04-07T16:20:54.999Z</time></trkpt><trkpt lat="44.50939928283332" lon="7.889148723430236"><ele>342.0</ele><time>2026-04-07T16:20:55.999Z</time></trkpt><trkpt lat="44.50949005876599" lon="7.889203736773434"><ele>342.0</ele><time>2026-04-07T16:20:56.999Z</time></trkpt><trkpt lat="44.50958397350619" lon="7.889265305402902"><ele>342.0</ele><time>2026-04-07T16:20:57.999Z</time></trkpt><trkpt lat="44.50967039734625" lon="7.889340827163425"><ele>341.40000000000003</ele><time>2026-04-07T16:20:58.999Z</time></trkpt><trkpt lat="44.50975409970804" lon="7.889400690134079"><ele>340.8</ele><time>2026-04-07T16:20:59.999Z</time></trkpt><trkpt lat="44.50984161639838" lon="7.889487782335736"><ele>340.2</ele><time>2026-04-07T16:21:00.999Z</time></trkpt><trkpt lat="44.50992795175759" lon="7.8895604378976785"><ele>339.6</ele><time>2026-04-07T16:21:01.999Z</time></trkpt><trkpt lat="44.5100066572827" lon="7.889638871856027"><ele>339.0</ele><time>2026-04-07T16:21:02.999Z</time></trkpt><trkpt lat="44.51009156884482" lon="7.889699488755516"><ele>339.0</ele><time>2026-04-07T16:21:03.999Z</time></trkpt><trkpt lat="44.51017305443329" lon="7.889770102204819"><ele>339.0</ele><time>2026-04-07T16:21:04.998Z</time></trkpt><trkpt lat="44.51025185060432" lon="7.889832697646303"><ele>339.0</ele><time>2026-04-07T16:21:05.998Z</time></trkpt><trkpt lat="44.51033197635761" lon="7.889899475565436"><ele>339.0</ele><time>2026-04-07T16:21:06.998Z</time></trkpt><trkpt lat="44.51040795530732" lon="7.889958630012124"><ele>339.0</ele><time>2026-04-07T16:21:07.998Z</time></trkpt><trkpt lat="44.510475406746345" lon="7.890013790002736"><ele>339.0</ele><time>2026-04-07T16:21:09Z</time></trkpt><trkpt lat="44.510536677105264" lon="7.8900647402151725"><ele>338.5</ele><time>2026-04-07T16:21:10Z</time></trkpt><trkpt lat="44.51059393962912" lon="7.890106485628281"><ele>338.0</ele><time>2026-04-07T16:21:11Z</time></trkpt><trkpt lat="44.51065215726963" lon="7.890152801449766"><ele>337.5</ele><time>2026-04-07T16:21:12Z</time></trkpt><trkpt lat="44.510708857434096" lon="7.890211491984132"><ele>337.0</ele><time>2026-04-07T16:21:13Z</time></trkpt><trkpt lat="44.5108176276593" lon="7.890310129026772"><ele>336.5</ele><time>2026-04-07T16:21:15Z</time></trkpt><trkpt lat="44.510876381444895" lon="7.890361298135335"><ele>336.0</ele><time>2026-04-07T16:21:16Z</time></trkpt><trkpt lat="44.510935214711736" lon="7.890413888053321"><ele>336.0</ele><time>2026-04-07T16:21:17Z</time></trkpt><trkpt lat="44.51100102864618" lon="7.890462350653966"><ele>336.0</ele><time>2026-04-07T16:21:18Z</time></trkpt><trkpt lat="44.51106114964112" lon="7.890515466207143"><ele>336.0</ele><time>2026-04-07T16:21:19Z</time></trkpt><trkpt lat="44.511124934412486" lon="7.890576473826491"><ele>336.0</ele><time>2026-04-07T16:21:20Z</time></trkpt><trkpt lat="44.51118421237915" lon="7.89064063141589"><ele>336.0</ele><time>2026-04-07T16:21:21Z</time></trkpt><trkpt lat="44.51123708004731" lon="7.890701914327684"><ele>336.0</ele><time>2026-04-07T16:21:22Z</time></trkpt><trkpt lat="44.51128003234521" lon="7.890774109345194"><ele>336.0</ele><time>2026-04-07T16:21:23Z</time></trkpt><trkpt lat="44.51133487606679" lon="7.89084160496692"><ele>336.8333333333333</ele><time>2026-04-07T16:21:24Z</time></trkpt><trkpt lat="44.511389544041926" lon="7.89090457506899"><ele>337.6666666666667</ele><time>2026-04-07T16:21:25Z</time></trkpt><trkpt lat="44.51144890256187" lon="7.890959442461548"><ele>338.5</ele><time>2026-04-07T16:21:26Z</time></trkpt><trkpt lat="44.5115115743708" lon="7.891010343732668"><ele>339.33333333333337</ele><time>2026-04-07T16:21:27Z</time></trkpt><trkpt lat="44.51158317884744" lon="7.891048226529284"><ele>340.1666666666667</ele><time>2026-04-07T16:21:28Z</time></trkpt><trkpt lat="44.51165856635805" lon="7.891090116753458"><ele>341.0</ele><time>2026-04-07T16:21:29Z</time></trkpt><trkpt lat="44.5117385918597" lon="7.89111196117232"><ele>338.8</ele><time>2026-04-07T16:21:30Z</time></trkpt><trkpt lat="44.51181471043748" lon="7.891129120353022"><ele>336.6</ele><time>2026-04-07T16:21:31Z</time></trkpt><trkpt lat="44.511889234226096" lon="7.891128440405988"><ele>334.4</ele><time>2026-04-07T16:21:32Z</time></trkpt><trkpt lat="44.51197129472801" lon="7.891118906352439"><ele>332.2</ele><time>2026-04-07T16:21:33Z</time></trkpt><trkpt lat="44.51212183141721" lon="7.891092622573523"><ele>330.0</ele><time>2026-04-07T16:21:35Z</time></trkpt><trkpt lat="44.512196842136056" lon="7.891085577381392"><ele>330.0</ele><time>2026-04-07T16:21:36Z</time></trkpt><trkpt lat="44.51226902497632" lon="7.891080422906777"><ele>330.0</ele><time>2026-04-07T16:21:37Z</time></trkpt><trkpt lat="44.51232869921449" lon="7.8910516207099946"><ele>330.0</ele><time>2026-04-07T16:21:38Z</time></trkpt><trkpt lat="44.512413188789445" lon="7.891049927907412"><ele>330.0</ele><time>2026-04-07T16:21:39Z</time></trkpt><trkpt lat="44.51249528588114" lon="7.8910491945303844"><ele>330.0</ele><time>2026-04-07T16:21:40Z</time></trkpt><trkpt lat="44.51257181864136" lon="7.891070854516972"><ele>330.0</ele><time>2026-04-07T16:21:41Z</time></trkpt><trkpt lat="44.51263914416221" lon="7.891109375747385"><ele>330.0</ele><time>2026-04-07T16:21:42Z</time></trkpt><trkpt lat="44.51270383369564" lon="7.891148468473721"><ele>330.0</ele><time>2026-04-07T16:21:43Z</time></trkpt><trkpt lat="44.51276906521725" lon="7.891195173219833"><ele>330.0</ele><time>2026-04-07T16:21:44Z</time></trkpt><trkpt lat="44.51285589916556" lon="7.8912413637650465"><ele>330.0</ele><time>2026-04-07T16:21:45Z</time></trkpt><trkpt lat="44.51292464299443" lon="7.8913094940630115"><ele>330.0</ele><time>2026-04-07T16:21:46Z</time></trkpt><trkpt lat="44.51297967702592" lon="7.891377089101252"><ele>330.0</ele><time>2026-04-07T16:21:47Z</time></trkpt><trkpt lat="44.51303157111259" lon="7.891427169196114"><ele>329.8333333333333</ele><time>2026-04-07T16:21:48Z</time></trkpt><trkpt lat="44.51309154005448" lon="7.891469817791953"><ele>329.6666666666667</ele><time>2026-04-07T16:21:49Z</time></trkpt><trkpt lat="44.513184118647196" lon="7.891561456067162"><ele>329.5</ele><time>2026-04-07T16:21:51Z</time></trkpt><trkpt lat="44.51323662252653" lon="7.891623075056046"><ele>329.33333333333337</ele><time>2026-04-07T16:21:52Z</time></trkpt><trkpt lat="44.51330492129856" lon="7.891676596902296"><ele>329.1666666666667</ele><time>2026-04-07T16:21:53Z</time></trkpt><trkpt lat="44.51336812954113" lon="7.891745052219112"><ele>329.0</ele><time>2026-04-07T16:21:54Z</time></trkpt><trkpt lat="44.51342791884051" lon="7.891802883981067"><ele>329.0</ele><time>2026-04-07T16:21:55Z</time></trkpt><trkpt lat="44.51348911819881" lon="7.891855252557674"><ele>329.0</ele><time>2026-04-07T16:21:56Z</time></trkpt><trkpt lat="44.513555416641054" lon="7.891912024767699"><ele>329.0</ele><time>2026-04-07T16:21:57Z</time></trkpt><trkpt lat="44.51362070042327" lon="7.891976002402226"><ele>329.0</ele><time>2026-04-07T16:21:59Z</time></trkpt><trkpt lat="44.513714207423085" lon="7.892058010523788"><ele>329.0</ele><time>2026-04-07T16:22:00.999Z</time></trkpt><trkpt lat="44.513778618156024" lon="7.892112518792431"><ele>329.0</ele><time>2026-04-07T16:22:01.999Z</time></trkpt><trkpt lat="44.51383952464867" lon="7.892181068628281"><ele>329.0</ele><time>2026-04-07T16:22:02.999Z</time></trkpt><trkpt lat="44.513900104202754" lon="7.892244878680371"><ele>329.0</ele><time>2026-04-07T16:22:03.999Z</time></trkpt><trkpt lat="44.513951295016675" lon="7.892299098830133"><ele>329.0</ele><time>2026-04-07T16:22:04.999Z</time></trkpt><trkpt lat="44.514012384229815" lon="7.892351072870279"><ele>329.0</ele><time>2026-04-07T16:22:05.999Z</time></trkpt><trkpt lat="44.51408028484121" lon="7.892408842112916"><ele>329.0</ele><time>2026-04-07T16:22:06.999Z</time></trkpt><trkpt lat="44.51416342735959" lon="7.892457768007013"><ele>329.0</ele><time>2026-04-07T16:22:07.999Z</time></trkpt><trkpt lat="44.51423779581982" lon="7.892524043348328"><ele>329.0</ele><time>2026-04-07T16:22:08.999Z</time></trkpt><trkpt lat="44.51431124280014" lon="7.892565661866767"><ele>329.0</ele><time>2026-04-07T16:22:09.999Z</time></trkpt><trkpt lat="44.514419102359945" lon="7.89264316862625"><ele>329.0</ele><time>2026-04-07T16:22:11.999Z</time></trkpt><trkpt lat="44.51453784816635" lon="7.892729299234269"><ele>329.0</ele><time>2026-04-07T16:22:13.999Z</time></trkpt><trkpt lat="44.51459926157208" lon="7.892765554006917"><ele>329.0</ele><time>2026-04-07T16:22:14.999Z</time></trkpt><trkpt lat="44.51466478006891" lon="7.892740092082129"><ele>328.6</ele><time>2026-04-07T16:22:15.999Z</time></trkpt><trkpt lat="44.51476484379588" lon="7.8927328208741825"><ele>328.2</ele><time>2026-04-07T16:22:16.999Z</time></trkpt><trkpt lat="44.514825405554426" lon="7.892685810253118"><ele>327.8</ele><time>2026-04-07T16:22:17.999Z</time></trkpt><trkpt lat="44.51489586771417" lon="7.892652693612689"><ele>327.40000000000003</ele><time>2026-04-07T16:22:18.999Z</time></trkpt><trkpt lat="44.51501002553901" lon="7.89255802717522"><ele>327.0</ele><time>2026-04-07T16:22:20.999Z</time></trkpt><trkpt lat="44.51512549549202" lon="7.892405806499544"><ele>327.0</ele><time>2026-04-07T16:22:22.999Z</time></trkpt><trkpt lat="44.51523284248655" lon="7.892278687920073"><ele>327.0</ele><time>2026-04-07T16:22:24.999Z</time></trkpt><trkpt lat="44.515300573123326" lon="7.892231314662967"><ele>327.0</ele><time>2026-04-07T16:22:25.999Z</time></trkpt><trkpt lat="44.51536942241058" lon="7.892177960357818"><ele>327.0</ele><time>2026-04-07T16:22:26.999Z</time></trkpt><trkpt lat="44.515461118884744" lon="7.892114652772838"><ele>327.0</ele><time>2026-04-07T16:22:28.999Z</time></trkpt><trkpt lat="44.51568257869236" lon="7.892095094919736"><ele>327.0</ele><time>2026-04-07T16:22:31.999Z</time></trkpt><trkpt lat="44.515754512391936" lon="7.892108014223302"><ele>327.0</ele><time>2026-04-07T16:22:32.999Z</time></trkpt><trkpt lat="44.51587888409394" lon="7.892131643365012"><ele>327.0</ele><time>2026-04-07T16:22:34.999Z</time></trkpt><trkpt lat="44.51599342334351" lon="7.892162082720949"><ele>327.0</ele><time>2026-04-07T16:22:36.999Z</time></trkpt><trkpt lat="44.516084878936844" lon="7.892154366427284"><ele>327.0</ele><time>2026-04-07T16:22:38.999Z</time></trkpt><trkpt lat="44.516206615621314" lon="7.892138778371958"><ele>327.6</ele><time>2026-04-07T16:22:40.999Z</time></trkpt><trkpt lat="44.51632645559724" lon="7.892121057786975"><ele>328.20000000000005</ele><time>2026-04-07T16:22:42.999Z</time></trkpt><trkpt lat="44.5163917385197" lon="7.892113101617858"><ele>328.8</ele><time>2026-04-07T16:22:43.999Z</time></trkpt><trkpt lat="44.51645649105057" lon="7.89210874631702"><ele>329.4</ele><time>2026-04-07T16:22:44.999Z</time></trkpt><trkpt lat="44.51652170049911" lon="7.892097031724655"><ele>330.0</ele><time>2026-04-07T16:22:45.999Z</time></trkpt><trkpt lat="44.51666975283438" lon="7.892086847129091"><ele>330.0</ele><time>2026-04-07T16:22:47.999Z</time></trkpt><trkpt lat="44.51674758918543" lon="7.892067740706366"><ele>330.0</ele><time>2026-04-07T16:22:48.999Z</time></trkpt><trkpt lat="44.51686898330724" lon="7.89209745843915"><ele>330.0</ele><time>2026-04-07T16:22:50.999Z</time></trkpt><trkpt lat="44.51698161877614" lon="7.892115294710808"><ele>330.0</ele><time>2026-04-07T16:22:52.999Z</time></trkpt><trkpt lat="44.51718354122752" lon="7.892151481503818"><ele>329.2</ele><time>2026-04-07T16:22:54.999Z</time></trkpt><trkpt lat="44.517269527498364" lon="7.892170537606405"><ele>328.4</ele><time>2026-04-07T16:22:58.999Z</time></trkpt><trkpt lat="44.51733534714522" lon="7.8921799574051015"><ele>327.6</ele><time>2026-04-07T16:22:59.999Z</time></trkpt><trkpt lat="44.517435444997815" lon="7.892187646086323"><ele>326.8</ele><time>2026-04-07T16:23:00.999Z</time></trkpt><trkpt lat="44.517560154725125" lon="7.892196211526692"><ele>326.0</ele><time>2026-04-07T16:23:02.999Z</time></trkpt><trkpt lat="44.51763385767835" lon="7.892224459483841"><ele>326.0</ele><time>2026-04-07T16:23:04.999Z</time></trkpt><trkpt lat="44.517692142091576" lon="7.8922836372315395"><ele>326.0</ele><time>2026-04-07T16:23:05.999Z</time></trkpt><trkpt lat="44.51772415335381" lon="7.892377406329781"><ele>326.0</ele><time>2026-04-07T16:23:07.999Z</time></trkpt><trkpt lat="44.51775134841094" lon="7.892477320222275"><ele>326.0</ele><time>2026-04-07T16:23:08.999Z</time></trkpt><trkpt lat="44.51778444195962" lon="7.892636987164833"><ele>326.0</ele><time>2026-04-07T16:23:10.998Z</time></trkpt><trkpt lat="44.517798174482785" lon="7.8928011780055884"><ele>324.0</ele><time>2026-04-07T16:23:12.998Z</time></trkpt><trkpt lat="44.517768198374675" lon="7.8929405928176"><ele>322.0</ele><time>2026-04-07T16:23:15Z</time></trkpt><trkpt lat="44.51769132617936" lon="7.893066807434979"><ele>320.0</ele><time>2026-04-07T16:23:17Z</time></trkpt><trkpt lat="44.51757679505084" lon="7.893160780605263"><ele>318.0</ele><time>2026-04-07T16:23:19Z</time></trkpt><trkpt lat="44.51750506083286" lon="7.893218987127005"><ele>316.0</ele><time>2026-04-07T16:23:20Z</time></trkpt><trkpt lat="44.51742740424575" lon="7.893274859848799"><ele>316.0</ele><time>2026-04-07T16:23:21Z</time></trkpt><trkpt lat="44.51733797127191" lon="7.893326185638982"><ele>316.0</ele><time>2026-04-07T16:23:22Z</time></trkpt><trkpt lat="44.517255690537986" lon="7.893403148365773"><ele>316.0</ele><time>2026-04-07T16:23:23Z</time></trkpt><trkpt lat="44.51717109491984" lon="7.893473558481209"><ele>316.0</ele><time>2026-04-07T16:23:24Z</time></trkpt><trkpt lat="44.51709908897956" lon="7.893551992853187"><ele>316.0</ele><time>2026-04-07T16:23:25Z</time></trkpt><trkpt lat="44.51702227056722" lon="7.893619995905571"><ele>314.3333333333333</ele><time>2026-04-07T16:23:26Z</time></trkpt><trkpt lat="44.51694936785117" lon="7.893675951834258"><ele>312.66666666666663</ele><time>2026-04-07T16:23:27Z</time></trkpt><trkpt lat="44.51686932910843" lon="7.89374066268775"><ele>311.0</ele><time>2026-04-07T16:23:28Z</time></trkpt><trkpt lat="44.516802563527264" lon="7.893790181350229"><ele>309.3333333333333</ele><time>2026-04-07T16:23:29Z</time></trkpt><trkpt lat="44.516741263449354" lon="7.893851252955119"><ele>307.6666666666667</ele><time>2026-04-07T16:23:30Z</time></trkpt><trkpt lat="44.51666437660733" lon="7.893905931175084"><ele>306.0</ele><time>2026-04-07T16:23:31Z</time></trkpt><trkpt lat="44.516598994141354" lon="7.893970102834571"><ele>306.0</ele><time>2026-04-07T16:23:32Z</time></trkpt><trkpt lat="44.51653009196789" lon="7.894015802862703"><ele>306.0</ele><time>2026-04-07T16:23:33Z</time></trkpt><trkpt lat="44.51646442715619" lon="7.8940535598932176"><ele>306.0</ele><time>2026-04-07T16:23:34Z</time></trkpt><trkpt lat="44.516404862566155" lon="7.894094322942254"><ele>306.0</ele><time>2026-04-07T16:23:35Z</time></trkpt><trkpt lat="44.51634143041659" lon="7.894122103559856"><ele>306.0</ele><time>2026-04-07T16:23:36Z</time></trkpt><trkpt lat="44.51626583931875" lon="7.894165431358217"><ele>306.0</ele><time>2026-04-07T16:23:38Z</time></trkpt><trkpt lat="44.51626012522207" lon="7.894275515222654"><ele>306.0</ele><time>2026-04-07T16:23:41Z</time></trkpt><trkpt lat="44.5163308720434" lon="7.894355345806459"><ele>306.0</ele><time>2026-04-07T16:23:43Z</time></trkpt><trkpt lat="44.51639580972907" lon="7.894313000353484"><ele>306.0</ele><time>2026-04-07T16:23:44Z</time></trkpt><trkpt lat="44.516487899964126" lon="7.894289739174459"><ele>306.0</ele><time>2026-04-07T16:23:45Z</time></trkpt><trkpt lat="44.51656757070511" lon="7.894262847588823"><ele>306.0</ele><time>2026-04-07T16:23:46Z</time></trkpt><trkpt lat="44.51664640937359" lon="7.894258960358376"><ele>306.0</ele><time>2026-04-07T16:23:47Z</time></trkpt><trkpt lat="44.51679422934326" lon="7.894212656940055"><ele>306.0</ele><time>2026-04-07T16:23:48Z</time></trkpt><trkpt lat="44.516921421147714" lon="7.894201615465909"><ele>306.0</ele><time>2026-04-07T16:23:49Z</time></trkpt><trkpt lat="44.51705268708879" lon="7.8941792720960535"><ele>306.0</ele><time>2026-04-07T16:23:50Z</time></trkpt><trkpt lat="44.51718209768935" lon="7.8941459312178806"><ele>306.0</ele><time>2026-04-07T16:23:51Z</time></trkpt><trkpt lat="44.51732591231177" lon="7.894122707198603"><ele>303.0</ele><time>2026-04-07T16:23:52Z</time></trkpt><trkpt lat="44.51746874472464" lon="7.894088328045537"><ele>300.0</ele><time>2026-04-07T16:23:53Z</time></trkpt><trkpt lat="44.51763248720806" lon="7.894055806420454"><ele>297.0</ele><time>2026-04-07T16:23:54Z</time></trkpt><trkpt lat="44.517784172158166" lon="7.894025980010638"><ele>295.25</ele><time>2026-04-07T16:23:55Z</time></trkpt><trkpt lat="44.5179248625732" lon="7.893995120700573"><ele>293.5</ele><time>2026-04-07T16:23:56Z</time></trkpt><trkpt lat="44.51805045148633" lon="7.893949872914579"><ele>291.75</ele><time>2026-04-07T16:23:57Z</time></trkpt><trkpt lat="44.51818379767793" lon="7.893925404798528"><ele>290.0</ele><time>2026-04-07T16:23:58Z</time></trkpt><trkpt lat="44.51832514094962" lon="7.893912537582788"><ele>290.0</ele><time>2026-04-07T16:23:59Z</time></trkpt><trkpt lat="44.51844240967501" lon="7.89387591162849"><ele>290.0</ele><time>2026-04-07T16:24:00Z</time></trkpt><trkpt lat="44.51857203928977" lon="7.893847353270828"><ele>290.0</ele><time>2026-04-07T16:24:01Z</time></trkpt><trkpt lat="44.51869980533661" lon="7.893818186119297"><ele>290.0</ele><time>2026-04-07T16:24:02Z</time></trkpt><trkpt lat="44.51882038121629" lon="7.89379120582953"><ele>287.75</ele><time>2026-04-07T16:24:03Z</time></trkpt><trkpt lat="44.5189428368787" lon="7.893766479971365"><ele>285.5</ele><time>2026-04-07T16:24:04Z</time></trkpt><trkpt lat="44.51906007771804" lon="7.893744875865798"><ele>283.25</ele><time>2026-04-07T16:24:05Z</time></trkpt><trkpt lat="44.519169969960515" lon="7.893723507725714"><ele>281.0</ele><time>2026-04-07T16:24:05.999Z</time></trkpt><trkpt lat="44.51927768430465" lon="7.893696648274504"><ele>281.0</ele><time>2026-04-07T16:24:06.999Z</time></trkpt><trkpt lat="44.51939577632609" lon="7.8936883436757475"><ele>281.0</ele><time>2026-04-07T16:24:07.999Z</time></trkpt><trkpt lat="44.51950635581483" lon="7.893668440967998"><ele>281.0</ele><time>2026-04-07T16:24:08.999Z</time></trkpt><trkpt lat="44.519610043043244" lon="7.893651020910519"><ele>281.0</ele><time>2026-04-07T16:24:09.999Z</time></trkpt><trkpt lat="44.519716148449206" lon="7.893632895328333"><ele>281.0</ele><time>2026-04-07T16:24:10.999Z</time></trkpt><trkpt lat="44.51984655559407" lon="7.893628467273745"><ele>281.0</ele><time>2026-04-07T16:24:11.999Z</time></trkpt><trkpt lat="44.5199812869438" lon="7.893624663061939"><ele>281.0</ele><time>2026-04-07T16:24:12.999Z</time></trkpt><trkpt lat="44.52009779398876" lon="7.893633134342864"><ele>281.0</ele><time>2026-04-07T16:24:13.999Z</time></trkpt><trkpt lat="44.52021780611826" lon="7.893651661528619"><ele>281.0</ele><time>2026-04-07T16:24:14.999Z</time></trkpt><trkpt lat="44.520325742156494" lon="7.8936831128360065"><ele>280.25</ele><time>2026-04-07T16:24:15.999Z</time></trkpt><trkpt lat="44.520435188140276" lon="7.893715187220087"><ele>279.5</ele><time>2026-04-07T16:24:16.999Z</time></trkpt><trkpt lat="44.520541716286665" lon="7.893765499510851"><ele>278.75</ele><time>2026-04-07T16:24:17.999Z</time></trkpt><trkpt lat="44.5206533495605" lon="7.893812808098697"><ele>278.0</ele><time>2026-04-07T16:24:18.999Z</time></trkpt><trkpt lat="44.520757739994664" lon="7.8938797568880394"><ele>278.0</ele><time>2026-04-07T16:24:19.999Z</time></trkpt><trkpt lat="44.52087049110288" lon="7.8939751573032435"><ele>278.0</ele><time>2026-04-07T16:24:20.999Z</time></trkpt><trkpt lat="44.520957349060744" lon="7.8940760676294595"><ele>278.0</ele><time>2026-04-07T16:24:21.999Z</time></trkpt><trkpt lat="44.52109029233414" lon="7.894197415411014"><ele>278.0</ele><time>2026-04-07T16:24:22.999Z</time></trkpt><trkpt lat="44.52120167842856" lon="7.894297286269354"><ele>276.75</ele><time>2026-04-07T16:24:23.999Z</time></trkpt><trkpt lat="44.5213184757782" lon="7.894402629054034"><ele>275.5</ele><time>2026-04-07T16:24:24.999Z</time></trkpt><trkpt lat="44.52142965547795" lon="7.894506624248083"><ele>274.25</ele><time>2026-04-07T16:24:25.999Z</time></trkpt><trkpt lat="44.52153895202775" lon="7.894598755396941"><ele>273.0</ele><time>2026-04-07T16:24:26.999Z</time></trkpt><trkpt lat="44.52164953137001" lon="7.894711426428034"><ele>273.0</ele><time>2026-04-07T16:24:27.999Z</time></trkpt><trkpt lat="44.521753332528014" lon="7.894828218526203"><ele>273.0</ele><time>2026-04-07T16:24:28.999Z</time></trkpt><trkpt lat="44.521842507238034" lon="7.894948489568929"><ele>273.0</ele><time>2026-04-07T16:24:29.999Z</time></trkpt><trkpt lat="44.52192783106582" lon="7.89508989269561"><ele>273.0</ele><time>2026-04-07T16:24:30.999Z</time></trkpt><trkpt lat="44.52201235774822" lon="7.895238904539925"><ele>270.25</ele><time>2026-04-07T16:24:31.999Z</time></trkpt><trkpt lat="44.522083393760894" lon="7.895394403021925"><ele>267.5</ele><time>2026-04-07T16:24:32.999Z</time></trkpt><trkpt lat="44.52214749297523" lon="7.895551934855701"><ele>264.75</ele><time>2026-04-07T16:24:33.999Z</time></trkpt><trkpt lat="44.522197509021005" lon="7.895719902798958"><ele>262.0</ele><time>2026-04-07T16:24:34.999Z</time></trkpt><trkpt lat="44.522236164208124" lon="7.895882432951012"><ele>260.0</ele><time>2026-04-07T16:24:35.999Z</time></trkpt><trkpt lat="44.522263343402386" lon="7.896047883073902"><ele>258.0</ele><time>2026-04-07T16:24:36.999Z</time></trkpt><trkpt lat="44.52228410387908" lon="7.8962196602824015"><ele>256.0</ele><time>2026-04-07T16:24:37.999Z</time></trkpt><trkpt lat="44.52228717649173" lon="7.896400999197828"><ele>254.0</ele><time>2026-04-07T16:24:38.999Z</time></trkpt><trkpt lat="44.52229683851839" lon="7.8965985982997475"><ele>253.0</ele><time>2026-04-07T16:24:39.999Z</time></trkpt><trkpt lat="44.52231003719948" lon="7.896802910818781"><ele>252.0</ele><time>2026-04-07T16:24:40.999Z</time></trkpt><trkpt lat="44.52230865834006" lon="7.897019806888863"><ele>251.0</ele><time>2026-04-07T16:24:41.999Z</time></trkpt><trkpt lat="44.52230926493576" lon="7.897227365775687"><ele>250.0</ele><time>2026-04-07T16:24:42.999Z</time></trkpt><trkpt lat="44.52231175373484" lon="7.89743570568094"><ele>249.5</ele><time>2026-04-07T16:24:43.999Z</time></trkpt><trkpt lat="44.52231796957999" lon="7.89763980564101"><ele>249.0</ele><time>2026-04-07T16:24:44.999Z</time></trkpt><trkpt lat="44.522319107120985" lon="7.897833754046936"><ele>248.5</ele><time>2026-04-07T16:24:45.999Z</time></trkpt><trkpt lat="44.52231348688471" lon="7.898022466580576"><ele>248.0</ele><time>2026-04-07T16:24:46.999Z</time></trkpt><trkpt lat="44.52231454934492" lon="7.898200840545288"><ele>248.0</ele><time>2026-04-07T16:24:47.999Z</time></trkpt><trkpt lat="44.52231423194309" lon="7.898371564795019"><ele>248.0</ele><time>2026-04-07T16:24:48.999Z</time></trkpt><trkpt lat="44.5223182893008" lon="7.898550565996521"><ele>248.0</ele><time>2026-04-07T16:24:49.999Z</time></trkpt><trkpt lat="44.52231601666677" lon="7.898727395581863"><ele>248.0</ele><time>2026-04-07T16:24:50.999Z</time></trkpt><trkpt lat="44.52231344293648" lon="7.898898388402155"><ele>247.4</ele><time>2026-04-07T16:24:51.999Z</time></trkpt><trkpt lat="44.522312089836596" lon="7.899062829554398"><ele>246.8</ele><time>2026-04-07T16:24:52.999Z</time></trkpt><trkpt lat="44.522309507390986" lon="7.899212450171037"><ele>246.2</ele><time>2026-04-07T16:24:53.999Z</time></trkpt><trkpt lat="44.52230371481817" lon="7.899347563137497"><ele>245.6</ele><time>2026-04-07T16:24:54.999Z</time></trkpt><trkpt lat="44.52229292415975" lon="7.899478277228903"><ele>245.0</ele><time>2026-04-07T16:24:55.999Z</time></trkpt><trkpt lat="44.52227390338487" lon="7.899586632930834"><ele>244.50000000000003</ele><time>2026-04-07T16:24:56.999Z</time></trkpt><trkpt lat="44.52225599920435" lon="7.899701468083935"><ele>244.0</ele><time>2026-04-07T16:24:57.999Z</time></trkpt><trkpt lat="44.52225460665689" lon="7.89979294434582"><ele>243.5</ele><time>2026-04-07T16:24:58.999Z</time></trkpt><trkpt lat="44.52227058430618" lon="7.8999511662322135"><ele>243.0</ele><time>2026-04-07T16:25:00.999Z</time></trkpt><trkpt lat="44.522315170459095" lon="7.9000499686334145"><ele>242.50000000000003</ele><time>2026-04-07T16:25:02.999Z</time></trkpt><trkpt lat="44.52233928920649" lon="7.900173866871584"><ele>242.0</ele><time>2026-04-07T16:25:04.999Z</time></trkpt><trkpt lat="44.52248196426126" lon="7.900171839416002"><ele>242.0</ele><time>2026-04-07T16:25:05.999Z</time></trkpt><trkpt lat="44.522577880804" lon="7.900146001518879"><ele>242.0</ele><time>2026-04-07T16:25:06.999Z</time></trkpt><trkpt lat="44.52268249128847" lon="7.900147366643369"><ele>242.0</ele><time>2026-04-07T16:25:07.999Z</time></trkpt><trkpt lat="44.52279601106399" lon="7.900150022366445"><ele>242.0</ele><time>2026-04-07T16:25:08.999Z</time></trkpt><trkpt lat="44.52290989272806" lon="7.900139823859347"><ele>242.0</ele><time>2026-04-07T16:25:09.999Z</time></trkpt><trkpt lat="44.5230429402216" lon="7.900128854424084"><ele>242.0</ele><time>2026-04-07T16:25:10.999Z</time></trkpt><trkpt lat="44.52317479331747" lon="7.900120961105952"><ele>242.0</ele><time>2026-04-07T16:25:11.999Z</time></trkpt><trkpt lat="44.523307655681386" lon="7.900113161122694"><ele>242.0</ele><time>2026-04-07T16:25:12.998Z</time></trkpt><trkpt lat="44.5234491168822" lon="7.900102801947808"><ele>242.0</ele><time>2026-04-07T16:25:13.998Z</time></trkpt><trkpt lat="44.523581710084564" lon="7.900091955948749"><ele>242.33333333333334</ele><time>2026-04-07T16:25:14.998Z</time></trkpt><trkpt lat="44.52374159875954" lon="7.900079608995837"><ele>242.66666666666669</ele><time>2026-04-07T16:25:15.998Z</time></trkpt><trkpt lat="44.52389983306387" lon="7.9000830889944185"><ele>243.0</ele><time>2026-04-07T16:25:16.998Z</time></trkpt><trkpt lat="44.52406340256266" lon="7.900091051266026"><ele>243.0</ele><time>2026-04-07T16:25:17.998Z</time></trkpt><trkpt lat="44.524218661165165" lon="7.900089329336818"><ele>243.0</ele><time>2026-04-07T16:25:18.998Z</time></trkpt><trkpt lat="44.52437528571126" lon="7.90008660317811"><ele>243.0</ele><time>2026-04-07T16:25:19.998Z</time></trkpt><trkpt lat="44.52452834492628" lon="7.9000744876886"><ele>242.66666666666669</ele><time>2026-04-07T16:25:21Z</time></trkpt><trkpt lat="44.52468020297043" lon="7.900066092503466"><ele>242.33333333333334</ele><time>2026-04-07T16:25:22Z</time></trkpt><trkpt lat="44.52483279721613" lon="7.900061698855085"><ele>242.0</ele><time>2026-04-07T16:25:23Z</time></trkpt><trkpt lat="44.52498611394916" lon="7.900064231992132"><ele>242.0</ele><time>2026-04-07T16:25:24Z</time></trkpt><trkpt lat="44.52513380818645" lon="7.900070673196578"><ele>242.0</ele><time>2026-04-07T16:25:25Z</time></trkpt><trkpt lat="44.52528062224304" lon="7.900069434301176"><ele>242.0</ele><time>2026-04-07T16:25:26Z</time></trkpt><trkpt lat="44.52543727663887" lon="7.900069339679145"><ele>242.66666666666669</ele><time>2026-04-07T16:25:27Z</time></trkpt><trkpt lat="44.52559975064936" lon="7.900076621952088"><ele>243.33333333333331</ele><time>2026-04-07T16:25:28Z</time></trkpt><trkpt lat="44.52575948383893" lon="7.900079487076156"><ele>244.0</ele><time>2026-04-07T16:25:29Z</time></trkpt><trkpt lat="44.52589657796943" lon="7.900074107368009"><ele>244.0</ele><time>2026-04-07T16:25:30Z</time></trkpt><trkpt lat="44.52605356301294" lon="7.900070203025482"><ele>244.0</ele><time>2026-04-07T16:25:31Z</time></trkpt><trkpt lat="44.52620813560913" lon="7.900065053423964"><ele>244.0</ele><time>2026-04-07T16:25:32Z</time></trkpt><trkpt lat="44.526337372554565" lon="7.900060429082669"><ele>244.0</ele><time>2026-04-07T16:25:33Z</time></trkpt><trkpt lat="44.526486191120966" lon="7.9000556804383075"><ele>243.75</ele><time>2026-04-07T16:25:34Z</time></trkpt><trkpt lat="44.526652658962114" lon="7.900061053418878"><ele>243.5</ele><time>2026-04-07T16:25:35Z</time></trkpt><trkpt lat="44.52678984366468" lon="7.900060567222239"><ele>243.25</ele><time>2026-04-07T16:25:36Z</time></trkpt><trkpt lat="44.52693079524476" lon="7.900056890562146"><ele>243.0</ele><time>2026-04-07T16:25:37Z</time></trkpt><trkpt lat="44.52706883223831" lon="7.9000438587524595"><ele>244.5</ele><time>2026-04-07T16:25:38Z</time></trkpt><trkpt lat="44.52721102717487" lon="7.90003491858859"><ele>246.0</ele><time>2026-04-07T16:25:39Z</time></trkpt><trkpt lat="44.5273610378057" lon="7.900033250235233"><ele>247.5</ele><time>2026-04-07T16:25:40Z</time></trkpt><trkpt lat="44.52750885628139" lon="7.900028566389837"><ele>249.0</ele><time>2026-04-07T16:25:41Z</time></trkpt><trkpt lat="44.52763907986299" lon="7.900032930311574"><ele>249.0</ele><time>2026-04-07T16:25:42Z</time></trkpt><trkpt lat="44.527778512320054" lon="7.900032229044419"><ele>249.0</ele><time>2026-04-07T16:25:43Z</time></trkpt><trkpt lat="44.52791364530742" lon="7.900030283915249"><ele>249.0</ele><time>2026-04-07T16:25:44Z</time></trkpt><trkpt lat="44.52805272922567" lon="7.9000342216356865"><ele>249.0</ele><time>2026-04-07T16:25:45Z</time></trkpt><trkpt lat="44.52818895746425" lon="7.900033852870857"><ele>249.0</ele><time>2026-04-07T16:25:46Z</time></trkpt><trkpt lat="44.528327292333046" lon="7.900026436585501"><ele>249.0</ele><time>2026-04-07T16:25:47Z</time></trkpt><trkpt lat="44.52845198784564" lon="7.900029394358841"><ele>249.0</ele><time>2026-04-07T16:25:48Z</time></trkpt><trkpt lat="44.52859384300797" lon="7.900024325108872"><ele>249.0</ele><time>2026-04-07T16:25:49Z</time></trkpt><trkpt lat="44.52873272211666" lon="7.900026505865278"><ele>249.0</ele><time>2026-04-07T16:25:50Z</time></trkpt><trkpt lat="44.52887870062007" lon="7.900027220514238"><ele>249.0</ele><time>2026-04-07T16:25:51Z</time></trkpt><trkpt lat="44.52901219142767" lon="7.900019943649689"><ele>249.0</ele><time>2026-04-07T16:25:52Z</time></trkpt><trkpt lat="44.52915994818333" lon="7.90001772171088"><ele>249.0</ele><time>2026-04-07T16:25:53Z</time></trkpt><trkpt lat="44.529295590926054" lon="7.900009855554234"><ele>249.0</ele><time>2026-04-07T16:25:54Z</time></trkpt><trkpt lat="44.52944564387804" lon="7.900006519056558"><ele>249.0</ele><time>2026-04-07T16:25:55Z</time></trkpt><trkpt lat="44.52957782024418" lon="7.900003446562214"><ele>249.0</ele><time>2026-04-07T16:25:56Z</time></trkpt><trkpt lat="44.529722398256354" lon="7.900000415166239"><ele>249.0</ele><time>2026-04-07T16:25:57Z</time></trkpt><trkpt lat="44.52986957400883" lon="7.899999109219932"><ele>249.66666666666669</ele><time>2026-04-07T16:25:58Z</time></trkpt><trkpt lat="44.530023107330074" lon="7.900000845448126"><ele>250.33333333333334</ele><time>2026-04-07T16:25:59Z</time></trkpt><trkpt lat="44.530173713436916" lon="7.899996740724068"><ele>251.0</ele><time>2026-04-07T16:26:00Z</time></trkpt><trkpt lat="44.53032268336402" lon="7.900000208768933"><ele>251.0</ele><time>2026-04-07T16:26:01Z</time></trkpt><trkpt lat="44.53047149714189" lon="7.8999969790920295"><ele>251.0</ele><time>2026-04-07T16:26:02Z</time></trkpt><trkpt lat="44.530615674852264" lon="7.899990456337807"><ele>251.0</ele><time>2026-04-07T16:26:03Z</time></trkpt><trkpt lat="44.530755737016584" lon="7.899980530097975"><ele>251.0</ele><time>2026-04-07T16:26:04Z</time></trkpt><trkpt lat="44.53090841100803" lon="7.899978557073592"><ele>251.0</ele><time>2026-04-07T16:26:05Z</time></trkpt><trkpt lat="44.53106614934171" lon="7.8999823988765865"><ele>251.0</ele><time>2026-04-07T16:26:06Z</time></trkpt><trkpt lat="44.531220539732374" lon="7.899977252888049"><ele>251.0</ele><time>2026-04-07T16:26:07Z</time></trkpt><trkpt lat="44.53137900216375" lon="7.899963587586049"><ele>251.0</ele><time>2026-04-07T16:26:08Z</time></trkpt><trkpt lat="44.531531824570244" lon="7.899963036279792"><ele>251.0</ele><time>2026-04-07T16:26:09Z</time></trkpt><trkpt lat="44.531701719724815" lon="7.899981172677348"><ele>251.0</ele><time>2026-04-07T16:26:10Z</time></trkpt><trkpt lat="44.53185234994667" lon="7.8999821649257616"><ele>251.0</ele><time>2026-04-07T16:26:11Z</time></trkpt><trkpt lat="44.53201306718725" lon="7.8999852826482115"><ele>251.0</ele><time>2026-04-07T16:26:11.999Z</time></trkpt><trkpt lat="44.532159193742146" lon="7.899964513585926"><ele>251.0</ele><time>2026-04-07T16:26:12.999Z</time></trkpt><trkpt lat="44.532309399966884" lon="7.899964729954143"><ele>251.0</ele><time>2026-04-07T16:26:13.999Z</time></trkpt><trkpt lat="44.532470619270185" lon="7.899958560924151"><ele>251.0</ele><time>2026-04-07T16:26:14.999Z</time></trkpt><trkpt lat="44.532626935368114" lon="7.8999599425193106"><ele>251.0</ele><time>2026-04-07T16:26:15.999Z</time></trkpt><trkpt lat="44.53277521312074" lon="7.899958722313805"><ele>250.33333333333334</ele><time>2026-04-07T16:26:16.999Z</time></trkpt><trkpt lat="44.53294763599527" lon="7.899956157111366"><ele>249.66666666666669</ele><time>2026-04-07T16:26:17.999Z</time></trkpt><trkpt lat="44.53310837929612" lon="7.899956480804363"><ele>249.0</ele><time>2026-04-07T16:26:18.999Z</time></trkpt><trkpt lat="44.533265283143706" lon="7.899960506114405"><ele>249.0</ele><time>2026-04-07T16:26:19.999Z</time></trkpt><trkpt lat="44.53342138774435" lon="7.899961623429249"><ele>249.0</ele><time>2026-04-07T16:26:20.999Z</time></trkpt><trkpt lat="44.533587786241476" lon="7.899958052056569"><ele>249.0</ele><time>2026-04-07T16:26:21.999Z</time></trkpt><trkpt lat="44.5337624922665" lon="7.89996283229866"><ele>248.66666666666669</ele><time>2026-04-07T16:26:22.999Z</time></trkpt><trkpt lat="44.53392168257881" lon="7.899962000663114"><ele>248.33333333333334</ele><time>2026-04-07T16:26:23.999Z</time></trkpt><trkpt lat="44.5340907978221" lon="7.899952648487261"><ele>248.0</ele><time>2026-04-07T16:26:24.999Z</time></trkpt><trkpt lat="44.534247613886855" lon="7.899948111653227"><ele>248.0</ele><time>2026-04-07T16:26:25.999Z</time></trkpt><trkpt lat="44.53441085485341" lon="7.899940347942452"><ele>248.0</ele><time>2026-04-07T16:26:26.999Z</time></trkpt><trkpt lat="44.534583239796895" lon="7.899933981424616"><ele>248.0</ele><time>2026-04-07T16:26:27.999Z</time></trkpt><trkpt lat="44.53477933821007" lon="7.899930806930458"><ele>248.66666666666669</ele><time>2026-04-07T16:26:28.999Z</time></trkpt><trkpt lat="44.5349610672106" lon="7.899924842874902"><ele>249.33333333333331</ele><time>2026-04-07T16:26:29.999Z</time></trkpt><trkpt lat="44.53512606494267" lon="7.8999149575880345"><ele>250.0</ele><time>2026-04-07T16:26:30.999Z</time></trkpt><trkpt lat="44.53529267963923" lon="7.8999100905739486"><ele>250.33333333333331</ele><time>2026-04-07T16:26:31.999Z</time></trkpt><trkpt lat="44.53545900227632" lon="7.899907335826278"><ele>250.66666666666669</ele><time>2026-04-07T16:26:32.999Z</time></trkpt><trkpt lat="44.53562066561975" lon="7.8999044263405604"><ele>251.0</ele><time>2026-04-07T16:26:33.999Z</time></trkpt><trkpt lat="44.535782362294434" lon="7.899905044095443"><ele>251.0</ele><time>2026-04-07T16:26:34.999Z</time></trkpt><trkpt lat="44.535950571515166" lon="7.899892615559572"><ele>251.0</ele><time>2026-04-07T16:26:35.999Z</time></trkpt><trkpt lat="44.53612299212858" lon="7.899880807923193"><ele>251.0</ele><time>2026-04-07T16:26:36.999Z</time></trkpt><trkpt lat="44.53629347425388" lon="7.899873507094315"><ele>250.0</ele><time>2026-04-07T16:26:37.999Z</time></trkpt><trkpt lat="44.536464899460505" lon="7.899857572736853"><ele>249.0</ele><time>2026-04-07T16:26:38.999Z</time></trkpt><trkpt lat="44.53662427393307" lon="7.899854356788463"><ele>248.0</ele><time>2026-04-07T16:26:39.999Z</time></trkpt><trkpt lat="44.53678632384567" lon="7.899852050351804"><ele>248.0</ele><time>2026-04-07T16:26:40.999Z</time></trkpt><trkpt lat="44.5369436859617" lon="7.899848824498819"><ele>248.0</ele><time>2026-04-07T16:26:41.999Z</time></trkpt><trkpt lat="44.53710536237127" lon="7.89983673085082"><ele>248.0</ele><time>2026-04-07T16:26:42.999Z</time></trkpt><trkpt lat="44.53727145834186" lon="7.899826501480596"><ele>247.66666666666669</ele><time>2026-04-07T16:26:43.999Z</time></trkpt><trkpt lat="44.53743378146969" lon="7.8998099151138526"><ele>247.33333333333331</ele><time>2026-04-07T16:26:44.999Z</time></trkpt><trkpt lat="44.537594949177915" lon="7.899787511707343"><ele>247.0</ele><time>2026-04-07T16:26:45.999Z</time></trkpt><trkpt lat="44.537752674433534" lon="7.8997603245636645"><ele>247.0</ele><time>2026-04-07T16:26:46.999Z</time></trkpt><trkpt lat="44.53792320018855" lon="7.899726503526531"><ele>247.0</ele><time>2026-04-07T16:26:47.999Z</time></trkpt><trkpt lat="44.53810117655437" lon="7.899688643239143"><ele>247.0</ele><time>2026-04-07T16:26:48.999Z</time></trkpt><trkpt lat="44.53827779810269" lon="7.899646580231076"><ele>247.0</ele><time>2026-04-07T16:26:49.999Z</time></trkpt><trkpt lat="44.53846016149426" lon="7.899597958770699"><ele>247.0</ele><time>2026-04-07T16:26:50.999Z</time></trkpt><trkpt lat="44.53861712026978" lon="7.899543982239649"><ele>247.0</ele><time>2026-04-07T16:26:51.999Z</time></trkpt><trkpt lat="44.538791542719856" lon="7.899498261600438"><ele>245.33333333333331</ele><time>2026-04-07T16:26:52.999Z</time></trkpt><trkpt lat="44.538960432714475" lon="7.899451218068811"><ele>243.66666666666669</ele><time>2026-04-07T16:26:53.999Z</time></trkpt><trkpt lat="44.53913216820397" lon="7.899400851206139"><ele>242.0</ele><time>2026-04-07T16:26:54.999Z</time></trkpt><trkpt lat="44.53928586267527" lon="7.899352650810701"><ele>242.0</ele><time>2026-04-07T16:26:55.999Z</time></trkpt><trkpt lat="44.53944927022415" lon="7.899292477241985"><ele>242.0</ele><time>2026-04-07T16:26:56.999Z</time></trkpt><trkpt lat="44.53960959654852" lon="7.899239847154778"><ele>242.0</ele><time>2026-04-07T16:26:57.999Z</time></trkpt><trkpt lat="44.539764991401874" lon="7.899186268971612"><ele>240.33333333333334</ele><time>2026-04-07T16:26:58.999Z</time></trkpt><trkpt lat="44.539932527082506" lon="7.899133515092483"><ele>238.66666666666669</ele><time>2026-04-07T16:26:59.999Z</time></trkpt><trkpt lat="44.54009251786654" lon="7.899079499266333"><ele>237.0</ele><time>2026-04-07T16:27:00.999Z</time></trkpt><trkpt lat="44.54025401325953" lon="7.899028492756614"><ele>235.33333333333331</ele><time>2026-04-07T16:27:01.999Z</time></trkpt><trkpt lat="44.540422321430114" lon="7.89897648966533"><ele>233.66666666666666</ele><time>2026-04-07T16:27:02.999Z</time></trkpt><trkpt lat="44.54058438100976" lon="7.898921939676959"><ele>232.0</ele><time>2026-04-07T16:27:03.999Z</time></trkpt><trkpt lat="44.54074582110561" lon="7.898872697861996"><ele>232.0</ele><time>2026-04-07T16:27:04.999Z</time></trkpt><trkpt lat="44.540919054129596" lon="7.8988211565943915"><ele>232.0</ele><time>2026-04-07T16:27:05.999Z</time></trkpt><trkpt lat="44.54109221520959" lon="7.898789456294317"><ele>232.0</ele><time>2026-04-07T16:27:06.999Z</time></trkpt><trkpt lat="44.54124551217282" lon="7.8987412481050185"><ele>231.66666666666666</ele><time>2026-04-07T16:27:07.999Z</time></trkpt><trkpt lat="44.54140589306635" lon="7.898690812255126"><ele>231.33333333333331</ele><time>2026-04-07T16:27:08.999Z</time></trkpt><trkpt lat="44.54157602609177" lon="7.89863730958472"><ele>231.0</ele><time>2026-04-07T16:27:09.999Z</time></trkpt><trkpt lat="44.54174040590303" lon="7.898562541390196"><ele>231.0</ele><time>2026-04-07T16:27:10.999Z</time></trkpt><trkpt lat="44.541899605615306" lon="7.898535551766905"><ele>231.0</ele><time>2026-04-07T16:27:11.999Z</time></trkpt><trkpt lat="44.54205442279731" lon="7.8984868654966425"><ele>231.0</ele><time>2026-04-07T16:27:12.999Z</time></trkpt><trkpt lat="44.542229808564215" lon="7.8984329072470985"><ele>231.0</ele><time>2026-04-07T16:27:13.999Z</time></trkpt><trkpt lat="44.54239141910585" lon="7.898383332808604"><ele>231.0</ele><time>2026-04-07T16:27:14.999Z</time></trkpt><trkpt lat="44.54255593930037" lon="7.898333093700824"><ele>231.0</ele><time>2026-04-07T16:27:15.999Z</time></trkpt><trkpt lat="44.54272453642935" lon="7.8982826189840045"><ele>231.33333333333331</ele><time>2026-04-07T16:27:16.999Z</time></trkpt><trkpt lat="44.54288831021696" lon="7.8982118449323435"><ele>231.66666666666666</ele><time>2026-04-07T16:27:17.998Z</time></trkpt><trkpt lat="44.543058526939525" lon="7.898181781932678"><ele>232.0</ele><time>2026-04-07T16:27:18.998Z</time></trkpt><trkpt lat="44.543222275280876" lon="7.898113644489484"><ele>232.0</ele><time>2026-04-07T16:27:19.998Z</time></trkpt><trkpt lat="44.54338962237982" lon="7.898062854456242"><ele>232.0</ele><time>2026-04-07T16:27:20.998Z</time></trkpt><trkpt lat="44.54354318933186" lon="7.898007384253572"><ele>232.0</ele><time>2026-04-07T16:27:21.998Z</time></trkpt><trkpt lat="44.54371621926278" lon="7.897975799272301"><ele>231.0</ele><time>2026-04-07T16:27:22.998Z</time></trkpt><trkpt lat="44.543871533650254" lon="7.897928379123353"><ele>230.0</ele><time>2026-04-07T16:27:23.998Z</time></trkpt><trkpt lat="44.544033711575246" lon="7.897878863711716"><ele>229.0</ele><time>2026-04-07T16:27:24.998Z</time></trkpt><trkpt lat="44.544193796779226" lon="7.897829987026106"><ele>229.0</ele><time>2026-04-07T16:27:25.998Z</time></trkpt><trkpt lat="44.54436144078447" lon="7.897778498600985"><ele>229.0</ele><time>2026-04-07T16:27:27Z</time></trkpt><trkpt lat="44.54452501843315" lon="7.897727313706276"><ele>229.0</ele><time>2026-04-07T16:27:28Z</time></trkpt><trkpt lat="44.54468297697761" lon="7.8976544611108634"><ele>229.0</ele><time>2026-04-07T16:27:29Z</time></trkpt><trkpt lat="44.54485308750941" lon="7.8976116680203985"><ele>229.0</ele><time>2026-04-07T16:27:30Z</time></trkpt><trkpt lat="44.54500978800805" lon="7.89756091957761"><ele>229.0</ele><time>2026-04-07T16:27:31Z</time></trkpt><trkpt lat="44.54517832760281" lon="7.8975097704045805"><ele>229.0</ele><time>2026-04-07T16:27:32Z</time></trkpt><trkpt lat="44.54534705073699" lon="7.897465636005572"><ele>229.0</ele><time>2026-04-07T16:27:33Z</time></trkpt><trkpt lat="44.545506173580065" lon="7.897417177866147"><ele>229.0</ele><time>2026-04-07T16:27:34Z</time></trkpt><trkpt lat="44.54564411614573" lon="7.897379721928405"><ele>229.0</ele><time>2026-04-07T16:27:35Z</time></trkpt><trkpt lat="44.54579357295237" lon="7.8973340333382005"><ele>229.0</ele><time>2026-04-07T16:27:36Z</time></trkpt><trkpt lat="44.54593697271397" lon="7.8972901964281315"><ele>229.0</ele><time>2026-04-07T16:27:37Z</time></trkpt><trkpt lat="44.546110148972865" lon="7.897237256866411"><ele>229.0</ele><time>2026-04-07T16:27:38Z</time></trkpt><trkpt lat="44.546276609707235" lon="7.897186370232542"><ele>229.0</ele><time>2026-04-07T16:27:39Z</time></trkpt><trkpt lat="44.546440522836896" lon="7.897136965484082"><ele>229.0</ele><time>2026-04-07T16:27:40Z</time></trkpt><trkpt lat="44.546606352715784" lon="7.897067980507263"><ele>229.0</ele><time>2026-04-07T16:27:41Z</time></trkpt><trkpt lat="44.54677325713693" lon="7.897019300112897"><ele>229.0</ele><time>2026-04-07T16:27:42Z</time></trkpt><trkpt lat="44.546924878850625" lon="7.896970685628509"><ele>229.0</ele><time>2026-04-07T16:27:43Z</time></trkpt><trkpt lat="44.547113820015404" lon="7.896938468478851"><ele>229.0</ele><time>2026-04-07T16:27:44Z</time></trkpt><trkpt lat="44.547277041564335" lon="7.8968697999673125"><ele>229.0</ele><time>2026-04-07T16:27:45Z</time></trkpt><trkpt lat="44.547440362962035" lon="7.896837909085761"><ele>229.0</ele><time>2026-04-07T16:27:46Z</time></trkpt><trkpt lat="44.547601621695655" lon="7.8967992627062"><ele>229.0</ele><time>2026-04-07T16:27:47Z</time></trkpt><trkpt lat="44.547761458968985" lon="7.896774759468117"><ele>229.0</ele><time>2026-04-07T16:27:48Z</time></trkpt><trkpt lat="44.54792715030715" lon="7.896747214759172"><ele>229.0</ele><time>2026-04-07T16:27:49Z</time></trkpt><trkpt lat="44.548090308672506" lon="7.896727872423584"><ele>230.0</ele><time>2026-04-07T16:27:50Z</time></trkpt><trkpt lat="44.548255226603686" lon="7.896713064955284"><ele>231.0</ele><time>2026-04-07T16:27:51Z</time></trkpt><trkpt lat="44.5484148590532" lon="7.896704621571024"><ele>232.0</ele><time>2026-04-07T16:27:52Z</time></trkpt><trkpt lat="44.54857487581014" lon="7.896700222530016"><ele>232.66666666666666</ele><time>2026-04-07T16:27:53Z</time></trkpt><trkpt lat="44.54873241631295" lon="7.896699836287293"><ele>233.33333333333331</ele><time>2026-04-07T16:27:54Z</time></trkpt><trkpt lat="44.54889398601572" lon="7.896701681201463"><ele>234.0</ele><time>2026-04-07T16:27:55Z</time></trkpt><trkpt lat="44.54904222627547" lon="7.896722468944729"><ele>234.0</ele><time>2026-04-07T16:27:56Z</time></trkpt><trkpt lat="44.54919033801869" lon="7.896740287466171"><ele>234.0</ele><time>2026-04-07T16:27:57Z</time></trkpt><trkpt lat="44.54933838920297" lon="7.896750486952724"><ele>234.0</ele><time>2026-04-07T16:27:58Z</time></trkpt><trkpt lat="44.549473406020724" lon="7.896774110154097"><ele>234.0</ele><time>2026-04-07T16:27:59Z</time></trkpt><trkpt lat="44.54958724515275" lon="7.896778643317008"><ele>232.0</ele><time>2026-04-07T16:28:00Z</time></trkpt><trkpt lat="44.549717043491626" lon="7.896800596332535"><ele>230.0</ele><time>2026-04-07T16:28:01Z</time></trkpt><trkpt lat="44.54986752586685" lon="7.896849817111256"><ele>228.0</ele><time>2026-04-07T16:28:02Z</time></trkpt><trkpt lat="44.550040403878995" lon="7.896896774613844"><ele>228.0</ele><time>2026-04-07T16:28:03Z</time></trkpt><trkpt lat="44.55020787182159" lon="7.896938515475897"><ele>228.0</ele><time>2026-04-07T16:28:04Z</time></trkpt><trkpt lat="44.550398072072866" lon="7.896956770899812"><ele>228.0</ele><time>2026-04-07T16:28:05Z</time></trkpt><trkpt lat="44.550559178373604" lon="7.8969831810945"><ele>230.0</ele><time>2026-04-07T16:28:06Z</time></trkpt><trkpt lat="44.55071586507041" lon="7.897018677629264"><ele>232.0</ele><time>2026-04-07T16:28:07Z</time></trkpt><trkpt lat="44.5508669313244" lon="7.8970486609247414"><ele>234.0</ele><time>2026-04-07T16:28:08Z</time></trkpt><trkpt lat="44.55102869103526" lon="7.897067958449149"><ele>234.0</ele><time>2026-04-07T16:28:09Z</time></trkpt><trkpt lat="44.55118955938153" lon="7.89709345992052"><ele>234.0</ele><time>2026-04-07T16:28:10Z</time></trkpt><trkpt lat="44.551348822749624" lon="7.8971108011648345"><ele>234.0</ele><time>2026-04-07T16:28:11Z</time></trkpt><trkpt lat="44.5515076439713" lon="7.897144938941631"><ele>236.33333333333331</ele><time>2026-04-07T16:28:12Z</time></trkpt><trkpt lat="44.55167263731541" lon="7.897171410785145"><ele>238.66666666666666</ele><time>2026-04-07T16:28:13Z</time></trkpt><trkpt lat="44.55184489822348" lon="7.8972028684744995"><ele>241.0</ele><time>2026-04-07T16:28:14Z</time></trkpt><trkpt lat="44.552013562248135" lon="7.897231485425231"><ele>241.66666666666666</ele><time>2026-04-07T16:28:15Z</time></trkpt><trkpt lat="44.55218796873146" lon="7.897254085022874"><ele>242.33333333333331</ele><time>2026-04-07T16:28:15.999Z</time></trkpt><trkpt lat="44.552364011621954" lon="7.8972794771333605"><ele>243.0</ele><time>2026-04-07T16:28:16.999Z</time></trkpt><trkpt lat="44.55253056898738" lon="7.897307935790909"><ele>243.0</ele><time>2026-04-07T16:28:17.999Z</time></trkpt><trkpt lat="44.55270229704299" lon="7.8973438677719585"><ele>243.0</ele><time>2026-04-07T16:28:18.999Z</time></trkpt><trkpt lat="44.55287533628564" lon="7.8973770158347225"><ele>243.0</ele><time>2026-04-07T16:28:19.999Z</time></trkpt><trkpt lat="44.553048870644126" lon="7.897413803617601"><ele>245.0</ele><time>2026-04-07T16:28:20.999Z</time></trkpt><trkpt lat="44.55321214423278" lon="7.897440558454067"><ele>247.0</ele><time>2026-04-07T16:28:21.999Z</time></trkpt><trkpt lat="44.553384171545815" lon="7.897471234466579"><ele>249.0</ele><time>2026-04-07T16:28:22.999Z</time></trkpt><trkpt lat="44.55355503352531" lon="7.8975012486311265"><ele>249.33333333333331</ele><time>2026-04-07T16:28:23.999Z</time></trkpt><trkpt lat="44.553730036186266" lon="7.897532735803432"><ele>249.66666666666666</ele><time>2026-04-07T16:28:24.999Z</time></trkpt><trkpt lat="44.55389305005037" lon="7.89756305011586"><ele>250.0</ele><time>2026-04-07T16:28:25.999Z</time></trkpt><trkpt lat="44.55406220737143" lon="7.897593759289627"><ele>248.5</ele><time>2026-04-07T16:28:26.999Z</time></trkpt><trkpt lat="44.55422728272098" lon="7.897622495611352"><ele>247.0</ele><time>2026-04-07T16:28:27.999Z</time></trkpt><trkpt lat="44.554361282431" lon="7.8976304906414745"><ele>245.5</ele><time>2026-04-07T16:28:28.999Z</time></trkpt><trkpt lat="44.55449557165045" lon="7.897656962962664"><ele>244.0</ele><time>2026-04-07T16:28:29.999Z</time></trkpt><trkpt lat="44.55466064047207" lon="7.8976815650635235"><ele>244.0</ele><time>2026-04-07T16:28:30.999Z</time></trkpt><trkpt lat="44.55482920668534" lon="7.8977091790071325"><ele>244.0</ele><time>2026-04-07T16:28:31.999Z</time></trkpt><trkpt lat="44.55499764999102" lon="7.897733335818539"><ele>244.0</ele><time>2026-04-07T16:28:32.999Z</time></trkpt><trkpt lat="44.5551639023115" lon="7.8977583933304025"><ele>244.0</ele><time>2026-04-07T16:28:33.999Z</time></trkpt><trkpt lat="44.555328836811405" lon="7.897773831631396"><ele>244.0</ele><time>2026-04-07T16:28:34.999Z</time></trkpt><trkpt lat="44.55548343257224" lon="7.897780598771293"><ele>244.0</ele><time>2026-04-07T16:28:35.999Z</time></trkpt><trkpt lat="44.555645949669135" lon="7.897791552561627"><ele>243.33333333333331</ele><time>2026-04-07T16:28:36.999Z</time></trkpt><trkpt lat="44.5558070200225" lon="7.897801458723136"><ele>242.66666666666669</ele><time>2026-04-07T16:28:37.999Z</time></trkpt><trkpt lat="44.555971562000934" lon="7.897785394502324"><ele>242.0</ele><time>2026-04-07T16:28:38.999Z</time></trkpt><trkpt lat="44.5561353152582" lon="7.897773978495386"><ele>241.66666666666669</ele><time>2026-04-07T16:28:39.999Z</time></trkpt><trkpt lat="44.55630939814953" lon="7.897759697387773"><ele>241.33333333333331</ele><time>2026-04-07T16:28:40.999Z</time></trkpt><trkpt lat="44.55648333846842" lon="7.897750747449341"><ele>241.0</ele><time>2026-04-07T16:28:41.999Z</time></trkpt><trkpt lat="44.55666287769852" lon="7.897733335295193"><ele>241.0</ele><time>2026-04-07T16:28:42.999Z</time></trkpt><trkpt lat="44.55683109404869" lon="7.89770948653415"><ele>241.0</ele><time>2026-04-07T16:28:43.999Z</time></trkpt><trkpt lat="44.557007969741335" lon="7.897684602279021"><ele>241.0</ele><time>2026-04-07T16:28:44.999Z</time></trkpt><trkpt lat="44.557194160387795" lon="7.897655169969204"><ele>240.66666666666666</ele><time>2026-04-07T16:28:45.999Z</time></trkpt><trkpt lat="44.557378205130235" lon="7.897626047832881"><ele>240.33333333333331</ele><time>2026-04-07T16:28:46.999Z</time></trkpt><trkpt lat="44.55757197878623" lon="7.897592771084871"><ele>240.0</ele><time>2026-04-07T16:28:47.999Z</time></trkpt><trkpt lat="44.55775467546806" lon="7.897558136625856"><ele>239.66666666666669</ele><time>2026-04-07T16:28:48.999Z</time></trkpt><trkpt lat="44.557918943136464" lon="7.897523688424961"><ele>239.33333333333334</ele><time>2026-04-07T16:28:49.999Z</time></trkpt><trkpt lat="44.5580915315762" lon="7.897503313716041"><ele>239.0</ele><time>2026-04-07T16:28:50.999Z</time></trkpt><trkpt lat="44.55825664804891" lon="7.89746371035024"><ele>239.0</ele><time>2026-04-07T16:28:51.999Z</time></trkpt><trkpt lat="44.558427062261956" lon="7.897425048614398"><ele>239.0</ele><time>2026-04-07T16:28:52.999Z</time></trkpt><trkpt lat="44.55856252906489" lon="7.897390604898721"><ele>239.0</ele><time>2026-04-07T16:28:53.999Z</time></trkpt><trkpt lat="44.55873302944243" lon="7.89736283692857"><ele>238.33333333333334</ele><time>2026-04-07T16:28:54.999Z</time></trkpt><trkpt lat="44.55891346356155" lon="7.897333722323698"><ele>237.66666666666669</ele><time>2026-04-07T16:28:55.999Z</time></trkpt><trkpt lat="44.55908593244424" lon="7.897305120956649"><ele>237.0</ele><time>2026-04-07T16:28:56.999Z</time></trkpt><trkpt lat="44.55927763594544" lon="7.897268538287051"><ele>237.0</ele><time>2026-04-07T16:28:57.999Z</time></trkpt><trkpt lat="44.55946811698179" lon="7.897243536082624"><ele>237.0</ele><time>2026-04-07T16:28:58.999Z</time></trkpt><trkpt lat="44.55964826603994" lon="7.897212700757741"><ele>237.0</ele><time>2026-04-07T16:28:59.999Z</time></trkpt><trkpt lat="44.55983129622083" lon="7.897185423373099"><ele>235.0</ele><time>2026-04-07T16:29:00.999Z</time></trkpt><trkpt lat="44.56002094935463" lon="7.897153575218376"><ele>233.0</ele><time>2026-04-07T16:29:01.999Z</time></trkpt><trkpt lat="44.560200962515395" lon="7.89712697884261"><ele>231.0</ele><time>2026-04-07T16:29:02.999Z</time></trkpt><trkpt lat="44.560397511403536" lon="7.897102757256845"><ele>230.66666666666669</ele><time>2026-04-07T16:29:03.999Z</time></trkpt><trkpt lat="44.56057742781863" lon="7.897064186577618"><ele>230.33333333333334</ele><time>2026-04-07T16:29:04.999Z</time></trkpt><trkpt lat="44.56074705306022" lon="7.8970361666791"><ele>230.0</ele><time>2026-04-07T16:29:05.999Z</time></trkpt><trkpt lat="44.56092697426316" lon="7.897010171735893"><ele>230.0</ele><time>2026-04-07T16:29:06.999Z</time></trkpt><trkpt lat="44.5611184153857" lon="7.896981859487002"><ele>230.0</ele><time>2026-04-07T16:29:07.999Z</time></trkpt><trkpt lat="44.56127025485002" lon="7.896942017682647"><ele>230.0</ele><time>2026-04-07T16:29:08.999Z</time></trkpt><trkpt lat="44.56143704680683" lon="7.896919705398013"><ele>229.0</ele><time>2026-04-07T16:29:09.999Z</time></trkpt><trkpt lat="44.56159743160818" lon="7.896892015636419"><ele>228.0</ele><time>2026-04-07T16:29:10.999Z</time></trkpt><trkpt lat="44.56178227211736" lon="7.896860781831519"><ele>227.0</ele><time>2026-04-07T16:29:11.999Z</time></trkpt><trkpt lat="44.56195320125099" lon="7.896834195804883"><ele>226.0</ele><time>2026-04-07T16:29:12.999Z</time></trkpt><trkpt lat="44.562130454389234" lon="7.896808039539952"><ele>225.0</ele><time>2026-04-07T16:29:13.999Z</time></trkpt><trkpt lat="44.56230280361529" lon="7.896786432772897"><ele>224.0</ele><time>2026-04-07T16:29:14.999Z</time></trkpt><trkpt lat="44.562440931615654" lon="7.896756340918878"><ele>224.66666666666669</ele><time>2026-04-07T16:29:15.999Z</time></trkpt><trkpt lat="44.56260857637096" lon="7.8967301283249025"><ele>225.33333333333331</ele><time>2026-04-07T16:29:16.999Z</time></trkpt><trkpt lat="44.562777617845775" lon="7.896715299844198"><ele>226.0</ele><time>2026-04-07T16:29:17.999Z</time></trkpt><trkpt lat="44.5629366452194" lon="7.8967070386883425"><ele>226.0</ele><time>2026-04-07T16:29:18.999Z</time></trkpt><trkpt lat="44.56307226035063" lon="7.896698815667365"><ele>226.0</ele><time>2026-04-07T16:29:19.999Z</time></trkpt><trkpt lat="44.56320674320465" lon="7.896697995811094"><ele>226.0</ele><time>2026-04-07T16:29:20.998Z</time></trkpt><trkpt lat="44.56337494303799" lon="7.896704427627266"><ele>226.0</ele><time>2026-04-07T16:29:21.998Z</time></trkpt><trkpt lat="44.563506708496156" lon="7.896717874045569"><ele>226.0</ele><time>2026-04-07T16:29:22.998Z</time></trkpt><trkpt lat="44.563619242658696" lon="7.896731359477164"><ele>226.00000000000003</ele><time>2026-04-07T16:29:23.998Z</time></trkpt><trkpt lat="44.563727022615986" lon="7.8967468078743845"><ele>226.00000000000003</ele><time>2026-04-07T16:29:24.998Z</time></trkpt><trkpt lat="44.56380887021324" lon="7.896767497766405"><ele>226.0</ele><time>2026-04-07T16:29:25.998Z</time></trkpt><trkpt lat="44.56388710879182" lon="7.89680762191764"><ele>226.0</ele><time>2026-04-07T16:29:26.998Z</time></trkpt><trkpt lat="44.56396291410639" lon="7.8968767678323815"><ele>225.99999999999997</ele><time>2026-04-07T16:29:27.998Z</time></trkpt><trkpt lat="44.56402850292933" lon="7.896951989514738"><ele>226.0</ele><time>2026-04-07T16:29:28.998Z</time></trkpt><trkpt lat="44.56408814313058" lon="7.897038138438458"><ele>226.0</ele><time>2026-04-07T16:29:29.998Z</time></trkpt><trkpt lat="44.56416509930776" lon="7.897093542269809"><ele>226.0</ele><time>2026-04-07T16:29:30.998Z</time></trkpt><trkpt lat="44.564235826212325" lon="7.897123288379293"><ele>225.99999999999997</ele><time>2026-04-07T16:29:31.998Z</time></trkpt><trkpt lat="44.56432851301431" lon="7.897095260330128"><ele>226.0</ele><time>2026-04-07T16:29:33Z</time></trkpt><trkpt lat="44.56442064535491" lon="7.897017895027896"><ele>226.0</ele><time>2026-04-07T16:29:34Z</time></trkpt><trkpt lat="44.56449633905249" lon="7.896904815466175"><ele>226.00000000000003</ele><time>2026-04-07T16:29:35Z</time></trkpt><trkpt lat="44.56459950134959" lon="7.896847522832395"><ele>226.00000000000003</ele><time>2026-04-07T16:29:36Z</time></trkpt><trkpt lat="44.564695583682145" lon="7.896815363701108"><ele>226.0</ele><time>2026-04-07T16:29:37Z</time></trkpt><trkpt lat="44.56479870841391" lon="7.896824913498486"><ele>226.0</ele><time>2026-04-07T16:29:38Z</time></trkpt><trkpt lat="44.56490581440796" lon="7.89687141462"><ele>226.25</ele><time>2026-04-07T16:29:39Z</time></trkpt><trkpt lat="44.565022084610185" lon="7.8969507664092315"><ele>226.5</ele><time>2026-04-07T16:29:40Z</time></trkpt><trkpt lat="44.56515665256536" lon="7.897035679431333"><ele>226.75</ele><time>2026-04-07T16:29:41Z</time></trkpt><trkpt lat="44.56527191000911" lon="7.897120951566966"><ele>227.0</ele><time>2026-04-07T16:29:42Z</time></trkpt><trkpt lat="44.565398923618346" lon="7.897210349972355"><ele>226.33333333333334</ele><time>2026-04-07T16:29:43Z</time></trkpt><trkpt lat="44.56554409774472" lon="7.897313212571872"><ele>225.66666666666669</ele><time>2026-04-07T16:29:44Z</time></trkpt><trkpt lat="44.565685992648916" lon="7.897422364842522"><ele>225.0</ele><time>2026-04-07T16:29:45Z</time></trkpt><trkpt lat="44.565838317061676" lon="7.8975421506295165"><ele>225.0</ele><time>2026-04-07T16:29:46Z</time></trkpt><trkpt lat="44.565988732219324" lon="7.8976444828122245"><ele>225.0</ele><time>2026-04-07T16:29:47Z</time></trkpt><trkpt lat="44.56614092996522" lon="7.897762472906675"><ele>225.0</ele><time>2026-04-07T16:29:48Z</time></trkpt><trkpt lat="44.56630322610322" lon="7.897911452828459"><ele>225.0</ele><time>2026-04-07T16:29:49Z</time></trkpt><trkpt lat="44.566470484643034" lon="7.898072241512485"><ele>225.0</ele><time>2026-04-07T16:29:50Z</time></trkpt><trkpt lat="44.56663158312328" lon="7.898251439464112"><ele>225.0</ele><time>2026-04-07T16:29:51Z</time></trkpt><trkpt lat="44.566797477483085" lon="7.8984169872628325"><ele>224.33333333333331</ele><time>2026-04-07T16:29:52Z</time></trkpt><trkpt lat="44.56694212769787" lon="7.898604415708362"><ele>223.66666666666666</ele><time>2026-04-07T16:29:53Z</time></trkpt><trkpt lat="44.56707248684265" lon="7.898802734877293"><ele>223.0</ele><time>2026-04-07T16:29:54Z</time></trkpt><trkpt lat="44.56719561236288" lon="7.898962994629251"><ele>223.0</ele><time>2026-04-07T16:29:55Z</time></trkpt><trkpt lat="44.567308342969106" lon="7.899138607805069"><ele>223.0</ele><time>2026-04-07T16:29:56Z</time></trkpt><trkpt lat="44.567431981679896" lon="7.8993325604340585"><ele>223.0</ele><time>2026-04-07T16:29:57Z</time></trkpt><trkpt lat="44.56754588893506" lon="7.899510497445867"><ele>223.0</ele><time>2026-04-07T16:29:58Z</time></trkpt><trkpt lat="44.56765941260574" lon="7.8996878351758575"><ele>223.0</ele><time>2026-04-07T16:29:59Z</time></trkpt><trkpt lat="44.567773376861965" lon="7.8998603896781034"><ele>223.0</ele><time>2026-04-07T16:30:00Z</time></trkpt><trkpt lat="44.56789229911589" lon="7.900038813970787"><ele>223.33333333333331</ele><time>2026-04-07T16:30:01Z</time></trkpt><trkpt lat="44.56801023712734" lon="7.9002168617705335"><ele>223.66666666666669</ele><time>2026-04-07T16:30:02Z</time></trkpt><trkpt lat="44.568125197625676" lon="7.900394309902763"><ele>224.0</ele><time>2026-04-07T16:30:03Z</time></trkpt><trkpt lat="44.56823094861723" lon="7.900560237481776"><ele>224.0</ele><time>2026-04-07T16:30:04Z</time></trkpt><trkpt lat="44.568344639510165" lon="7.900738623148379"><ele>224.0</ele><time>2026-04-07T16:30:05Z</time></trkpt><trkpt lat="44.56845713740713" lon="7.900915137003411"><ele>224.0</ele><time>2026-04-07T16:30:06Z</time></trkpt><trkpt lat="44.56856262699811" lon="7.901080654604674"><ele>224.0</ele><time>2026-04-07T16:30:07Z</time></trkpt><trkpt lat="44.568675373871386" lon="7.901254971024332"><ele>224.0</ele><time>2026-04-07T16:30:08Z</time></trkpt><trkpt lat="44.5687834833163" lon="7.901421956036207"><ele>224.0</ele><time>2026-04-07T16:30:09Z</time></trkpt><trkpt lat="44.56889316411664" lon="7.901591369267038"><ele>223.0</ele><time>2026-04-07T16:30:10Z</time></trkpt><trkpt lat="44.5690144510343" lon="7.9017558290750625"><ele>222.0</ele><time>2026-04-07T16:30:11Z</time></trkpt><trkpt lat="44.56913461156541" lon="7.901935503548963"><ele>221.0</ele><time>2026-04-07T16:30:12Z</time></trkpt><trkpt lat="44.56924935046321" lon="7.902101515494869"><ele>221.0</ele><time>2026-04-07T16:30:13Z</time></trkpt><trkpt lat="44.569361292422855" lon="7.902302658405402"><ele>221.0</ele><time>2026-04-07T16:30:14Z</time></trkpt><trkpt lat="44.56948528215896" lon="7.90249559501491"><ele>221.0</ele><time>2026-04-07T16:30:15Z</time></trkpt><trkpt lat="44.56959929215031" lon="7.902673218672776"><ele>221.0</ele><time>2026-04-07T16:30:16Z</time></trkpt><trkpt lat="44.56972197916973" lon="7.902864360998136"><ele>221.0</ele><time>2026-04-07T16:30:17Z</time></trkpt><trkpt lat="44.56983383583465" lon="7.903038629823413"><ele>221.0</ele><time>2026-04-07T16:30:18Z</time></trkpt><trkpt lat="44.569949476071535" lon="7.903214575582451"><ele>221.0</ele><time>2026-04-07T16:30:19Z</time></trkpt><trkpt lat="44.57007148504227" lon="7.903400062395939"><ele>221.0</ele><time>2026-04-07T16:30:20Z</time></trkpt><trkpt lat="44.57020121753036" lon="7.9035972910703185"><ele>221.0</ele><time>2026-04-07T16:30:21Z</time></trkpt><trkpt lat="44.5703210250242" lon="7.903779631993234"><ele>220.66666666666669</ele><time>2026-04-07T16:30:21.999Z</time></trkpt><trkpt lat="44.570444592353425" lon="7.903969506381665"><ele>220.33333333333331</ele><time>2026-04-07T16:30:22.999Z</time></trkpt><trkpt lat="44.570564552438" lon="7.904154042592997"><ele>220.0</ele><time>2026-04-07T16:30:23.999Z</time></trkpt><trkpt lat="44.570687006754284" lon="7.904343265918973"><ele>219.0</ele><time>2026-04-07T16:30:24.999Z</time></trkpt><trkpt lat="44.570800842513314" lon="7.904519171248987"><ele>218.0</ele><time>2026-04-07T16:30:25.999Z</time></trkpt><trkpt lat="44.570921409037204" lon="7.904705509398964"><ele>217.0</ele><time>2026-04-07T16:30:26.999Z</time></trkpt><trkpt lat="44.57104947993912" lon="7.904903450612151"><ele>217.0</ele><time>2026-04-07T16:30:27.999Z</time></trkpt><trkpt lat="44.57117049282451" lon="7.905090483029492"><ele>217.0</ele><time>2026-04-07T16:30:28.999Z</time></trkpt><trkpt lat="44.571294146756514" lon="7.9052815930503675"><ele>217.0</ele><time>2026-04-07T16:30:29.999Z</time></trkpt><trkpt lat="44.57142261012357" lon="7.905479540575229"><ele>217.33333333333331</ele><time>2026-04-07T16:30:30.999Z</time></trkpt><trkpt lat="44.57155159150836" lon="7.905678431994444"><ele>217.66666666666669</ele><time>2026-04-07T16:30:31.999Z</time></trkpt><trkpt lat="44.571673191067624" lon="7.905865941393556"><ele>218.0</ele><time>2026-04-07T16:30:32.999Z</time></trkpt><trkpt lat="44.571787552478916" lon="7.90604228904434"><ele>218.0</ele><time>2026-04-07T16:30:33.999Z</time></trkpt><trkpt lat="44.571920129515036" lon="7.906213638322894"><ele>218.0</ele><time>2026-04-07T16:30:34.999Z</time></trkpt><trkpt lat="44.57203653806097" lon="7.9064262296087335"><ele>218.0</ele><time>2026-04-07T16:30:35.999Z</time></trkpt><trkpt lat="44.57216221995488" lon="7.906620034018084"><ele>218.0</ele><time>2026-04-07T16:30:36.999Z</time></trkpt><trkpt lat="44.57228813223277" lon="7.906814193331071"><ele>218.0</ele><time>2026-04-07T16:30:37.999Z</time></trkpt><trkpt lat="44.572414941486116" lon="7.907009735818117"><ele>218.0</ele><time>2026-04-07T16:30:38.999Z</time></trkpt><trkpt lat="44.572542956551665" lon="7.907207341179796"><ele>218.0</ele><time>2026-04-07T16:30:39.999Z</time></trkpt><trkpt lat="44.57265505516847" lon="7.907380489830199"><ele>218.0</ele><time>2026-04-07T16:30:40.999Z</time></trkpt><trkpt lat="44.57277893536264" lon="7.907566852316112"><ele>218.0</ele><time>2026-04-07T16:30:41.999Z</time></trkpt><trkpt lat="44.57289854058896" lon="7.907734716777211"><ele>218.33333333333334</ele><time>2026-04-07T16:30:42.999Z</time></trkpt><trkpt lat="44.573029746846416" lon="7.907907982121475"><ele>218.66666666666669</ele><time>2026-04-07T16:30:43.999Z</time></trkpt><trkpt lat="44.573165277892336" lon="7.908072486377239"><ele>219.0</ele><time>2026-04-07T16:30:44.999Z</time></trkpt><trkpt lat="44.57330013786786" lon="7.9082126769170396"><ele>219.0</ele><time>2026-04-07T16:30:45.999Z</time></trkpt><trkpt lat="44.573444109240846" lon="7.908359986306177"><ele>219.0</ele><time>2026-04-07T16:30:46.999Z</time></trkpt><trkpt lat="44.57358816280323" lon="7.9084978638584476"><ele>219.0</ele><time>2026-04-07T16:30:47.999Z</time></trkpt><trkpt lat="44.573739886784914" lon="7.908630426244767"><ele>218.33333333333331</ele><time>2026-04-07T16:30:48.999Z</time></trkpt><trkpt lat="44.57389334371792" lon="7.908754614111046"><ele>217.66666666666666</ele><time>2026-04-07T16:30:49.999Z</time></trkpt><trkpt lat="44.57405369278427" lon="7.9088731381124315"><ele>217.0</ele><time>2026-04-07T16:30:50.999Z</time></trkpt><trkpt lat="44.5742061789595" lon="7.9089736400877495"><ele>217.0</ele><time>2026-04-07T16:30:51.999Z</time></trkpt><trkpt lat="44.574379126652524" lon="7.909049633453857"><ele>217.0</ele><time>2026-04-07T16:30:52.999Z</time></trkpt><trkpt lat="44.574545375606995" lon="7.909140682975278"><ele>217.0</ele><time>2026-04-07T16:30:53.999Z</time></trkpt><trkpt lat="44.57471506312943" lon="7.90922935912503"><ele>217.33333333333331</ele><time>2026-04-07T16:30:54.999Z</time></trkpt><trkpt lat="44.574882325009476" lon="7.909297354993048"><ele>217.66666666666669</ele><time>2026-04-07T16:30:55.999Z</time></trkpt><trkpt lat="44.57505512855048" lon="7.909352382932732"><ele>218.0</ele><time>2026-04-07T16:30:56.999Z</time></trkpt><trkpt lat="44.575220153781146" lon="7.90942139838014"><ele>218.0</ele><time>2026-04-07T16:30:57.999Z</time></trkpt><trkpt lat="44.5754009407862" lon="7.9094650468299745"><ele>218.0</ele><time>2026-04-07T16:30:58.999Z</time></trkpt><trkpt lat="44.57557528030851" lon="7.909494250016513"><ele>218.0</ele><time>2026-04-07T16:30:59.999Z</time></trkpt><trkpt lat="44.575750953963336" lon="7.909501277521337"><ele>218.0</ele><time>2026-04-07T16:31:00.999Z</time></trkpt><trkpt lat="44.57593868934137" lon="7.909512332215476"><ele>218.0</ele><time>2026-04-07T16:31:01.999Z</time></trkpt><trkpt lat="44.5761205775457" lon="7.909512752204414"><ele>218.0</ele><time>2026-04-07T16:31:02.999Z</time></trkpt><trkpt lat="44.576291469041664" lon="7.909503347901521"><ele>218.0</ele><time>2026-04-07T16:31:03.999Z</time></trkpt><trkpt lat="44.5764586387834" lon="7.909499448955803"><ele>218.0</ele><time>2026-04-07T16:31:04.999Z</time></trkpt><trkpt lat="44.57662670566203" lon="7.909495028681341"><ele>218.0</ele><time>2026-04-07T16:31:05.999Z</time></trkpt><trkpt lat="44.576800126332536" lon="7.909490160976496"><ele>218.0</ele><time>2026-04-07T16:31:06.999Z</time></trkpt><trkpt lat="44.57697464460888" lon="7.909482646354284"><ele>218.0</ele><time>2026-04-07T16:31:07.999Z</time></trkpt><trkpt lat="44.57715346501066" lon="7.909500305866801"><ele>218.0</ele><time>2026-04-07T16:31:08.999Z</time></trkpt><trkpt lat="44.577335742663905" lon="7.909495447582089"><ele>217.66666666666669</ele><time>2026-04-07T16:31:09.999Z</time></trkpt><trkpt lat="44.577506642572594" lon="7.909490890788181"><ele>217.33333333333331</ele><time>2026-04-07T16:31:10.999Z</time></trkpt><trkpt lat="44.577678253388584" lon="7.909486808945316"><ele>217.0</ele><time>2026-04-07T16:31:11.999Z</time></trkpt><trkpt lat="44.577853957594215" lon="7.9094830595249075"><ele>216.33333333333331</ele><time>2026-04-07T16:31:12.999Z</time></trkpt><trkpt lat="44.57800797887278" lon="7.909479772803125"><ele>215.66666666666669</ele><time>2026-04-07T16:31:13.999Z</time></trkpt><trkpt lat="44.578173494261215" lon="7.909473807595183"><ele>215.0</ele><time>2026-04-07T16:31:14.999Z</time></trkpt><trkpt lat="44.578348226856754" lon="7.909466855251894"><ele>215.0</ele><time>2026-04-07T16:31:15.999Z</time></trkpt><trkpt lat="44.578505732993385" lon="7.90946016758139"><ele>215.0</ele><time>2026-04-07T16:31:16.999Z</time></trkpt><trkpt lat="44.57865573876546" lon="7.9094537983764175"><ele>215.0</ele><time>2026-04-07T16:31:17.999Z</time></trkpt><trkpt lat="44.57880364945266" lon="7.909445598970231"><ele>216.75</ele><time>2026-04-07T16:31:18.999Z</time></trkpt><trkpt lat="44.57893596463814" lon="7.909435468482202"><ele>218.5</ele><time>2026-04-07T16:31:19.999Z</time></trkpt><trkpt lat="44.579070476938426" lon="7.909396281181404"><ele>220.25</ele><time>2026-04-07T16:31:20.999Z</time></trkpt><trkpt lat="44.579174775682866" lon="7.909382989667506"><ele>222.0</ele><time>2026-04-07T16:31:21.999Z</time></trkpt><trkpt lat="44.57932162280058" lon="7.909368014725208"><ele>222.0</ele><time>2026-04-07T16:31:22.999Z</time></trkpt><trkpt lat="44.57945149823838" lon="7.909335435240288"><ele>222.0</ele><time>2026-04-07T16:31:23.999Z</time></trkpt><trkpt lat="44.57958753000723" lon="7.909302424534481"><ele>222.0</ele><time>2026-04-07T16:31:24.999Z</time></trkpt><trkpt lat="44.579715631911576" lon="7.9092626822624075"><ele>222.0</ele><time>2026-04-07T16:31:25.999Z</time></trkpt><trkpt lat="44.57984450309229" lon="7.909226988591722"><ele>221.8</ele><time>2026-04-07T16:31:26.998Z</time></trkpt><trkpt lat="44.57996334380979" lon="7.909194112944778"><ele>221.6</ele><time>2026-04-07T16:31:27.998Z</time></trkpt><trkpt lat="44.58007058175855" lon="7.909157369345367"><ele>221.40000000000003</ele><time>2026-04-07T16:31:28.998Z</time></trkpt><trkpt lat="44.58018451736495" lon="7.90912707406684"><ele>221.20000000000002</ele><time>2026-04-07T16:31:29.998Z</time></trkpt><trkpt lat="44.58027857418414" lon="7.909092752104085"><ele>221.0</ele><time>2026-04-07T16:31:30.998Z</time></trkpt><trkpt lat="44.58036952848165" lon="7.909067035818865"><ele>221.66666666666669</ele><time>2026-04-07T16:31:31.998Z</time></trkpt><trkpt lat="44.580442703534956" lon="7.90904599813146"><ele>222.33333333333334</ele><time>2026-04-07T16:31:32.998Z</time></trkpt><trkpt lat="44.580517942231005" lon="7.909034623434094"><ele>223.0</ele><time>2026-04-07T16:31:33.998Z</time></trkpt><trkpt lat="44.58060295929862" lon="7.909024715568334"><ele>223.66666666666669</ele><time>2026-04-07T16:31:35.998Z</time></trkpt><trkpt lat="44.58066913668297" lon="7.909070142656332"><ele>224.33333333333334</ele><time>2026-04-07T16:31:37.998Z</time></trkpt><trkpt lat="44.580735791255954" lon="7.909103437362383"><ele>225.0</ele><time>2026-04-07T16:31:39Z</time></trkpt><trkpt lat="44.58080537932736" lon="7.909132114596445"><ele>225.0</ele><time>2026-04-07T16:31:40Z</time></trkpt><trkpt lat="44.580871155016155" lon="7.909150109632296"><ele>225.0</ele><time>2026-04-07T16:31:41Z</time></trkpt><trkpt lat="44.580949932860655" lon="7.909114747574244"><ele>225.0</ele><time>2026-04-07T16:31:42Z</time></trkpt><trkpt lat="44.5810080386689" lon="7.909045963473616"><ele>225.0</ele><time>2026-04-07T16:31:43Z</time></trkpt><trkpt lat="44.58103842940847" lon="7.908919327908959"><ele>225.0</ele><time>2026-04-07T16:31:44Z</time></trkpt><trkpt lat="44.58108555911252" lon="7.908802820997913"><ele>225.0</ele><time>2026-04-07T16:31:45Z</time></trkpt><trkpt lat="44.58109208655283" lon="7.908670454447343"><ele>225.0</ele><time>2026-04-07T16:31:46Z</time></trkpt><trkpt lat="44.581197499672975" lon="7.908568372342432"><ele>225.0</ele><time>2026-04-07T16:31:47Z</time></trkpt><trkpt lat="44.581284950496" lon="7.908452673897104"><ele>225.0</ele><time>2026-04-07T16:31:48Z</time></trkpt><trkpt lat="44.58136811062268" lon="7.908333326008391"><ele>225.0</ele><time>2026-04-07T16:31:49Z</time></trkpt><trkpt lat="44.58148009030509" lon="7.9082246259584785"><ele>224.5</ele><time>2026-04-07T16:31:50Z</time></trkpt><trkpt lat="44.581578012000264" lon="7.90810048899445"><ele>224.0</ele><time>2026-04-07T16:31:51Z</time></trkpt><trkpt lat="44.58168352828255" lon="7.907959261119557"><ele>223.5</ele><time>2026-04-07T16:31:52Z</time></trkpt><trkpt lat="44.58178809263619" lon="7.907782757445126"><ele>223.0</ele><time>2026-04-07T16:31:53Z</time></trkpt><trkpt lat="44.58190454751219" lon="7.907627657644574"><ele>223.66666666666666</ele><time>2026-04-07T16:31:54Z</time></trkpt><trkpt lat="44.58199624744078" lon="7.907465263892485"><ele>224.33333333333331</ele><time>2026-04-07T16:31:55Z</time></trkpt><trkpt lat="44.5821054025775" lon="7.907288639395007"><ele>225.0</ele><time>2026-04-07T16:31:56Z</time></trkpt><trkpt lat="44.582208666300644" lon="7.907101860318505"><ele>225.0</ele><time>2026-04-07T16:31:57Z</time></trkpt><trkpt lat="44.582325372658836" lon="7.906908293027383"><ele>225.0</ele><time>2026-04-07T16:31:58Z</time></trkpt><trkpt lat="44.58243804103022" lon="7.9066981071721"><ele>225.0</ele><time>2026-04-07T16:31:59Z</time></trkpt><trkpt lat="44.582557785366305" lon="7.906474719618132"><ele>224.66666666666669</ele><time>2026-04-07T16:32:00Z</time></trkpt><trkpt lat="44.58267152417177" lon="7.906246135124865"><ele>224.33333333333334</ele><time>2026-04-07T16:32:01Z</time></trkpt><trkpt lat="44.582782370684974" lon="7.90605953134342"><ele>224.0</ele><time>2026-04-07T16:32:02Z</time></trkpt><trkpt lat="44.582869790976225" lon="7.905868271946428"><ele>224.66666666666669</ele><time>2026-04-07T16:32:03Z</time></trkpt><trkpt lat="44.58297791759828" lon="7.905671881185456"><ele>225.33333333333331</ele><time>2026-04-07T16:32:04Z</time></trkpt><trkpt lat="44.58309440552064" lon="7.90546916485084"><ele>226.0</ele><time>2026-04-07T16:32:05Z</time></trkpt><trkpt lat="44.583197501983136" lon="7.905273958746641"><ele>226.0</ele><time>2026-04-07T16:32:06Z</time></trkpt><trkpt lat="44.583304427956826" lon="7.905100328629618"><ele>226.0</ele><time>2026-04-07T16:32:07Z</time></trkpt><trkpt lat="44.583399623247495" lon="7.904889807761449"><ele>226.0</ele><time>2026-04-07T16:32:08Z</time></trkpt><trkpt lat="44.583512807957796" lon="7.904714655629286"><ele>225.66666666666666</ele><time>2026-04-07T16:32:09Z</time></trkpt><trkpt lat="44.58360845535056" lon="7.904537629899059"><ele>225.33333333333331</ele><time>2026-04-07T16:32:10Z</time></trkpt><trkpt lat="44.583704632407844" lon="7.9043545730609415"><ele>225.0</ele><time>2026-04-07T16:32:11Z</time></trkpt><trkpt lat="44.58379613766696" lon="7.904162549753702"><ele>226.66666666666669</ele><time>2026-04-07T16:32:12Z</time></trkpt><trkpt lat="44.5838874501775" lon="7.90396355879509"><ele>228.33333333333334</ele><time>2026-04-07T16:32:13Z</time></trkpt><trkpt lat="44.58396903431699" lon="7.903781601915772"><ele>230.0</ele><time>2026-04-07T16:32:14Z</time></trkpt><trkpt lat="44.5840387526957" lon="7.903617804663059"><ele>230.0</ele><time>2026-04-07T16:32:15Z</time></trkpt><trkpt lat="44.584132388223466" lon="7.90347895569324"><ele>230.0</ele><time>2026-04-07T16:32:16Z</time></trkpt><trkpt lat="44.584223049880414" lon="7.90333933598238"><ele>230.0</ele><time>2026-04-07T16:32:17Z</time></trkpt><trkpt lat="44.58429631115991" lon="7.9032100977047826"><ele>230.0</ele><time>2026-04-07T16:32:18Z</time></trkpt><trkpt lat="44.584362363930936" lon="7.903084617744185"><ele>230.2</ele><time>2026-04-07T16:32:19Z</time></trkpt><trkpt lat="44.584418226406655" lon="7.902994118570508"><ele>230.4</ele><time>2026-04-07T16:32:20Z</time></trkpt><trkpt lat="44.584466093823146" lon="7.902921277374056"><ele>230.60000000000002</ele><time>2026-04-07T16:32:21Z</time></trkpt><trkpt lat="44.58452980505565" lon="7.902846760465826"><ele>230.8</ele><time>2026-04-07T16:32:23Z</time></trkpt><trkpt lat="44.584645641498426" lon="7.9029566357435455"><ele>231.0</ele><time>2026-04-07T16:32:25Z</time></trkpt><trkpt lat="44.584708394690374" lon="7.903033605489027"><ele>231.0</ele><time>2026-04-07T16:32:26Z</time></trkpt><trkpt lat="44.58477318769237" lon="7.903118247120382"><ele>231.00000000000003</ele><time>2026-04-07T16:32:27Z</time></trkpt><trkpt lat="44.58485386106252" lon="7.903205449460444"><ele>231.00000000000003</ele><time>2026-04-07T16:32:27.999Z</time></trkpt><trkpt lat="44.58491473336512" lon="7.903303354816082"><ele>231.0</ele><time>2026-04-07T16:32:28.999Z</time></trkpt><trkpt lat="44.584978353303335" lon="7.903398848272326"><ele>231.0</ele><time>2026-04-07T16:32:29.999Z</time></trkpt><trkpt lat="44.585029572887436" lon="7.903510094437794"><ele>231.8</ele><time>2026-04-07T16:32:30.999Z</time></trkpt><trkpt lat="44.58507386921187" lon="7.903635213845857"><ele>232.60000000000002</ele><time>2026-04-07T16:32:31.999Z</time></trkpt><trkpt lat="44.58511217802348" lon="7.903764145099622"><ele>233.4</ele><time>2026-04-07T16:32:32.999Z</time></trkpt><trkpt lat="44.585137108978806" lon="7.903873439946612"><ele>234.2</ele><time>2026-04-07T16:32:33.999Z</time></trkpt><trkpt lat="44.58516433130428" lon="7.903990280717094"><ele>235.0</ele><time>2026-04-07T16:32:34.999Z</time></trkpt><trkpt lat="44.58518993814501" lon="7.904106197393582"><ele>235.0</ele><time>2026-04-07T16:32:35.999Z</time></trkpt><trkpt lat="44.585218638416954" lon="7.904225897800697"><ele>235.0</ele><time>2026-04-07T16:32:36.999Z</time></trkpt><trkpt lat="44.585252749280485" lon="7.904343387527011"><ele>235.0</ele><time>2026-04-07T16:32:37.999Z</time></trkpt><trkpt lat="44.58528206769625" lon="7.904464071430529"><ele>235.0</ele><time>2026-04-07T16:32:38.999Z</time></trkpt><trkpt lat="44.58531279275098" lon="7.904590593092613"><ele>235.0</ele><time>2026-04-07T16:32:39.999Z</time></trkpt><trkpt lat="44.585341270877485" lon="7.90470910103171"><ele>235.6</ele><time>2026-04-07T16:32:40.999Z</time></trkpt><trkpt lat="44.5853783359328" lon="7.90481294173872"><ele>236.2</ele><time>2026-04-07T16:32:41.999Z</time></trkpt><trkpt lat="44.585410920255065" lon="7.904942482570173"><ele>236.8</ele><time>2026-04-07T16:32:42.999Z</time></trkpt><trkpt lat="44.58544629417728" lon="7.905069228421439"><ele>237.4</ele><time>2026-04-07T16:32:43.999Z</time></trkpt><trkpt lat="44.58548426439844" lon="7.905193318488543"><ele>238.0</ele><time>2026-04-07T16:32:44.999Z</time></trkpt><trkpt lat="44.58550208090958" lon="7.905323901129538"><ele>239.60000000000002</ele><time>2026-04-07T16:32:45.999Z</time></trkpt><trkpt lat="44.585560653092514" lon="7.905457294790988"><ele>241.20000000000002</ele><time>2026-04-07T16:32:46.999Z</time></trkpt><trkpt lat="44.58563568926192" lon="7.905576100374828"><ele>242.8</ele><time>2026-04-07T16:32:47.999Z</time></trkpt><trkpt lat="44.5857117069976" lon="7.905671405626235"><ele>244.4</ele><time>2026-04-07T16:32:48.999Z</time></trkpt><trkpt lat="44.58580235469039" lon="7.905754872180551"><ele>246.0</ele><time>2026-04-07T16:32:49.999Z</time></trkpt><trkpt lat="44.58591681552337" lon="7.9058303181569105"><ele>246.0</ele><time>2026-04-07T16:32:50.999Z</time></trkpt><trkpt lat="44.58603624728332" lon="7.90588392673759"><ele>246.0</ele><time>2026-04-07T16:32:51.999Z</time></trkpt><trkpt lat="44.586291480274575" lon="7.905898375760002"><ele>246.0</ele><time>2026-04-07T16:32:53.999Z</time></trkpt><trkpt lat="44.586419261384854" lon="7.9059181782321435"><ele>246.0</ele><time>2026-04-07T16:32:54.999Z</time></trkpt><trkpt lat="44.586686834758176" lon="7.905911865931428"><ele>246.0</ele><time>2026-04-07T16:32:56.999Z</time></trkpt><trkpt lat="44.586837826867324" lon="7.905877625983868"><ele>246.0</ele><time>2026-04-07T16:32:57.999Z</time></trkpt><trkpt lat="44.58699302013095" lon="7.90586587733453"><ele>248.66666666666669</ele><time>2026-04-07T16:32:58.999Z</time></trkpt><trkpt lat="44.58714430574093" lon="7.905873226004047"><ele>251.33333333333334</ele><time>2026-04-07T16:32:59.999Z</time></trkpt><trkpt lat="44.587299123413715" lon="7.90586020069351"><ele>254.0</ele><time>2026-04-07T16:33:00.999Z</time></trkpt><trkpt lat="44.587470830708405" lon="7.905845752244046"><ele>254.0</ele><time>2026-04-07T16:33:01.999Z</time></trkpt><trkpt lat="44.58762209986259" lon="7.905831124937792"><ele>254.0</ele><time>2026-04-07T16:33:02.999Z</time></trkpt><trkpt lat="44.58774211157794" lon="7.9058186433521795"><ele>254.0</ele><time>2026-04-07T16:33:03.999Z</time></trkpt><trkpt lat="44.58789020573014" lon="7.905810110078127"><ele>254.0</ele><time>2026-04-07T16:33:04.999Z</time></trkpt><trkpt lat="44.587994049842344" lon="7.905806568743243"><ele>254.0</ele><time>2026-04-07T16:33:05.999Z</time></trkpt><trkpt lat="44.588068630385486" lon="7.905835915786851"><ele>253.99999999999997</ele><time>2026-04-07T16:33:06.999Z</time></trkpt><trkpt lat="44.588176058513405" lon="7.905882902238658"><ele>253.99999999999997</ele><time>2026-04-07T16:33:07.999Z</time></trkpt><trkpt lat="44.58826480702174" lon="7.90596078914433"><ele>254.0</ele><time>2026-04-07T16:33:08.999Z</time></trkpt><trkpt lat="44.58836369271541" lon="7.906048101635187"><ele>254.0</ele><time>2026-04-07T16:33:09.999Z</time></trkpt><trkpt lat="44.58841897877804" lon="7.906180104425079"><ele>256.5</ele><time>2026-04-07T16:33:10.999Z</time></trkpt><trkpt lat="44.588476767678046" lon="7.906323657307173"><ele>259.0</ele><time>2026-04-07T16:33:11.999Z</time></trkpt><trkpt lat="44.5885369971698" lon="7.906468317550837"><ele>261.5</ele><time>2026-04-07T16:33:12.999Z</time></trkpt><trkpt lat="44.588593177010594" lon="7.906608447255518"><ele>264.0</ele><time>2026-04-07T16:33:13.999Z</time></trkpt><trkpt lat="44.588661115592174" lon="7.906753723587206"><ele>265.0</ele><time>2026-04-07T16:33:14.999Z</time></trkpt><trkpt lat="44.58872259054156" lon="7.906908720530214"><ele>266.0</ele><time>2026-04-07T16:33:15.999Z</time></trkpt><trkpt lat="44.58877667501292" lon="7.907073281886469"><ele>267.0</ele><time>2026-04-07T16:33:16.999Z</time></trkpt><trkpt lat="44.588847431456756" lon="7.907243593438707"><ele>268.0</ele><time>2026-04-07T16:33:17.999Z</time></trkpt><trkpt lat="44.58891335498498" lon="7.907411194344105"><ele>270.0</ele><time>2026-04-07T16:33:18.999Z</time></trkpt><trkpt lat="44.588982067686366" lon="7.907585012746117"><ele>272.0</ele><time>2026-04-07T16:33:19.999Z</time></trkpt><trkpt lat="44.58903962594761" lon="7.907732577404862"><ele>274.0</ele><time>2026-04-07T16:33:20.999Z</time></trkpt><trkpt lat="44.58908447320134" lon="7.907858307114682"><ele>276.0</ele><time>2026-04-07T16:33:21.999Z</time></trkpt><trkpt lat="44.58911717589508" lon="7.907976586729338"><ele>276.0</ele><time>2026-04-07T16:33:22.999Z</time></trkpt><trkpt lat="44.58915324617833" lon="7.9080761350390905"><ele>276.0</ele><time>2026-04-07T16:33:23.999Z</time></trkpt><trkpt lat="44.58918272142428" lon="7.908185851766099"><ele>276.0</ele><time>2026-04-07T16:33:24.999Z</time></trkpt><trkpt lat="44.58919385834247" lon="7.908307561382862"><ele>276.0</ele><time>2026-04-07T16:33:25.999Z</time></trkpt><trkpt lat="44.58919187712448" lon="7.908431873311038"><ele>276.0</ele><time>2026-04-07T16:33:26.999Z</time></trkpt><trkpt lat="44.58916245932423" lon="7.908557365458513"><ele>276.0</ele><time>2026-04-07T16:33:27.999Z</time></trkpt><trkpt lat="44.589103039081714" lon="7.908659434057178"><ele>276.8</ele><time>2026-04-07T16:33:28.999Z</time></trkpt><trkpt lat="44.58904357037934" lon="7.908753280055774"><ele>277.6</ele><time>2026-04-07T16:33:29.999Z</time></trkpt><trkpt lat="44.588973363912764" lon="7.908821900940501"><ele>278.4</ele><time>2026-04-07T16:33:30.999Z</time></trkpt><trkpt lat="44.58887582697794" lon="7.908871771180903"><ele>279.2</ele><time>2026-04-07T16:33:31.998Z</time></trkpt><trkpt lat="44.58877924567247" lon="7.908894887190587"><ele>280.0</ele><time>2026-04-07T16:33:32.998Z</time></trkpt><trkpt lat="44.588668176549085" lon="7.908916820701134"><ele>283.25</ele><time>2026-04-07T16:33:33.998Z</time></trkpt><trkpt lat="44.58854722625969" lon="7.908935435546083"><ele>286.5</ele><time>2026-04-07T16:33:34.998Z</time></trkpt><trkpt lat="44.58842693951818" lon="7.908951571250283"><ele>289.75</ele><time>2026-04-07T16:33:35.998Z</time></trkpt><trkpt lat="44.588309837397176" lon="7.908970197526333"><ele>293.0</ele><time>2026-04-07T16:33:36.998Z</time></trkpt><trkpt lat="44.58817755119284" lon="7.9089877052560515"><ele>293.0</ele><time>2026-04-07T16:33:37.998Z</time></trkpt><trkpt lat="44.58804295952127" lon="7.909006739225117"><ele>293.0</ele><time>2026-04-07T16:33:38.998Z</time></trkpt><trkpt lat="44.58791021495116" lon="7.909029560815333"><ele>293.0</ele><time>2026-04-07T16:33:39.998Z</time></trkpt><trkpt lat="44.587776626241634" lon="7.9090379484920454"><ele>293.0</ele><time>2026-04-07T16:33:40.998Z</time></trkpt><trkpt lat="44.58763988839627" lon="7.909031183625518"><ele>294.0</ele><time>2026-04-07T16:33:41.998Z</time></trkpt><trkpt lat="44.587506205583615" lon="7.909004219738587"><ele>295.0</ele><time>2026-04-07T16:33:42.998Z</time></trkpt><trkpt lat="44.587368409988414" lon="7.908955190163684"><ele>296.0</ele><time>2026-04-07T16:33:43.998Z</time></trkpt><trkpt lat="44.58724759946419" lon="7.908924099337532"><ele>297.0</ele><time>2026-04-07T16:33:45Z</time></trkpt><trkpt lat="44.58713368334953" lon="7.908890842243502"><ele>297.0</ele><time>2026-04-07T16:33:46Z</time></trkpt><trkpt lat="44.587033921284146" lon="7.908875385873379"><ele>297.0</ele><time>2026-04-07T16:33:47Z</time></trkpt><trkpt lat="44.58696269946022" lon="7.90887161440552"><ele>297.0</ele><time>2026-04-07T16:33:48Z</time></trkpt><trkpt lat="44.58684184067003" lon="7.908900796814868"><ele>297.0</ele><time>2026-04-07T16:33:50Z</time></trkpt><trkpt lat="44.58677681323239" lon="7.908924362424964"><ele>297.0</ele><time>2026-04-07T16:33:51Z</time></trkpt><trkpt lat="44.58670494685159" lon="7.908951726464895"><ele>297.0</ele><time>2026-04-07T16:33:52Z</time></trkpt><trkpt lat="44.58662955417195" lon="7.9090228036158665"><ele>297.4</ele><time>2026-04-07T16:33:53Z</time></trkpt><trkpt lat="44.5865750372118" lon="7.909137111878814"><ele>297.79999999999995</ele><time>2026-04-07T16:33:54Z</time></trkpt><trkpt lat="44.58655096810666" lon="7.9092690580516605"><ele>298.2</ele><time>2026-04-07T16:33:55Z</time></trkpt><trkpt lat="44.58655923701093" lon="7.909406007250632"><ele>298.59999999999997</ele><time>2026-04-07T16:33:56Z</time></trkpt><trkpt lat="44.58655474648661" lon="7.909544649921573"><ele>299.0</ele><time>2026-04-07T16:33:57Z</time></trkpt><trkpt lat="44.5865824533885" lon="7.909653407700434"><ele>299.59999999999997</ele><time>2026-04-07T16:33:58Z</time></trkpt><trkpt lat="44.586601828965534" lon="7.909781126347476"><ele>300.2</ele><time>2026-04-07T16:33:59Z</time></trkpt><trkpt lat="44.58661740481668" lon="7.9099004438050375"><ele>300.79999999999995</ele><time>2026-04-07T16:34:00Z</time></trkpt><trkpt lat="44.58664971180213" lon="7.910061672401517"><ele>301.4</ele><time>2026-04-07T16:34:01Z</time></trkpt><trkpt lat="44.58666973367567" lon="7.910205100579915"><ele>302.0</ele><time>2026-04-07T16:34:02Z</time></trkpt><trkpt lat="44.58669952780239" lon="7.9103646349756085"><ele>302.0</ele><time>2026-04-07T16:34:03Z</time></trkpt><trkpt lat="44.586731149891754" lon="7.91053409902787"><ele>302.0</ele><time>2026-04-07T16:34:04Z</time></trkpt><trkpt lat="44.58675462945494" lon="7.91070884794629"><ele>302.0</ele><time>2026-04-07T16:34:05Z</time></trkpt><trkpt lat="44.58678617052684" lon="7.910895319614282"><ele>302.0</ele><time>2026-04-07T16:34:06Z</time></trkpt><trkpt lat="44.58681807709907" lon="7.911076121752271"><ele>302.5</ele><time>2026-04-07T16:34:07Z</time></trkpt><trkpt lat="44.58684560334504" lon="7.9112447621654605"><ele>303.0</ele><time>2026-04-07T16:34:08Z</time></trkpt><trkpt lat="44.58687559772484" lon="7.911413198096723"><ele>303.5</ele><time>2026-04-07T16:34:09Z</time></trkpt><trkpt lat="44.58690871882909" lon="7.911601964436122"><ele>304.0</ele><time>2026-04-07T16:34:10Z</time></trkpt><trkpt lat="44.58694223270557" lon="7.911777650216322"><ele>304.75</ele><time>2026-04-07T16:34:11Z</time></trkpt><trkpt lat="44.586978569577575" lon="7.911967562193691"><ele>305.5</ele><time>2026-04-07T16:34:12Z</time></trkpt><trkpt lat="44.58700667248497" lon="7.91214470299047"><ele>306.25</ele><time>2026-04-07T16:34:13Z</time></trkpt><trkpt lat="44.58703037235193" lon="7.912290057488156"><ele>307.0</ele><time>2026-04-07T16:34:14Z</time></trkpt><trkpt lat="44.58705116665066" lon="7.912468731890483"><ele>309.75</ele><time>2026-04-07T16:34:15Z</time></trkpt><trkpt lat="44.58705644214578" lon="7.9126455193825675"><ele>312.5</ele><time>2026-04-07T16:34:16Z</time></trkpt><trkpt lat="44.587036965868606" lon="7.91283717540172"><ele>315.25</ele><time>2026-04-07T16:34:17Z</time></trkpt><trkpt lat="44.5870043743493" lon="7.9130351193347614"><ele>318.0</ele><time>2026-04-07T16:34:18Z</time></trkpt><trkpt lat="44.58695808125894" lon="7.913229949782911"><ele>321.6666666666667</ele><time>2026-04-07T16:34:19Z</time></trkpt><trkpt lat="44.5869046337592" lon="7.913438984137025"><ele>325.33333333333337</ele><time>2026-04-07T16:34:20Z</time></trkpt><trkpt lat="44.58684886286048" lon="7.913653323497482"><ele>329.0</ele><time>2026-04-07T16:34:21Z</time></trkpt><trkpt lat="44.58679107094768" lon="7.913859405838156"><ele>329.0</ele><time>2026-04-07T16:34:22Z</time></trkpt><trkpt lat="44.58673632483245" lon="7.914072014503285"><ele>329.0</ele><time>2026-04-07T16:34:23Z</time></trkpt><trkpt lat="44.5866843827363" lon="7.9142896684747495"><ele>329.0</ele><time>2026-04-07T16:34:24Z</time></trkpt><trkpt lat="44.58662646533305" lon="7.914503459619361"><ele>331.75</ele><time>2026-04-07T16:34:25Z</time></trkpt><trkpt lat="44.586575699311034" lon="7.914691696655144"><ele>334.5</ele><time>2026-04-07T16:34:26Z</time></trkpt><trkpt lat="44.58653190743999" lon="7.914858409036676"><ele>337.25</ele><time>2026-04-07T16:34:27Z</time></trkpt><trkpt lat="44.58648852630179" lon="7.915009221706874"><ele>340.0</ele><time>2026-04-07T16:34:28Z</time></trkpt><trkpt lat="44.58642072749805" lon="7.915168633411568"><ele>340.5</ele><time>2026-04-07T16:34:29Z</time></trkpt><trkpt lat="44.58633556782315" lon="7.915319005966251"><ele>341.0</ele><time>2026-04-07T16:34:30Z</time></trkpt><trkpt lat="44.58623636936283" lon="7.91545680332842"><ele>341.5</ele><time>2026-04-07T16:34:31Z</time></trkpt><trkpt lat="44.586125809706296" lon="7.915582578481634"><ele>342.0</ele><time>2026-04-07T16:34:32Z</time></trkpt><trkpt lat="44.585999855373046" lon="7.915674986903536"><ele>342.0</ele><time>2026-04-07T16:34:33Z</time></trkpt><trkpt lat="44.585860495069454" lon="7.915755989961281"><ele>342.0</ele><time>2026-04-07T16:34:33.999Z</time></trkpt><trkpt lat="44.585715357011836" lon="7.915842348155113"><ele>342.0</ele><time>2026-04-07T16:34:34.999Z</time></trkpt><trkpt lat="44.58557785450961" lon="7.915924007889954"><ele>346.0</ele><time>2026-04-07T16:34:35.999Z</time></trkpt><trkpt lat="44.58545512757261" lon="7.915992407138921"><ele>350.0</ele><time>2026-04-07T16:34:36.999Z</time></trkpt><trkpt lat="44.58534974003969" lon="7.916056351122291"><ele>354.0</ele><time>2026-04-07T16:34:37.999Z</time></trkpt><trkpt lat="44.58524004977542" lon="7.916108150923163"><ele>358.0</ele><time>2026-04-07T16:34:38.999Z</time></trkpt><trkpt lat="44.58511053469783" lon="7.916142656563123"><ele>358.0</ele><time>2026-04-07T16:34:39.999Z</time></trkpt><trkpt lat="44.584996104118794" lon="7.916141271212984"><ele>358.0</ele><time>2026-04-07T16:34:40.999Z</time></trkpt><trkpt lat="44.584908266073526" lon="7.916123313960484"><ele>358.0</ele><time>2026-04-07T16:34:41.999Z</time></trkpt><trkpt lat="44.58482506635463" lon="7.916092711387465"><ele>358.0</ele><time>2026-04-07T16:34:42.999Z</time></trkpt><trkpt lat="44.58473086301605" lon="7.916040059242849"><ele>358.0</ele><time>2026-04-07T16:34:43.999Z</time></trkpt><trkpt lat="44.584643568921265" lon="7.915949055981431"><ele>360.0</ele><time>2026-04-07T16:34:44.999Z</time></trkpt><trkpt lat="44.584563863604465" lon="7.915831861521973"><ele>362.0</ele><time>2026-04-07T16:34:45.999Z</time></trkpt><trkpt lat="44.584484820878735" lon="7.915705694914148"><ele>364.0</ele><time>2026-04-07T16:34:46.999Z</time></trkpt><trkpt lat="44.58440346399289" lon="7.915562437352207"><ele>366.0</ele><time>2026-04-07T16:34:47.999Z</time></trkpt><trkpt lat="44.58431640176382" lon="7.915414624928169"><ele>366.0</ele><time>2026-04-07T16:34:48.999Z</time></trkpt><trkpt lat="44.58423841666606" lon="7.915256208339337"><ele>366.0</ele><time>2026-04-07T16:34:49.999Z</time></trkpt><trkpt lat="44.584154682750906" lon="7.915091463952772"><ele>366.0</ele><time>2026-04-07T16:34:50.999Z</time></trkpt><trkpt lat="44.58407254156953" lon="7.914952753004022"><ele>366.0</ele><time>2026-04-07T16:34:51.999Z</time></trkpt><trkpt lat="44.584000532858596" lon="7.914823870591528"><ele>364.4</ele><time>2026-04-07T16:34:52.999Z</time></trkpt><trkpt lat="44.58393691992934" lon="7.914691252702784"><ele>362.8</ele><time>2026-04-07T16:34:53.999Z</time></trkpt><trkpt lat="44.583864801655366" lon="7.914568198468981"><ele>361.2</ele><time>2026-04-07T16:34:54.999Z</time></trkpt><trkpt lat="44.58380796051693" lon="7.914464840599984"><ele>359.59999999999997</ele><time>2026-04-07T16:34:55.999Z</time></trkpt><trkpt lat="44.58375610434843" lon="7.91435988835397"><ele>358.0</ele><time>2026-04-07T16:34:56.999Z</time></trkpt><trkpt lat="44.5837118366353" lon="7.914260507374529"><ele>359.16666666666663</ele><time>2026-04-07T16:34:57.999Z</time></trkpt><trkpt lat="44.583652300039226" lon="7.914179686195888"><ele>360.3333333333333</ele><time>2026-04-07T16:34:58.999Z</time></trkpt><trkpt lat="44.58358451389557" lon="7.914108814528835"><ele>361.5</ele><time>2026-04-07T16:34:59.999Z</time></trkpt><trkpt lat="44.58351486417752" lon="7.914071139872312"><ele>362.6666666666667</ele><time>2026-04-07T16:35:00.999Z</time></trkpt><trkpt lat="44.58342294818553" lon="7.914053111767"><ele>363.83333333333337</ele><time>2026-04-07T16:35:01.999Z</time></trkpt><trkpt lat="44.58333078945046" lon="7.914063626431193"><ele>365.0</ele><time>2026-04-07T16:35:02.999Z</time></trkpt><trkpt lat="44.58325485623516" lon="7.914102039040106"><ele>365.0</ele><time>2026-04-07T16:35:03.999Z</time></trkpt><trkpt lat="44.58318136574424" lon="7.914156944521568"><ele>365.0</ele><time>2026-04-07T16:35:04.999Z</time></trkpt><trkpt lat="44.58311491148738" lon="7.914227289423847"><ele>365.0</ele><time>2026-04-07T16:35:05.999Z</time></trkpt><trkpt lat="44.58306838241366" lon="7.914309969845125"><ele>365.0</ele><time>2026-04-07T16:35:06.999Z</time></trkpt><trkpt lat="44.583040361521114" lon="7.9144040256986345"><ele>365.0</ele><time>2026-04-07T16:35:07.999Z</time></trkpt><trkpt lat="44.583024674033915" lon="7.91451047372773"><ele>365.0</ele><time>2026-04-07T16:35:08.999Z</time></trkpt><trkpt lat="44.5830248933721" lon="7.914637318493566"><ele>365.8</ele><time>2026-04-07T16:35:09.999Z</time></trkpt><trkpt lat="44.58304183378747" lon="7.9147658982989215"><ele>366.6</ele><time>2026-04-07T16:35:10.999Z</time></trkpt><trkpt lat="44.58307387813319" lon="7.914900407792391"><ele>367.4</ele><time>2026-04-07T16:35:11.999Z</time></trkpt><trkpt lat="44.58312215224773" lon="7.915059214932272"><ele>368.2</ele><time>2026-04-07T16:35:12.999Z</time></trkpt><trkpt lat="44.583158946024" lon="7.9152147792615555"><ele>369.0</ele><time>2026-04-07T16:35:13.999Z</time></trkpt><trkpt lat="44.583204134610725" lon="7.915368948098776"><ele>370.5</ele><time>2026-04-07T16:35:14.999Z</time></trkpt><trkpt lat="44.5832544487782" lon="7.915541457113103"><ele>372.0</ele><time>2026-04-07T16:35:15.999Z</time></trkpt><trkpt lat="44.583296754005055" lon="7.915710292444665"><ele>373.5</ele><time>2026-04-07T16:35:16.999Z</time></trkpt><trkpt lat="44.58335264305745" lon="7.91589991122552"><ele>375.0</ele><time>2026-04-07T16:35:17.999Z</time></trkpt><trkpt lat="44.583407933303306" lon="7.916083721716213"><ele>376.25</ele><time>2026-04-07T16:35:18.999Z</time></trkpt><trkpt lat="44.58345434588086" lon="7.916248803287004"><ele>377.5</ele><time>2026-04-07T16:35:19.999Z</time></trkpt><trkpt lat="44.58349173643227" lon="7.916459402523914"><ele>378.75</ele><time>2026-04-07T16:35:20.999Z</time></trkpt><trkpt lat="44.5835201736956" lon="7.916657461125215"><ele>380.0</ele><time>2026-04-07T16:35:21.999Z</time></trkpt><trkpt lat="44.58353274221378" lon="7.916863640793924"><ele>381.5</ele><time>2026-04-07T16:35:22.999Z</time></trkpt><trkpt lat="44.58352231248856" lon="7.917040304423526"><ele>383.0</ele><time>2026-04-07T16:35:23.999Z</time></trkpt><trkpt lat="44.583508572997175" lon="7.917234286016908"><ele>384.5</ele><time>2026-04-07T16:35:24.999Z</time></trkpt><trkpt lat="44.5834826562649" lon="7.917427174805857"><ele>386.0</ele><time>2026-04-07T16:35:25.999Z</time></trkpt><trkpt lat="44.58345194914549" lon="7.917599120100246"><ele>388.6</ele><time>2026-04-07T16:35:26.999Z</time></trkpt><trkpt lat="44.58344901598125" lon="7.9177255247675005"><ele>391.20000000000005</ele><time>2026-04-07T16:35:27.999Z</time></trkpt><trkpt lat="44.583428197323485" lon="7.917884125036552"><ele>393.79999999999995</ele><time>2026-04-07T16:35:28.999Z</time></trkpt><trkpt lat="44.583427663039" lon="7.918047526350971"><ele>396.4</ele><time>2026-04-07T16:35:29.999Z</time></trkpt><trkpt lat="44.58343775764419" lon="7.918206991040278"><ele>399.0</ele><time>2026-04-07T16:35:30.999Z</time></trkpt><trkpt lat="44.58345340586016" lon="7.918375909219879"><ele>400.0</ele><time>2026-04-07T16:35:31.999Z</time></trkpt><trkpt lat="44.58348752085493" lon="7.918542507629369"><ele>401.0</ele><time>2026-04-07T16:35:32.999Z</time></trkpt><trkpt lat="44.58353543456714" lon="7.9187016346621"><ele>402.0</ele><time>2026-04-07T16:35:33.999Z</time></trkpt><trkpt lat="44.583595152145264" lon="7.918838589754962"><ele>403.0</ele><time>2026-04-07T16:35:34.999Z</time></trkpt><trkpt lat="44.583657621085734" lon="7.918970275701999"><ele>401.25</ele><time>2026-04-07T16:35:35.999Z</time></trkpt><trkpt lat="44.58375022396455" lon="7.91910512913025"><ele>399.5</ele><time>2026-04-07T16:35:36.998Z</time></trkpt><trkpt lat="44.583840286303" lon="7.9192307076276975"><ele>397.75</ele><time>2026-04-07T16:35:37.998Z</time></trkpt><trkpt lat="44.58390410445868" lon="7.919332677142454"><ele>396.0</ele><time>2026-04-07T16:35:38.998Z</time></trkpt><trkpt lat="44.58398016486154" lon="7.91942234693692"><ele>396.0</ele><time>2026-04-07T16:35:39.998Z</time></trkpt><trkpt lat="44.584059105116694" lon="7.919523400562885"><ele>396.0</ele><time>2026-04-07T16:35:40.998Z</time></trkpt><trkpt lat="44.5841311938225" lon="7.919619466238086"><ele>396.0</ele><time>2026-04-07T16:35:41.998Z</time></trkpt><trkpt lat="44.58418824799105" lon="7.919705014816354"><ele>396.0</ele><time>2026-04-07T16:35:42.998Z</time></trkpt><trkpt lat="44.584255972350086" lon="7.919819549500306"><ele>396.0</ele><time>2026-04-07T16:35:43.998Z</time></trkpt><trkpt lat="44.58432425995848" lon="7.919899680728152"><ele>396.0</ele><time>2026-04-07T16:35:44.998Z</time></trkpt><trkpt lat="44.58437199922667" lon="7.919985367483482"><ele>396.0</ele><time>2026-04-07T16:35:45.998Z</time></trkpt><trkpt lat="44.58445352174069" lon="7.920074416483375"><ele>396.0</ele><time>2026-04-07T16:35:46.998Z</time></trkpt><trkpt lat="44.58452990950428" lon="7.920168115130827"><ele>396.0</ele><time>2026-04-07T16:35:47.998Z</time></trkpt><trkpt lat="44.58460324611817" lon="7.920265601228572"><ele>396.0</ele><time>2026-04-07T16:35:48.998Z</time></trkpt><trkpt lat="44.584671056485625" lon="7.920356658869157"><ele>397.0</ele><time>2026-04-07T16:35:49.998Z</time></trkpt><trkpt lat="44.584735869662794" lon="7.920443005027876"><ele>398.0</ele><time>2026-04-07T16:35:51Z</time></trkpt><trkpt lat="44.58479907049565" lon="7.9205290737343885"><ele>399.0</ele><time>2026-04-07T16:35:52Z</time></trkpt><trkpt lat="44.58485152214768" lon="7.92065066137873"><ele>400.0</ele><time>2026-04-07T16:35:53Z</time></trkpt><trkpt lat="44.584922912514145" lon="7.9207500393121775"><ele>401.0</ele><time>2026-04-07T16:35:54Z</time></trkpt><trkpt lat="44.584991215863" lon="7.920839370654511"><ele>400.8</ele><time>2026-04-07T16:35:55Z</time></trkpt><trkpt lat="44.5850668114429" lon="7.920941012643443"><ele>400.6</ele><time>2026-04-07T16:35:56Z</time></trkpt><trkpt lat="44.58513078867203" lon="7.921031561528897"><ele>400.4</ele><time>2026-04-07T16:35:57Z</time></trkpt><trkpt lat="44.58520236101572" lon="7.921130685699807"><ele>400.2</ele><time>2026-04-07T16:35:58Z</time></trkpt><trkpt lat="44.5852762424356" lon="7.921231039313815"><ele>400.0</ele><time>2026-04-07T16:35:59Z</time></trkpt><trkpt lat="44.58535515394189" lon="7.921326614147634"><ele>400.0</ele><time>2026-04-07T16:36:00Z</time></trkpt><trkpt lat="44.58541877520264" lon="7.9214217531864755"><ele>400.0</ele><time>2026-04-07T16:36:01Z</time></trkpt><trkpt lat="44.585495105936424" lon="7.921521004362951"><ele>400.0</ele><time>2026-04-07T16:36:02Z</time></trkpt><trkpt lat="44.58556613318227" lon="7.921617735929893"><ele>400.0</ele><time>2026-04-07T16:36:03Z</time></trkpt><trkpt lat="44.58563680516109" lon="7.921710354525731"><ele>400.0</ele><time>2026-04-07T16:36:04Z</time></trkpt><trkpt lat="44.585701348316924" lon="7.921807831518563"><ele>400.8</ele><time>2026-04-07T16:36:05Z</time></trkpt><trkpt lat="44.58577269519679" lon="7.921912243970148"><ele>401.6</ele><time>2026-04-07T16:36:06Z</time></trkpt><trkpt lat="44.58584505188177" lon="7.922021889431423"><ele>402.4</ele><time>2026-04-07T16:36:07Z</time></trkpt><trkpt lat="44.58591836486167" lon="7.922128224283855"><ele>403.2</ele><time>2026-04-07T16:36:08Z</time></trkpt><trkpt lat="44.585989776031276" lon="7.922231980535776"><ele>404.0</ele><time>2026-04-07T16:36:09Z</time></trkpt><trkpt lat="44.58606426740998" lon="7.922328647841486"><ele>404.0</ele><time>2026-04-07T16:36:10Z</time></trkpt><trkpt lat="44.58613670591848" lon="7.922437479077071"><ele>404.0</ele><time>2026-04-07T16:36:11Z</time></trkpt><trkpt lat="44.58621897005125" lon="7.922546749952604"><ele>404.0</ele><time>2026-04-07T16:36:12Z</time></trkpt><trkpt lat="44.58629756569746" lon="7.922659171903932"><ele>404.0</ele><time>2026-04-07T16:36:13Z</time></trkpt><trkpt lat="44.58637261932315" lon="7.922770311669779"><ele>404.0</ele><time>2026-04-07T16:36:14Z</time></trkpt><trkpt lat="44.586452527373986" lon="7.922874304057911"><ele>405.0</ele><time>2026-04-07T16:36:15Z</time></trkpt><trkpt lat="44.58652799109506" lon="7.922971990409226"><ele>406.0</ele><time>2026-04-07T16:36:16Z</time></trkpt><trkpt lat="44.58660651393688" lon="7.923078515169361"><ele>407.0</ele><time>2026-04-07T16:36:17Z</time></trkpt><trkpt lat="44.586686391056965" lon="7.923190131404266"><ele>408.0</ele><time>2026-04-07T16:36:18Z</time></trkpt><trkpt lat="44.58676137696891" lon="7.9232929910919765"><ele>409.0</ele><time>2026-04-07T16:36:19Z</time></trkpt><trkpt lat="44.58683797866164" lon="7.923398225182536"><ele>409.79999999999995</ele><time>2026-04-07T16:36:20Z</time></trkpt><trkpt lat="44.58691576886628" lon="7.9235022270006334"><ele>410.59999999999997</ele><time>2026-04-07T16:36:21Z</time></trkpt><trkpt lat="44.58698608584584" lon="7.923618909143646"><ele>411.4</ele><time>2026-04-07T16:36:22Z</time></trkpt><trkpt lat="44.58707197485393" lon="7.923703227419388"><ele>412.2</ele><time>2026-04-07T16:36:23Z</time></trkpt><trkpt lat="44.587176101752334" lon="7.92378779048179"><ele>413.0</ele><time>2026-04-07T16:36:24Z</time></trkpt><trkpt lat="44.587287177673545" lon="7.923841237140953"><ele>413.0</ele><time>2026-04-07T16:36:25Z</time></trkpt><trkpt lat="44.58739990161833" lon="7.923879173964325"><ele>413.0</ele><time>2026-04-07T16:36:26Z</time></trkpt><trkpt lat="44.58752337472794" lon="7.923903526195088"><ele>413.0</ele><time>2026-04-07T16:36:27Z</time></trkpt><trkpt lat="44.587658395651125" lon="7.923898779117424"><ele>413.0</ele><time>2026-04-07T16:36:28Z</time></trkpt><trkpt lat="44.58780262148175" lon="7.923872833159992"><ele>414.5</ele><time>2026-04-07T16:36:29Z</time></trkpt><trkpt lat="44.587958182816465" lon="7.923852468122326"><ele>416.0</ele><time>2026-04-07T16:36:30Z</time></trkpt><trkpt lat="44.588101723255555" lon="7.92383758558198"><ele>417.5</ele><time>2026-04-07T16:36:31Z</time></trkpt><trkpt lat="44.58823386484404" lon="7.923821791842476"><ele>419.0</ele><time>2026-04-07T16:36:32Z</time></trkpt><trkpt lat="44.58835966886567" lon="7.923808236256017"><ele>419.0</ele><time>2026-04-07T16:36:33Z</time></trkpt><trkpt lat="44.58848542515983" lon="7.923799010567108"><ele>419.0</ele><time>2026-04-07T16:36:34Z</time></trkpt><trkpt lat="44.58859219654877" lon="7.923790597342183"><ele>419.0</ele><time>2026-04-07T16:36:35Z</time></trkpt><trkpt lat="44.588704609345825" lon="7.923782911802118"><ele>419.0</ele><time>2026-04-07T16:36:36Z</time></trkpt><trkpt lat="44.58881539409719" lon="7.923790647385746"><ele>419.25</ele><time>2026-04-07T16:36:37Z</time></trkpt><trkpt lat="44.58894345330902" lon="7.9238080652696725"><ele>419.5</ele><time>2026-04-07T16:36:37.999Z</time></trkpt><trkpt lat="44.58905313272905" lon="7.923840130860177"><ele>419.75</ele><time>2026-04-07T16:36:38.999Z</time></trkpt><trkpt lat="44.589155873402106" lon="7.923881573434854"><ele>420.0</ele><time>2026-04-07T16:36:39.999Z</time></trkpt><trkpt lat="44.589277940076954" lon="7.923942311970961"><ele>420.0</ele><time>2026-04-07T16:36:40.999Z</time></trkpt><trkpt lat="44.58937416869368" lon="7.924006447814159"><ele>420.0</ele><time>2026-04-07T16:36:41.999Z</time></trkpt><trkpt lat="44.589457669404084" lon="7.924074888351278"><ele>420.0</ele><time>2026-04-07T16:36:42.999Z</time></trkpt><trkpt lat="44.589535136333474" lon="7.924145530214383"><ele>420.0</ele><time>2026-04-07T16:36:43.999Z</time></trkpt><trkpt lat="44.589609234482985" lon="7.924214750358022"><ele>420.0</ele><time>2026-04-07T16:36:44.999Z</time></trkpt><trkpt lat="44.58968085421522" lon="7.9242851548875315"><ele>421.2</ele><time>2026-04-07T16:36:45.999Z</time></trkpt><trkpt lat="44.589755134138954" lon="7.924356513693759"><ele>422.4</ele><time>2026-04-07T16:36:46.999Z</time></trkpt><trkpt lat="44.58983234738978" lon="7.924427330354025"><ele>423.6</ele><time>2026-04-07T16:36:47.999Z</time></trkpt><trkpt lat="44.58993383734211" lon="7.924505176263273"><ele>424.8</ele><time>2026-04-07T16:36:48.999Z</time></trkpt><trkpt lat="44.59000480492172" lon="7.92456832443635"><ele>426.0</ele><time>2026-04-07T16:36:49.999Z</time></trkpt><trkpt lat="44.59006605598611" lon="7.92462692278799"><ele>426.0</ele><time>2026-04-07T16:36:50.999Z</time></trkpt><trkpt lat="44.59013098067444" lon="7.924691320746678"><ele>426.0</ele><time>2026-04-07T16:36:51.999Z</time></trkpt><trkpt lat="44.59020839824511" lon="7.924765115862564"><ele>426.0</ele><time>2026-04-07T16:36:52.999Z</time></trkpt><trkpt lat="44.59029359730762" lon="7.924838131163975"><ele>426.0</ele><time>2026-04-07T16:36:53.999Z</time></trkpt><trkpt lat="44.590365479479615" lon="7.9249000362974495"><ele>426.0</ele><time>2026-04-07T16:36:54.999Z</time></trkpt><trkpt lat="44.5904270204057" lon="7.924957258631912"><ele>426.0</ele><time>2026-04-07T16:36:55.999Z</time></trkpt><trkpt lat="44.590496159171295" lon="7.925023438487334"><ele>427.6666666666667</ele><time>2026-04-07T16:36:56.999Z</time></trkpt><trkpt lat="44.59055801028852" lon="7.9250675268826845"><ele>429.33333333333337</ele><time>2026-04-07T16:36:57.999Z</time></trkpt><trkpt lat="44.590652830653866" lon="7.925155232353381"><ele>431.0</ele><time>2026-04-07T16:36:59.999Z</time></trkpt><trkpt lat="44.59073147230614" lon="7.925222613058469"><ele>432.6666666666667</ele><time>2026-04-07T16:37:01.999Z</time></trkpt><trkpt lat="44.59078559114373" lon="7.925276840220026"><ele>434.33333333333337</ele><time>2026-04-07T16:37:03.999Z</time></trkpt><trkpt lat="44.59085694156032" lon="7.925317885081675"><ele>436.0</ele><time>2026-04-07T16:37:08.999Z</time></trkpt><trkpt lat="44.59092621804093" lon="7.92535754270858"><ele>436.0</ele><time>2026-04-07T16:37:09.999Z</time></trkpt><trkpt lat="44.591018286085635" lon="7.925445004913141"><ele>436.0</ele><time>2026-04-07T16:37:11.999Z</time></trkpt><trkpt lat="44.59111769831743" lon="7.925504686283412"><ele>436.0</ele><time>2026-04-07T16:37:13.999Z</time></trkpt><trkpt lat="44.591201010122475" lon="7.925581306532905"><ele>436.0</ele><time>2026-04-07T16:37:14.999Z</time></trkpt><trkpt lat="44.59128777040882" lon="7.92566022868072"><ele>436.0</ele><time>2026-04-07T16:37:15.999Z</time></trkpt><trkpt lat="44.5913768107695" lon="7.925738080163395"><ele>436.6</ele><time>2026-04-07T16:37:16.999Z</time></trkpt><trkpt lat="44.59144985246098" lon="7.925812369996521"><ele>437.20000000000005</ele><time>2026-04-07T16:37:17.999Z</time></trkpt><trkpt lat="44.5915266217659" lon="7.925895482417028"><ele>437.79999999999995</ele><time>2026-04-07T16:37:18.999Z</time></trkpt><trkpt lat="44.5915983032846" lon="7.925961780372163"><ele>438.4</ele><time>2026-04-07T16:37:19.999Z</time></trkpt><trkpt lat="44.59168491649162" lon="7.926030120823131"><ele>439.0</ele><time>2026-04-07T16:37:20.999Z</time></trkpt><trkpt lat="44.591775231219685" lon="7.926112066575757"><ele>440.0</ele><time>2026-04-07T16:37:21.999Z</time></trkpt><trkpt lat="44.59187070469828" lon="7.926187852015139"><ele>441.0</ele><time>2026-04-07T16:37:22.999Z</time></trkpt><trkpt lat="44.591952554842706" lon="7.926255873291959"><ele>442.0</ele><time>2026-04-07T16:37:23.999Z</time></trkpt><trkpt lat="44.59203044872408" lon="7.926330566236691"><ele>443.0</ele><time>2026-04-07T16:37:24.999Z</time></trkpt><trkpt lat="44.592129494382434" lon="7.926418402156434"><ele>444.0</ele><time>2026-04-07T16:37:25.999Z</time></trkpt><trkpt lat="44.592215636813" lon="7.92652045035135"><ele>444.0</ele><time>2026-04-07T16:37:26.999Z</time></trkpt><trkpt lat="44.59228815731768" lon="7.926609445553385"><ele>444.0</ele><time>2026-04-07T16:37:27.999Z</time></trkpt><trkpt lat="44.59236559570663" lon="7.926710137752739"><ele>444.0</ele><time>2026-04-07T16:37:28.999Z</time></trkpt><trkpt lat="44.592426229977825" lon="7.926815027749853"><ele>444.0</ele><time>2026-04-07T16:37:29.999Z</time></trkpt><trkpt lat="44.59247653727046" lon="7.926934754888341"><ele>444.0</ele><time>2026-04-07T16:37:30.999Z</time></trkpt><trkpt lat="44.59254209949266" lon="7.92706145481273"><ele>445.6</ele><time>2026-04-07T16:37:31.999Z</time></trkpt><trkpt lat="44.59259346704523" lon="7.927188160688477"><ele>447.2</ele><time>2026-04-07T16:37:32.999Z</time></trkpt><trkpt lat="44.59263200250491" lon="7.927310450282066"><ele>448.80000000000007</ele><time>2026-04-07T16:37:33.999Z</time></trkpt><trkpt lat="44.59267753147572" lon="7.927449460140135"><ele>450.40000000000003</ele><time>2026-04-07T16:37:34.999Z</time></trkpt><trkpt lat="44.59271840723373" lon="7.92759088353132"><ele>452.0</ele><time>2026-04-07T16:37:35.999Z</time></trkpt><trkpt lat="44.59275720287092" lon="7.92774049395441"><ele>452.20000000000005</ele><time>2026-04-07T16:37:36.999Z</time></trkpt><trkpt lat="44.59280068674352" lon="7.927868731066062"><ele>452.40000000000003</ele><time>2026-04-07T16:37:37.999Z</time></trkpt><trkpt lat="44.59284509766223" lon="7.928005997402078"><ele>452.59999999999997</ele><time>2026-04-07T16:37:38.999Z</time></trkpt><trkpt lat="44.59289234400594" lon="7.928146909203992"><ele>452.79999999999995</ele><time>2026-04-07T16:37:39.999Z</time></trkpt><trkpt lat="44.5929302890111" lon="7.928284561998628"><ele>453.0</ele><time>2026-04-07T16:37:40.998Z</time></trkpt><trkpt lat="44.592963171912245" lon="7.928407204086212"><ele>454.4</ele><time>2026-04-07T16:37:41.998Z</time></trkpt><trkpt lat="44.593000705164954" lon="7.928529855082195"><ele>455.79999999999995</ele><time>2026-04-07T16:37:42.998Z</time></trkpt><trkpt lat="44.593038594266396" lon="7.928635548898596"><ele>457.2</ele><time>2026-04-07T16:37:43.998Z</time></trkpt><trkpt lat="44.59310037608505" lon="7.928780336765562"><ele>458.6</ele><time>2026-04-07T16:37:45.998Z</time></trkpt><trkpt lat="44.59309639209104" lon="7.928897191248374"><ele>460.0</ele><time>2026-04-07T16:37:47.998Z</time></trkpt><trkpt lat="44.59307019466881" lon="7.929026263188009"><ele>460.00000000000006</ele><time>2026-04-07T16:37:49.998Z</time></trkpt><trkpt lat="44.59298011758614" lon="7.929088716123206"><ele>460.0</ele><time>2026-04-07T16:37:51.998Z</time></trkpt><trkpt lat="44.592914532907216" lon="7.929067372725768"><ele>460.0</ele><time>2026-04-07T16:37:52.998Z</time></trkpt><trkpt lat="44.59283804872904" lon="7.929025033129072"><ele>460.0</ele><time>2026-04-07T16:37:53.998Z</time></trkpt><trkpt lat="44.59274824512069" lon="7.928972325164674"><ele>460.00000000000006</ele><time>2026-04-07T16:37:54.998Z</time></trkpt><trkpt lat="44.5926646206139" lon="7.928932629415503"><ele>460.0</ele><time>2026-04-07T16:37:55.998Z</time></trkpt><trkpt lat="44.592562910282815" lon="7.928888801971969"><ele>459.4</ele><time>2026-04-07T16:37:57Z</time></trkpt><trkpt lat="44.59247691449528" lon="7.928855422844609"><ele>458.8</ele><time>2026-04-07T16:37:58Z</time></trkpt><trkpt lat="44.59238369513793" lon="7.928838361657875"><ele>458.20000000000005</ele><time>2026-04-07T16:37:59Z</time></trkpt><trkpt lat="44.59228990289893" lon="7.928803104377741"><ele>457.6</ele><time>2026-04-07T16:38:00Z</time></trkpt><trkpt lat="44.592196521153866" lon="7.9287809953083315"><ele>457.0</ele><time>2026-04-07T16:38:01Z</time></trkpt><trkpt lat="44.59211980327548" lon="7.928753228738536"><ele>457.00000000000006</ele><time>2026-04-07T16:38:02Z</time></trkpt><trkpt lat="44.59203287808743" lon="7.928720908235738"><ele>457.0</ele><time>2026-04-07T16:38:03Z</time></trkpt><trkpt lat="44.591950418360305" lon="7.928693637766463"><ele>457.0</ele><time>2026-04-07T16:38:04Z</time></trkpt><trkpt lat="44.5918582885908" lon="7.928663541341295"><ele>457.0</ele><time>2026-04-07T16:38:05Z</time></trkpt><trkpt lat="44.591772318703" lon="7.928639351512032"><ele>457.00000000000006</ele><time>2026-04-07T16:38:06Z</time></trkpt><trkpt lat="44.59168666651781" lon="7.928611963336152"><ele>457.0</ele><time>2026-04-07T16:38:07Z</time></trkpt><trkpt lat="44.591611187296365" lon="7.928580691073334"><ele>456.1666666666667</ele><time>2026-04-07T16:38:08Z</time></trkpt><trkpt lat="44.591498798161034" lon="7.928564720550978"><ele>455.33333333333337</ele><time>2026-04-07T16:38:09Z</time></trkpt><trkpt lat="44.59141230216011" lon="7.928530021231334"><ele>454.5</ele><time>2026-04-07T16:38:10Z</time></trkpt><trkpt lat="44.591342110954386" lon="7.928500121020119"><ele>453.66666666666663</ele><time>2026-04-07T16:38:11Z</time></trkpt><trkpt lat="44.59126920070126" lon="7.9284710793296655"><ele>452.8333333333333</ele><time>2026-04-07T16:38:12Z</time></trkpt><trkpt lat="44.59118862974281" lon="7.928445802007142"><ele>452.0</ele><time>2026-04-07T16:38:13Z</time></trkpt><trkpt lat="44.5911114318519" lon="7.928419650241827"><ele>453.99999999999994</ele><time>2026-04-07T16:38:14Z</time></trkpt><trkpt lat="44.5910500201325" lon="7.92838796862962"><ele>456.0</ele><time>2026-04-07T16:38:15Z</time></trkpt><trkpt lat="44.59096638300814" lon="7.928371741872091"><ele>458.0</ele><time>2026-04-07T16:38:16Z</time></trkpt><trkpt lat="44.590893947759575" lon="7.928343662424608"><ele>460.0</ele><time>2026-04-07T16:38:17Z</time></trkpt><trkpt lat="44.59081756237774" lon="7.928311946509895"><ele>461.99999999999994</ele><time>2026-04-07T16:38:18Z</time></trkpt><trkpt lat="44.590735425961306" lon="7.9282776195710465"><ele>464.0</ele><time>2026-04-07T16:38:19Z</time></trkpt><trkpt lat="44.59065962964934" lon="7.928259067293938"><ele>463.99999999999994</ele><time>2026-04-07T16:38:20Z</time></trkpt><trkpt lat="44.59057871827793" lon="7.928228680420968"><ele>464.0</ele><time>2026-04-07T16:38:21Z</time></trkpt><trkpt lat="44.59049287318848" lon="7.928196573162608"><ele>464.0</ele><time>2026-04-07T16:38:22Z</time></trkpt><trkpt lat="44.5904234355216" lon="7.928170350449292"><ele>464.0</ele><time>2026-04-07T16:38:23Z</time></trkpt><trkpt lat="44.590358235478575" lon="7.928145110678058"><ele>463.99999999999994</ele><time>2026-04-07T16:38:24Z</time></trkpt><trkpt lat="44.59028407892176" lon="7.928113808419601"><ele>464.0</ele><time>2026-04-07T16:38:25Z</time></trkpt><trkpt lat="44.59019606270866" lon="7.928070909778652"><ele>463.79999999999995</ele><time>2026-04-07T16:38:26Z</time></trkpt><trkpt lat="44.59012169344525" lon="7.928010449857698"><ele>463.59999999999997</ele><time>2026-04-07T16:38:27Z</time></trkpt><trkpt lat="44.590032156794074" lon="7.927949682900277"><ele>463.4</ele><time>2026-04-07T16:38:28Z</time></trkpt><trkpt lat="44.58995167900689" lon="7.927890803106069"><ele>463.2</ele><time>2026-04-07T16:38:29Z</time></trkpt><trkpt lat="44.589893428551484" lon="7.927841389334974"><ele>463.0</ele><time>2026-04-07T16:38:30Z</time></trkpt><trkpt lat="44.58979196875186" lon="7.927773468063325"><ele>463.0</ele><time>2026-04-07T16:38:32Z</time></trkpt><trkpt lat="44.589673823812255" lon="7.9276930973128295"><ele>462.99999999999994</ele><time>2026-04-07T16:38:34Z</time></trkpt><trkpt lat="44.58958794294399" lon="7.9276609733199015"><ele>462.99999999999994</ele><time>2026-04-07T16:38:35Z</time></trkpt><trkpt lat="44.58948649878241" lon="7.927624818133182"><ele>463.0</ele><time>2026-04-07T16:38:36Z</time></trkpt><trkpt lat="44.58940827192271" lon="7.9275782185603"><ele>463.0</ele><time>2026-04-07T16:38:37Z</time></trkpt><trkpt lat="44.58933523480675" lon="7.92753988515731"><ele>464.00000000000006</ele><time>2026-04-07T16:38:38Z</time></trkpt><trkpt lat="44.58926138352859" lon="7.927504481878316"><ele>465.0</ele><time>2026-04-07T16:38:39Z</time></trkpt><trkpt lat="44.589176209357" lon="7.927469492111389"><ele>466.0</ele><time>2026-04-07T16:38:40Z</time></trkpt><trkpt lat="44.58911458760341" lon="7.927448339865612"><ele>467.0</ele><time>2026-04-07T16:38:41Z</time></trkpt><trkpt lat="44.58900093561968" lon="7.927406742262862"><ele>468.00000000000006</ele><time>2026-04-07T16:38:42.999Z</time></trkpt><trkpt lat="44.58894206541317" lon="7.927374006574135"><ele>469.0</ele><time>2026-04-07T16:38:43.999Z</time></trkpt><trkpt lat="44.58883306508236" lon="7.9273617302141375"><ele>469.00000000000006</ele><time>2026-04-07T16:38:45.999Z</time></trkpt><trkpt lat="44.58874170582068" lon="7.92737489580641"><ele>469.0</ele><time>2026-04-07T16:38:47.999Z</time></trkpt><trkpt lat="44.58867508614875" lon="7.927414119451843"><ele>469.0</ele><time>2026-04-07T16:38:50.999Z</time></trkpt><trkpt lat="44.58861067747721" lon="7.927444391960519"><ele>469.0</ele><time>2026-04-07T16:38:52.999Z</time></trkpt><trkpt lat="44.58854836606129" lon="7.927535861162913"><ele>469.00000000000006</ele><time>2026-04-07T16:38:54.999Z</time></trkpt><trkpt lat="44.58844873819915" lon="7.927506221111577"><ele>469.0</ele><time>2026-04-07T16:38:56.999Z</time></trkpt><trkpt lat="44.58837793836615" lon="7.927499306438303"><ele>469.0</ele><time>2026-04-07T16:38:57.999Z</time></trkpt><trkpt lat="44.588278855263106" lon="7.927506969004496"><ele>469.0</ele><time>2026-04-07T16:38:59.999Z</time></trkpt><trkpt lat="44.588152845316394" lon="7.927535928886582"><ele>469.0</ele><time>2026-04-07T16:39:01.999Z</time></trkpt><trkpt lat="44.58808189877218" lon="7.92755734497546"><ele>469.0</ele><time>2026-04-07T16:39:02.999Z</time></trkpt><trkpt lat="44.58799128207178" lon="7.927569561386324"><ele>469.0</ele><time>2026-04-07T16:39:04.999Z</time></trkpt><trkpt lat="44.587882988247216" lon="7.927552716844907"><ele>468.79999999999995</ele><time>2026-04-07T16:39:06.999Z</time></trkpt><trkpt lat="44.58779862331475" lon="7.927569611273963"><ele>468.59999999999997</ele><time>2026-04-07T16:39:07.999Z</time></trkpt><trkpt lat="44.587669144170775" lon="7.927551870596126"><ele>468.4</ele><time>2026-04-07T16:39:09.999Z</time></trkpt><trkpt lat="44.587566638142945" lon="7.927585045594484"><ele>468.2</ele><time>2026-04-07T16:39:11.999Z</time></trkpt><trkpt lat="44.58749331936991" lon="7.927592758128877"><ele>468.0</ele><time>2026-04-07T16:39:12.999Z</time></trkpt><trkpt lat="44.587412426719915" lon="7.927574081644384"><ele>468.2</ele><time>2026-04-07T16:39:13.999Z</time></trkpt><trkpt lat="44.58730070952874" lon="7.927556323824825"><ele>468.4</ele><time>2026-04-07T16:39:15.999Z</time></trkpt><trkpt lat="44.587209945102295" lon="7.9275079180304155"><ele>468.59999999999997</ele><time>2026-04-07T16:39:17.999Z</time></trkpt><trkpt lat="44.5871109648255" lon="7.927474070217343"><ele>468.79999999999995</ele><time>2026-04-07T16:39:19.999Z</time></trkpt><trkpt lat="44.58702980547911" lon="7.927462341634566"><ele>469.0</ele><time>2026-04-07T16:39:21.999Z</time></trkpt><trkpt lat="44.58696582435184" lon="7.92748222424789"><ele>469.00000000000006</ele><time>2026-04-07T16:39:23.999Z</time></trkpt><trkpt lat="44.58689629882029" lon="7.927471112750686"><ele>469.0</ele><time>2026-04-07T16:39:25.999Z</time></trkpt><trkpt lat="44.58680018593345" lon="7.927456180819684"><ele>469.0</ele><time>2026-04-07T16:39:27.999Z</time></trkpt><trkpt lat="44.586736022982" lon="7.927506181721224"><ele>469.0</ele><time>2026-04-07T16:39:28.999Z</time></trkpt><trkpt lat="44.586651721827295" lon="7.927478773234319"><ele>469.00000000000006</ele><time>2026-04-07T16:39:30.999Z</time></trkpt><trkpt lat="44.58653661207045" lon="7.927447045559016"><ele>469.0</ele><time>2026-04-07T16:39:32.999Z</time></trkpt><trkpt lat="44.586466545433254" lon="7.927436045357737"><ele>469.00000000000006</ele><time>2026-04-07T16:39:34.999Z</time></trkpt><trkpt lat="44.58639308836764" lon="7.927450070500807"><ele>469.0</ele><time>2026-04-07T16:39:36.999Z</time></trkpt><trkpt lat="44.58633154495276" lon="7.927392182290991"><ele>469.0</ele><time>2026-04-07T16:39:39.999Z</time></trkpt><trkpt lat="44.58635878152205" lon="7.927495188500934"><ele>469.0</ele><time>2026-04-07T16:39:48.998Z</time></trkpt><trkpt lat="44.586430928624715" lon="7.927499158083223"><ele>469.00000000000006</ele><time>2026-04-07T16:39:51.998Z</time></trkpt><trkpt lat="44.58649975511398" lon="7.927447040124269"><ele>469.0</ele><time>2026-04-07T16:39:53.998Z</time></trkpt><trkpt lat="44.586584339054" lon="7.927467279948383"><ele>469.0</ele><time>2026-04-07T16:39:55.998Z</time></trkpt><trkpt lat="44.58667584396202" lon="7.927509606512673"><ele>469.0</ele><time>2026-04-07T16:39:57.998Z</time></trkpt><trkpt lat="44.58676604917774" lon="7.927510925680975"><ele>469.0</ele><time>2026-04-07T16:39:59.998Z</time></trkpt><trkpt lat="44.5868443457437" lon="7.9275504143243065"><ele>469.0</ele><time>2026-04-07T16:40:01.998Z</time></trkpt><trkpt lat="44.58692202752087" lon="7.927544242120681"><ele>469.0</ele><time>2026-04-07T16:40:04Z</time></trkpt><trkpt lat="44.587385737626796" lon="7.92752442627471"><ele>469.5</ele><time>2026-04-07T16:40:39Z</time></trkpt><trkpt lat="44.58744632502652" lon="7.927429502550017"><ele>470.0</ele><time>2026-04-07T16:40:41Z</time></trkpt><trkpt lat="44.58763751487161" lon="7.926846692678348"><ele>470.0</ele><time>2026-04-07T16:40:42Z</time></trkpt><trkpt lat="44.58772204788964" lon="7.926805557079525"><ele>470.0</ele><time>2026-04-07T16:40:44Z</time></trkpt><trkpt lat="44.587786310462846" lon="7.92679217013319"><ele>470.0</ele><time>2026-04-07T16:40:45Z</time></trkpt><trkpt lat="44.58794327514992" lon="7.926764439845996"><ele>470.0</ele><time>2026-04-07T16:40:47Z</time></trkpt><trkpt lat="44.588013081557925" lon="7.926756985061327"><ele>470.0</ele><time>2026-04-07T16:40:48Z</time></trkpt><trkpt lat="44.588113772274305" lon="7.926737873274562"><ele>467.2</ele><time>2026-04-07T16:40:49.999Z</time></trkpt><trkpt lat="44.58817556975827" lon="7.926713350527235"><ele>464.4</ele><time>2026-04-07T16:40:50.999Z</time></trkpt><trkpt lat="44.588262710131296" lon="7.926640566074406"><ele>461.6</ele><time>2026-04-07T16:40:52.999Z</time></trkpt><trkpt lat="44.58832214824494" lon="7.9265750862025275"><ele>458.8</ele><time>2026-04-07T16:40:54.999Z</time></trkpt><trkpt lat="44.588420754147364" lon="7.926545402655263"><ele>456.0</ele><time>2026-04-07T16:40:56.999Z</time></trkpt><trkpt lat="44.58852213598371" lon="7.926465488139005"><ele>456.0</ele><time>2026-04-07T16:40:58.999Z</time></trkpt><trkpt lat="44.58861704383887" lon="7.926365160024563"><ele>456.0</ele><time>2026-04-07T16:41:00.999Z</time></trkpt><trkpt lat="44.588680195659244" lon="7.926335537720412"><ele>456.0</ele><time>2026-04-07T16:41:01.999Z</time></trkpt><trkpt lat="44.58876990544624" lon="7.92626383786297"><ele>456.0</ele><time>2026-04-07T16:41:03.999Z</time></trkpt><trkpt lat="44.588850901112785" lon="7.926200881946103"><ele>456.0</ele><time>2026-04-07T16:41:05.999Z</time></trkpt><trkpt lat="44.58893707161628" lon="7.926151911475244"><ele>456.0</ele><time>2026-04-07T16:41:07.999Z</time></trkpt><trkpt lat="44.589049481617174" lon="7.926118659833844"><ele>456.0</ele><time>2026-04-07T16:41:09.999Z</time></trkpt><trkpt lat="44.5891117113226" lon="7.926104837966902"><ele>456.0</ele><time>2026-04-07T16:41:10.999Z</time></trkpt><trkpt lat="44.589192359343784" lon="7.926070668780531"><ele>456.0</ele><time>2026-04-07T16:41:11.999Z</time></trkpt><trkpt lat="44.589267009917705" lon="7.926048165902127"><ele>456.0</ele><time>2026-04-07T16:41:12.999Z</time></trkpt><trkpt lat="44.58934798547614" lon="7.926028260668352"><ele>456.0</ele><time>2026-04-07T16:41:13.999Z</time></trkpt><trkpt lat="44.58945673202008" lon="7.9260112164772165"><ele>454.25</ele><time>2026-04-07T16:41:14.999Z</time></trkpt><trkpt lat="44.58957357404652" lon="7.9259731081765885"><ele>452.5</ele><time>2026-04-07T16:41:15.999Z</time></trkpt><trkpt lat="44.589699834596274" lon="7.925965239147238"><ele>450.75</ele><time>2026-04-07T16:41:16.999Z</time></trkpt><trkpt lat="44.58982583388419" lon="7.925933286196721"><ele>449.0</ele><time>2026-04-07T16:41:17.999Z</time></trkpt><trkpt lat="44.589911502874" lon="7.925910475721372"><ele>446.4</ele><time>2026-04-07T16:41:18.999Z</time></trkpt><trkpt lat="44.589999421953735" lon="7.925885300525741"><ele>443.79999999999995</ele><time>2026-04-07T16:41:19.999Z</time></trkpt><trkpt lat="44.59007619304041" lon="7.925858849446992"><ele>441.20000000000005</ele><time>2026-04-07T16:41:20.999Z</time></trkpt><trkpt lat="44.59017542476231" lon="7.925820685484111"><ele>438.6</ele><time>2026-04-07T16:41:21.999Z</time></trkpt><trkpt lat="44.59025720144901" lon="7.925789433070615"><ele>436.0</ele><time>2026-04-07T16:41:22.999Z</time></trkpt><trkpt lat="44.59037890941181" lon="7.925745459130938"><ele>436.0</ele><time>2026-04-07T16:41:23.999Z</time></trkpt><trkpt lat="44.59048510517934" lon="7.925707058558075"><ele>436.0</ele><time>2026-04-07T16:41:24.999Z</time></trkpt><trkpt lat="44.59059800495172" lon="7.9256495801269615"><ele>436.0</ele><time>2026-04-07T16:41:25.999Z</time></trkpt><trkpt lat="44.590735296601224" lon="7.925609484390115"><ele>436.0</ele><time>2026-04-07T16:41:27.999Z</time></trkpt><trkpt lat="44.59079733917901" lon="7.925585177085969"><ele>436.0</ele><time>2026-04-07T16:41:28.999Z</time></trkpt><trkpt lat="44.59090090802699" lon="7.9255377200342485"><ele>436.0</ele><time>2026-04-07T16:41:30.999Z</time></trkpt><trkpt lat="44.59099006816225" lon="7.925525421009649"><ele>436.0</ele><time>2026-04-07T16:41:33.999Z</time></trkpt><trkpt lat="44.590930264102376" lon="7.925325414918554"><ele>436.0</ele><time>2026-04-07T16:41:59.998Z</time></trkpt><trkpt lat="44.59082716167655" lon="7.925231340632242"><ele>436.0</ele><time>2026-04-07T16:42:01.998Z</time></trkpt><trkpt lat="44.59075350640761" lon="7.9251645223383305"><ele>436.0</ele><time>2026-04-07T16:42:02.998Z</time></trkpt><trkpt lat="44.59065782718164" lon="7.925092579382249"><ele>436.0</ele><time>2026-04-07T16:42:03.998Z</time></trkpt><trkpt lat="44.590564790355764" lon="7.925010170844083"><ele>436.0</ele><time>2026-04-07T16:42:04.998Z</time></trkpt><trkpt lat="44.59048019498579" lon="7.924949376759412"><ele>436.0</ele><time>2026-04-07T16:42:05.998Z</time></trkpt><trkpt lat="44.59039005334097" lon="7.9248720006718445"><ele>436.0</ele><time>2026-04-07T16:42:06.998Z</time></trkpt><trkpt lat="44.590311790205675" lon="7.92477717396361"><ele>434.33333333333337</ele><time>2026-04-07T16:42:07.998Z</time></trkpt><trkpt lat="44.590229260217654" lon="7.924705428531077"><ele>432.6666666666667</ele><time>2026-04-07T16:42:09Z</time></trkpt><trkpt lat="44.590149875042925" lon="7.924636416888226"><ele>431.0</ele><time>2026-04-07T16:42:10Z</time></trkpt><trkpt lat="44.59007218442658" lon="7.924580356441172"><ele>429.33333333333337</ele><time>2026-04-07T16:42:11Z</time></trkpt><trkpt lat="44.589999834141125" lon="7.924531200291002"><ele>427.6666666666667</ele><time>2026-04-07T16:42:12Z</time></trkpt><trkpt lat="44.589927484794586" lon="7.924462584570373"><ele>426.0</ele><time>2026-04-07T16:42:13Z</time></trkpt><trkpt lat="44.589855623524734" lon="7.92439672427673"><ele>426.0</ele><time>2026-04-07T16:42:14Z</time></trkpt><trkpt lat="44.589777860017456" lon="7.924334250957413"><ele>426.0</ele><time>2026-04-07T16:42:15Z</time></trkpt><trkpt lat="44.5897004897562" lon="7.924270562336814"><ele>426.0</ele><time>2026-04-07T16:42:16Z</time></trkpt><trkpt lat="44.589625942885476" lon="7.924203813903594"><ele>426.0</ele><time>2026-04-07T16:42:17Z</time></trkpt><trkpt lat="44.589545274730376" lon="7.9241300610954015"><ele>426.0</ele><time>2026-04-07T16:42:18Z</time></trkpt><trkpt lat="44.589458725679094" lon="7.924059212497366"><ele>424.8</ele><time>2026-04-07T16:42:19Z</time></trkpt><trkpt lat="44.58936177807168" lon="7.923985668300469"><ele>423.6</ele><time>2026-04-07T16:42:20Z</time></trkpt><trkpt lat="44.58926786809766" lon="7.923923403466825"><ele>422.4</ele><time>2026-04-07T16:42:21Z</time></trkpt><trkpt lat="44.589173056423725" lon="7.923863076445139"><ele>421.2</ele><time>2026-04-07T16:42:22Z</time></trkpt><trkpt lat="44.58908234258672" lon="7.923785371381389"><ele>420.0</ele><time>2026-04-07T16:42:23Z</time></trkpt><trkpt lat="44.58896474362833" lon="7.923747662339699"><ele>420.0</ele><time>2026-04-07T16:42:24Z</time></trkpt><trkpt lat="44.588829551359794" lon="7.923722365642087"><ele>420.0</ele><time>2026-04-07T16:42:25Z</time></trkpt><trkpt lat="44.58871337875143" lon="7.923737431413562"><ele>420.0</ele><time>2026-04-07T16:42:26Z</time></trkpt><trkpt lat="44.58859823833007" lon="7.9237429995964614"><ele>420.0</ele><time>2026-04-07T16:42:27Z</time></trkpt><trkpt lat="44.588475861457226" lon="7.923749609804274"><ele>419.8</ele><time>2026-04-07T16:42:28Z</time></trkpt><trkpt lat="44.588357122756534" lon="7.923757425922494"><ele>419.6</ele><time>2026-04-07T16:42:29Z</time></trkpt><trkpt lat="44.588263308743905" lon="7.923775162705897"><ele>419.4</ele><time>2026-04-07T16:42:30Z</time></trkpt><trkpt lat="44.58815458104513" lon="7.9237874572531055"><ele>419.2</ele><time>2026-04-07T16:42:31Z</time></trkpt><trkpt lat="44.58804928279198" lon="7.9238023222040725"><ele>419.0</ele><time>2026-04-07T16:42:32Z</time></trkpt><trkpt lat="44.58794959051934" lon="7.923814049174089"><ele>419.0</ele><time>2026-04-07T16:42:33Z</time></trkpt><trkpt lat="44.587846396986215" lon="7.923819569184249"><ele>419.0</ele><time>2026-04-07T16:42:34Z</time></trkpt><trkpt lat="44.58775322462835" lon="7.923825496174023"><ele>419.0</ele><time>2026-04-07T16:42:35Z</time></trkpt><trkpt lat="44.58764924299761" lon="7.9238346656436445"><ele>419.0</ele><time>2026-04-07T16:42:36Z</time></trkpt><trkpt lat="44.58755221789344" lon="7.923835655550056"><ele>419.0</ele><time>2026-04-07T16:42:37Z</time></trkpt><trkpt lat="44.587466723683825" lon="7.92383185245101"><ele>418.79999999999995</ele><time>2026-04-07T16:42:38Z</time></trkpt><trkpt lat="44.58736240782089" lon="7.923804923158107"><ele>418.59999999999997</ele><time>2026-04-07T16:42:39Z</time></trkpt><trkpt lat="44.587260401013204" lon="7.923756227106435"><ele>418.4</ele><time>2026-04-07T16:42:40Z</time></trkpt><trkpt lat="44.58716201900215" lon="7.923691135801362"><ele>418.2</ele><time>2026-04-07T16:42:41Z</time></trkpt><trkpt lat="44.587061227775735" lon="7.923607881423039"><ele>418.0</ele><time>2026-04-07T16:42:42Z</time></trkpt><trkpt lat="44.58695709672854" lon="7.92350263746694"><ele>415.75</ele><time>2026-04-07T16:42:43Z</time></trkpt><trkpt lat="44.58686414033186" lon="7.923390324786334"><ele>413.5</ele><time>2026-04-07T16:42:44Z</time></trkpt><trkpt lat="44.58677863133317" lon="7.9232750551453845"><ele>411.25</ele><time>2026-04-07T16:42:45Z</time></trkpt><trkpt lat="44.586689400365096" lon="7.923147548308765"><ele>409.0</ele><time>2026-04-07T16:42:46Z</time></trkpt><trkpt lat="44.586602774912514" lon="7.9230226313261305"><ele>409.0</ele><time>2026-04-07T16:42:47Z</time></trkpt><trkpt lat="44.58651023327607" lon="7.922896934022127"><ele>409.0</ele><time>2026-04-07T16:42:48Z</time></trkpt><trkpt lat="44.58641928188829" lon="7.9227787019340505"><ele>409.0</ele><time>2026-04-07T16:42:49Z</time></trkpt><trkpt lat="44.5863305377887" lon="7.9226590829061125"><ele>409.0</ele><time>2026-04-07T16:42:50Z</time></trkpt><trkpt lat="44.586255841228954" lon="7.922519790487841"><ele>407.75</ele><time>2026-04-07T16:42:51Z</time></trkpt><trkpt lat="44.58617209053228" lon="7.922405781823865"><ele>406.5</ele><time>2026-04-07T16:42:52Z</time></trkpt><trkpt lat="44.58608800180388" lon="7.922292663746153"><ele>405.25</ele><time>2026-04-07T16:42:53Z</time></trkpt><trkpt lat="44.586000557683626" lon="7.922174248551214"><ele>404.0</ele><time>2026-04-07T16:42:54Z</time></trkpt><trkpt lat="44.58591896049977" lon="7.922050667738373"><ele>404.0</ele><time>2026-04-07T16:42:54.999Z</time></trkpt><trkpt lat="44.5858304455222" lon="7.921928579635466"><ele>404.0</ele><time>2026-04-07T16:42:55.999Z</time></trkpt><trkpt lat="44.585743314950456" lon="7.921804881579833"><ele>404.0</ele><time>2026-04-07T16:42:56.999Z</time></trkpt><trkpt lat="44.5856501798686" lon="7.921676732749596"><ele>404.0</ele><time>2026-04-07T16:42:57.999Z</time></trkpt><trkpt lat="44.58554930771777" lon="7.921537644973949"><ele>402.66666666666663</ele><time>2026-04-07T16:42:58.999Z</time></trkpt><trkpt lat="44.58544032008194" lon="7.921391075276495"><ele>401.33333333333337</ele><time>2026-04-07T16:42:59.999Z</time></trkpt><trkpt lat="44.585328229917195" lon="7.921236150131909"><ele>400.0</ele><time>2026-04-07T16:43:00.999Z</time></trkpt><trkpt lat="44.585208594023094" lon="7.92106681618279"><ele>400.33333333333337</ele><time>2026-04-07T16:43:01.999Z</time></trkpt><trkpt lat="44.58508533347627" lon="7.92089088611684"><ele>400.66666666666663</ele><time>2026-04-07T16:43:02.999Z</time></trkpt><trkpt lat="44.58496298755409" lon="7.920717979913275"><ele>401.0</ele><time>2026-04-07T16:43:03.999Z</time></trkpt><trkpt lat="44.584827917982366" lon="7.92054189755003"><ele>401.0</ele><time>2026-04-07T16:43:04.999Z</time></trkpt><trkpt lat="44.584686392073706" lon="7.920343610432769"><ele>401.0</ele><time>2026-04-07T16:43:05.999Z</time></trkpt><trkpt lat="44.58454614837924" lon="7.920156873154186"><ele>401.0</ele><time>2026-04-07T16:43:06.999Z</time></trkpt><trkpt lat="44.584416510907076" lon="7.919965691162153"><ele>399.3333333333333</ele><time>2026-04-07T16:43:07.999Z</time></trkpt><trkpt lat="44.584290132749175" lon="7.919779144461014"><ele>397.66666666666663</ele><time>2026-04-07T16:43:08.999Z</time></trkpt><trkpt lat="44.58416706538366" lon="7.919618700040002"><ele>396.0</ele><time>2026-04-07T16:43:09.999Z</time></trkpt><trkpt lat="44.58406748202726" lon="7.9194391012371765"><ele>396.0</ele><time>2026-04-07T16:43:10.999Z</time></trkpt><trkpt lat="44.58395664229513" lon="7.919310734910938"><ele>396.0</ele><time>2026-04-07T16:43:11.999Z</time></trkpt><trkpt lat="44.58386534192111" lon="7.919194397527853"><ele>396.0</ele><time>2026-04-07T16:43:12.999Z</time></trkpt><trkpt lat="44.58379005413911" lon="7.919086713913829"><ele>396.0</ele><time>2026-04-07T16:43:13.999Z</time></trkpt><trkpt lat="44.583712014202824" lon="7.9189713044071"><ele>397.75</ele><time>2026-04-07T16:43:14.999Z</time></trkpt><trkpt lat="44.58364380633134" lon="7.9188633491066955"><ele>399.5</ele><time>2026-04-07T16:43:15.999Z</time></trkpt><trkpt lat="44.583586992855075" lon="7.91873174539883"><ele>401.25</ele><time>2026-04-07T16:43:16.999Z</time></trkpt><trkpt lat="44.58353830068483" lon="7.9185872561319"><ele>403.0</ele><time>2026-04-07T16:43:17.999Z</time></trkpt><trkpt lat="44.583495773184374" lon="7.918416987904383"><ele>402.0</ele><time>2026-04-07T16:43:18.999Z</time></trkpt><trkpt lat="44.58346583339744" lon="7.91827068545695"><ele>401.0</ele><time>2026-04-07T16:43:19.999Z</time></trkpt><trkpt lat="44.583449671201215" lon="7.918107749602336"><ele>400.0</ele><time>2026-04-07T16:43:20.999Z</time></trkpt><trkpt lat="44.58344495358178" lon="7.917943574584134"><ele>399.0</ele><time>2026-04-07T16:43:21.999Z</time></trkpt><trkpt lat="44.583454658882935" lon="7.917786315773057"><ele>399.0</ele><time>2026-04-07T16:43:22.999Z</time></trkpt><trkpt lat="44.58347014824838" lon="7.917638869815528"><ele>399.0</ele><time>2026-04-07T16:43:23.999Z</time></trkpt><trkpt lat="44.58350720128751" lon="7.917492632668734"><ele>399.0</ele><time>2026-04-07T16:43:24.999Z</time></trkpt><trkpt lat="44.58352561496357" lon="7.917350233934317"><ele>399.0</ele><time>2026-04-07T16:43:25.999Z</time></trkpt><trkpt lat="44.583538599996366" lon="7.917211569586857"><ele>399.0</ele><time>2026-04-07T16:43:26.999Z</time></trkpt><trkpt lat="44.58355273588318" lon="7.917075564312897"><ele>396.4</ele><time>2026-04-07T16:43:27.999Z</time></trkpt><trkpt lat="44.5835602089089" lon="7.916932660378686"><ele>393.79999999999995</ele><time>2026-04-07T16:43:28.999Z</time></trkpt><trkpt lat="44.583558973133876" lon="7.916788763221517"><ele>391.20000000000005</ele><time>2026-04-07T16:43:29.999Z</time></trkpt><trkpt lat="44.583545821070274" lon="7.916632386105467"><ele>388.6</ele><time>2026-04-07T16:43:30.999Z</time></trkpt><trkpt lat="44.583525377624305" lon="7.916461786258557"><ele>386.0</ele><time>2026-04-07T16:43:31.999Z</time></trkpt><trkpt lat="44.58348740349733" lon="7.9162738455912365"><ele>384.5</ele><time>2026-04-07T16:43:32.999Z</time></trkpt><trkpt lat="44.583444243304804" lon="7.916103662355824"><ele>383.0</ele><time>2026-04-07T16:43:33.999Z</time></trkpt><trkpt lat="44.58339888114007" lon="7.915944301378259"><ele>381.5</ele><time>2026-04-07T16:43:34.999Z</time></trkpt><trkpt lat="44.583353501289935" lon="7.91577250125292"><ele>380.0</ele><time>2026-04-07T16:43:35.999Z</time></trkpt><trkpt lat="44.58330467973839" lon="7.9156111821889175"><ele>379.0</ele><time>2026-04-07T16:43:36.999Z</time></trkpt><trkpt lat="44.58325996617034" lon="7.915469828293551"><ele>378.0</ele><time>2026-04-07T16:43:37.999Z</time></trkpt><trkpt lat="44.58322665688975" lon="7.915337193368347"><ele>377.0</ele><time>2026-04-07T16:43:38.999Z</time></trkpt><trkpt lat="44.583199264769675" lon="7.915216133957335"><ele>376.0</ele><time>2026-04-07T16:43:39.999Z</time></trkpt><trkpt lat="44.58316461502894" lon="7.915092562161364"><ele>375.0</ele><time>2026-04-07T16:43:40.999Z</time></trkpt><trkpt lat="44.58312948592669" lon="7.914980143711202"><ele>374.0</ele><time>2026-04-07T16:43:41.999Z</time></trkpt><trkpt lat="44.58310002807942" lon="7.914870176871474"><ele>373.0</ele><time>2026-04-07T16:43:42.999Z</time></trkpt><trkpt lat="44.58306652455301" lon="7.914755489909403"><ele>372.0</ele><time>2026-04-07T16:43:43.999Z</time></trkpt><trkpt lat="44.583041573360774" lon="7.91465637732199"><ele>371.0</ele><time>2026-04-07T16:43:44.999Z</time></trkpt><trkpt lat="44.58303489535711" lon="7.914558401510339"><ele>370.0</ele><time>2026-04-07T16:43:45.999Z</time></trkpt><trkpt lat="44.58304885893074" lon="7.9144629766510795"><ele>369.0</ele><time>2026-04-07T16:43:46.999Z</time></trkpt><trkpt lat="44.58308632719965" lon="7.914369547574107"><ele>369.0</ele><time>2026-04-07T16:43:47.999Z</time></trkpt><trkpt lat="44.583135825327275" lon="7.914280636590799"><ele>369.0</ele><time>2026-04-07T16:43:48.999Z</time></trkpt><trkpt lat="44.58319530605902" lon="7.914207314386798"><ele>369.0</ele><time>2026-04-07T16:43:49.999Z</time></trkpt><trkpt lat="44.58326527631392" lon="7.914150650723804"><ele>369.0</ele><time>2026-04-07T16:43:50.999Z</time></trkpt><trkpt lat="44.58334343103742" lon="7.914100636451201"><ele>369.0</ele><time>2026-04-07T16:43:51.999Z</time></trkpt><trkpt lat="44.58342846589246" lon="7.914102396229989"><ele>369.0</ele><time>2026-04-07T16:43:52.999Z</time></trkpt><trkpt lat="44.583507633607134" lon="7.914136318239511"><ele>369.0</ele><time>2026-04-07T16:43:53.999Z</time></trkpt><trkpt lat="44.58359459055603" lon="7.914194442738896"><ele>369.0</ele><time>2026-04-07T16:43:54.999Z</time></trkpt><trkpt lat="44.583674162736806" lon="7.914297923376408"><ele>369.0</ele><time>2026-04-07T16:43:55.999Z</time></trkpt><trkpt lat="44.58375495888768" lon="7.914442103438676"><ele>369.0</ele><time>2026-04-07T16:43:56.998Z</time></trkpt><trkpt lat="44.58382720973934" lon="7.914596885647869"><ele>368.25</ele><time>2026-04-07T16:43:57.998Z</time></trkpt><trkpt lat="44.583916865099454" lon="7.914766464970808"><ele>367.5</ele><time>2026-04-07T16:43:58.998Z</time></trkpt><trkpt lat="44.5839991853878" lon="7.914915950701491"><ele>366.75</ele><time>2026-04-07T16:43:59.998Z</time></trkpt><trkpt lat="44.58408497770559" lon="7.9150670338657845"><ele>366.0</ele><time>2026-04-07T16:44:00.998Z</time></trkpt><trkpt lat="44.58415962113276" lon="7.9152084534487"><ele>366.0</ele><time>2026-04-07T16:44:01.998Z</time></trkpt><trkpt lat="44.58423660912937" lon="7.915342018401547"><ele>366.0</ele><time>2026-04-07T16:44:02.998Z</time></trkpt><trkpt lat="44.5842905653243" lon="7.915508471628726"><ele>366.0</ele><time>2026-04-07T16:44:03.998Z</time></trkpt><trkpt lat="44.584353405456824" lon="7.9156352309844715"><ele>366.0</ele><time>2026-04-07T16:44:04.998Z</time></trkpt><trkpt lat="44.584410381841494" lon="7.915739222161859"><ele>366.0</ele><time>2026-04-07T16:44:05.998Z</time></trkpt><trkpt lat="44.584466305392354" lon="7.91584017663838"><ele>366.0</ele><time>2026-04-07T16:44:06.998Z</time></trkpt><trkpt lat="44.58452477653713" lon="7.915929914763089"><ele>366.0</ele><time>2026-04-07T16:44:07.998Z</time></trkpt><trkpt lat="44.58459168252671" lon="7.916023827461065"><ele>366.0</ele><time>2026-04-07T16:44:08.998Z</time></trkpt><trkpt lat="44.58466955106314" lon="7.916095667495212"><ele>366.0</ele><time>2026-04-07T16:44:09.998Z</time></trkpt><trkpt lat="44.58475080099935" lon="7.916138121676681"><ele>364.0</ele><time>2026-04-07T16:44:10.998Z</time></trkpt><trkpt lat="44.58485198930266" lon="7.916183114324627"><ele>362.0</ele><time>2026-04-07T16:44:11.998Z</time></trkpt><trkpt lat="44.58496631497191" lon="7.916189398285697"><ele>360.0</ele><time>2026-04-07T16:44:12.998Z</time></trkpt><trkpt lat="44.585085313835144" lon="7.916180013793428"><ele>358.0</ele><time>2026-04-07T16:44:13.998Z</time></trkpt><trkpt lat="44.58521865711769" lon="7.916143163113259"><ele>358.0</ele><time>2026-04-07T16:44:15Z</time></trkpt><trkpt lat="44.58534078666646" lon="7.916094945180351"><ele>358.0</ele><time>2026-04-07T16:44:16Z</time></trkpt><trkpt lat="44.585468490376876" lon="7.916019820390011"><ele>358.0</ele><time>2026-04-07T16:44:17Z</time></trkpt><trkpt lat="44.58559485374178" lon="7.915953159144328"><ele>358.0</ele><time>2026-04-07T16:44:18Z</time></trkpt><trkpt lat="44.58571045489377" lon="7.915881544973508"><ele>354.0</ele><time>2026-04-07T16:44:19Z</time></trkpt><trkpt lat="44.58583350853354" lon="7.915813879100979"><ele>350.0</ele><time>2026-04-07T16:44:20Z</time></trkpt><trkpt lat="44.58594123708922" lon="7.915743592939017"><ele>346.0</ele><time>2026-04-07T16:44:21Z</time></trkpt><trkpt lat="44.586047855577185" lon="7.915670230458155"><ele>342.0</ele><time>2026-04-07T16:44:22Z</time></trkpt><trkpt lat="44.58614334909729" lon="7.91558891543992"><ele>341.6</ele><time>2026-04-07T16:44:23Z</time></trkpt><trkpt lat="44.58623383008711" lon="7.915501851972686"><ele>341.20000000000005</ele><time>2026-04-07T16:44:24Z</time></trkpt><trkpt lat="44.58630941744318" lon="7.915408154560385"><ele>340.8</ele><time>2026-04-07T16:44:25Z</time></trkpt><trkpt lat="44.58637762002701" lon="7.915308597415396"><ele>340.4</ele><time>2026-04-07T16:44:26Z</time></trkpt><trkpt lat="44.58644544328474" lon="7.915180751520359"><ele>340.0</ele><time>2026-04-07T16:44:27Z</time></trkpt><trkpt lat="44.586507610236985" lon="7.9150253486826365"><ele>340.0</ele><time>2026-04-07T16:44:28Z</time></trkpt><trkpt lat="44.58656323305445" lon="7.9148478286845645"><ele>340.0</ele><time>2026-04-07T16:44:29Z</time></trkpt><trkpt lat="44.5866383048324" lon="7.914667212667068"><ele>340.0</ele><time>2026-04-07T16:44:30Z</time></trkpt><trkpt lat="44.586688373065975" lon="7.91446878175706"><ele>340.0</ele><time>2026-04-07T16:44:31Z</time></trkpt><trkpt lat="44.586733518973105" lon="7.914276864969576"><ele>337.25</ele><time>2026-04-07T16:44:32Z</time></trkpt><trkpt lat="44.586775507019674" lon="7.914095416828168"><ele>334.5</ele><time>2026-04-07T16:44:33Z</time></trkpt><trkpt lat="44.58682320723086" lon="7.913919544380826"><ele>331.75</ele><time>2026-04-07T16:44:34Z</time></trkpt><trkpt lat="44.58686143066023" lon="7.91376347720306"><ele>329.0</ele><time>2026-04-07T16:44:35Z</time></trkpt><trkpt lat="44.58690080478309" lon="7.913607791150829"><ele>329.0</ele><time>2026-04-07T16:44:36Z</time></trkpt><trkpt lat="44.58693390724263" lon="7.913461093456064"><ele>329.0</ele><time>2026-04-07T16:44:37Z</time></trkpt><trkpt lat="44.58698655382166" lon="7.913312225649732"><ele>329.0</ele><time>2026-04-07T16:44:38Z</time></trkpt><trkpt lat="44.587027817256555" lon="7.913170758751268"><ele>329.0</ele><time>2026-04-07T16:44:39Z</time></trkpt><trkpt lat="44.587056896025786" lon="7.9130664144219"><ele>329.0</ele><time>2026-04-07T16:44:40Z</time></trkpt><trkpt lat="44.58707678764113" lon="7.912965985875634"><ele>329.0</ele><time>2026-04-07T16:44:41Z</time></trkpt><trkpt lat="44.587091559169934" lon="7.912856130285382"><ele>329.0</ele><time>2026-04-07T16:44:42Z</time></trkpt><trkpt lat="44.587092899649335" lon="7.912735370192445"><ele>329.0</ele><time>2026-04-07T16:44:43Z</time></trkpt><trkpt lat="44.587087841297475" lon="7.912592065972042"><ele>329.0</ele><time>2026-04-07T16:44:44Z</time></trkpt><trkpt lat="44.587075260329925" lon="7.9124380792733415"><ele>329.0</ele><time>2026-04-07T16:44:45Z</time></trkpt><trkpt lat="44.58705611225486" lon="7.912257705762844"><ele>328.75</ele><time>2026-04-07T16:44:46Z</time></trkpt><trkpt lat="44.58702766175917" lon="7.912063211470156"><ele>328.5</ele><time>2026-04-07T16:44:47Z</time></trkpt><trkpt lat="44.586993965690354" lon="7.9118705412994075"><ele>328.25</ele><time>2026-04-07T16:44:48Z</time></trkpt><trkpt lat="44.5869601622021" lon="7.9116744464057165"><ele>328.0</ele><time>2026-04-07T16:44:49Z</time></trkpt><trkpt lat="44.586928486451264" lon="7.9114840991938395"><ele>322.0</ele><time>2026-04-07T16:44:50Z</time></trkpt><trkpt lat="44.586896760062906" lon="7.911294135326816"><ele>316.0</ele><time>2026-04-07T16:44:51Z</time></trkpt><trkpt lat="44.58686683360063" lon="7.911107031270547"><ele>310.0</ele><time>2026-04-07T16:44:52Z</time></trkpt><trkpt lat="44.58683634681792" lon="7.91091388328292"><ele>304.0</ele><time>2026-04-07T16:44:53Z</time></trkpt><trkpt lat="44.58680566911025" lon="7.910730285669644"><ele>303.5</ele><time>2026-04-07T16:44:54Z</time></trkpt><trkpt lat="44.58676904213151" lon="7.910551879999525"><ele>303.0</ele><time>2026-04-07T16:44:55Z</time></trkpt><trkpt lat="44.586747754786515" lon="7.9103785339385295"><ele>302.5</ele><time>2026-04-07T16:44:56Z</time></trkpt><trkpt lat="44.58672117911586" lon="7.910230102542903"><ele>302.0</ele><time>2026-04-07T16:44:57Z</time></trkpt><trkpt lat="44.58669630806446" lon="7.910089623482498"><ele>302.0</ele><time>2026-04-07T16:44:58Z</time></trkpt><trkpt lat="44.58667220781978" lon="7.909960691503878"><ele>302.0</ele><time>2026-04-07T16:44:58.999Z</time></trkpt><trkpt lat="44.586658413409054" lon="7.9098613332433025"><ele>302.0</ele><time>2026-04-07T16:44:59.999Z</time></trkpt><trkpt lat="44.5866384406795" lon="7.909744971960872"><ele>302.0</ele><time>2026-04-07T16:45:00.999Z</time></trkpt><trkpt lat="44.58661792760962" lon="7.909632165414825"><ele>302.0</ele><time>2026-04-07T16:45:01.999Z</time></trkpt><trkpt lat="44.58660011596748" lon="7.909527535015553"><ele>302.0</ele><time>2026-04-07T16:45:02.999Z</time></trkpt><trkpt lat="44.586601488417976" lon="7.909338944460887"><ele>302.0</ele><time>2026-04-07T16:45:04.999Z</time></trkpt><trkpt lat="44.586629276147605" lon="7.90924639835714"><ele>302.0</ele><time>2026-04-07T16:45:05.999Z</time></trkpt><trkpt lat="44.58667516461559" lon="7.909148213726233"><ele>302.0</ele><time>2026-04-07T16:45:06.999Z</time></trkpt><trkpt lat="44.58673835710696" lon="7.909074462322462"><ele>302.0</ele><time>2026-04-07T16:45:07.999Z</time></trkpt><trkpt lat="44.58681552884141" lon="7.909023052292103"><ele>302.0</ele><time>2026-04-07T16:45:08.999Z</time></trkpt><trkpt lat="44.586909146970385" lon="7.908978316651093"><ele>302.0</ele><time>2026-04-07T16:45:09.999Z</time></trkpt><trkpt lat="44.58701580161417" lon="7.908969462903312"><ele>300.75</ele><time>2026-04-07T16:45:10.999Z</time></trkpt><trkpt lat="44.587131512534775" lon="7.908983074585688"><ele>299.5</ele><time>2026-04-07T16:45:11.999Z</time></trkpt><trkpt lat="44.587258934256894" lon="7.909011934714059"><ele>298.25</ele><time>2026-04-07T16:45:12.999Z</time></trkpt><trkpt lat="44.58738176993773" lon="7.9090443954688885"><ele>297.0</ele><time>2026-04-07T16:45:13.999Z</time></trkpt><trkpt lat="44.58751015331776" lon="7.9090616113380126"><ele>297.0</ele><time>2026-04-07T16:45:14.999Z</time></trkpt><trkpt lat="44.5876315533103" lon="7.9090866711580095"><ele>297.0</ele><time>2026-04-07T16:45:15.999Z</time></trkpt><trkpt lat="44.58775767617717" lon="7.909099564995403"><ele>297.0</ele><time>2026-04-07T16:45:16.999Z</time></trkpt><trkpt lat="44.58791341431047" lon="7.909089483176282"><ele>297.0</ele><time>2026-04-07T16:45:17.999Z</time></trkpt><trkpt lat="44.5880588043531" lon="7.909054186337029"><ele>296.0</ele><time>2026-04-07T16:45:18.999Z</time></trkpt><trkpt lat="44.58820165200994" lon="7.909025091105986"><ele>295.0</ele><time>2026-04-07T16:45:19.999Z</time></trkpt><trkpt lat="44.588345296576335" lon="7.909001686539157"><ele>294.0</ele><time>2026-04-07T16:45:20.999Z</time></trkpt><trkpt lat="44.58845572751812" lon="7.908977115367347"><ele>293.0</ele><time>2026-04-07T16:45:21.999Z</time></trkpt><trkpt lat="44.58857339342328" lon="7.908963641303076"><ele>293.0</ele><time>2026-04-07T16:45:22.999Z</time></trkpt><trkpt lat="44.58865544860378" lon="7.908953759036393"><ele>293.0</ele><time>2026-04-07T16:45:23.999Z</time></trkpt><trkpt lat="44.58875040267716" lon="7.908929305571437"><ele>293.0</ele><time>2026-04-07T16:45:24.999Z</time></trkpt><trkpt lat="44.58883600009477" lon="7.908914477262314"><ele>293.0</ele><time>2026-04-07T16:45:25.999Z</time></trkpt><trkpt lat="44.588974510536524" lon="7.908867185474223"><ele>293.0</ele><time>2026-04-07T16:45:27.999Z</time></trkpt><trkpt lat="44.589035369878154" lon="7.9088300834370076"><ele>290.83333333333337</ele><time>2026-04-07T16:45:28.999Z</time></trkpt><trkpt lat="44.589096822759906" lon="7.908755351263395"><ele>288.6666666666667</ele><time>2026-04-07T16:45:29.999Z</time></trkpt><trkpt lat="44.58915962709126" lon="7.908668756256348"><ele>286.5</ele><time>2026-04-07T16:45:30.999Z</time></trkpt><trkpt lat="44.589180845614145" lon="7.908579009959727"><ele>284.3333333333333</ele><time>2026-04-07T16:45:31.999Z</time></trkpt><trkpt lat="44.589220148775205" lon="7.90849169168143"><ele>282.16666666666663</ele><time>2026-04-07T16:45:32.999Z</time></trkpt><trkpt lat="44.58923555432114" lon="7.908399602823625"><ele>280.0</ele><time>2026-04-07T16:45:33.999Z</time></trkpt><trkpt lat="44.589227630114166" lon="7.908292999365916"><ele>279.2</ele><time>2026-04-07T16:45:34.999Z</time></trkpt><trkpt lat="44.58921521429402" lon="7.9081879813288705"><ele>278.4</ele><time>2026-04-07T16:45:35.999Z</time></trkpt><trkpt lat="44.589187115611324" lon="7.908076738935203"><ele>277.6</ele><time>2026-04-07T16:45:36.999Z</time></trkpt><trkpt lat="44.589154628794766" lon="7.907948835516413"><ele>276.8</ele><time>2026-04-07T16:45:37.999Z</time></trkpt><trkpt lat="44.58911171013954" lon="7.90783096926213"><ele>276.0</ele><time>2026-04-07T16:45:38.999Z</time></trkpt><trkpt lat="44.58905563351011" lon="7.907691872221375"><ele>274.0</ele><time>2026-04-07T16:45:39.999Z</time></trkpt><trkpt lat="44.588988035979014" lon="7.907530747829606"><ele>272.0</ele><time>2026-04-07T16:45:40.999Z</time></trkpt><trkpt lat="44.588942632221766" lon="7.907362155898373"><ele>270.0</ele><time>2026-04-07T16:45:41.999Z</time></trkpt><trkpt lat="44.588879760065375" lon="7.907211004894276"><ele>268.0</ele><time>2026-04-07T16:45:42.999Z</time></trkpt><trkpt lat="44.58881905981737" lon="7.9070608503202555"><ele>268.0</ele><time>2026-04-07T16:45:43.999Z</time></trkpt><trkpt lat="44.58876040780082" lon="7.906900199567243"><ele>268.0</ele><time>2026-04-07T16:45:44.999Z</time></trkpt><trkpt lat="44.58870526453909" lon="7.906757069863922"><ele>268.0</ele><time>2026-04-07T16:45:45.999Z</time></trkpt><trkpt lat="44.58864294444046" lon="7.906605060537637"><ele>268.0</ele><time>2026-04-07T16:45:46.999Z</time></trkpt><trkpt lat="44.58859593332672" lon="7.906485460241067"><ele>267.3333333333333</ele><time>2026-04-07T16:45:47.999Z</time></trkpt><trkpt lat="44.58855420152174" lon="7.906386313293236"><ele>266.66666666666663</ele><time>2026-04-07T16:45:48.999Z</time></trkpt><trkpt lat="44.588506991584104" lon="7.906283332991049"><ele>266.0</ele><time>2026-04-07T16:45:49.999Z</time></trkpt><trkpt lat="44.588459329923865" lon="7.906187913536652"><ele>265.3333333333333</ele><time>2026-04-07T16:45:50.999Z</time></trkpt><trkpt lat="44.58840457402833" lon="7.906097957133133"><ele>264.6666666666667</ele><time>2026-04-07T16:45:51.999Z</time></trkpt><trkpt lat="44.58835042836171" lon="7.90599908312269"><ele>264.0</ele><time>2026-04-07T16:45:52.999Z</time></trkpt><trkpt lat="44.58828278498108" lon="7.9059190350917765"><ele>262.0</ele><time>2026-04-07T16:45:53.999Z</time></trkpt><trkpt lat="44.588208233105185" lon="7.9058530532241305"><ele>260.0</ele><time>2026-04-07T16:45:54.999Z</time></trkpt><trkpt lat="44.58810886140705" lon="7.905797691276377"><ele>258.0</ele><time>2026-04-07T16:45:55.999Z</time></trkpt><trkpt lat="44.58799736081468" lon="7.905768506011342"><ele>256.0</ele><time>2026-04-07T16:45:56.999Z</time></trkpt><trkpt lat="44.587872592755446" lon="7.9057631859884845"><ele>254.0</ele><time>2026-04-07T16:45:57.999Z</time></trkpt><trkpt lat="44.58773922243802" lon="7.905772196834724"><ele>254.0</ele><time>2026-04-07T16:45:58.999Z</time></trkpt><trkpt lat="44.58759790009263" lon="7.905806046400026"><ele>254.0</ele><time>2026-04-07T16:45:59.999Z</time></trkpt><trkpt lat="44.58742800603255" lon="7.905794711983109"><ele>254.0</ele><time>2026-04-07T16:46:00.998Z</time></trkpt><trkpt lat="44.58726846511141" lon="7.9058091739437835"><ele>254.0</ele><time>2026-04-07T16:46:01.998Z</time></trkpt><trkpt lat="44.58711472444335" lon="7.905821933981876"><ele>254.0</ele><time>2026-04-07T16:46:02.998Z</time></trkpt><trkpt lat="44.58696575817876" lon="7.905831885192608"><ele>254.0</ele><time>2026-04-07T16:46:03.998Z</time></trkpt><trkpt lat="44.586813821593566" lon="7.905845504938036"><ele>252.0</ele><time>2026-04-07T16:46:04.998Z</time></trkpt><trkpt lat="44.586670836406654" lon="7.905860909127641"><ele>250.0</ele><time>2026-04-07T16:46:05.998Z</time></trkpt><trkpt lat="44.5865349546939" lon="7.905870175140941"><ele>248.0</ele><time>2026-04-07T16:46:06.998Z</time></trkpt><trkpt lat="44.58641053728101" lon="7.905876732425727"><ele>246.0</ele><time>2026-04-07T16:46:07.998Z</time></trkpt><trkpt lat="44.58631092583192" lon="7.9058756157977585"><ele>246.0</ele><time>2026-04-07T16:46:08.998Z</time></trkpt><trkpt lat="44.586197302973765" lon="7.905863264781945"><ele>246.00000000000003</ele><time>2026-04-07T16:46:09.998Z</time></trkpt><trkpt lat="44.58609372132635" lon="7.905833330676108"><ele>246.00000000000003</ele><time>2026-04-07T16:46:10.998Z</time></trkpt><trkpt lat="44.585987304921915" lon="7.9057961118004325"><ele>246.0</ele><time>2026-04-07T16:46:11.998Z</time></trkpt><trkpt lat="44.58588578136397" lon="7.905759069012128"><ele>246.0</ele><time>2026-04-07T16:46:12.998Z</time></trkpt><trkpt lat="44.58579810852391" lon="7.905700363444848"><ele>246.0</ele><time>2026-04-07T16:46:13.998Z</time></trkpt><trkpt lat="44.585730974040175" lon="7.905613649492827"><ele>246.00000000000003</ele><time>2026-04-07T16:46:14.998Z</time></trkpt><trkpt lat="44.58565787033175" lon="7.905508915051332"><ele>246.00000000000003</ele><time>2026-04-07T16:46:15.998Z</time></trkpt><trkpt lat="44.58560058314083" lon="7.905396912065829"><ele>246.0</ele><time>2026-04-07T16:46:16.998Z</time></trkpt><trkpt lat="44.58555385495001" lon="7.905289001927601"><ele>246.0</ele><time>2026-04-07T16:46:17.998Z</time></trkpt><trkpt lat="44.58550464804711" lon="7.905140982704769"><ele>244.4</ele><time>2026-04-07T16:46:18.998Z</time></trkpt><trkpt lat="44.58546657293017" lon="7.905018233215606"><ele>242.8</ele><time>2026-04-07T16:46:19.998Z</time></trkpt><trkpt lat="44.58543492239684" lon="7.904892775080789"><ele>241.20000000000002</ele><time>2026-04-07T16:46:21Z</time></trkpt><trkpt lat="44.58540072419065" lon="7.904755558731344"><ele>239.60000000000002</ele><time>2026-04-07T16:46:22Z</time></trkpt><trkpt lat="44.585366278130245" lon="7.9046148296024885"><ele>238.0</ele><time>2026-04-07T16:46:23Z</time></trkpt><trkpt lat="44.58533257842994" lon="7.904487963074652"><ele>237.60000000000002</ele><time>2026-04-07T16:46:24Z</time></trkpt><trkpt lat="44.58529584087047" lon="7.9043565646671095"><ele>237.20000000000002</ele><time>2026-04-07T16:46:25Z</time></trkpt><trkpt lat="44.585247302851094" lon="7.904197569525463"><ele>236.8</ele><time>2026-04-07T16:46:26Z</time></trkpt><trkpt lat="44.585198272366796" lon="7.9040441237518"><ele>236.4</ele><time>2026-04-07T16:46:27Z</time></trkpt><trkpt lat="44.585162782607334" lon="7.9039087411741775"><ele>236.0</ele><time>2026-04-07T16:46:28Z</time></trkpt><trkpt lat="44.585127286068825" lon="7.90378031953225"><ele>235.8</ele><time>2026-04-07T16:46:29Z</time></trkpt><trkpt lat="44.585088079962546" lon="7.903650242294278"><ele>235.60000000000002</ele><time>2026-04-07T16:46:30Z</time></trkpt><trkpt lat="44.585044762317736" lon="7.903512504822796"><ele>235.4</ele><time>2026-04-07T16:46:31Z</time></trkpt><trkpt lat="44.58500147628023" lon="7.903381670569791"><ele>235.2</ele><time>2026-04-07T16:46:32Z</time></trkpt><trkpt lat="44.58494228089294" lon="7.903261281595964"><ele>235.0</ele><time>2026-04-07T16:46:33Z</time></trkpt><trkpt lat="44.584872785246574" lon="7.9031512025961845"><ele>234.33333333333331</ele><time>2026-04-07T16:46:34Z</time></trkpt><trkpt lat="44.58480159120402" lon="7.903059781864292"><ele>233.66666666666666</ele><time>2026-04-07T16:46:35Z</time></trkpt><trkpt lat="44.58473082430438" lon="7.902988247554037"><ele>233.0</ele><time>2026-04-07T16:46:36Z</time></trkpt><trkpt lat="44.58468394473293" lon="7.902924688509877"><ele>232.33333333333331</ele><time>2026-04-07T16:46:37Z</time></trkpt><trkpt lat="44.58460845067174" lon="7.902838843375973"><ele>231.66666666666666</ele><time>2026-04-07T16:46:39Z</time></trkpt><trkpt lat="44.584547515473275" lon="7.902790962697212"><ele>231.0</ele><time>2026-04-07T16:46:53Z</time></trkpt><trkpt lat="44.58438835618712" lon="7.902895279804199"><ele>230.8</ele><time>2026-04-07T16:46:55Z</time></trkpt><trkpt lat="44.584338929506636" lon="7.9029861581159375"><ele>230.60000000000002</ele><time>2026-04-07T16:46:56Z</time></trkpt><trkpt lat="44.58428280596695" lon="7.903089349556797"><ele>230.4</ele><time>2026-04-07T16:46:57Z</time></trkpt><trkpt lat="44.58422588565773" lon="7.903231972702239"><ele>230.2</ele><time>2026-04-07T16:46:58Z</time></trkpt><trkpt lat="44.58411843394272" lon="7.903348085908404"><ele>230.0</ele><time>2026-04-07T16:46:59Z</time></trkpt><trkpt lat="44.584043068746084" lon="7.903488120814821"><ele>230.0</ele><time>2026-04-07T16:47:00Z</time></trkpt><trkpt lat="44.58395819726023" lon="7.903662184204536"><ele>230.0</ele><time>2026-04-07T16:47:01Z</time></trkpt><trkpt lat="44.5838783370504" lon="7.903847092025637"><ele>230.0</ele><time>2026-04-07T16:47:02Z</time></trkpt><trkpt lat="44.58378993356535" lon="7.9040440126474705"><ele>230.0</ele><time>2026-04-07T16:47:03Z</time></trkpt><trkpt lat="44.583695544488286" lon="7.904243546998544"><ele>230.0</ele><time>2026-04-07T16:47:04Z</time></trkpt><trkpt lat="44.58360055945496" lon="7.904448295447536"><ele>230.0</ele><time>2026-04-07T16:47:05Z</time></trkpt><trkpt lat="44.583488434405595" lon="7.904662387101176"><ele>228.66666666666669</ele><time>2026-04-07T16:47:05.999Z</time></trkpt><trkpt lat="44.58337593132036" lon="7.904881112068062"><ele>227.33333333333331</ele><time>2026-04-07T16:47:06.999Z</time></trkpt><trkpt lat="44.5832561755765" lon="7.905106261105967"><ele>226.0</ele><time>2026-04-07T16:47:07.999Z</time></trkpt><trkpt lat="44.583136025329125" lon="7.9053369158494675"><ele>226.0</ele><time>2026-04-07T16:47:08.999Z</time></trkpt><trkpt lat="44.58301718711309" lon="7.905549150357314"><ele>226.0</ele><time>2026-04-07T16:47:09.999Z</time></trkpt><trkpt lat="44.582896439122656" lon="7.905759017897282"><ele>226.0</ele><time>2026-04-07T16:47:10.999Z</time></trkpt><trkpt lat="44.58277428262974" lon="7.9059924116085805"><ele>225.33333333333331</ele><time>2026-04-07T16:47:11.999Z</time></trkpt><trkpt lat="44.582654902624874" lon="7.906227102627999"><ele>224.66666666666669</ele><time>2026-04-07T16:47:12.999Z</time></trkpt><trkpt lat="44.582544759679" lon="7.906426231093953"><ele>224.0</ele><time>2026-04-07T16:47:13.999Z</time></trkpt><trkpt lat="44.58243395319299" lon="7.906631387502012"><ele>224.33333333333334</ele><time>2026-04-07T16:47:14.999Z</time></trkpt><trkpt lat="44.58232556354224" lon="7.906822966694253"><ele>224.66666666666669</ele><time>2026-04-07T16:47:15.999Z</time></trkpt><trkpt lat="44.58223081622047" lon="7.906996198154333"><ele>225.0</ele><time>2026-04-07T16:47:16.999Z</time></trkpt><trkpt lat="44.582123504340274" lon="7.907175582097186"><ele>225.0</ele><time>2026-04-07T16:47:17.999Z</time></trkpt><trkpt lat="44.58202127634924" lon="7.9073544158945746"><ele>225.0</ele><time>2026-04-07T16:47:18.999Z</time></trkpt><trkpt lat="44.58192140572351" lon="7.907517809013797"><ele>225.0</ele><time>2026-04-07T16:47:19.999Z</time></trkpt><trkpt lat="44.5818187695527" lon="7.907666554686871"><ele>224.5</ele><time>2026-04-07T16:47:20.999Z</time></trkpt><trkpt lat="44.58172144832109" lon="7.907819974955683"><ele>224.0</ele><time>2026-04-07T16:47:21.999Z</time></trkpt><trkpt lat="44.581627676905796" lon="7.90795180238255"><ele>223.5</ele><time>2026-04-07T16:47:22.999Z</time></trkpt><trkpt lat="44.58152888322435" lon="7.908074271628296"><ele>223.0</ele><time>2026-04-07T16:47:23.999Z</time></trkpt><trkpt lat="44.58144022619079" lon="7.908188866191316"><ele>222.99999999999997</ele><time>2026-04-07T16:47:24.999Z</time></trkpt><trkpt lat="44.581353605188994" lon="7.908303980156082"><ele>223.0</ele><time>2026-04-07T16:47:25.999Z</time></trkpt><trkpt lat="44.58127832424763" lon="7.908395689513556"><ele>223.0</ele><time>2026-04-07T16:47:26.999Z</time></trkpt><trkpt lat="44.58120775810776" lon="7.908472261822418"><ele>223.0</ele><time>2026-04-07T16:47:27.999Z</time></trkpt><trkpt lat="44.581150473551766" lon="7.90853131583107"><ele>222.99999999999997</ele><time>2026-04-07T16:47:28.999Z</time></trkpt><trkpt lat="44.581094359846645" lon="7.908584818709971"><ele>223.0</ele><time>2026-04-07T16:47:29.999Z</time></trkpt><trkpt lat="44.581030762601436" lon="7.908622014240888"><ele>223.4</ele><time>2026-04-07T16:47:30.999Z</time></trkpt><trkpt lat="44.58094478860595" lon="7.908639973391543"><ele>223.8</ele><time>2026-04-07T16:47:31.999Z</time></trkpt><trkpt lat="44.58087431387817" lon="7.908640995938239"><ele>224.2</ele><time>2026-04-07T16:47:32.999Z</time></trkpt><trkpt lat="44.580805334472664" lon="7.908662169449631"><ele>224.6</ele><time>2026-04-07T16:47:33.999Z</time></trkpt><trkpt lat="44.580704392567725" lon="7.908752095176227"><ele>225.0</ele><time>2026-04-07T16:47:35.999Z</time></trkpt><trkpt lat="44.58065713637226" lon="7.908915703515403"><ele>225.0</ele><time>2026-04-07T16:47:37.999Z</time></trkpt><trkpt lat="44.58065300365504" lon="7.909036309421651"><ele>225.0</ele><time>2026-04-07T16:47:38.999Z</time></trkpt><trkpt lat="44.58065865074447" lon="7.909180245353976"><ele>225.0</ele><time>2026-04-07T16:47:39.999Z</time></trkpt><trkpt lat="44.58064608733008" lon="7.909340949034123"><ele>225.0</ele><time>2026-04-07T16:47:40.999Z</time></trkpt><trkpt lat="44.58061251165433" lon="7.909497967291405"><ele>225.0</ele><time>2026-04-07T16:47:41.999Z</time></trkpt><trkpt lat="44.580563158688996" lon="7.90966399324834"><ele>225.25</ele><time>2026-04-07T16:47:42.999Z</time></trkpt><trkpt lat="44.580482678220285" lon="7.909817061217468"><ele>225.5</ele><time>2026-04-07T16:47:43.999Z</time></trkpt><trkpt lat="44.58037730599902" lon="7.909963666741512"><ele>225.75</ele><time>2026-04-07T16:47:44.999Z</time></trkpt><trkpt lat="44.58025734693189" lon="7.910099015103139"><ele>226.0</ele><time>2026-04-07T16:47:45.999Z</time></trkpt><trkpt lat="44.580161630521154" lon="7.910206120639595"><ele>226.20000000000002</ele><time>2026-04-07T16:47:46.999Z</time></trkpt><trkpt lat="44.58007524589204" lon="7.910310657758325"><ele>226.40000000000003</ele><time>2026-04-07T16:47:47.999Z</time></trkpt><trkpt lat="44.579993654655986" lon="7.910404663547325"><ele>226.6</ele><time>2026-04-07T16:47:48.999Z</time></trkpt><trkpt lat="44.579918998802185" lon="7.910496299081074"><ele>226.8</ele><time>2026-04-07T16:47:49.999Z</time></trkpt><trkpt lat="44.579840083295906" lon="7.910594509843705"><ele>227.0</ele><time>2026-04-07T16:47:50.999Z</time></trkpt><trkpt lat="44.579766516603414" lon="7.910689326283219"><ele>227.0</ele><time>2026-04-07T16:47:51.999Z</time></trkpt><trkpt lat="44.57968873022809" lon="7.910784838290613"><ele>227.0</ele><time>2026-04-07T16:47:52.999Z</time></trkpt><trkpt lat="44.57961279211759" lon="7.910872110687182"><ele>227.0</ele><time>2026-04-07T16:47:53.999Z</time></trkpt><trkpt lat="44.57954534839989" lon="7.910959026462409"><ele>227.0</ele><time>2026-04-07T16:47:54.999Z</time></trkpt><trkpt lat="44.579467850981096" lon="7.911048308113738"><ele>227.0</ele><time>2026-04-07T16:47:55.999Z</time></trkpt><trkpt lat="44.579392416092965" lon="7.91114371931788"><ele>227.2</ele><time>2026-04-07T16:47:56.999Z</time></trkpt><trkpt lat="44.579323558386406" lon="7.911244828336194"><ele>227.39999999999998</ele><time>2026-04-07T16:47:57.999Z</time></trkpt><trkpt lat="44.57924385741934" lon="7.911344508959821"><ele>227.60000000000002</ele><time>2026-04-07T16:47:58.999Z</time></trkpt><trkpt lat="44.57916726772333" lon="7.911436234058008"><ele>227.8</ele><time>2026-04-07T16:47:59.999Z</time></trkpt><trkpt lat="44.57909075223415" lon="7.911529366439649"><ele>228.0</ele><time>2026-04-07T16:48:00.999Z</time></trkpt><trkpt lat="44.57901614309319" lon="7.9116193034898314"><ele>228.0</ele><time>2026-04-07T16:48:01.999Z</time></trkpt><trkpt lat="44.57894298657481" lon="7.911716528843362"><ele>228.0</ele><time>2026-04-07T16:48:02.999Z</time></trkpt><trkpt lat="44.578868251925776" lon="7.911810395892117"><ele>228.0</ele><time>2026-04-07T16:48:03.999Z</time></trkpt><trkpt lat="44.57879728919127" lon="7.911899000041521"><ele>228.0</ele><time>2026-04-07T16:48:04.999Z</time></trkpt><trkpt lat="44.578722035158805" lon="7.911991632454008"><ele>228.0</ele><time>2026-04-07T16:48:05.999Z</time></trkpt><trkpt lat="44.57865199670945" lon="7.912084736800442"><ele>228.0</ele><time>2026-04-07T16:48:06.999Z</time></trkpt><trkpt lat="44.57857469040251" lon="7.912175574166602"><ele>228.0</ele><time>2026-04-07T16:48:07.999Z</time></trkpt><trkpt lat="44.57849704851333" lon="7.912265101944513"><ele>228.0</ele><time>2026-04-07T16:48:08.998Z</time></trkpt><trkpt lat="44.578428803146835" lon="7.912353637761846"><ele>228.0</ele><time>2026-04-07T16:48:09.998Z</time></trkpt><trkpt lat="44.578353113808305" lon="7.912444132157397"><ele>228.0</ele><time>2026-04-07T16:48:10.998Z</time></trkpt><trkpt lat="44.57827907049069" lon="7.912544059080673"><ele>229.2</ele><time>2026-04-07T16:48:11.998Z</time></trkpt><trkpt lat="44.578212193843605" lon="7.912639433146408"><ele>230.4</ele><time>2026-04-07T16:48:12.998Z</time></trkpt><trkpt lat="44.578146052407895" lon="7.91272698117047"><ele>231.59999999999997</ele><time>2026-04-07T16:48:13.998Z</time></trkpt><trkpt lat="44.57807680718331" lon="7.912819470393468"><ele>232.79999999999998</ele><time>2026-04-07T16:48:14.998Z</time></trkpt><trkpt lat="44.57798885106228" lon="7.912888143812791"><ele>234.0</ele><time>2026-04-07T16:48:15.998Z</time></trkpt><trkpt lat="44.577912941481" lon="7.912974416718121"><ele>234.0</ele><time>2026-04-07T16:48:16.998Z</time></trkpt><trkpt lat="44.57784061942234" lon="7.913060363143294"><ele>233.99999999999997</ele><time>2026-04-07T16:48:17.998Z</time></trkpt><trkpt lat="44.577763253582454" lon="7.913153936588013"><ele>233.99999999999997</ele><time>2026-04-07T16:48:18.998Z</time></trkpt><trkpt lat="44.57768880510373" lon="7.9132477464122415"><ele>234.0</ele><time>2026-04-07T16:48:19.998Z</time></trkpt><trkpt lat="44.57761513147236" lon="7.913340044134649"><ele>234.0</ele><time>2026-04-07T16:48:20.998Z</time></trkpt><trkpt lat="44.5775430360979" lon="7.913438082337192"><ele>234.0</ele><time>2026-04-07T16:48:21.998Z</time></trkpt><trkpt lat="44.57746447898246" lon="7.913543090644232"><ele>233.99999999999997</ele><time>2026-04-07T16:48:22.998Z</time></trkpt><trkpt lat="44.57739173804465" lon="7.913639757232468"><ele>233.99999999999997</ele><time>2026-04-07T16:48:23.998Z</time></trkpt><trkpt lat="44.57731344745014" lon="7.913743421101003"><ele>234.0</ele><time>2026-04-07T16:48:24.998Z</time></trkpt><trkpt lat="44.57724228528147" lon="7.913843615294353"><ele>234.0</ele><time>2026-04-07T16:48:25.998Z</time></trkpt><trkpt lat="44.57716976294875" lon="7.913933647587328"><ele>234.0</ele><time>2026-04-07T16:48:27Z</time></trkpt><trkpt lat="44.57709603311887" lon="7.91402820497065"><ele>233.99999999999997</ele><time>2026-04-07T16:48:28Z</time></trkpt><trkpt lat="44.57702506025373" lon="7.914125461046146"><ele>233.99999999999997</ele><time>2026-04-07T16:48:29Z</time></trkpt><trkpt lat="44.57694865518945" lon="7.914220598361574"><ele>234.0</ele><time>2026-04-07T16:48:30Z</time></trkpt><trkpt lat="44.576871250880835" lon="7.914315927002175"><ele>234.0</ele><time>2026-04-07T16:48:31Z</time></trkpt><trkpt lat="44.576797512903916" lon="7.914417736587495"><ele>233.39999999999998</ele><time>2026-04-07T16:48:32Z</time></trkpt><trkpt lat="44.57671680705294" lon="7.9145173901884425"><ele>232.79999999999998</ele><time>2026-04-07T16:48:33Z</time></trkpt><trkpt lat="44.57663877788888" lon="7.914621654746166"><ele>232.20000000000002</ele><time>2026-04-07T16:48:34Z</time></trkpt><trkpt lat="44.576548036365985" lon="7.914733299522821"><ele>231.60000000000002</ele><time>2026-04-07T16:48:35Z</time></trkpt><trkpt lat="44.576467564141474" lon="7.91483413219164"><ele>231.0</ele><time>2026-04-07T16:48:36Z</time></trkpt><trkpt lat="44.576366406030296" lon="7.914921672587713"><ele>231.0</ele><time>2026-04-07T16:48:37Z</time></trkpt><trkpt lat="44.57627874641297" lon="7.915032949418539"><ele>231.00000000000003</ele><time>2026-04-07T16:48:38Z</time></trkpt><trkpt lat="44.57620016717342" lon="7.915132541048135"><ele>231.00000000000003</ele><time>2026-04-07T16:48:39Z</time></trkpt><trkpt lat="44.576116447600135" lon="7.915234416199164"><ele>231.0</ele><time>2026-04-07T16:48:40Z</time></trkpt><trkpt lat="44.57603586158058" lon="7.915332218422406"><ele>231.0</ele><time>2026-04-07T16:48:41Z</time></trkpt><trkpt lat="44.57595262854117" lon="7.915436768783059"><ele>230.8</ele><time>2026-04-07T16:48:42Z</time></trkpt><trkpt lat="44.57587483090954" lon="7.91553223805622"><ele>230.60000000000002</ele><time>2026-04-07T16:48:43Z</time></trkpt><trkpt lat="44.57579242541199" lon="7.91564007233013"><ele>230.4</ele><time>2026-04-07T16:48:44Z</time></trkpt><trkpt lat="44.57570116639735" lon="7.915746739771491"><ele>230.2</ele><time>2026-04-07T16:48:45Z</time></trkpt><trkpt lat="44.57562001090025" lon="7.915851588497483"><ele>230.0</ele><time>2026-04-07T16:48:46Z</time></trkpt><trkpt lat="44.5755430722457" lon="7.915950789938755"><ele>229.4</ele><time>2026-04-07T16:48:47Z</time></trkpt><trkpt lat="44.57546357553435" lon="7.916063068168694"><ele>228.8</ele><time>2026-04-07T16:48:48Z</time></trkpt><trkpt lat="44.57538095463139" lon="7.916172062655836"><ele>228.2</ele><time>2026-04-07T16:48:49Z</time></trkpt><trkpt lat="44.575304271357346" lon="7.9162689807604885"><ele>227.6</ele><time>2026-04-07T16:48:50Z</time></trkpt><trkpt lat="44.575222105226395" lon="7.916369437705692"><ele>227.0</ele><time>2026-04-07T16:48:51Z</time></trkpt><trkpt lat="44.57512963717415" lon="7.916449965148066"><ele>227.0</ele><time>2026-04-07T16:48:52Z</time></trkpt><trkpt lat="44.57502512174834" lon="7.916514126421605"><ele>227.0</ele><time>2026-04-07T16:48:53Z</time></trkpt><trkpt lat="44.57490479490924" lon="7.916558138085009"><ele>227.0</ele><time>2026-04-07T16:48:54Z</time></trkpt><trkpt lat="44.57478288571015" lon="7.916591865873585"><ele>227.0</ele><time>2026-04-07T16:48:55Z</time></trkpt><trkpt lat="44.57467044089758" lon="7.916578008338112"><ele>227.0</ele><time>2026-04-07T16:48:56Z</time></trkpt><trkpt lat="44.574554692181195" lon="7.916599913812323"><ele>227.0</ele><time>2026-04-07T16:48:57Z</time></trkpt><trkpt lat="44.57443887504103" lon="7.916621334745948"><ele>227.0</ele><time>2026-04-07T16:48:58Z</time></trkpt><trkpt lat="44.57433353594212" lon="7.9166297904999725"><ele>227.0</ele><time>2026-04-07T16:48:59Z</time></trkpt><trkpt lat="44.57422680899245" lon="7.916654198509534"><ele>227.0</ele><time>2026-04-07T16:49:00Z</time></trkpt><trkpt lat="44.57411736734149" lon="7.916672136381082"><ele>227.0</ele><time>2026-04-07T16:49:01Z</time></trkpt><trkpt lat="44.57401196306428" lon="7.916691253523104"><ele>227.0</ele><time>2026-04-07T16:49:02Z</time></trkpt><trkpt lat="44.57390444683758" lon="7.916701680026193"><ele>227.0</ele><time>2026-04-07T16:49:03Z</time></trkpt><trkpt lat="44.57380495441993" lon="7.916721653493866"><ele>227.0</ele><time>2026-04-07T16:49:04Z</time></trkpt><trkpt lat="44.57369882545234" lon="7.916741828961618"><ele>227.0</ele><time>2026-04-07T16:49:05Z</time></trkpt><trkpt lat="44.573595828768234" lon="7.916759238148912"><ele>228.0</ele><time>2026-04-07T16:49:06Z</time></trkpt><trkpt lat="44.57350328363245" lon="7.916780238313767"><ele>229.0</ele><time>2026-04-07T16:49:07Z</time></trkpt><trkpt lat="44.573408423448505" lon="7.916798486398772"><ele>230.0</ele><time>2026-04-07T16:49:08Z</time></trkpt><trkpt lat="44.57331214343583" lon="7.916816093117354"><ele>231.0</ele><time>2026-04-07T16:49:09Z</time></trkpt><trkpt lat="44.57322216854801" lon="7.91683309212029"><ele>232.0</ele><time>2026-04-07T16:49:10Z</time></trkpt><trkpt lat="44.57312032457824" lon="7.916858498109273"><ele>231.99999999999997</ele><time>2026-04-07T16:49:11Z</time></trkpt><trkpt lat="44.573028899505296" lon="7.916872579757922"><ele>232.0</ele><time>2026-04-07T16:49:12Z</time></trkpt><trkpt lat="44.572941526679905" lon="7.916890136513676"><ele>232.0</ele><time>2026-04-07T16:49:12.999Z</time></trkpt><trkpt lat="44.572847341301305" lon="7.916897518350202"><ele>232.0</ele><time>2026-04-07T16:49:13.999Z</time></trkpt><trkpt lat="44.57276329425944" lon="7.916908429420562"><ele>231.99999999999997</ele><time>2026-04-07T16:49:14.999Z</time></trkpt><trkpt lat="44.57267928220605" lon="7.916929753242317"><ele>232.0</ele><time>2026-04-07T16:49:15.999Z</time></trkpt><trkpt lat="44.57258579177016" lon="7.91695679559251"><ele>232.0</ele><time>2026-04-07T16:49:16.999Z</time></trkpt><trkpt lat="44.57248893189105" lon="7.916990312888689"><ele>232.0</ele><time>2026-04-07T16:49:17.999Z</time></trkpt><trkpt lat="44.57240165092513" lon="7.917016903592417"><ele>232.0</ele><time>2026-04-07T16:49:18.999Z</time></trkpt><trkpt lat="44.57231401669826" lon="7.917041528473291"><ele>232.0</ele><time>2026-04-07T16:49:19.999Z</time></trkpt><trkpt lat="44.572207019934254" lon="7.917060719972175"><ele>232.0</ele><time>2026-04-07T16:49:20.999Z</time></trkpt><trkpt lat="44.5721057152699" lon="7.917085610863462"><ele>231.8</ele><time>2026-04-07T16:49:21.999Z</time></trkpt><trkpt lat="44.57200488735934" lon="7.917099303883152"><ele>231.6</ele><time>2026-04-07T16:49:22.999Z</time></trkpt><trkpt lat="44.57190578435655" lon="7.917123711424877"><ele>231.40000000000003</ele><time>2026-04-07T16:49:23.999Z</time></trkpt><trkpt lat="44.57180407253128" lon="7.917145293950985"><ele>231.20000000000002</ele><time>2026-04-07T16:49:24.999Z</time></trkpt><trkpt lat="44.57169435824679" lon="7.917161373870798"><ele>231.0</ele><time>2026-04-07T16:49:25.999Z</time></trkpt><trkpt lat="44.57159333030521" lon="7.917164196155682"><ele>231.0</ele><time>2026-04-07T16:49:26.999Z</time></trkpt><trkpt lat="44.57148771676352" lon="7.917193724262794"><ele>231.00000000000003</ele><time>2026-04-07T16:49:27.999Z</time></trkpt><trkpt lat="44.57139073529632" lon="7.917211097071315"><ele>231.00000000000003</ele><time>2026-04-07T16:49:28.999Z</time></trkpt><trkpt lat="44.571285570675386" lon="7.917233611197605"><ele>231.0</ele><time>2026-04-07T16:49:29.999Z</time></trkpt><trkpt lat="44.57117170392384" lon="7.917257646756145"><ele>231.0</ele><time>2026-04-07T16:49:30.999Z</time></trkpt><trkpt lat="44.571075508261536" lon="7.917277600077852"><ele>230.4</ele><time>2026-04-07T16:49:31.999Z</time></trkpt><trkpt lat="44.57097354692696" lon="7.917294608170045"><ele>229.8</ele><time>2026-04-07T16:49:32.999Z</time></trkpt><trkpt lat="44.57087549654346" lon="7.917306354306757"><ele>229.20000000000002</ele><time>2026-04-07T16:49:33.999Z</time></trkpt><trkpt lat="44.57076481694224" lon="7.9173290694533485"><ele>228.60000000000002</ele><time>2026-04-07T16:49:34.999Z</time></trkpt><trkpt lat="44.570662306683" lon="7.9173460955193855"><ele>228.0</ele><time>2026-04-07T16:49:35.999Z</time></trkpt><trkpt lat="44.57055233349584" lon="7.91737358586385"><ele>228.0</ele><time>2026-04-07T16:49:36.999Z</time></trkpt><trkpt lat="44.5704299551439" lon="7.917390330201749"><ele>228.0</ele><time>2026-04-07T16:49:37.999Z</time></trkpt><trkpt lat="44.5703144227096" lon="7.917405235856453"><ele>228.0</ele><time>2026-04-07T16:49:38.999Z</time></trkpt><trkpt lat="44.57019870247397" lon="7.917418198094841"><ele>228.0</ele><time>2026-04-07T16:49:39.999Z</time></trkpt><trkpt lat="44.57008199679569" lon="7.917433525989984"><ele>227.5</ele><time>2026-04-07T16:49:40.999Z</time></trkpt><trkpt lat="44.56995733334892" lon="7.91745327622989"><ele>227.0</ele><time>2026-04-07T16:49:41.999Z</time></trkpt><trkpt lat="44.56983005884425" lon="7.917475129977195"><ele>226.5</ele><time>2026-04-07T16:49:42.999Z</time></trkpt><trkpt lat="44.56971618477132" lon="7.917484148828814"><ele>226.0</ele><time>2026-04-07T16:49:43.999Z</time></trkpt><trkpt lat="44.56961047606291" lon="7.917488422895807"><ele>225.66666666666666</ele><time>2026-04-07T16:49:44.999Z</time></trkpt><trkpt lat="44.56951156769004" lon="7.917495255673245"><ele>225.33333333333331</ele><time>2026-04-07T16:49:45.999Z</time></trkpt><trkpt lat="44.56940502137095" lon="7.9174993235634075"><ele>225.0</ele><time>2026-04-07T16:49:46.999Z</time></trkpt><trkpt lat="44.569323299138574" lon="7.917504047863094"><ele>224.66666666666669</ele><time>2026-04-07T16:49:47.999Z</time></trkpt><trkpt lat="44.569253269964" lon="7.9175036898626505"><ele>224.33333333333334</ele><time>2026-04-07T16:49:48.999Z</time></trkpt><trkpt lat="44.5691875103109" lon="7.917495058689085"><ele>224.0</ele><time>2026-04-07T16:49:49.999Z</time></trkpt><trkpt lat="44.569122510645066" lon="7.917497893352683"><ele>224.0</ele><time>2026-04-07T16:49:50.999Z</time></trkpt><trkpt lat="44.56899645691596" lon="7.9175449964315945"><ele>223.99999999999997</ele><time>2026-04-07T16:49:52.999Z</time></trkpt><trkpt lat="44.56893514758705" lon="7.917624870335013"><ele>223.99999999999997</ele><time>2026-04-07T16:49:53.999Z</time></trkpt><trkpt lat="44.568863152954876" lon="7.917712498079773"><ele>224.0</ele><time>2026-04-07T16:49:54.999Z</time></trkpt><trkpt lat="44.568778855676385" lon="7.91780264959766"><ele>224.0</ele><time>2026-04-07T16:49:55.999Z</time></trkpt><trkpt lat="44.56869271197672" lon="7.917896300873857"><ele>224.6</ele><time>2026-04-07T16:49:56.999Z</time></trkpt><trkpt lat="44.568584613810245" lon="7.917983754902211"><ele>225.2</ele><time>2026-04-07T16:49:57.999Z</time></trkpt><trkpt lat="44.56849281642427" lon="7.91807171920389"><ele>225.79999999999998</ele><time>2026-04-07T16:49:58.999Z</time></trkpt><trkpt lat="44.56841219962808" lon="7.918138251969402"><ele>226.39999999999998</ele><time>2026-04-07T16:49:59.999Z</time></trkpt><trkpt lat="44.568315830002796" lon="7.918218455602187"><ele>227.0</ele><time>2026-04-07T16:50:00.999Z</time></trkpt><trkpt lat="44.56822603497769" lon="7.918298963846862"><ele>227.0</ele><time>2026-04-07T16:50:01.999Z</time></trkpt><trkpt lat="44.5681285044569" lon="7.918381081674448"><ele>227.0</ele><time>2026-04-07T16:50:02.999Z</time></trkpt><trkpt lat="44.568021717202" lon="7.9184789764009595"><ele>227.0</ele><time>2026-04-07T16:50:03.999Z</time></trkpt><trkpt lat="44.567920969527776" lon="7.918551138834247"><ele>227.0</ele><time>2026-04-07T16:50:04.999Z</time></trkpt><trkpt lat="44.567826702865425" lon="7.918621518637926"><ele>227.39999999999998</ele><time>2026-04-07T16:50:05.999Z</time></trkpt><trkpt lat="44.567733222506064" lon="7.918691462570542"><ele>227.79999999999998</ele><time>2026-04-07T16:50:06.999Z</time></trkpt><trkpt lat="44.56763841597195" lon="7.918766993955651"><ele>228.2</ele><time>2026-04-07T16:50:07.999Z</time></trkpt><trkpt lat="44.56754769657034" lon="7.9188401839676255"><ele>228.6</ele><time>2026-04-07T16:50:08.999Z</time></trkpt><trkpt lat="44.56746147579298" lon="7.918910605801727"><ele>229.0</ele><time>2026-04-07T16:50:09.999Z</time></trkpt><trkpt lat="44.56737473303877" lon="7.918990960827311"><ele>229.0</ele><time>2026-04-07T16:50:10.999Z</time></trkpt><trkpt lat="44.56725310026342" lon="7.919046053530825"><ele>229.0</ele><time>2026-04-07T16:50:11.999Z</time></trkpt><trkpt lat="44.567161431777976" lon="7.919110480588493"><ele>229.0</ele><time>2026-04-07T16:50:12.999Z</time></trkpt><trkpt lat="44.567065704725174" lon="7.919188090218688"><ele>229.0</ele><time>2026-04-07T16:50:13.999Z</time></trkpt><trkpt lat="44.56697018947585" lon="7.919264327584145"><ele>228.5</ele><time>2026-04-07T16:50:14.998Z</time></trkpt><trkpt lat="44.566868472227064" lon="7.919341145770865"><ele>228.0</ele><time>2026-04-07T16:50:15.998Z</time></trkpt><trkpt lat="44.566764354673516" lon="7.9194341035429545"><ele>227.5</ele><time>2026-04-07T16:50:16.998Z</time></trkpt><trkpt lat="44.56667189945748" lon="7.91950085932154"><ele>227.0</ele><time>2026-04-07T16:50:17.998Z</time></trkpt><trkpt lat="44.56657010596014" lon="7.919577092100853"><ele>227.0</ele><time>2026-04-07T16:50:18.998Z</time></trkpt><trkpt lat="44.56647626983901" lon="7.919649081264895"><ele>227.0</ele><time>2026-04-07T16:50:19.998Z</time></trkpt><trkpt lat="44.56637878159905" lon="7.919707243241942"><ele>227.0</ele><time>2026-04-07T16:50:20.998Z</time></trkpt><trkpt lat="44.566294268518675" lon="7.919769042186325"><ele>227.0</ele><time>2026-04-07T16:50:21.998Z</time></trkpt><trkpt lat="44.56620527340544" lon="7.91982656885804"><ele>227.0</ele><time>2026-04-07T16:50:22.998Z</time></trkpt><trkpt lat="44.56611726375477" lon="7.9198919694492735"><ele>226.8</ele><time>2026-04-07T16:50:23.998Z</time></trkpt><trkpt lat="44.56602246521422" lon="7.919959314588724"><ele>226.6</ele><time>2026-04-07T16:50:24.998Z</time></trkpt><trkpt lat="44.56594148981282" lon="7.920034383587734"><ele>226.40000000000003</ele><time>2026-04-07T16:50:25.998Z</time></trkpt><trkpt lat="44.56586303061828" lon="7.920090381427858"><ele>226.20000000000002</ele><time>2026-04-07T16:50:26.998Z</time></trkpt><trkpt lat="44.56577860812467" lon="7.920157250828775"><ele>226.0</ele><time>2026-04-07T16:50:27.998Z</time></trkpt><trkpt lat="44.5656850758296" lon="7.920235085860498"><ele>226.0</ele><time>2026-04-07T16:50:28.998Z</time></trkpt><trkpt lat="44.56559361560852" lon="7.920299607543924"><ele>226.00000000000003</ele><time>2026-04-07T16:50:29.998Z</time></trkpt><trkpt lat="44.56549106067739" lon="7.92037824922268"><ele>226.00000000000003</ele><time>2026-04-07T16:50:30.998Z</time></trkpt><trkpt lat="44.565385801044094" lon="7.920446776292251"><ele>226.0</ele><time>2026-04-07T16:50:31.998Z</time></trkpt><trkpt lat="44.565292804194186" lon="7.920526205456924"><ele>226.0</ele><time>2026-04-07T16:50:33Z</time></trkpt><trkpt lat="44.56519920931214" lon="7.9205870652272"><ele>226.4</ele><time>2026-04-07T16:50:34Z</time></trkpt><trkpt lat="44.56509596875408" lon="7.920663675735037"><ele>226.8</ele><time>2026-04-07T16:50:35Z</time></trkpt><trkpt lat="44.565010996804084" lon="7.920741751147351"><ele>227.20000000000002</ele><time>2026-04-07T16:50:36Z</time></trkpt><trkpt lat="44.564915970862785" lon="7.920814823058858"><ele>227.60000000000002</ele><time>2026-04-07T16:50:37Z</time></trkpt><trkpt lat="44.56481943496699" lon="7.920886701696749"><ele>228.0</ele><time>2026-04-07T16:50:38Z</time></trkpt><trkpt lat="44.56471677687495" lon="7.920965486598785"><ele>229.0</ele><time>2026-04-07T16:50:39Z</time></trkpt><trkpt lat="44.56462919860727" lon="7.921040612901616"><ele>230.0</ele><time>2026-04-07T16:50:40Z</time></trkpt><trkpt lat="44.56453026210995" lon="7.921114984588851"><ele>231.0</ele><time>2026-04-07T16:50:41Z</time></trkpt><trkpt lat="44.56444277592882" lon="7.9211823205871115"><ele>232.0</ele><time>2026-04-07T16:50:42Z</time></trkpt><trkpt lat="44.56434529536179" lon="7.921250274927852"><ele>233.0</ele><time>2026-04-07T16:50:43Z</time></trkpt><trkpt lat="44.56425658328322" lon="7.921325102873085"><ele>233.0</ele><time>2026-04-07T16:50:44Z</time></trkpt><trkpt lat="44.56416924872833" lon="7.921387103439447"><ele>233.0</ele><time>2026-04-07T16:50:45Z</time></trkpt><trkpt lat="44.564076360096664" lon="7.9214486733531615"><ele>233.0</ele><time>2026-04-07T16:50:46Z</time></trkpt><trkpt lat="44.56398429220989" lon="7.921516920314661"><ele>233.0</ele><time>2026-04-07T16:50:47Z</time></trkpt><trkpt lat="44.563889175373475" lon="7.92158108636047"><ele>233.0</ele><time>2026-04-07T16:50:48Z</time></trkpt><trkpt lat="44.56379490273709" lon="7.921650614684487"><ele>232.8</ele><time>2026-04-07T16:50:49Z</time></trkpt><trkpt lat="44.56369612877443" lon="7.92172059394643"><ele>232.60000000000002</ele><time>2026-04-07T16:50:50Z</time></trkpt><trkpt lat="44.56360550290012" lon="7.921772795213755"><ele>232.39999999999998</ele><time>2026-04-07T16:50:51Z</time></trkpt><trkpt lat="44.563504318231224" lon="7.921837317062769"><ele>232.2</ele><time>2026-04-07T16:50:52Z</time></trkpt><trkpt lat="44.563398335347124" lon="7.921894583388996"><ele>232.0</ele><time>2026-04-07T16:50:53Z</time></trkpt><trkpt lat="44.56329620563309" lon="7.921945158521449"><ele>232.0</ele><time>2026-04-07T16:50:54Z</time></trkpt><trkpt lat="44.56320205942631" lon="7.921988466534324"><ele>232.0</ele><time>2026-04-07T16:50:55Z</time></trkpt><trkpt lat="44.56309667673797" lon="7.9220398241334875"><ele>232.0</ele><time>2026-04-07T16:50:56Z</time></trkpt><trkpt lat="44.562991038198724" lon="7.9220949245085635"><ele>232.0</ele><time>2026-04-07T16:50:57Z</time></trkpt><trkpt lat="44.56289190116565" lon="7.92213885008596"><ele>232.0</ele><time>2026-04-07T16:50:58Z</time></trkpt><trkpt lat="44.562786745416446" lon="7.9221889735120286"><ele>232.0</ele><time>2026-04-07T16:50:59Z</time></trkpt><trkpt lat="44.562680541908804" lon="7.922233493551693"><ele>232.0</ele><time>2026-04-07T16:51:00Z</time></trkpt><trkpt lat="44.562573324339105" lon="7.922275354802798"><ele>232.0</ele><time>2026-04-07T16:51:01Z</time></trkpt><trkpt lat="44.562466247610594" lon="7.922323445342109"><ele>232.0</ele><time>2026-04-07T16:51:02Z</time></trkpt><trkpt lat="44.562364994419596" lon="7.922352416834792"><ele>232.0</ele><time>2026-04-07T16:51:03Z</time></trkpt><trkpt lat="44.56225120882639" lon="7.922398503196914"><ele>232.0</ele><time>2026-04-07T16:51:04Z</time></trkpt><trkpt lat="44.56215438670847" lon="7.922442710380242"><ele>232.0</ele><time>2026-04-07T16:51:05Z</time></trkpt><trkpt lat="44.56203315493702" lon="7.9224848513214186"><ele>232.0</ele><time>2026-04-07T16:51:06Z</time></trkpt><trkpt lat="44.56193256934525" lon="7.922539006246089"><ele>232.0</ele><time>2026-04-07T16:51:07Z</time></trkpt><trkpt lat="44.56181885851723" lon="7.92255816732825"><ele>232.0</ele><time>2026-04-07T16:51:08Z</time></trkpt><trkpt lat="44.56170744924232" lon="7.922580981616446"><ele>231.75</ele><time>2026-04-07T16:51:09Z</time></trkpt><trkpt lat="44.56159294930773" lon="7.922609560830329"><ele>231.5</ele><time>2026-04-07T16:51:10Z</time></trkpt><trkpt lat="44.56146799148893" lon="7.922639467206595"><ele>231.25</ele><time>2026-04-07T16:51:11Z</time></trkpt><trkpt lat="44.56132802864477" lon="7.92267657658608"><ele>231.0</ele><time>2026-04-07T16:51:12Z</time></trkpt><trkpt lat="44.56119428777811" lon="7.922707769425779"><ele>230.66666666666669</ele><time>2026-04-07T16:51:13Z</time></trkpt><trkpt lat="44.561034468003434" lon="7.922735922065056"><ele>230.33333333333334</ele><time>2026-04-07T16:51:14Z</time></trkpt><trkpt lat="44.56087474864132" lon="7.922772559883911"><ele>230.0</ele><time>2026-04-07T16:51:15Z</time></trkpt><trkpt lat="44.56069722562103" lon="7.922796051840598"><ele>230.0</ele><time>2026-04-07T16:51:16Z</time></trkpt><trkpt lat="44.56053155516509" lon="7.922823200015143"><ele>230.0</ele><time>2026-04-07T16:51:17Z</time></trkpt><trkpt lat="44.56036503353383" lon="7.922832501247747"><ele>230.0</ele><time>2026-04-07T16:51:17.999Z</time></trkpt><trkpt lat="44.56018389469992" lon="7.922847891332253"><ele>229.66666666666669</ele><time>2026-04-07T16:51:18.999Z</time></trkpt><trkpt lat="44.56000413497177" lon="7.92285265561843"><ele>229.33333333333331</ele><time>2026-04-07T16:51:19.999Z</time></trkpt><trkpt lat="44.55981321840056" lon="7.922853128937272"><ele>229.0</ele><time>2026-04-07T16:51:20.999Z</time></trkpt><trkpt lat="44.559615146972355" lon="7.922843410069314"><ele>229.0</ele><time>2026-04-07T16:51:21.999Z</time></trkpt><trkpt lat="44.55941130597632" lon="7.922841962146744"><ele>229.0</ele><time>2026-04-07T16:51:22.999Z</time></trkpt><trkpt lat="44.55919974576486" lon="7.922829549095779"><ele>229.0</ele><time>2026-04-07T16:51:23.999Z</time></trkpt><trkpt lat="44.558989988129944" lon="7.922811056215858"><ele>229.0</ele><time>2026-04-07T16:51:24.999Z</time></trkpt><trkpt lat="44.55876394071968" lon="7.922723391510746"><ele>229.0</ele><time>2026-04-07T16:51:25.999Z</time></trkpt><trkpt lat="44.55852105515673" lon="7.92268382186657"><ele>230.5</ele><time>2026-04-07T16:51:26.999Z</time></trkpt><trkpt lat="44.55828368441306" lon="7.9226431448539705"><ele>232.0</ele><time>2026-04-07T16:51:27.999Z</time></trkpt><trkpt lat="44.55806245368019" lon="7.9226052336839095"><ele>232.33333333333331</ele><time>2026-04-07T16:51:28.999Z</time></trkpt><trkpt lat="44.55784135957454" lon="7.922567685511794"><ele>232.66666666666669</ele><time>2026-04-07T16:51:29.999Z</time></trkpt><trkpt lat="44.55761510085611" lon="7.92254871730878"><ele>233.0</ele><time>2026-04-07T16:51:30.999Z</time></trkpt><trkpt lat="44.55738421887203" lon="7.922503977932079"><ele>234.0</ele><time>2026-04-07T16:51:31.999Z</time></trkpt><trkpt lat="44.55715256871629" lon="7.922459427931115"><ele>235.0</ele><time>2026-04-07T16:51:32.999Z</time></trkpt><trkpt lat="44.556926084331074" lon="7.922419863775852"><ele>235.5</ele><time>2026-04-07T16:51:33.999Z</time></trkpt><trkpt lat="44.55668817344776" lon="7.922376522804876"><ele>236.0</ele><time>2026-04-07T16:51:34.999Z</time></trkpt><trkpt lat="44.55645870640873" lon="7.922330852324637"><ele>236.0</ele><time>2026-04-07T16:51:35.999Z</time></trkpt><trkpt lat="44.556229988015374" lon="7.922282568421367"><ele>236.0</ele><time>2026-04-07T16:51:36.999Z</time></trkpt><trkpt lat="44.55599746388904" lon="7.922250518545535"><ele>236.0</ele><time>2026-04-07T16:51:37.999Z</time></trkpt><trkpt lat="44.555770641582875" lon="7.922225376235169"><ele>236.0</ele><time>2026-04-07T16:51:38.999Z</time></trkpt><trkpt lat="44.555535843481344" lon="7.922181537656314"><ele>236.0</ele><time>2026-04-07T16:51:39.999Z</time></trkpt><trkpt lat="44.55529709995128" lon="7.92213115088229"><ele>236.0</ele><time>2026-04-07T16:51:40.999Z</time></trkpt><trkpt lat="44.555058324759905" lon="7.922097462250076"><ele>236.0</ele><time>2026-04-07T16:51:41.999Z</time></trkpt><trkpt lat="44.554817371360095" lon="7.922052526389815"><ele>236.0</ele><time>2026-04-07T16:51:42.999Z</time></trkpt><trkpt lat="44.55457670382911" lon="7.922012663103903"><ele>236.66666666666669</ele><time>2026-04-07T16:51:43.999Z</time></trkpt><trkpt lat="44.554348031196184" lon="7.921990277759028"><ele>237.33333333333331</ele><time>2026-04-07T16:51:44.999Z</time></trkpt><trkpt lat="44.55413685319144" lon="7.921948497662219"><ele>238.0</ele><time>2026-04-07T16:51:45.999Z</time></trkpt><trkpt lat="44.553929291494796" lon="7.921913157053744"><ele>238.0</ele><time>2026-04-07T16:51:46.999Z</time></trkpt><trkpt lat="44.55373453420196" lon="7.921866961797166"><ele>238.0</ele><time>2026-04-07T16:51:47.999Z</time></trkpt><trkpt lat="44.55352883135437" lon="7.921846043433085"><ele>238.0</ele><time>2026-04-07T16:51:48.999Z</time></trkpt><trkpt lat="44.55334667175914" lon="7.921836277395254"><ele>238.33333333333331</ele><time>2026-04-07T16:51:49.999Z</time></trkpt><trkpt lat="44.553167975245366" lon="7.921821475697078"><ele>238.66666666666669</ele><time>2026-04-07T16:51:50.999Z</time></trkpt><trkpt lat="44.5529805729451" lon="7.921808614148582"><ele>239.0</ele><time>2026-04-07T16:51:51.999Z</time></trkpt><trkpt lat="44.552783507666184" lon="7.921782245503415"><ele>240.0</ele><time>2026-04-07T16:51:52.999Z</time></trkpt><trkpt lat="44.552587900720376" lon="7.921796949174089"><ele>241.0</ele><time>2026-04-07T16:51:53.999Z</time></trkpt><trkpt lat="44.552384492932816" lon="7.9218177465743995"><ele>242.0</ele><time>2026-04-07T16:51:54.999Z</time></trkpt><trkpt lat="44.552194229506505" lon="7.921824961804147"><ele>242.33333333333334</ele><time>2026-04-07T16:51:55.999Z</time></trkpt><trkpt lat="44.5520085361554" lon="7.921840889096273"><ele>242.66666666666669</ele><time>2026-04-07T16:51:56.999Z</time></trkpt><trkpt lat="44.551818766873524" lon="7.921857501363269"><ele>243.0</ele><time>2026-04-07T16:51:57.999Z</time></trkpt><trkpt lat="44.55162625014343" lon="7.921848085959033"><ele>243.0</ele><time>2026-04-07T16:51:58.999Z</time></trkpt><trkpt lat="44.5514426200151" lon="7.9219353976188875"><ele>243.0</ele><time>2026-04-07T16:51:59.999Z</time></trkpt><trkpt lat="44.55124860316132" lon="7.921981287378517"><ele>243.0</ele><time>2026-04-07T16:52:00.999Z</time></trkpt><trkpt lat="44.551060081686515" lon="7.922022778665677"><ele>243.0</ele><time>2026-04-07T16:52:01.999Z</time></trkpt><trkpt lat="44.550861764731586" lon="7.922070693979381"><ele>243.0</ele><time>2026-04-07T16:52:02.999Z</time></trkpt><trkpt lat="44.55067402286181" lon="7.922123208929051"><ele>243.0</ele><time>2026-04-07T16:52:03.999Z</time></trkpt><trkpt lat="44.550492252159515" lon="7.922184917753197"><ele>243.0</ele><time>2026-04-07T16:52:04.999Z</time></trkpt><trkpt lat="44.55030794546369" lon="7.922259979293898"><ele>243.0</ele><time>2026-04-07T16:52:05.999Z</time></trkpt><trkpt lat="44.550144841577094" lon="7.92233979801889"><ele>243.0</ele><time>2026-04-07T16:52:06.999Z</time></trkpt><trkpt lat="44.54997497202705" lon="7.9224058415832745"><ele>243.0</ele><time>2026-04-07T16:52:07.999Z</time></trkpt><trkpt lat="44.54980965762686" lon="7.922478240594282"><ele>243.0</ele><time>2026-04-07T16:52:08.999Z</time></trkpt><trkpt lat="44.54964916138731" lon="7.922544489295898"><ele>243.0</ele><time>2026-04-07T16:52:09.999Z</time></trkpt><trkpt lat="44.54949073458527" lon="7.9226310373580695"><ele>243.33333333333331</ele><time>2026-04-07T16:52:10.999Z</time></trkpt><trkpt lat="44.549328225672966" lon="7.922731470354655"><ele>243.66666666666666</ele><time>2026-04-07T16:52:11.999Z</time></trkpt><trkpt lat="44.54916273486802" lon="7.922830071576945"><ele>244.0</ele><time>2026-04-07T16:52:12.999Z</time></trkpt><trkpt lat="44.54899818129734" lon="7.922923703475149"><ele>244.0</ele><time>2026-04-07T16:52:13.999Z</time></trkpt><trkpt lat="44.548858626020234" lon="7.923030540653625"><ele>244.0</ele><time>2026-04-07T16:52:14.999Z</time></trkpt><trkpt lat="44.5487178651385" lon="7.9231346031253445"><ele>244.0</ele><time>2026-04-07T16:52:15.999Z</time></trkpt><trkpt lat="44.54859629339101" lon="7.923223634413472"><ele>244.5</ele><time>2026-04-07T16:52:16.999Z</time></trkpt><trkpt lat="44.54849715334472" lon="7.923313054715088"><ele>245.0</ele><time>2026-04-07T16:52:17.999Z</time></trkpt><trkpt lat="44.54838984262821" lon="7.923381557120928"><ele>245.5</ele><time>2026-04-07T16:52:18.999Z</time></trkpt><trkpt lat="44.5482893838158" lon="7.923454680946233"><ele>246.0</ele><time>2026-04-07T16:52:19.998Z</time></trkpt><trkpt lat="44.54818997063024" lon="7.923526766936488"><ele>246.60000000000002</ele><time>2026-04-07T16:52:20.998Z</time></trkpt><trkpt lat="44.54810044865659" lon="7.923578167810784"><ele>247.20000000000002</ele><time>2026-04-07T16:52:21.998Z</time></trkpt><trkpt lat="44.54801806546953" lon="7.923619898896143"><ele>247.79999999999998</ele><time>2026-04-07T16:52:22.998Z</time></trkpt><trkpt lat="44.54792476286213" lon="7.923677899069296"><ele>248.39999999999998</ele><time>2026-04-07T16:52:23.998Z</time></trkpt><trkpt lat="44.54784100046041" lon="7.923743640288985"><ele>249.0</ele><time>2026-04-07T16:52:24.998Z</time></trkpt><trkpt lat="44.547747645741374" lon="7.923832322666361"><ele>249.25</ele><time>2026-04-07T16:52:25.998Z</time></trkpt><trkpt lat="44.547653012760705" lon="7.923937290573139"><ele>249.5</ele><time>2026-04-07T16:52:26.998Z</time></trkpt><trkpt lat="44.547545502801555" lon="7.924032084528036"><ele>249.75</ele><time>2026-04-07T16:52:27.998Z</time></trkpt><trkpt lat="44.54743033361201" lon="7.924120970781106"><ele>250.0</ele><time>2026-04-07T16:52:28.998Z</time></trkpt><trkpt lat="44.547312396312705" lon="7.9242103810715"><ele>251.66666666666666</ele><time>2026-04-07T16:52:29.998Z</time></trkpt><trkpt lat="44.547186693283635" lon="7.924308461072857"><ele>253.33333333333331</ele><time>2026-04-07T16:52:30.998Z</time></trkpt><trkpt lat="44.54704963838298" lon="7.924405975941089"><ele>255.0</ele><time>2026-04-07T16:52:31.998Z</time></trkpt><trkpt lat="44.54691742978407" lon="7.924520874350384"><ele>255.0</ele><time>2026-04-07T16:52:32.998Z</time></trkpt><trkpt lat="44.54678424636021" lon="7.924636253543091"><ele>255.0</ele><time>2026-04-07T16:52:33.998Z</time></trkpt><trkpt lat="44.546632093224666" lon="7.924753627541854"><ele>255.0</ele><time>2026-04-07T16:52:34.998Z</time></trkpt><trkpt lat="44.54648679350983" lon="7.924872140554722"><ele>255.0</ele><time>2026-04-07T16:52:35.998Z</time></trkpt><trkpt lat="44.54633151144018" lon="7.924995121923735"><ele>255.0</ele><time>2026-04-07T16:52:36.998Z</time></trkpt><trkpt lat="44.546177230923355" lon="7.925124697973839"><ele>255.0</ele><time>2026-04-07T16:52:37.998Z</time></trkpt><trkpt lat="44.54599144698525" lon="7.9252493785029134"><ele>259.3333333333333</ele><time>2026-04-07T16:52:39Z</time></trkpt><trkpt lat="44.545826195226425" lon="7.925379127668536"><ele>263.66666666666663</ele><time>2026-04-07T16:52:40Z</time></trkpt><trkpt lat="44.54566050748653" lon="7.925493558026644"><ele>268.0</ele><time>2026-04-07T16:52:41Z</time></trkpt><trkpt lat="44.5455048358598" lon="7.925622063091465"><ele>268.0</ele><time>2026-04-07T16:52:42Z</time></trkpt><trkpt lat="44.545336506143485" lon="7.925760358708173"><ele>268.0</ele><time>2026-04-07T16:52:43Z</time></trkpt><trkpt lat="44.54515353977079" lon="7.925902995442456"><ele>268.0</ele><time>2026-04-07T16:52:44Z</time></trkpt><trkpt lat="44.54496601210322" lon="7.926054088190914"><ele>268.0</ele><time>2026-04-07T16:52:45Z</time></trkpt><trkpt lat="44.54477537445224" lon="7.926185958072977"><ele>268.0</ele><time>2026-04-07T16:52:46Z</time></trkpt><trkpt lat="44.54461098892815" lon="7.926303782536004"><ele>268.0</ele><time>2026-04-07T16:52:47Z</time></trkpt><trkpt lat="44.544467666542" lon="7.926433820391528"><ele>267.25</ele><time>2026-04-07T16:52:48Z</time></trkpt><trkpt lat="44.54432672637527" lon="7.92655223935373"><ele>266.5</ele><time>2026-04-07T16:52:49Z</time></trkpt><trkpt lat="44.5442034801931" lon="7.926643039478043"><ele>265.75</ele><time>2026-04-07T16:52:50Z</time></trkpt><trkpt lat="44.54408908215326" lon="7.926737762762447"><ele>265.0</ele><time>2026-04-07T16:52:51Z</time></trkpt><trkpt lat="44.54397738688557" lon="7.926818273555027"><ele>265.0</ele><time>2026-04-07T16:52:52Z</time></trkpt><trkpt lat="44.543871626515696" lon="7.926904120930331"><ele>265.0</ele><time>2026-04-07T16:52:53Z</time></trkpt><trkpt lat="44.54376403030615" lon="7.926993053970346"><ele>265.0</ele><time>2026-04-07T16:52:54Z</time></trkpt><trkpt lat="44.54365412733856" lon="7.927070846227069"><ele>265.0</ele><time>2026-04-07T16:52:55Z</time></trkpt><trkpt lat="44.543563949585824" lon="7.9271568200855045"><ele>265.0</ele><time>2026-04-07T16:52:56Z</time></trkpt><trkpt lat="44.54347805967167" lon="7.927232496436685"><ele>265.0</ele><time>2026-04-07T16:52:57Z</time></trkpt><trkpt lat="44.54338186931797" lon="7.927305612823667"><ele>265.0</ele><time>2026-04-07T16:52:58Z</time></trkpt><trkpt lat="44.543285995683235" lon="7.927390632857232"><ele>265.0</ele><time>2026-04-07T16:52:59Z</time></trkpt><trkpt lat="44.54320538121498" lon="7.92745550225642"><ele>265.0</ele><time>2026-04-07T16:53:00Z</time></trkpt><trkpt lat="44.543120475688156" lon="7.927524798897953"><ele>265.6</ele><time>2026-04-07T16:53:01Z</time></trkpt><trkpt lat="44.54303170619201" lon="7.927593038079493"><ele>266.2</ele><time>2026-04-07T16:53:02Z</time></trkpt><trkpt lat="44.54292498068551" lon="7.927675948231723"><ele>266.8</ele><time>2026-04-07T16:53:03Z</time></trkpt><trkpt lat="44.54283209988913" lon="7.9277447228872004"><ele>267.4</ele><time>2026-04-07T16:53:04Z</time></trkpt><trkpt lat="44.54273742137533" lon="7.927816044001156"><ele>268.0</ele><time>2026-04-07T16:53:05Z</time></trkpt><trkpt lat="44.542653914364685" lon="7.927877086041436"><ele>266.6</ele><time>2026-04-07T16:53:06Z</time></trkpt><trkpt lat="44.54256656257103" lon="7.92794978393004"><ele>265.20000000000005</ele><time>2026-04-07T16:53:07Z</time></trkpt><trkpt lat="44.542449818518776" lon="7.928008806022877"><ele>263.8</ele><time>2026-04-07T16:53:08Z</time></trkpt><trkpt lat="44.54235215133158" lon="7.928090169229258"><ele>262.40000000000003</ele><time>2026-04-07T16:53:09Z</time></trkpt><trkpt lat="44.54226506597859" lon="7.928165107158576"><ele>261.0</ele><time>2026-04-07T16:53:10Z</time></trkpt><trkpt lat="44.54217833478403" lon="7.92824288986493"><ele>261.0</ele><time>2026-04-07T16:53:11Z</time></trkpt><trkpt lat="44.54209257852779" lon="7.9283111140087845"><ele>261.0</ele><time>2026-04-07T16:53:12Z</time></trkpt><trkpt lat="44.54200037147043" lon="7.928385569530975"><ele>261.0</ele><time>2026-04-07T16:53:13Z</time></trkpt><trkpt lat="44.541910786761896" lon="7.928467112320605"><ele>261.0</ele><time>2026-04-07T16:53:14Z</time></trkpt><trkpt lat="44.54182775270876" lon="7.928540922444646"><ele>261.0</ele><time>2026-04-07T16:53:15Z</time></trkpt><trkpt lat="44.54175342801371" lon="7.928618256677326"><ele>261.6</ele><time>2026-04-07T16:53:16Z</time></trkpt><trkpt lat="44.54166770483521" lon="7.928708176871016"><ele>262.20000000000005</ele><time>2026-04-07T16:53:17Z</time></trkpt><trkpt lat="44.54158117738205" lon="7.928794981836062"><ele>262.79999999999995</ele><time>2026-04-07T16:53:18Z</time></trkpt><trkpt lat="44.54149930990381" lon="7.928881370303096"><ele>263.4</ele><time>2026-04-07T16:53:19Z</time></trkpt><trkpt lat="44.541416359686686" lon="7.928979255734176"><ele>264.0</ele><time>2026-04-07T16:53:20Z</time></trkpt><trkpt lat="44.54133085895627" lon="7.929078795807647"><ele>264.0</ele><time>2026-04-07T16:53:21Z</time></trkpt><trkpt lat="44.54125496990332" lon="7.92917506424583"><ele>264.0</ele><time>2026-04-07T16:53:22Z</time></trkpt><trkpt lat="44.54117161076121" lon="7.929277609743483"><ele>264.0</ele><time>2026-04-07T16:53:23Z</time></trkpt><trkpt lat="44.541092862653976" lon="7.929359144640871"><ele>264.0</ele><time>2026-04-07T16:53:24Z</time></trkpt><trkpt lat="44.54101863186799" lon="7.929450248882318"><ele>264.0</ele><time>2026-04-07T16:53:24.999Z</time></trkpt><trkpt lat="44.540933384376586" lon="7.929546402046394"><ele>263.8</ele><time>2026-04-07T16:53:25.999Z</time></trkpt><trkpt lat="44.54084989968804" lon="7.9296485080432015"><ele>263.59999999999997</ele><time>2026-04-07T16:53:26.999Z</time></trkpt><trkpt lat="44.540767545687736" lon="7.929744762017574"><ele>263.4</ele><time>2026-04-07T16:53:27.999Z</time></trkpt><trkpt lat="44.540688047143526" lon="7.929837346311886"><ele>263.2</ele><time>2026-04-07T16:53:28.999Z</time></trkpt><trkpt lat="44.54060027256868" lon="7.929941058005059"><ele>263.0</ele><time>2026-04-07T16:53:29.999Z</time></trkpt><trkpt lat="44.54051083466289" lon="7.930041695903233"><ele>263.4</ele><time>2026-04-07T16:53:30.999Z</time></trkpt><trkpt lat="44.54042728866117" lon="7.930138482367487"><ele>263.8</ele><time>2026-04-07T16:53:31.999Z</time></trkpt><trkpt lat="44.54034651318538" lon="7.930238686332273"><ele>264.2</ele><time>2026-04-07T16:53:32.999Z</time></trkpt><trkpt lat="44.5402633845029" lon="7.9303322235575155"><ele>264.6</ele><time>2026-04-07T16:53:33.999Z</time></trkpt><trkpt lat="44.54016999821114" lon="7.930436124045024"><ele>265.0</ele><time>2026-04-07T16:53:34.999Z</time></trkpt><trkpt lat="44.540076888999444" lon="7.930547726120024"><ele>265.0</ele><time>2026-04-07T16:53:35.999Z</time></trkpt><trkpt lat="44.53998519716877" lon="7.930653165578652"><ele>265.0</ele><time>2026-04-07T16:53:36.999Z</time></trkpt><trkpt lat="44.53990228757692" lon="7.930746171345223"><ele>265.0</ele><time>2026-04-07T16:53:37.999Z</time></trkpt><trkpt lat="44.53981308980452" lon="7.93084567737262"><ele>265.0</ele><time>2026-04-07T16:53:38.999Z</time></trkpt><trkpt lat="44.539720309617586" lon="7.930950081128633"><ele>265.5</ele><time>2026-04-07T16:53:39.999Z</time></trkpt><trkpt lat="44.53962609251309" lon="7.931060219084946"><ele>266.0</ele><time>2026-04-07T16:53:40.999Z</time></trkpt><trkpt lat="44.53953187661487" lon="7.931171241891263"><ele>266.5</ele><time>2026-04-07T16:53:41.999Z</time></trkpt><trkpt lat="44.53943562711652" lon="7.931293029220843"><ele>267.0</ele><time>2026-04-07T16:53:42.999Z</time></trkpt><trkpt lat="44.53933310599928" lon="7.9314174314471835"><ele>267.0</ele><time>2026-04-07T16:53:43.999Z</time></trkpt><trkpt lat="44.539246731894345" lon="7.93153874914006"><ele>267.0</ele><time>2026-04-07T16:53:44.999Z</time></trkpt><trkpt lat="44.53917216097827" lon="7.931624619219305"><ele>267.0</ele><time>2026-04-07T16:53:45.999Z</time></trkpt><trkpt lat="44.53908766559337" lon="7.9317132947061495"><ele>267.0</ele><time>2026-04-07T16:53:46.999Z</time></trkpt><trkpt lat="44.53900157516154" lon="7.9318106209808645"><ele>267.0</ele><time>2026-04-07T16:53:47.999Z</time></trkpt><trkpt lat="44.53890844012235" lon="7.931895966496445"><ele>266.75</ele><time>2026-04-07T16:53:48.999Z</time></trkpt><trkpt lat="44.53882222973193" lon="7.931995887077658"><ele>266.5</ele><time>2026-04-07T16:53:49.999Z</time></trkpt><trkpt lat="44.538748850536926" lon="7.932107741279233"><ele>266.25</ele><time>2026-04-07T16:53:50.999Z</time></trkpt><trkpt lat="44.5386558956727" lon="7.93220302370359"><ele>266.0</ele><time>2026-04-07T16:53:51.999Z</time></trkpt><trkpt lat="44.538565112627495" lon="7.93231044373557"><ele>266.0</ele><time>2026-04-07T16:53:52.999Z</time></trkpt><trkpt lat="44.53847990956845" lon="7.932403628773701"><ele>266.0</ele><time>2026-04-07T16:53:53.999Z</time></trkpt><trkpt lat="44.53839507856661" lon="7.932510760427155"><ele>266.0</ele><time>2026-04-07T16:53:54.999Z</time></trkpt><trkpt lat="44.53827923331378" lon="7.932622051121073"><ele>266.0</ele><time>2026-04-07T16:53:55.999Z</time></trkpt><trkpt lat="44.53819837196876" lon="7.9327229889018955"><ele>266.5</ele><time>2026-04-07T16:53:56.999Z</time></trkpt><trkpt lat="44.53810560884148" lon="7.932833391076399"><ele>267.0</ele><time>2026-04-07T16:53:57.999Z</time></trkpt><trkpt lat="44.53802191534819" lon="7.932926469382634"><ele>267.5</ele><time>2026-04-07T16:53:58.999Z</time></trkpt><trkpt lat="44.53793346132298" lon="7.933018696632974"><ele>268.0</ele><time>2026-04-07T16:53:59.999Z</time></trkpt><trkpt lat="44.53784879994873" lon="7.933124621817128"><ele>268.0</ele><time>2026-04-07T16:54:00.999Z</time></trkpt><trkpt lat="44.53776953394401" lon="7.933226654362118"><ele>268.0</ele><time>2026-04-07T16:54:01.999Z</time></trkpt><trkpt lat="44.53768296263999" lon="7.933333355362083"><ele>268.0</ele><time>2026-04-07T16:54:02.999Z</time></trkpt><trkpt lat="44.53758873552374" lon="7.933448598420728"><ele>268.0</ele><time>2026-04-07T16:54:03.999Z</time></trkpt><trkpt lat="44.537503770465065" lon="7.933562129070122"><ele>268.6</ele><time>2026-04-07T16:54:04.999Z</time></trkpt><trkpt lat="44.53741992137177" lon="7.933645572745375"><ele>269.20000000000005</ele><time>2026-04-07T16:54:05.999Z</time></trkpt><trkpt lat="44.537340053001344" lon="7.933746846568771"><ele>269.8</ele><time>2026-04-07T16:54:06.999Z</time></trkpt><trkpt lat="44.53727381425912" lon="7.933865702478225"><ele>270.40000000000003</ele><time>2026-04-07T16:54:07.999Z</time></trkpt><trkpt lat="44.53718516179372" lon="7.933958288116531"><ele>271.0</ele><time>2026-04-07T16:54:08.999Z</time></trkpt><trkpt lat="44.53711669348117" lon="7.934085858946105"><ele>270.8333333333333</ele><time>2026-04-07T16:54:09.999Z</time></trkpt><trkpt lat="44.537046383724075" lon="7.934184744225123"><ele>270.66666666666663</ele><time>2026-04-07T16:54:10.999Z</time></trkpt><trkpt lat="44.53698122525784" lon="7.9342763126223925"><ele>270.5</ele><time>2026-04-07T16:54:11.999Z</time></trkpt><trkpt lat="44.53692683561649" lon="7.93434990262171"><ele>270.3333333333333</ele><time>2026-04-07T16:54:12.999Z</time></trkpt><trkpt lat="44.53687562393389" lon="7.934416871220813"><ele>270.1666666666667</ele><time>2026-04-07T16:54:13.999Z</time></trkpt><trkpt lat="44.53682597259631" lon="7.93447837482834"><ele>270.0</ele><time>2026-04-07T16:54:14.999Z</time></trkpt><trkpt lat="44.53673336313037" lon="7.934556019497071"><ele>270.4</ele><time>2026-04-07T16:54:16.999Z</time></trkpt><trkpt lat="44.53667660003894" lon="7.934635760444848"><ele>270.8</ele><time>2026-04-07T16:54:18.999Z</time></trkpt><trkpt lat="44.53674352838169" lon="7.934618710663083"><ele>271.2</ele><time>2026-04-07T16:54:32.998Z</time></trkpt><trkpt lat="44.536793272572055" lon="7.934546806210178"><ele>271.6</ele><time>2026-04-07T16:54:33.998Z</time></trkpt><trkpt lat="44.53671774363971" lon="7.934725362549092"><ele>272.0</ele><time>2026-04-07T16:54:34.998Z</time></trkpt><trkpt lat="44.5369236582766" lon="7.934408420285526"><ele>272.0</ele><time>2026-04-07T16:54:35.998Z</time></trkpt><trkpt lat="44.53698044632845" lon="7.93432457771739"><ele>272.0</ele><time>2026-04-07T16:54:36.998Z</time></trkpt><trkpt lat="44.53705554223351" lon="7.934230496322962"><ele>272.0</ele><time>2026-04-07T16:54:37.998Z</time></trkpt><trkpt lat="44.537126526699424" lon="7.934104761320093"><ele>272.0</ele><time>2026-04-07T16:54:38.998Z</time></trkpt><trkpt lat="44.53718718650217" lon="7.934030594862744"><ele>272.0</ele><time>2026-04-07T16:54:39.998Z</time></trkpt><trkpt lat="44.537231541286246" lon="7.9339603994532855"><ele>272.0</ele><time>2026-04-07T16:54:40.998Z</time></trkpt><trkpt lat="44.53731110067426" lon="7.933848893509359"><ele>271.83333333333337</ele><time>2026-04-07T16:54:42.998Z</time></trkpt><trkpt lat="44.53735042013923" lon="7.93377150102636"><ele>271.6666666666667</ele><time>2026-04-07T16:54:46Z</time></trkpt><trkpt lat="44.53722774525133" lon="7.933627176206711"><ele>271.5</ele><time>2026-04-07T16:54:47Z</time></trkpt><trkpt lat="44.5371773024317" lon="7.933560873535524"><ele>271.3333333333333</ele><time>2026-04-07T16:54:48Z</time></trkpt><trkpt lat="44.537128814642585" lon="7.93347998980188"><ele>271.16666666666663</ele><time>2026-04-07T16:54:49Z</time></trkpt><trkpt lat="44.537081775899004" lon="7.933420396156614"><ele>271.0</ele><time>2026-04-07T16:54:50Z</time></trkpt><trkpt lat="44.53700371514169" lon="7.933316318623258"><ele>270.6</ele><time>2026-04-07T16:54:52Z</time></trkpt><trkpt lat="44.53693894514775" lon="7.9331815235545715"><ele>270.20000000000005</ele><time>2026-04-07T16:54:54Z</time></trkpt><trkpt lat="44.53688659718119" lon="7.933066917857339"><ele>269.79999999999995</ele><time>2026-04-07T16:54:56Z</time></trkpt><trkpt lat="44.53681466153157" lon="7.9330140018339765"><ele>269.4</ele><time>2026-04-07T16:54:58Z</time></trkpt><trkpt lat="44.53675132402936" lon="7.932901643616218"><ele>269.0</ele><time>2026-04-07T16:55:00Z</time></trkpt><trkpt lat="44.536704938168455" lon="7.932812160857103"><ele>269.0</ele><time>2026-04-07T16:55:02Z</time></trkpt><trkpt lat="44.53665641694696" lon="7.932692281766716"><ele>269.0</ele><time>2026-04-07T16:55:05Z</time></trkpt><trkpt lat="44.53665310610111" lon="7.932552938468562"><ele>269.0</ele><time>2026-04-07T16:55:08Z</time></trkpt><trkpt lat="44.53664054755974" lon="7.93266096214799"><ele>269.0</ele><time>2026-04-07T16:55:15Z</time></trkpt><trkpt lat="44.536672884582316" lon="7.932803997535082"><ele>269.0</ele><time>2026-04-07T16:55:17Z</time></trkpt><trkpt lat="44.53671452020297" lon="7.93287499970792"><ele>269.0</ele><time>2026-04-07T16:55:18Z</time></trkpt><trkpt lat="44.53675610736508" lon="7.932954274167722"><ele>269.0</ele><time>2026-04-07T16:55:19Z</time></trkpt><trkpt lat="44.536843587838305" lon="7.933137640706991"><ele>269.0</ele><time>2026-04-07T16:55:20Z</time></trkpt><trkpt lat="44.53691115407128" lon="7.933242917266763"><ele>269.0</ele><time>2026-04-07T16:55:21Z</time></trkpt><trkpt lat="44.53697043288726" lon="7.933321564336718"><ele>269.0</ele><time>2026-04-07T16:55:22Z</time></trkpt><trkpt lat="44.53706812497442" lon="7.933447194137636"><ele>269.33333333333337</ele><time>2026-04-07T16:55:24Z</time></trkpt><trkpt lat="44.53712662522994" lon="7.933532884916863"><ele>269.6666666666667</ele><time>2026-04-07T16:55:25Z</time></trkpt><trkpt lat="44.53717735748394" lon="7.933599819059207"><ele>270.0</ele><time>2026-04-07T16:55:26Z</time></trkpt><trkpt lat="44.53724135156246" lon="7.933716504336636"><ele>270.3333333333333</ele><time>2026-04-07T16:55:28Z</time></trkpt><trkpt lat="44.537231878365986" lon="7.933808128121934"><ele>270.66666666666663</ele><time>2026-04-07T16:55:31Z</time></trkpt><trkpt lat="44.53718974644723" lon="7.93387619235899"><ele>271.0</ele><time>2026-04-07T16:55:37.999Z</time></trkpt><trkpt lat="44.53715667950249" lon="7.9339822457867575"><ele>271.0</ele><time>2026-04-07T16:55:39.999Z</time></trkpt><trkpt lat="44.537112850166345" lon="7.934062081171595"><ele>271.0</ele><time>2026-04-07T16:55:40.999Z</time></trkpt><trkpt lat="44.53705949041638" lon="7.934137763733177"><ele>271.0</ele><time>2026-04-07T16:55:41.999Z</time></trkpt><trkpt lat="44.53699832461062" lon="7.934235062594957"><ele>271.0</ele><time>2026-04-07T16:55:42.999Z</time></trkpt><trkpt lat="44.53694146138344" lon="7.934332016171454"><ele>271.0</ele><time>2026-04-07T16:55:43.999Z</time></trkpt><trkpt lat="44.536871137423404" lon="7.93444330523837"><ele>271.0</ele><time>2026-04-07T16:55:44.999Z</time></trkpt><trkpt lat="44.536780385745104" lon="7.934556964565116"><ele>271.16666666666663</ele><time>2026-04-07T16:55:45.999Z</time></trkpt><trkpt lat="44.536723442685535" lon="7.934649825734713"><ele>271.3333333333333</ele><time>2026-04-07T16:55:46.999Z</time></trkpt><trkpt lat="44.53666635379632" lon="7.9347047377752356"><ele>271.5</ele><time>2026-04-07T16:55:47.999Z</time></trkpt><trkpt lat="44.53662200271081" lon="7.934770992102939"><ele>271.6666666666667</ele><time>2026-04-07T16:55:48.999Z</time></trkpt><trkpt lat="44.536529088264764" lon="7.934904712718821"><ele>271.83333333333337</ele><time>2026-04-07T16:55:50.999Z</time></trkpt><trkpt lat="44.536478373624604" lon="7.934967643558368"><ele>272.0</ele><time>2026-04-07T16:55:51.999Z</time></trkpt><trkpt lat="44.53637896071593" lon="7.935047884070365"><ele>272.0</ele><time>2026-04-07T16:55:53.999Z</time></trkpt><trkpt lat="44.53628454781276" lon="7.935114435368437"><ele>272.0</ele><time>2026-04-07T16:55:55.999Z</time></trkpt><trkpt lat="44.53623880361104" lon="7.935184139824052"><ele>272.0</ele><time>2026-04-07T16:55:56.999Z</time></trkpt><trkpt lat="44.53619789525482" lon="7.935297904181066"><ele>272.0</ele><time>2026-04-07T16:55:57.999Z</time></trkpt><trkpt lat="44.53614924615622" lon="7.935429588933448"><ele>272.0</ele><time>2026-04-07T16:55:58.999Z</time></trkpt><trkpt lat="44.53610560868471" lon="7.9355350271438185"><ele>272.0</ele><time>2026-04-07T16:55:59.999Z</time></trkpt><trkpt lat="44.53604878166167" lon="7.935623946756903"><ele>272.0</ele><time>2026-04-07T16:56:00.999Z</time></trkpt><trkpt lat="44.535991406335796" lon="7.935725896872499"><ele>272.0</ele><time>2026-04-07T16:56:01.999Z</time></trkpt><trkpt lat="44.53593435525324" lon="7.935831797880771"><ele>272.0</ele><time>2026-04-07T16:56:02.999Z</time></trkpt><trkpt lat="44.53587817000228" lon="7.935919653794549"><ele>272.0</ele><time>2026-04-07T16:56:03.999Z</time></trkpt><trkpt lat="44.53581763311359" lon="7.936008084181902"><ele>272.0</ele><time>2026-04-07T16:56:04.999Z</time></trkpt><trkpt lat="44.53575739297316" lon="7.936120258167263"><ele>272.33333333333337</ele><time>2026-04-07T16:56:05.999Z</time></trkpt><trkpt lat="44.535699027696964" lon="7.936221236664862"><ele>272.6666666666667</ele><time>2026-04-07T16:56:06.999Z</time></trkpt><trkpt lat="44.535645866712485" lon="7.936313119531147"><ele>273.0</ele><time>2026-04-07T16:56:07.999Z</time></trkpt><trkpt lat="44.535595638082214" lon="7.936411243646503"><ele>273.3333333333333</ele><time>2026-04-07T16:56:08.999Z</time></trkpt><trkpt lat="44.53551433737505" lon="7.93647884014248"><ele>273.66666666666663</ele><time>2026-04-07T16:56:09.999Z</time></trkpt><trkpt lat="44.535456485312274" lon="7.936567978069047"><ele>274.0</ele><time>2026-04-07T16:56:10.999Z</time></trkpt><trkpt lat="44.53540630654706" lon="7.936645293048065"><ele>274.3333333333333</ele><time>2026-04-07T16:56:11.999Z</time></trkpt><trkpt lat="44.53534170364013" lon="7.93675730440775"><ele>274.66666666666663</ele><time>2026-04-07T16:56:12.999Z</time></trkpt><trkpt lat="44.53528138477807" lon="7.936853461927068"><ele>275.0</ele><time>2026-04-07T16:56:13.999Z</time></trkpt><trkpt lat="44.535229945724936" lon="7.936931754521355"><ele>275.3333333333333</ele><time>2026-04-07T16:56:14.999Z</time></trkpt><trkpt lat="44.53517356307025" lon="7.937023249481855"><ele>275.6666666666667</ele><time>2026-04-07T16:56:15.999Z</time></trkpt><trkpt lat="44.53511184384078" lon="7.937115687513304"><ele>276.0</ele><time>2026-04-07T16:56:16.999Z</time></trkpt><trkpt lat="44.53504613933578" lon="7.937213637644121"><ele>276.0</ele><time>2026-04-07T16:56:17.999Z</time></trkpt><trkpt lat="44.53498159827368" lon="7.9373122306577075"><ele>276.0</ele><time>2026-04-07T16:56:18.999Z</time></trkpt><trkpt lat="44.53490793028046" lon="7.937398347194681"><ele>276.0</ele><time>2026-04-07T16:56:19.999Z</time></trkpt><trkpt lat="44.53484605094755" lon="7.9374908203098"><ele>276.0</ele><time>2026-04-07T16:56:20.999Z</time></trkpt><trkpt lat="44.53477100361845" lon="7.9376029718275545"><ele>276.0</ele><time>2026-04-07T16:56:21.999Z</time></trkpt><trkpt lat="44.534686728527724" lon="7.937728134912849"><ele>276.0</ele><time>2026-04-07T16:56:22.999Z</time></trkpt><trkpt lat="44.53462806288104" lon="7.937845329828726"><ele>276.0</ele><time>2026-04-07T16:56:23.999Z</time></trkpt><trkpt lat="44.53455026328809" lon="7.937929319963725"><ele>276.0</ele><time>2026-04-07T16:56:24.999Z</time></trkpt><trkpt lat="44.534473666263615" lon="7.9380296431920385"><ele>276.0</ele><time>2026-04-07T16:56:25.999Z</time></trkpt><trkpt lat="44.53439644019879" lon="7.938128592277747"><ele>276.0</ele><time>2026-04-07T16:56:26.999Z</time></trkpt><trkpt lat="44.53432377178077" lon="7.938243162465805"><ele>276.0</ele><time>2026-04-07T16:56:27.999Z</time></trkpt><trkpt lat="44.53424985828053" lon="7.9383486744082274"><ele>276.0</ele><time>2026-04-07T16:56:28.999Z</time></trkpt><trkpt lat="44.53417628202828" lon="7.938450177347148"><ele>276.0</ele><time>2026-04-07T16:56:29.999Z</time></trkpt><trkpt lat="44.534108171415085" lon="7.938543308974677"><ele>276.0</ele><time>2026-04-07T16:56:30.999Z</time></trkpt><trkpt lat="44.53402976016036" lon="7.9386574759836135"><ele>276.0</ele><time>2026-04-07T16:56:31.999Z</time></trkpt><trkpt lat="44.533953997456656" lon="7.93877417477894"><ele>276.40000000000003</ele><time>2026-04-07T16:56:32.998Z</time></trkpt><trkpt lat="44.533886093658026" lon="7.9388712029978725"><ele>276.8</ele><time>2026-04-07T16:56:33.998Z</time></trkpt><trkpt lat="44.53381710855973" lon="7.93897092426832"><ele>277.20000000000005</ele><time>2026-04-07T16:56:34.998Z</time></trkpt><trkpt lat="44.533746969681374" lon="7.939085735624086"><ele>277.6</ele><time>2026-04-07T16:56:35.998Z</time></trkpt><trkpt lat="44.53367037367348" lon="7.9391947863213925"><ele>278.0</ele><time>2026-04-07T16:56:36.998Z</time></trkpt><trkpt lat="44.53360329936365" lon="7.939301747380729"><ele>278.6</ele><time>2026-04-07T16:56:37.998Z</time></trkpt><trkpt lat="44.53355193382707" lon="7.939401272198554"><ele>279.20000000000005</ele><time>2026-04-07T16:56:38.998Z</time></trkpt><trkpt lat="44.53348354388386" lon="7.939493530577689"><ele>279.8</ele><time>2026-04-07T16:56:39.998Z</time></trkpt><trkpt lat="44.5334146819127" lon="7.939595107787986"><ele>280.40000000000003</ele><time>2026-04-07T16:56:40.998Z</time></trkpt><trkpt lat="44.533353908182576" lon="7.939697988118258"><ele>281.0</ele><time>2026-04-07T16:56:41.998Z</time></trkpt><trkpt lat="44.53327356135255" lon="7.9398212825927885"><ele>281.0</ele><time>2026-04-07T16:56:42.998Z</time></trkpt><trkpt lat="44.5331928280139" lon="7.939958277165017"><ele>281.0</ele><time>2026-04-07T16:56:43.998Z</time></trkpt><trkpt lat="44.53312029294589" lon="7.940077280088473"><ele>281.0</ele><time>2026-04-07T16:56:44.998Z</time></trkpt><trkpt lat="44.53304793179846" lon="7.940208170379184"><ele>281.0</ele><time>2026-04-07T16:56:45.998Z</time></trkpt><trkpt lat="44.53297922917557" lon="7.940319812935498"><ele>281.0</ele><time>2026-04-07T16:56:46.998Z</time></trkpt><trkpt lat="44.53291232757393" lon="7.940426508441713"><ele>281.0</ele><time>2026-04-07T16:56:47.998Z</time></trkpt><trkpt lat="44.53284924579223" lon="7.940522739456752"><ele>281.0</ele><time>2026-04-07T16:56:48.998Z</time></trkpt><trkpt lat="44.53280117193724" lon="7.940614367911938"><ele>281.0</ele><time>2026-04-07T16:56:49.998Z</time></trkpt><trkpt lat="44.53274630000431" lon="7.94071979788618"><ele>281.0</ele><time>2026-04-07T16:56:51Z</time></trkpt><trkpt lat="44.53269124421333" lon="7.940832928223785"><ele>281.2</ele><time>2026-04-07T16:56:52Z</time></trkpt><trkpt lat="44.53264924039064" lon="7.940943690870321"><ele>281.40000000000003</ele><time>2026-04-07T16:56:53Z</time></trkpt><trkpt lat="44.53260349399669" lon="7.941058947282091"><ele>281.6</ele><time>2026-04-07T16:56:54Z</time></trkpt><trkpt lat="44.5325837712878" lon="7.941179194373798"><ele>281.8</ele><time>2026-04-07T16:56:55Z</time></trkpt><trkpt lat="44.532549866779945" lon="7.9413041639085264"><ele>282.0</ele><time>2026-04-07T16:56:56Z</time></trkpt><trkpt lat="44.53252650416295" lon="7.941444080090742"><ele>282.0</ele><time>2026-04-07T16:56:57Z</time></trkpt><trkpt lat="44.53250770357474" lon="7.941581702951564"><ele>282.0</ele><time>2026-04-07T16:56:58Z</time></trkpt><trkpt lat="44.53249778975815" lon="7.941702709673843"><ele>282.0</ele><time>2026-04-07T16:56:59Z</time></trkpt><trkpt lat="44.53249442630929" lon="7.941851917790627"><ele>282.0</ele><time>2026-04-07T16:57:00Z</time></trkpt><trkpt lat="44.53248950116101" lon="7.941998490057123"><ele>282.0</ele><time>2026-04-07T16:57:01Z</time></trkpt><trkpt lat="44.532483561379685" lon="7.942139848984161"><ele>282.2</ele><time>2026-04-07T16:57:02Z</time></trkpt><trkpt lat="44.53247941696368" lon="7.942262566888471"><ele>282.4</ele><time>2026-04-07T16:57:03Z</time></trkpt><trkpt lat="44.53247137884552" lon="7.9423785171795585"><ele>282.6</ele><time>2026-04-07T16:57:04Z</time></trkpt><trkpt lat="44.532468726391514" lon="7.942508859244377"><ele>282.8</ele><time>2026-04-07T16:57:05Z</time></trkpt><trkpt lat="44.5324697668299" lon="7.942645165487817"><ele>283.0</ele><time>2026-04-07T16:57:06Z</time></trkpt><trkpt lat="44.532477177507225" lon="7.942790114597893"><ele>283.2</ele><time>2026-04-07T16:57:07Z</time></trkpt><trkpt lat="44.53248398461359" lon="7.9429373714518094"><ele>283.4</ele><time>2026-04-07T16:57:08Z</time></trkpt><trkpt lat="44.53247775857799" lon="7.943083308193096"><ele>283.59999999999997</ele><time>2026-04-07T16:57:09Z</time></trkpt><trkpt lat="44.53246809566848" lon="7.943224409770542"><ele>283.8</ele><time>2026-04-07T16:57:10Z</time></trkpt><trkpt lat="44.53245296387864" lon="7.943370965275204"><ele>284.0</ele><time>2026-04-07T16:57:11Z</time></trkpt><trkpt lat="44.532448718040115" lon="7.943530865171475"><ele>284.0</ele><time>2026-04-07T16:57:12Z</time></trkpt><trkpt lat="44.5324405593898" lon="7.943671791277992"><ele>284.0</ele><time>2026-04-07T16:57:13Z</time></trkpt><trkpt lat="44.532439467102755" lon="7.943817265188162"><ele>284.0</ele><time>2026-04-07T16:57:14Z</time></trkpt><trkpt lat="44.53243250541524" lon="7.9439437150969825"><ele>284.0</ele><time>2026-04-07T16:57:15Z</time></trkpt><trkpt lat="44.532434705127535" lon="7.9440415000070566"><ele>284.0</ele><time>2026-04-07T16:57:16Z</time></trkpt><trkpt lat="44.532439863499924" lon="7.94417639450216"><ele>284.1666666666667</ele><time>2026-04-07T16:57:17Z</time></trkpt><trkpt lat="44.53244114737193" lon="7.944303606834728"><ele>284.33333333333337</ele><time>2026-04-07T16:57:18Z</time></trkpt><trkpt lat="44.53244281983901" lon="7.944411382534407"><ele>284.5</ele><time>2026-04-07T16:57:19Z</time></trkpt><trkpt lat="44.53243431614545" lon="7.944533097822644"><ele>284.6666666666667</ele><time>2026-04-07T16:57:20Z</time></trkpt><trkpt lat="44.53242694451857" lon="7.944651896594435"><ele>284.8333333333333</ele><time>2026-04-07T16:57:21Z</time></trkpt><trkpt lat="44.53242429269303" lon="7.9447773594413125"><ele>285.0</ele><time>2026-04-07T16:57:22Z</time></trkpt><trkpt lat="44.53242175732456" lon="7.9449079812622125"><ele>285.0</ele><time>2026-04-07T16:57:23Z</time></trkpt><trkpt lat="44.53241998535051" lon="7.945024428831004"><ele>285.0</ele><time>2026-04-07T16:57:24Z</time></trkpt><trkpt lat="44.5324141580331" lon="7.945138421042992"><ele>285.0</ele><time>2026-04-07T16:57:25Z</time></trkpt><trkpt lat="44.53239930046639" lon="7.945301740647327"><ele>285.0</ele><time>2026-04-07T16:57:27Z</time></trkpt><trkpt lat="44.5323787721318" lon="7.945397948094284"><ele>285.0</ele><time>2026-04-07T16:57:29Z</time></trkpt><trkpt lat="44.53233436490848" lon="7.945491034667736"><ele>285.0</ele><time>2026-04-07T16:57:32Z</time></trkpt><trkpt lat="44.53227411870407" lon="7.945597476390667"><ele>284.8</ele><time>2026-04-07T16:57:34Z</time></trkpt><trkpt lat="44.532157528738566" lon="7.945575391681107"><ele>284.6</ele><time>2026-04-07T16:57:36Z</time></trkpt><trkpt lat="44.53203997403051" lon="7.945552356727054"><ele>284.4</ele><time>2026-04-07T16:57:37.999Z</time></trkpt><trkpt lat="44.53196723707479" lon="7.94552825659161"><ele>284.2</ele><time>2026-04-07T16:57:38.999Z</time></trkpt><trkpt lat="44.531905405957865" lon="7.945509657014095"><ele>284.0</ele><time>2026-04-07T16:57:39.999Z</time></trkpt><trkpt lat="44.53178421183855" lon="7.945488403683566"><ele>284.0</ele><time>2026-04-07T16:57:41.999Z</time></trkpt><trkpt lat="44.531719481262286" lon="7.945474360395449"><ele>284.0</ele><time>2026-04-07T16:57:42.999Z</time></trkpt><trkpt lat="44.53164985119009" lon="7.945457536217054"><ele>284.0</ele><time>2026-04-07T16:57:43.999Z</time></trkpt><trkpt lat="44.53157416617492" lon="7.945432503202545"><ele>284.0</ele><time>2026-04-07T16:57:44.999Z</time></trkpt><trkpt lat="44.53150971144599" lon="7.945425076684607"><ele>284.0</ele><time>2026-04-07T16:57:45.999Z</time></trkpt><trkpt lat="44.531388010734304" lon="7.945396652444215"><ele>284.0</ele><time>2026-04-07T16:57:47.999Z</time></trkpt><trkpt lat="44.53130885057356" lon="7.945379768925707"><ele>284.4</ele><time>2026-04-07T16:57:49.999Z</time></trkpt><trkpt lat="44.53121550734846" lon="7.945350713377547"><ele>284.79999999999995</ele><time>2026-04-07T16:57:51.999Z</time></trkpt><trkpt lat="44.53113519213776" lon="7.9453222446365785"><ele>285.20000000000005</ele><time>2026-04-07T16:57:52.999Z</time></trkpt><trkpt lat="44.531046336389686" lon="7.945306142983759"><ele>285.6</ele><time>2026-04-07T16:57:53.999Z</time></trkpt><trkpt lat="44.53094765234243" lon="7.94528608281422"><ele>286.0</ele><time>2026-04-07T16:57:54.999Z</time></trkpt><trkpt lat="44.530865181022456" lon="7.945264314011609"><ele>286.0</ele><time>2026-04-07T16:57:55.999Z</time></trkpt><trkpt lat="44.53077577596587" lon="7.9452388001072185"><ele>286.0</ele><time>2026-04-07T16:57:56.999Z</time></trkpt><trkpt lat="44.53069338700729" lon="7.945208471549706"><ele>286.0</ele><time>2026-04-07T16:57:57.999Z</time></trkpt><trkpt lat="44.53062763919288" lon="7.9451766940363475"><ele>286.0</ele><time>2026-04-07T16:57:58.999Z</time></trkpt><trkpt lat="44.53057178285903" lon="7.9451348841222265"><ele>286.0</ele><time>2026-04-07T16:57:59.999Z</time></trkpt><trkpt lat="44.53051923250696" lon="7.945063820574555"><ele>286.0</ele><time>2026-04-07T16:58:00.999Z</time></trkpt><trkpt lat="44.53048284100072" lon="7.944959250182213"><ele>285.40000000000003</ele><time>2026-04-07T16:58:01.999Z</time></trkpt><trkpt lat="44.53046564086505" lon="7.9448232087277875"><ele>284.8</ele><time>2026-04-07T16:58:02.999Z</time></trkpt><trkpt lat="44.530451452471276" lon="7.944691104274525"><ele>284.20000000000005</ele><time>2026-04-07T16:58:03.999Z</time></trkpt><trkpt lat="44.530439594090666" lon="7.944566660684762"><ele>283.6</ele><time>2026-04-07T16:58:04.999Z</time></trkpt><trkpt lat="44.53043785346524" lon="7.944445349061427"><ele>283.0</ele><time>2026-04-07T16:58:05.999Z</time></trkpt><trkpt lat="44.53043233529657" lon="7.944312933125435"><ele>283.2</ele><time>2026-04-07T16:58:06.999Z</time></trkpt><trkpt lat="44.53043493053898" lon="7.944178582501104"><ele>283.4</ele><time>2026-04-07T16:58:07.999Z</time></trkpt><trkpt lat="44.53042847464951" lon="7.944048137547345"><ele>283.59999999999997</ele><time>2026-04-07T16:58:08.999Z</time></trkpt><trkpt lat="44.53041833696866" lon="7.943912614083477"><ele>283.8</ele><time>2026-04-07T16:58:09.999Z</time></trkpt><trkpt lat="44.53040354501168" lon="7.943746454768521"><ele>284.0</ele><time>2026-04-07T16:58:10.999Z</time></trkpt><trkpt lat="44.53039547030786" lon="7.943607760278742"><ele>284.83333333333337</ele><time>2026-04-07T16:58:11.999Z</time></trkpt><trkpt lat="44.53038985404166" lon="7.94348109268707"><ele>285.6666666666667</ele><time>2026-04-07T16:58:12.999Z</time></trkpt><trkpt lat="44.53037055563699" lon="7.943348760583275"><ele>286.5</ele><time>2026-04-07T16:58:13.999Z</time></trkpt><trkpt lat="44.53035141584359" lon="7.943222802885139"><ele>287.3333333333333</ele><time>2026-04-07T16:58:14.999Z</time></trkpt><trkpt lat="44.530328782282645" lon="7.943125156272989"><ele>288.16666666666663</ele><time>2026-04-07T16:58:15.999Z</time></trkpt><trkpt lat="44.53030132646028" lon="7.94303735679633"><ele>289.0</ele><time>2026-04-07T16:58:16.999Z</time></trkpt><trkpt lat="44.53026100813158" lon="7.942962395859122"><ele>289.0</ele><time>2026-04-07T16:58:17.999Z</time></trkpt><trkpt lat="44.53020464175837" lon="7.942895574319253"><ele>289.0</ele><time>2026-04-07T16:58:18.999Z</time></trkpt><trkpt lat="44.53014936188799" lon="7.94284382154187"><ele>289.0</ele><time>2026-04-07T16:58:19.999Z</time></trkpt><trkpt lat="44.53005087412347" lon="7.942794233662616"><ele>289.0</ele><time>2026-04-07T16:58:20.999Z</time></trkpt><trkpt lat="44.529961192308065" lon="7.942774302060727"><ele>289.0</ele><time>2026-04-07T16:58:21.999Z</time></trkpt><trkpt lat="44.52986661718924" lon="7.942787236201606"><ele>289.0</ele><time>2026-04-07T16:58:22.999Z</time></trkpt><trkpt lat="44.5297832344429" lon="7.942822857743041"><ele>289.0</ele><time>2026-04-07T16:58:23.999Z</time></trkpt><trkpt lat="44.52970136271784" lon="7.9428994807204365"><ele>289.0</ele><time>2026-04-07T16:58:24.999Z</time></trkpt><trkpt lat="44.52963687239778" lon="7.943001593412092"><ele>289.0</ele><time>2026-04-07T16:58:25.999Z</time></trkpt><trkpt lat="44.529591983055596" lon="7.943131810949015"><ele>289.0</ele><time>2026-04-07T16:58:26.999Z</time></trkpt><trkpt lat="44.52957560708887" lon="7.943279605539683"><ele>289.0</ele><time>2026-04-07T16:58:27.999Z</time></trkpt><trkpt lat="44.52955819361354" lon="7.943425514146552"><ele>295.5</ele><time>2026-04-07T16:58:28.999Z</time></trkpt><trkpt lat="44.529554909349464" lon="7.943592518886595"><ele>302.0</ele><time>2026-04-07T16:58:29.999Z</time></trkpt><trkpt lat="44.52951633988555" lon="7.943747984065029"><ele>308.5</ele><time>2026-04-07T16:58:30.999Z</time></trkpt><trkpt lat="44.52949483715126" lon="7.9439275854363345"><ele>315.0</ele><time>2026-04-07T16:58:31.999Z</time></trkpt><trkpt lat="44.529475572383376" lon="7.944123946907663"><ele>316.0</ele><time>2026-04-07T16:58:32.999Z</time></trkpt><trkpt lat="44.52945809389466" lon="7.944320259297443"><ele>317.0</ele><time>2026-04-07T16:58:33.999Z</time></trkpt><trkpt lat="44.529444095280255" lon="7.944508038804644"><ele>318.0</ele><time>2026-04-07T16:58:34.999Z</time></trkpt><trkpt lat="44.52942375915418" lon="7.944698457397088"><ele>319.0</ele><time>2026-04-07T16:58:35.999Z</time></trkpt><trkpt lat="44.529405098725114" lon="7.944900355932437"><ele>317.0</ele><time>2026-04-07T16:58:36.998Z</time></trkpt><trkpt lat="44.52939414452661" lon="7.945085651519446"><ele>315.0</ele><time>2026-04-07T16:58:37.998Z</time></trkpt><trkpt lat="44.529386529001734" lon="7.945237919678474"><ele>313.0</ele><time>2026-04-07T16:58:38.998Z</time></trkpt><trkpt lat="44.52936826422816" lon="7.94536591443947"><ele>311.0</ele><time>2026-04-07T16:58:39.998Z</time></trkpt><trkpt lat="44.52935187956856" lon="7.945498135677588"><ele>309.0</ele><time>2026-04-07T16:58:40.998Z</time></trkpt><trkpt lat="44.52930044323108" lon="7.945612035002053"><ele>309.0</ele><time>2026-04-07T16:58:41.998Z</time></trkpt><trkpt lat="44.52922983125443" lon="7.9456931716929144"><ele>309.0</ele><time>2026-04-07T16:58:42.998Z</time></trkpt><trkpt lat="44.52915018096642" lon="7.945760784030273"><ele>309.0</ele><time>2026-04-07T16:58:43.998Z</time></trkpt><trkpt lat="44.52905889300147" lon="7.945818974735223"><ele>309.0</ele><time>2026-04-07T16:58:44.998Z</time></trkpt><trkpt lat="44.52896685025868" lon="7.945900869857478"><ele>309.0</ele><time>2026-04-07T16:58:45.998Z</time></trkpt><trkpt lat="44.52887041239043" lon="7.945982178545073"><ele>308.59999999999997</ele><time>2026-04-07T16:58:46.998Z</time></trkpt><trkpt lat="44.52878005770056" lon="7.946071260365054"><ele>308.2</ele><time>2026-04-07T16:58:47.998Z</time></trkpt><trkpt lat="44.52869159511224" lon="7.9461501113067"><ele>307.79999999999995</ele><time>2026-04-07T16:58:48.998Z</time></trkpt><trkpt lat="44.5286087945513" lon="7.946236405709029"><ele>307.4</ele><time>2026-04-07T16:58:49.998Z</time></trkpt><trkpt lat="44.52852452513793" lon="7.946321527133836"><ele>307.0</ele><time>2026-04-07T16:58:50.998Z</time></trkpt><trkpt lat="44.52844049477556" lon="7.9464302620010505"><ele>310.0</ele><time>2026-04-07T16:58:51.998Z</time></trkpt><trkpt lat="44.52835463374" lon="7.946559390610064"><ele>313.0</ele><time>2026-04-07T16:58:52.998Z</time></trkpt><trkpt lat="44.52826907556132" lon="7.946714457673927"><ele>316.0</ele><time>2026-04-07T16:58:53.998Z</time></trkpt><trkpt lat="44.52816781558369" lon="7.94683544975889"><ele>319.0</ele><time>2026-04-07T16:58:54.998Z</time></trkpt><trkpt lat="44.52809655165559" lon="7.9469621428688555"><ele>320.2</ele><time>2026-04-07T16:58:55.998Z</time></trkpt><trkpt lat="44.528018871489216" lon="7.947086411321013"><ele>321.4</ele><time>2026-04-07T16:58:57Z</time></trkpt><trkpt lat="44.52796048327691" lon="7.947160416761325"><ele>322.6</ele><time>2026-04-07T16:58:58Z</time></trkpt><trkpt lat="44.527881897782585" lon="7.947237051423725"><ele>323.8</ele><time>2026-04-07T16:58:59Z</time></trkpt><trkpt lat="44.527778261796485" lon="7.947313320872912"><ele>325.0</ele><time>2026-04-07T16:59:00Z</time></trkpt><trkpt lat="44.527686689244106" lon="7.947349142593583"><ele>325.66666666666663</ele><time>2026-04-07T16:59:01Z</time></trkpt><trkpt lat="44.527608429963365" lon="7.947397667935256"><ele>326.3333333333333</ele><time>2026-04-07T16:59:02Z</time></trkpt><trkpt lat="44.52754268618984" lon="7.947464314924329"><ele>327.0</ele><time>2026-04-07T16:59:03Z</time></trkpt><trkpt lat="44.5274906879069" lon="7.947565614674842"><ele>327.6666666666667</ele><time>2026-04-07T16:59:04Z</time></trkpt><trkpt lat="44.52744612089218" lon="7.94765239094897"><ele>328.33333333333337</ele><time>2026-04-07T16:59:05Z</time></trkpt><trkpt lat="44.52743298321321" lon="7.947793629808127"><ele>329.0</ele><time>2026-04-07T16:59:06Z</time></trkpt><trkpt lat="44.52743985895021" lon="7.947941674295272"><ele>330.0</ele><time>2026-04-07T16:59:07Z</time></trkpt><trkpt lat="44.52744433484756" lon="7.948063355919156"><ele>331.0</ele><time>2026-04-07T16:59:08Z</time></trkpt><trkpt lat="44.52739303945486" lon="7.948244810146704"><ele>332.0</ele><time>2026-04-07T16:59:10Z</time></trkpt><trkpt lat="44.52735249297863" lon="7.94834684338888"><ele>333.0</ele><time>2026-04-07T16:59:11Z</time></trkpt><trkpt lat="44.52724320668098" lon="7.948363804900006"><ele>334.0</ele><time>2026-04-07T16:59:13Z</time></trkpt><trkpt lat="44.52719442866265" lon="7.94829820187903"><ele>334.0</ele><time>2026-04-07T16:59:14Z</time></trkpt><trkpt lat="44.52712477301609" lon="7.948245800080741"><ele>334.0</ele><time>2026-04-07T16:59:15Z</time></trkpt><trkpt lat="44.52705228858479" lon="7.9481648085166245"><ele>334.0</ele><time>2026-04-07T16:59:16Z</time></trkpt><trkpt lat="44.52696720648307" lon="7.948117069712651"><ele>334.0</ele><time>2026-04-07T16:59:17Z</time></trkpt><trkpt lat="44.526888079745845" lon="7.948040552812562"><ele>334.0</ele><time>2026-04-07T16:59:18Z</time></trkpt><trkpt lat="44.526800966939696" lon="7.947963110707705"><ele>335.2</ele><time>2026-04-07T16:59:19Z</time></trkpt><trkpt lat="44.52667743724102" lon="7.947918009735588"><ele>336.4</ele><time>2026-04-07T16:59:20Z</time></trkpt><trkpt lat="44.52657371358196" lon="7.947876464742399"><ele>337.6</ele><time>2026-04-07T16:59:21Z</time></trkpt><trkpt lat="44.52648196306354" lon="7.947828321220737"><ele>338.8</ele><time>2026-04-07T16:59:22Z</time></trkpt><trkpt lat="44.526381095368244" lon="7.947790806447838"><ele>340.0</ele><time>2026-04-07T16:59:23Z</time></trkpt><trkpt lat="44.52628098572148" lon="7.947760805409671"><ele>340.8</ele><time>2026-04-07T16:59:24Z</time></trkpt><trkpt lat="44.52619310545716" lon="7.947731043133297"><ele>341.6</ele><time>2026-04-07T16:59:25Z</time></trkpt><trkpt lat="44.526107265297156" lon="7.947691531709105"><ele>342.4</ele><time>2026-04-07T16:59:26Z</time></trkpt><trkpt lat="44.526018370822186" lon="7.947643061599195"><ele>343.2</ele><time>2026-04-07T16:59:27Z</time></trkpt><trkpt lat="44.52593021473478" lon="7.947604049883535"><ele>344.0</ele><time>2026-04-07T16:59:28Z</time></trkpt><trkpt lat="44.525848906388994" lon="7.94755069425081"><ele>344.0</ele><time>2026-04-07T16:59:29Z</time></trkpt><trkpt lat="44.52577581980298" lon="7.94746349087056"><ele>344.0</ele><time>2026-04-07T16:59:30Z</time></trkpt><trkpt lat="44.52572407470098" lon="7.947346230665678"><ele>344.0</ele><time>2026-04-07T16:59:31Z</time></trkpt><trkpt lat="44.52566797627953" lon="7.947230109374509"><ele>344.0</ele><time>2026-04-07T16:59:32Z</time></trkpt><trkpt lat="44.52562315273866" lon="7.947085889591236"><ele>344.0</ele><time>2026-04-07T16:59:33Z</time></trkpt><trkpt lat="44.5255703940505" lon="7.946916234595775"><ele>344.0</ele><time>2026-04-07T16:59:34Z</time></trkpt><trkpt lat="44.5255191260839" lon="7.94674543267025"><ele>344.0</ele><time>2026-04-07T16:59:35Z</time></trkpt><trkpt lat="44.52546559537812" lon="7.946575561156918"><ele>344.0</ele><time>2026-04-07T16:59:36Z</time></trkpt><trkpt lat="44.52540676125263" lon="7.946394582993463"><ele>344.0</ele><time>2026-04-07T16:59:37Z</time></trkpt><trkpt lat="44.52534549695174" lon="7.94621169104029"><ele>346.5</ele><time>2026-04-07T16:59:38Z</time></trkpt><trkpt lat="44.52528509707725" lon="7.946044793346542"><ele>349.0</ele><time>2026-04-07T16:59:39Z</time></trkpt><trkpt lat="44.52523095144051" lon="7.9458852045044"><ele>351.5</ele><time>2026-04-07T16:59:40Z</time></trkpt><trkpt lat="44.52515821400451" lon="7.945726013283919"><ele>354.0</ele><time>2026-04-07T16:59:41Z</time></trkpt><trkpt lat="44.52507357565631" lon="7.945577264880051"><ele>354.0</ele><time>2026-04-07T16:59:42Z</time></trkpt><trkpt lat="44.52495756860717" lon="7.945443955282957"><ele>354.0</ele><time>2026-04-07T16:59:42.999Z</time></trkpt><trkpt lat="44.52483776905639" lon="7.9453023516850365"><ele>354.0</ele><time>2026-04-07T16:59:43.999Z</time></trkpt><trkpt lat="44.524729146694106" lon="7.945164790697051"><ele>354.0</ele><time>2026-04-07T16:59:44.999Z</time></trkpt><trkpt lat="44.524627936758506" lon="7.945055825264743"><ele>354.0</ele><time>2026-04-07T16:59:45.999Z</time></trkpt><trkpt lat="44.52454185542347" lon="7.944945563227579"><ele>354.0</ele><time>2026-04-07T16:59:46.999Z</time></trkpt><trkpt lat="44.524451524863466" lon="7.944843893762437"><ele>354.0</ele><time>2026-04-07T16:59:47.999Z</time></trkpt><trkpt lat="44.52433508731497" lon="7.944732888188388"><ele>356.5</ele><time>2026-04-07T16:59:48.999Z</time></trkpt><trkpt lat="44.524226999564675" lon="7.9446730719332255"><ele>359.0</ele><time>2026-04-07T16:59:49.999Z</time></trkpt><trkpt lat="44.52409991664812" lon="7.944637890125528"><ele>361.5</ele><time>2026-04-07T16:59:50.999Z</time></trkpt><trkpt lat="44.52395317985953" lon="7.944617661954484"><ele>364.0</ele><time>2026-04-07T16:59:51.999Z</time></trkpt><trkpt lat="44.52380831435378" lon="7.944587190505111"><ele>366.75</ele><time>2026-04-07T16:59:52.999Z</time></trkpt><trkpt lat="44.5236561911798" lon="7.944557028187416"><ele>369.5</ele><time>2026-04-07T16:59:53.999Z</time></trkpt><trkpt lat="44.52351122740572" lon="7.944536192869875"><ele>372.25</ele><time>2026-04-07T16:59:54.999Z</time></trkpt><trkpt lat="44.523368042102966" lon="7.944517503153381"><ele>375.0</ele><time>2026-04-07T16:59:55.999Z</time></trkpt><trkpt lat="44.523220845965405" lon="7.944506673158949"><ele>375.0</ele><time>2026-04-07T16:59:56.999Z</time></trkpt><trkpt lat="44.52307236163702" lon="7.944479711513208"><ele>375.0</ele><time>2026-04-07T16:59:57.999Z</time></trkpt><trkpt lat="44.52291565768999" lon="7.944459988216997"><ele>375.0</ele><time>2026-04-07T16:59:58.999Z</time></trkpt><trkpt lat="44.5227578183669" lon="7.944434640499656"><ele>377.0</ele><time>2026-04-07T16:59:59.999Z</time></trkpt><trkpt lat="44.522609690130686" lon="7.944417482586803"><ele>379.0</ele><time>2026-04-07T17:00:00.999Z</time></trkpt><trkpt lat="44.52247860295668" lon="7.944400541844021"><ele>381.0</ele><time>2026-04-07T17:00:01.999Z</time></trkpt><trkpt lat="44.52236968246187" lon="7.944376897089903"><ele>383.0</ele><time>2026-04-07T17:00:02.999Z</time></trkpt><trkpt lat="44.522276943285895" lon="7.9443538769414515"><ele>383.0</ele><time>2026-04-07T17:00:03.999Z</time></trkpt><trkpt lat="44.52217616273519" lon="7.944302635541626"><ele>383.0</ele><time>2026-04-07T17:00:04.999Z</time></trkpt><trkpt lat="44.522071194914446" lon="7.944241918810287"><ele>383.0</ele><time>2026-04-07T17:00:05.999Z</time></trkpt><trkpt lat="44.521975461880004" lon="7.94418751190903"><ele>383.0</ele><time>2026-04-07T17:00:06.999Z</time></trkpt><trkpt lat="44.52190163381116" lon="7.9441384352320075"><ele>383.0</ele><time>2026-04-07T17:00:07.999Z</time></trkpt><trkpt lat="44.52181690261882" lon="7.944083363634422"><ele>383.4</ele><time>2026-04-07T17:00:08.999Z</time></trkpt><trkpt lat="44.52171766355904" lon="7.944059810830633"><ele>383.79999999999995</ele><time>2026-04-07T17:00:09.999Z</time></trkpt><trkpt lat="44.52161202757156" lon="7.944067474271421"><ele>384.2</ele><time>2026-04-07T17:00:10.999Z</time></trkpt><trkpt lat="44.5215036752697" lon="7.944086675886315"><ele>384.6</ele><time>2026-04-07T17:00:11.999Z</time></trkpt><trkpt lat="44.521385362710326" lon="7.944120576625457"><ele>385.0</ele><time>2026-04-07T17:00:12.999Z</time></trkpt><trkpt lat="44.52126678261147" lon="7.944170702293031"><ele>387.75</ele><time>2026-04-07T17:00:13.999Z</time></trkpt><trkpt lat="44.52115292714971" lon="7.944245792671976"><ele>390.5</ele><time>2026-04-07T17:00:14.999Z</time></trkpt><trkpt lat="44.52104582807585" lon="7.944309038001209"><ele>393.25</ele><time>2026-04-07T17:00:15.999Z</time></trkpt><trkpt lat="44.52093854502886" lon="7.944355455542464"><ele>396.0</ele><time>2026-04-07T17:00:16.999Z</time></trkpt><trkpt lat="44.52083194052866" lon="7.944409758969391"><ele>396.0</ele><time>2026-04-07T17:00:17.999Z</time></trkpt><trkpt lat="44.520727786737936" lon="7.9444591669943385"><ele>396.0</ele><time>2026-04-07T17:00:18.999Z</time></trkpt><trkpt lat="44.52063003166435" lon="7.944506991488641"><ele>396.0</ele><time>2026-04-07T17:00:19.999Z</time></trkpt><trkpt lat="44.52053867779897" lon="7.944547596618657"><ele>396.0</ele><time>2026-04-07T17:00:20.999Z</time></trkpt><trkpt lat="44.52043821540725" lon="7.9445850364271395"><ele>396.0</ele><time>2026-04-07T17:00:21.999Z</time></trkpt><trkpt lat="44.52034258819771" lon="7.9446184191445495"><ele>392.75</ele><time>2026-04-07T17:00:22.999Z</time></trkpt><trkpt lat="44.52023817306291" lon="7.944624156618532"><ele>389.5</ele><time>2026-04-07T17:00:23.999Z</time></trkpt><trkpt lat="44.520136976367795" lon="7.944582453335599"><ele>386.25</ele><time>2026-04-07T17:00:24.999Z</time></trkpt><trkpt lat="44.52002679667788" lon="7.944533429433791"><ele>383.0</ele><time>2026-04-07T17:00:25.999Z</time></trkpt><trkpt lat="44.51989908483809" lon="7.944488490838643"><ele>383.0</ele><time>2026-04-07T17:00:26.999Z</time></trkpt><trkpt lat="44.51976635457667" lon="7.944403465011515"><ele>383.0</ele><time>2026-04-07T17:00:27.999Z</time></trkpt><trkpt lat="44.51963246599615" lon="7.944322198188319"><ele>383.0</ele><time>2026-04-07T17:00:28.999Z</time></trkpt><trkpt lat="44.51949342665854" lon="7.944242581766297"><ele>383.0</ele><time>2026-04-07T17:00:29.999Z</time></trkpt><trkpt lat="44.51935461046355" lon="7.944158058375921"><ele>382.0</ele><time>2026-04-07T17:00:30.999Z</time></trkpt><trkpt lat="44.51922280658229" lon="7.944069834764356"><ele>381.0</ele><time>2026-04-07T17:00:31.999Z</time></trkpt><trkpt lat="44.51906790969964" lon="7.943964119963615"><ele>380.0</ele><time>2026-04-07T17:00:32.999Z</time></trkpt><trkpt lat="44.51892346103128" lon="7.943869357485724"><ele>380.0</ele><time>2026-04-07T17:00:33.999Z</time></trkpt><trkpt lat="44.518783797762595" lon="7.94375750219624"><ele>380.0</ele><time>2026-04-07T17:00:34.999Z</time></trkpt><trkpt lat="44.51864339398723" lon="7.943636141877062"><ele>380.0</ele><time>2026-04-07T17:00:35.999Z</time></trkpt><trkpt lat="44.51849915562813" lon="7.943483052792576"><ele>377.6666666666667</ele><time>2026-04-07T17:00:36.999Z</time></trkpt><trkpt lat="44.51835036320518" lon="7.943325620040288"><ele>375.3333333333333</ele><time>2026-04-07T17:00:37.999Z</time></trkpt><trkpt lat="44.51820036860487" lon="7.943153743698278"><ele>373.0</ele><time>2026-04-07T17:00:38.999Z</time></trkpt><trkpt lat="44.51803554790475" lon="7.9429757354475745"><ele>371.66666666666663</ele><time>2026-04-07T17:00:39.999Z</time></trkpt><trkpt lat="44.51785834052745" lon="7.942776968975872"><ele>370.3333333333333</ele><time>2026-04-07T17:00:40.999Z</time></trkpt><trkpt lat="44.51768893593503" lon="7.942583620532544"><ele>369.0</ele><time>2026-04-07T17:00:41.999Z</time></trkpt><trkpt lat="44.51753762482808" lon="7.942388356381566"><ele>368.3333333333333</ele><time>2026-04-07T17:00:42.998Z</time></trkpt><trkpt lat="44.51737750615946" lon="7.942232394431851"><ele>367.66666666666663</ele><time>2026-04-07T17:00:43.998Z</time></trkpt><trkpt lat="44.517235715417115" lon="7.942041368604996"><ele>367.0</ele><time>2026-04-07T17:00:44.998Z</time></trkpt><trkpt lat="44.51708176493004" lon="7.94186394551727"><ele>365.0</ele><time>2026-04-07T17:00:45.998Z</time></trkpt><trkpt lat="44.516933738665585" lon="7.941693349968582"><ele>363.0</ele><time>2026-04-07T17:00:46.998Z</time></trkpt><trkpt lat="44.516788706136126" lon="7.941526204573472"><ele>361.0</ele><time>2026-04-07T17:00:47.998Z</time></trkpt><trkpt lat="44.516652325016395" lon="7.9413690296892465"><ele>361.0</ele><time>2026-04-07T17:00:48.998Z</time></trkpt><trkpt lat="44.51651619666982" lon="7.9412121247895735"><ele>361.0</ele><time>2026-04-07T17:00:49.998Z</time></trkpt><trkpt lat="44.51637585062763" lon="7.941083966023563"><ele>361.0</ele><time>2026-04-07T17:00:50.998Z</time></trkpt><trkpt lat="44.51625804509019" lon="7.940922570561873"><ele>358.66666666666663</ele><time>2026-04-07T17:00:51.998Z</time></trkpt><trkpt lat="44.516120875396645" lon="7.940793344072399"><ele>356.3333333333333</ele><time>2026-04-07T17:00:52.998Z</time></trkpt><trkpt lat="44.51599459428608" lon="7.940642623658897"><ele>354.0</ele><time>2026-04-07T17:00:53.998Z</time></trkpt><trkpt lat="44.51587318729732" lon="7.940481529164226"><ele>354.0</ele><time>2026-04-07T17:00:54.998Z</time></trkpt><trkpt lat="44.51575639940162" lon="7.940291010873764"><ele>354.0</ele><time>2026-04-07T17:00:55.998Z</time></trkpt><trkpt lat="44.51563416455432" lon="7.940078529064648"><ele>354.0</ele><time>2026-04-07T17:00:56.998Z</time></trkpt><trkpt lat="44.515523215821204" lon="7.939849763720221"><ele>354.3333333333333</ele><time>2026-04-07T17:00:57.998Z</time></trkpt><trkpt lat="44.515415895810065" lon="7.939605687959415"><ele>354.66666666666663</ele><time>2026-04-07T17:00:58.998Z</time></trkpt><trkpt lat="44.5153162448658" lon="7.939363353624727"><ele>355.0</ele><time>2026-04-07T17:00:59.998Z</time></trkpt><trkpt lat="44.515220838822216" lon="7.939125583135048"><ele>352.66666666666663</ele><time>2026-04-07T17:01:00.998Z</time></trkpt><trkpt lat="44.51513874564557" lon="7.938916394204404"><ele>350.3333333333333</ele><time>2026-04-07T17:01:01.998Z</time></trkpt><trkpt lat="44.515069343219565" lon="7.938736759158647"><ele>348.0</ele><time>2026-04-07T17:01:03Z</time></trkpt><trkpt lat="44.514990475825044" lon="7.938540383738857"><ele>347.75</ele><time>2026-04-07T17:01:04Z</time></trkpt><trkpt lat="44.51492556881816" lon="7.938353814970982"><ele>347.5</ele><time>2026-04-07T17:01:05Z</time></trkpt><trkpt lat="44.514865055414006" lon="7.938168183524748"><ele>347.25</ele><time>2026-04-07T17:01:06Z</time></trkpt><trkpt lat="44.51482836007282" lon="7.937963198868969"><ele>347.0</ele><time>2026-04-07T17:01:07Z</time></trkpt><trkpt lat="44.514797376852734" lon="7.937730602323253"><ele>347.33333333333337</ele><time>2026-04-07T17:01:08Z</time></trkpt><trkpt lat="44.51476665838818" lon="7.937475735430786"><ele>347.6666666666667</ele><time>2026-04-07T17:01:09Z</time></trkpt><trkpt lat="44.51472709574138" lon="7.937202693866935"><ele>348.0</ele><time>2026-04-07T17:01:10Z</time></trkpt><trkpt lat="44.51470137785599" lon="7.9369232630324476"><ele>349.0</ele><time>2026-04-07T17:01:11Z</time></trkpt><trkpt lat="44.514661459471164" lon="7.936655457086343"><ele>350.0</ele><time>2026-04-07T17:01:12Z</time></trkpt><trkpt lat="44.514639833111744" lon="7.9363963330979885"><ele>351.0</ele><time>2026-04-07T17:01:13Z</time></trkpt><trkpt lat="44.514619745759035" lon="7.9361662788487655"><ele>351.0</ele><time>2026-04-07T17:01:14Z</time></trkpt><trkpt lat="44.51460800967702" lon="7.9359657346873975"><ele>351.0</ele><time>2026-04-07T17:01:15Z</time></trkpt><trkpt lat="44.51458170708974" lon="7.935752213221419"><ele>351.0</ele><time>2026-04-07T17:01:16Z</time></trkpt><trkpt lat="44.51454158648858" lon="7.935528652058902"><ele>347.3333333333333</ele><time>2026-04-07T17:01:17Z</time></trkpt><trkpt lat="44.51449320574558" lon="7.935322847225731"><ele>343.66666666666663</ele><time>2026-04-07T17:01:18Z</time></trkpt><trkpt lat="44.5144407612142" lon="7.935116455126065"><ele>340.0</ele><time>2026-04-07T17:01:19Z</time></trkpt><trkpt lat="44.51437492994074" lon="7.934922968935467"><ele>340.0</ele><time>2026-04-07T17:01:20Z</time></trkpt><trkpt lat="44.51429681622796" lon="7.934709303694476"><ele>340.0</ele><time>2026-04-07T17:01:21Z</time></trkpt><trkpt lat="44.514221428474315" lon="7.9345180377598235"><ele>340.0</ele><time>2026-04-07T17:01:22Z</time></trkpt><trkpt lat="44.514149496322936" lon="7.934328423174815"><ele>340.0</ele><time>2026-04-07T17:01:23Z</time></trkpt><trkpt lat="44.514064754761314" lon="7.934142609967747"><ele>340.0</ele><time>2026-04-07T17:01:24Z</time></trkpt><trkpt lat="44.513985907294405" lon="7.933981481105481"><ele>340.0</ele><time>2026-04-07T17:01:25Z</time></trkpt><trkpt lat="44.51391319469021" lon="7.93380685034174"><ele>340.0</ele><time>2026-04-07T17:01:26Z</time></trkpt><trkpt lat="44.51383930402959" lon="7.933641076960201"><ele>340.0</ele><time>2026-04-07T17:01:27Z</time></trkpt><trkpt lat="44.5137681803324" lon="7.933488949223837"><ele>340.0</ele><time>2026-04-07T17:01:28Z</time></trkpt><trkpt lat="44.51370253247354" lon="7.933332993637184"><ele>340.0</ele><time>2026-04-07T17:01:29Z</time></trkpt><trkpt lat="44.513641965309496" lon="7.933190409575072"><ele>340.0</ele><time>2026-04-07T17:01:30Z</time></trkpt><trkpt lat="44.51359657191213" lon="7.93305518444392"><ele>339.25</ele><time>2026-04-07T17:01:31Z</time></trkpt><trkpt lat="44.513574550183435" lon="7.932866494622218"><ele>338.5</ele><time>2026-04-07T17:01:32Z</time></trkpt><trkpt lat="44.51355738442784" lon="7.932678762572318"><ele>337.75</ele><time>2026-04-07T17:01:33Z</time></trkpt><trkpt lat="44.51355556989783" lon="7.93246928363101"><ele>337.0</ele><time>2026-04-07T17:01:34Z</time></trkpt><trkpt lat="44.51356592798053" lon="7.93225368602801"><ele>335.3333333333333</ele><time>2026-04-07T17:01:35Z</time></trkpt><trkpt lat="44.51358262014585" lon="7.9320546983376214"><ele>333.6666666666667</ele><time>2026-04-07T17:01:36Z</time></trkpt><trkpt lat="44.51359647137136" lon="7.931838099770826"><ele>332.0</ele><time>2026-04-07T17:01:37Z</time></trkpt><trkpt lat="44.51359929338415" lon="7.931606261591137"><ele>331.33333333333337</ele><time>2026-04-07T17:01:38Z</time></trkpt><trkpt lat="44.513584119354164" lon="7.931384599771711"><ele>330.6666666666667</ele><time>2026-04-07T17:01:39Z</time></trkpt><trkpt lat="44.513559862413956" lon="7.931146448564093"><ele>330.0</ele><time>2026-04-07T17:01:40Z</time></trkpt><trkpt lat="44.51351796945803" lon="7.930911470159795"><ele>331.0</ele><time>2026-04-07T17:01:41Z</time></trkpt><trkpt lat="44.5134868346368" lon="7.9306735949215525"><ele>332.0</ele><time>2026-04-07T17:01:42Z</time></trkpt><trkpt lat="44.5134541752093" lon="7.930435672928461"><ele>333.0</ele><time>2026-04-07T17:01:43Z</time></trkpt><trkpt lat="44.51342454141128" lon="7.93018617270698"><ele>333.6666666666667</ele><time>2026-04-07T17:01:44Z</time></trkpt><trkpt lat="44.51339756426793" lon="7.9299480375815"><ele>334.33333333333337</ele><time>2026-04-07T17:01:45Z</time></trkpt><trkpt lat="44.513363415973146" lon="7.92970542078042"><ele>335.0</ele><time>2026-04-07T17:01:45.999Z</time></trkpt><trkpt lat="44.513328311239455" lon="7.929435109518774"><ele>335.0</ele><time>2026-04-07T17:01:46.999Z</time></trkpt><trkpt lat="44.513282480659726" lon="7.929202312087787"><ele>335.0</ele><time>2026-04-07T17:01:47.999Z</time></trkpt><trkpt lat="44.51324347704541" lon="7.92891180866154"><ele>335.0</ele><time>2026-04-07T17:01:48.999Z</time></trkpt><trkpt lat="44.51320012512884" lon="7.928614186630028"><ele>335.33333333333337</ele><time>2026-04-07T17:01:49.999Z</time></trkpt><trkpt lat="44.51314979542368" lon="7.9283098293226"><ele>335.6666666666667</ele><time>2026-04-07T17:01:50.999Z</time></trkpt><trkpt lat="44.5131075136957" lon="7.928014830855714"><ele>336.0</ele><time>2026-04-07T17:01:51.999Z</time></trkpt><trkpt lat="44.51305589795878" lon="7.927702407754987"><ele>336.0</ele><time>2026-04-07T17:01:52.999Z</time></trkpt><trkpt lat="44.513005337720394" lon="7.927419001616641"><ele>336.0</ele><time>2026-04-07T17:01:53.999Z</time></trkpt><trkpt lat="44.51296398899529" lon="7.927151791115047"><ele>336.0</ele><time>2026-04-07T17:01:54.999Z</time></trkpt><trkpt lat="44.512930837152474" lon="7.926905756513869"><ele>336.3333333333333</ele><time>2026-04-07T17:01:55.999Z</time></trkpt><trkpt lat="44.51288900531106" lon="7.926677015562051"><ele>336.66666666666663</ele><time>2026-04-07T17:01:56.999Z</time></trkpt><trkpt lat="44.51285656603219" lon="7.926453342081454"><ele>337.0</ele><time>2026-04-07T17:01:57.999Z</time></trkpt><trkpt lat="44.51283239066575" lon="7.926241774130086"><ele>337.0</ele><time>2026-04-07T17:01:58.999Z</time></trkpt><trkpt lat="44.51281853234403" lon="7.926015876845986"><ele>337.0</ele><time>2026-04-07T17:01:59.999Z</time></trkpt><trkpt lat="44.51281458947407" lon="7.9257795153479655"><ele>337.0</ele><time>2026-04-07T17:02:00.999Z</time></trkpt><trkpt lat="44.51282039616394" lon="7.925541350001774"><ele>337.0</ele><time>2026-04-07T17:02:01.999Z</time></trkpt><trkpt lat="44.512836454413396" lon="7.9253042777695"><ele>337.0</ele><time>2026-04-07T17:02:02.999Z</time></trkpt><trkpt lat="44.51286623110142" lon="7.925064097812675"><ele>337.0</ele><time>2026-04-07T17:02:03.999Z</time></trkpt><trkpt lat="44.512907951904346" lon="7.92481513560853"><ele>336.0</ele><time>2026-04-07T17:02:04.999Z</time></trkpt><trkpt lat="44.512960558309096" lon="7.924564767453089"><ele>335.0</ele><time>2026-04-07T17:02:05.999Z</time></trkpt><trkpt lat="44.51300825330738" lon="7.924333724160766"><ele>334.0</ele><time>2026-04-07T17:02:06.999Z</time></trkpt><trkpt lat="44.51305215513687" lon="7.9240960153633155"><ele>334.0</ele><time>2026-04-07T17:02:07.999Z</time></trkpt><trkpt lat="44.51309749730362" lon="7.923859369690137"><ele>334.0</ele><time>2026-04-07T17:02:08.999Z</time></trkpt><trkpt lat="44.51314020112159" lon="7.923628845255802"><ele>334.0</ele><time>2026-04-07T17:02:09.999Z</time></trkpt><trkpt lat="44.513179140687086" lon="7.9234108400880245"><ele>334.3333333333333</ele><time>2026-04-07T17:02:10.999Z</time></trkpt><trkpt lat="44.51321440558723" lon="7.9231870473385735"><ele>334.6666666666667</ele><time>2026-04-07T17:02:11.999Z</time></trkpt><trkpt lat="44.51325309690547" lon="7.922962803420685"><ele>335.0</ele><time>2026-04-07T17:02:12.999Z</time></trkpt><trkpt lat="44.51330018939231" lon="7.922719017681423"><ele>334.0</ele><time>2026-04-07T17:02:13.999Z</time></trkpt><trkpt lat="44.51335063198068" lon="7.922471037471829"><ele>333.0</ele><time>2026-04-07T17:02:14.999Z</time></trkpt><trkpt lat="44.513394305408" lon="7.922236433410517"><ele>332.0</ele><time>2026-04-07T17:02:15.999Z</time></trkpt><trkpt lat="44.513437791106234" lon="7.922013969418698"><ele>332.0</ele><time>2026-04-07T17:02:16.999Z</time></trkpt><trkpt lat="44.51348363800555" lon="7.921808951169033"><ele>332.0</ele><time>2026-04-07T17:02:17.999Z</time></trkpt><trkpt lat="44.51352662941153" lon="7.9216106303957785"><ele>332.0</ele><time>2026-04-07T17:02:18.999Z</time></trkpt><trkpt lat="44.51356447049868" lon="7.921419194481849"><ele>332.0</ele><time>2026-04-07T17:02:19.999Z</time></trkpt><trkpt lat="44.513606806258494" lon="7.921244351265616"><ele>332.0</ele><time>2026-04-07T17:02:20.999Z</time></trkpt><trkpt lat="44.51364940149543" lon="7.921063530968046"><ele>332.0</ele><time>2026-04-07T17:02:21.999Z</time></trkpt><trkpt lat="44.513687974852786" lon="7.920896268183188"><ele>332.0</ele><time>2026-04-07T17:02:22.999Z</time></trkpt><trkpt lat="44.513725518990704" lon="7.920727742133912"><ele>332.0</ele><time>2026-04-07T17:02:23.999Z</time></trkpt><trkpt lat="44.51376639911255" lon="7.9205642482267695"><ele>332.0</ele><time>2026-04-07T17:02:24.999Z</time></trkpt><trkpt lat="44.513819643368045" lon="7.920397221114137"><ele>332.0</ele><time>2026-04-07T17:02:25.999Z</time></trkpt><trkpt lat="44.51388216256974" lon="7.9202489452881"><ele>332.0</ele><time>2026-04-07T17:02:26.999Z</time></trkpt><trkpt lat="44.51394929857794" lon="7.920114627211589"><ele>332.0</ele><time>2026-04-07T17:02:27.999Z</time></trkpt><trkpt lat="44.514022414177894" lon="7.9199388042643735"><ele>331.40000000000003</ele><time>2026-04-07T17:02:28.999Z</time></trkpt><trkpt lat="44.51410876911315" lon="7.919836919224356"><ele>330.8</ele><time>2026-04-07T17:02:29.999Z</time></trkpt><trkpt lat="44.51419622893252" lon="7.9197345402882275"><ele>330.2</ele><time>2026-04-07T17:02:30.999Z</time></trkpt><trkpt lat="44.514282787733215" lon="7.919631762672694"><ele>329.6</ele><time>2026-04-07T17:02:31.999Z</time></trkpt><trkpt lat="44.5143629844797" lon="7.919542261311727"><ele>329.0</ele><time>2026-04-07T17:02:32.999Z</time></trkpt><trkpt lat="44.51444517689385" lon="7.919457228401824"><ele>329.0</ele><time>2026-04-07T17:02:33.999Z</time></trkpt><trkpt lat="44.51452449353117" lon="7.919350356989574"><ele>329.0</ele><time>2026-04-07T17:02:34.999Z</time></trkpt><trkpt lat="44.51459560643292" lon="7.91924052481845"><ele>329.0</ele><time>2026-04-07T17:02:35.999Z</time></trkpt><trkpt lat="44.51463911560015" lon="7.9190932699699506"><ele>329.0</ele><time>2026-04-07T17:02:36.999Z</time></trkpt><trkpt lat="44.51467351350771" lon="7.918929361711102"><ele>328.2</ele><time>2026-04-07T17:02:37.999Z</time></trkpt><trkpt lat="44.51471283453964" lon="7.918773835256566"><ele>327.4</ele><time>2026-04-07T17:02:38.999Z</time></trkpt><trkpt lat="44.51478066465215" lon="7.918650628072707"><ele>326.6</ele><time>2026-04-07T17:02:39.999Z</time></trkpt><trkpt lat="44.51481510539942" lon="7.918519423061163"><ele>325.8</ele><time>2026-04-07T17:02:40.999Z</time></trkpt><trkpt lat="44.51485039140299" lon="7.918401947408671"><ele>325.0</ele><time>2026-04-07T17:02:41.999Z</time></trkpt><trkpt lat="44.51489178758297" lon="7.918279496416488"><ele>323.66666666666663</ele><time>2026-04-07T17:02:42.999Z</time></trkpt><trkpt lat="44.51494097898687" lon="7.918191531902479"><ele>322.3333333333333</ele><time>2026-04-07T17:02:43.999Z</time></trkpt><trkpt lat="44.515004085352814" lon="7.918090319800361"><ele>321.0</ele><time>2026-04-07T17:02:44.998Z</time></trkpt><trkpt lat="44.51506589814262" lon="7.918007660069563"><ele>319.6666666666667</ele><time>2026-04-07T17:02:45.998Z</time></trkpt><trkpt lat="44.51513211322548" lon="7.9179170462943285"><ele>318.33333333333337</ele><time>2026-04-07T17:02:46.998Z</time></trkpt><trkpt lat="44.51520263228534" lon="7.917852086353293"><ele>317.0</ele><time>2026-04-07T17:02:47.998Z</time></trkpt><trkpt lat="44.51527220999861" lon="7.917791169076596"><ele>317.0</ele><time>2026-04-07T17:02:48.998Z</time></trkpt><trkpt lat="44.51533058155616" lon="7.917740632103191"><ele>317.0</ele><time>2026-04-07T17:02:49.998Z</time></trkpt><trkpt lat="44.51540054542988" lon="7.917709588711655"><ele>317.0</ele><time>2026-04-07T17:02:50.998Z</time></trkpt><trkpt lat="44.515494254627214" lon="7.917621073011931"><ele>317.0</ele><time>2026-04-07T17:02:52.998Z</time></trkpt><trkpt lat="44.51554238663646" lon="7.917523389566049"><ele>317.0</ele><time>2026-04-07T17:02:54.998Z</time></trkpt><trkpt lat="44.51553864122442" lon="7.917391268754823"><ele>317.0</ele><time>2026-04-07T17:02:56.998Z</time></trkpt><trkpt lat="44.51546800639203" lon="7.917290240266306"><ele>313.8</ele><time>2026-04-07T17:02:58.998Z</time></trkpt><trkpt lat="44.51540177284485" lon="7.917254177074763"><ele>310.6</ele><time>2026-04-07T17:02:59.998Z</time></trkpt><trkpt lat="44.51530362693391" lon="7.917267800280743"><ele>307.40000000000003</ele><time>2026-04-07T17:03:00.998Z</time></trkpt><trkpt lat="44.515211995308434" lon="7.917336590051838"><ele>304.2</ele><time>2026-04-07T17:03:01.998Z</time></trkpt><trkpt lat="44.51513224695492" lon="7.917398886699728"><ele>301.0</ele><time>2026-04-07T17:03:02.998Z</time></trkpt><trkpt lat="44.515033893812756" lon="7.917476452288928"><ele>301.0</ele><time>2026-04-07T17:03:03.998Z</time></trkpt><trkpt lat="44.51495572389163" lon="7.917560282693285"><ele>301.0</ele><time>2026-04-07T17:03:04.998Z</time></trkpt><trkpt lat="44.51486216027763" lon="7.917622610064558"><ele>301.0</ele><time>2026-04-07T17:03:05.998Z</time></trkpt><trkpt lat="44.51477297251387" lon="7.91768926309873"><ele>301.0</ele><time>2026-04-07T17:03:06.998Z</time></trkpt><trkpt lat="44.51469662710427" lon="7.917755165056664"><ele>301.0</ele><time>2026-04-07T17:03:07.998Z</time></trkpt><trkpt lat="44.514622354035644" lon="7.9178107869035514"><ele>302.5</ele><time>2026-04-07T17:03:09Z</time></trkpt><trkpt lat="44.51454590793608" lon="7.917851841695595"><ele>304.0</ele><time>2026-04-07T17:03:10Z</time></trkpt><trkpt lat="44.51446503736561" lon="7.9178568613954265"><ele>305.5</ele><time>2026-04-07T17:03:11Z</time></trkpt><trkpt lat="44.51438421721537" lon="7.917821287471099"><ele>307.0</ele><time>2026-04-07T17:03:12Z</time></trkpt><trkpt lat="44.5142981798542" lon="7.917762988435615"><ele>308.5</ele><time>2026-04-07T17:03:13Z</time></trkpt><trkpt lat="44.514232775358444" lon="7.917672327196924"><ele>310.0</ele><time>2026-04-07T17:03:14Z</time></trkpt><trkpt lat="44.51416597901815" lon="7.917593353155729"><ele>306.8</ele><time>2026-04-07T17:03:15Z</time></trkpt><trkpt lat="44.51409447897354" lon="7.917522062451353"><ele>303.6</ele><time>2026-04-07T17:03:16Z</time></trkpt><trkpt lat="44.51402455189014" lon="7.917474775193612"><ele>300.4</ele><time>2026-04-07T17:03:17Z</time></trkpt><trkpt lat="44.513926419971376" lon="7.917429402036965"><ele>297.2</ele><time>2026-04-07T17:03:18Z</time></trkpt><trkpt lat="44.51381326611696" lon="7.917392344275778"><ele>294.0</ele><time>2026-04-07T17:03:19Z</time></trkpt><trkpt lat="44.51371115707752" lon="7.917376261150735"><ele>293.4</ele><time>2026-04-07T17:03:20Z</time></trkpt><trkpt lat="44.51360901444969" lon="7.917332365996201"><ele>292.79999999999995</ele><time>2026-04-07T17:03:21Z</time></trkpt><trkpt lat="44.51351380643916" lon="7.917339072797408"><ele>292.20000000000005</ele><time>2026-04-07T17:03:22Z</time></trkpt><trkpt lat="44.513441134725454" lon="7.917329967968878"><ele>291.6</ele><time>2026-04-07T17:03:23Z</time></trkpt><trkpt lat="44.51330832729997" lon="7.9172994533279475"><ele>291.0</ele><time>2026-04-07T17:03:25Z</time></trkpt><trkpt lat="44.5132377732748" lon="7.917297268360493"><ele>291.0</ele><time>2026-04-07T17:03:26Z</time></trkpt><trkpt lat="44.513153855104896" lon="7.917292642843092"><ele>291.0</ele><time>2026-04-07T17:03:27Z</time></trkpt><trkpt lat="44.51307610697852" lon="7.9172946516100255"><ele>291.0</ele><time>2026-04-07T17:03:28Z</time></trkpt><trkpt lat="44.51299839545092" lon="7.91725982288973"><ele>291.0</ele><time>2026-04-07T17:03:29Z</time></trkpt><trkpt lat="44.51292338989517" lon="7.91727680181458"><ele>291.0</ele><time>2026-04-07T17:03:30Z</time></trkpt><trkpt lat="44.51284552718657" lon="7.917292755199248"><ele>291.0</ele><time>2026-04-07T17:03:31Z</time></trkpt><trkpt lat="44.512778093422554" lon="7.9173154630628515"><ele>289.8333333333333</ele><time>2026-04-07T17:03:32Z</time></trkpt><trkpt lat="44.512708782452975" lon="7.917349267681649"><ele>288.6666666666667</ele><time>2026-04-07T17:03:33Z</time></trkpt><trkpt lat="44.51264938663403" lon="7.9173830654476784"><ele>287.5</ele><time>2026-04-07T17:03:34Z</time></trkpt><trkpt lat="44.512585005321725" lon="7.917415657908354"><ele>286.33333333333337</ele><time>2026-04-07T17:03:35Z</time></trkpt><trkpt lat="44.51251277845212" lon="7.917449869775784"><ele>285.1666666666667</ele><time>2026-04-07T17:03:36Z</time></trkpt><trkpt lat="44.51245275683508" lon="7.917488196094201"><ele>284.0</ele><time>2026-04-07T17:03:37Z</time></trkpt><trkpt lat="44.51232715582655" lon="7.917544286023476"><ele>283.59999999999997</ele><time>2026-04-07T17:03:39Z</time></trkpt><trkpt lat="44.51220550801381" lon="7.917592187108358"><ele>283.2</ele><time>2026-04-07T17:03:41Z</time></trkpt><trkpt lat="44.51213470072579" lon="7.917619034081954"><ele>282.79999999999995</ele><time>2026-04-07T17:03:42Z</time></trkpt><trkpt lat="44.51206186214606" lon="7.917642224225987"><ele>282.4</ele><time>2026-04-07T17:03:43Z</time></trkpt><trkpt lat="44.51192813450944" lon="7.91766974568214"><ele>282.0</ele><time>2026-04-07T17:03:45Z</time></trkpt><trkpt lat="44.51185630638335" lon="7.9176757661238"><ele>282.0</ele><time>2026-04-07T17:03:46Z</time></trkpt><trkpt lat="44.511737838398275" lon="7.917645237969515"><ele>282.0</ele><time>2026-04-07T17:03:48Z</time></trkpt><trkpt lat="44.51166956458096" lon="7.917614922519516"><ele>282.0</ele><time>2026-04-07T17:03:49Z</time></trkpt><trkpt lat="44.51157870990732" lon="7.917519663882267"><ele>282.0</ele><time>2026-04-07T17:03:51Z</time></trkpt><trkpt lat="44.51150928754794" lon="7.9173666222094035"><ele>282.0</ele><time>2026-04-07T17:03:52.999Z</time></trkpt><trkpt lat="44.5114747548862" lon="7.917263153997924"><ele>281.14285714285717</ele><time>2026-04-07T17:03:53.999Z</time></trkpt><trkpt lat="44.511448671571515" lon="7.91715360708938"><ele>280.2857142857143</ele><time>2026-04-07T17:03:54.999Z</time></trkpt><trkpt lat="44.511430657246656" lon="7.917061030200937"><ele>279.42857142857144</ele><time>2026-04-07T17:03:55.999Z</time></trkpt><trkpt lat="44.51140413846149" lon="7.9169588574924"><ele>278.57142857142856</ele><time>2026-04-07T17:03:56.999Z</time></trkpt><trkpt lat="44.51138124358754" lon="7.916867839723575"><ele>277.7142857142857</ele><time>2026-04-07T17:03:57.999Z</time></trkpt><trkpt lat="44.511359516848216" lon="7.916779732005426"><ele>276.8571428571429</ele><time>2026-04-07T17:03:58.999Z</time></trkpt><trkpt lat="44.511340060182874" lon="7.91668573781981"><ele>276.0</ele><time>2026-04-07T17:03:59.999Z</time></trkpt><trkpt lat="44.511328954617476" lon="7.916588271485299"><ele>276.0</ele><time>2026-04-07T17:04:00.999Z</time></trkpt><trkpt lat="44.51131762552968" lon="7.916499105838705"><ele>276.0</ele><time>2026-04-07T17:04:01.999Z</time></trkpt><trkpt lat="44.51130421148238" lon="7.916400590465163"><ele>276.0</ele><time>2026-04-07T17:04:02.999Z</time></trkpt><trkpt lat="44.51129108043938" lon="7.916296171348156"><ele>276.0</ele><time>2026-04-07T17:04:03.999Z</time></trkpt><trkpt lat="44.511276560973" lon="7.916195785156439"><ele>276.0</ele><time>2026-04-07T17:04:04.999Z</time></trkpt><trkpt lat="44.51125014446497" lon="7.916113969737189"><ele>276.0</ele><time>2026-04-07T17:04:05.999Z</time></trkpt><trkpt lat="44.51122871388944" lon="7.9160078661284095"><ele>276.0</ele><time>2026-04-07T17:04:06.999Z</time></trkpt><trkpt lat="44.511194538228374" lon="7.915840649737214"><ele>275.2</ele><time>2026-04-07T17:04:08.999Z</time></trkpt><trkpt lat="44.5111808744072" lon="7.915750571206964"><ele>274.40000000000003</ele><time>2026-04-07T17:04:09.999Z</time></trkpt><trkpt lat="44.511144969558515" lon="7.915604600655619"><ele>273.6</ele><time>2026-04-07T17:04:11.999Z</time></trkpt><trkpt lat="44.51114692524399" lon="7.915485368746645"><ele>272.8</ele><time>2026-04-07T17:04:13.999Z</time></trkpt><trkpt lat="44.51122052083805" lon="7.915327233452648"><ele>272.0</ele><time>2026-04-07T17:04:15.999Z</time></trkpt><trkpt lat="44.51128549615082" lon="7.915252962013947"><ele>271.6</ele><time>2026-04-07T17:04:16.999Z</time></trkpt><trkpt lat="44.51136509637635" lon="7.915175585585525"><ele>271.2</ele><time>2026-04-07T17:04:17.999Z</time></trkpt><trkpt lat="44.51145303770446" lon="7.9150869260382155"><ele>270.8</ele><time>2026-04-07T17:04:18.999Z</time></trkpt><trkpt lat="44.51152843132381" lon="7.914990996458277"><ele>270.4</ele><time>2026-04-07T17:04:19.999Z</time></trkpt><trkpt lat="44.51158937567183" lon="7.914898330812634"><ele>270.0</ele><time>2026-04-07T17:04:20.999Z</time></trkpt><trkpt lat="44.51166240962178" lon="7.9148050660412546"><ele>269.4</ele><time>2026-04-07T17:04:21.999Z</time></trkpt><trkpt lat="44.511751993968424" lon="7.9146966732641575"><ele>268.8</ele><time>2026-04-07T17:04:22.999Z</time></trkpt><trkpt lat="44.51183076982464" lon="7.914601357220566"><ele>268.2</ele><time>2026-04-07T17:04:23.999Z</time></trkpt><trkpt lat="44.51189246620057" lon="7.914503695714659"><ele>267.6</ele><time>2026-04-07T17:04:24.999Z</time></trkpt><trkpt lat="44.511960627236526" lon="7.914405775385962"><ele>267.0</ele><time>2026-04-07T17:04:25.999Z</time></trkpt><trkpt lat="44.512014315133484" lon="7.914328950025037"><ele>266.6</ele><time>2026-04-07T17:04:26.999Z</time></trkpt><trkpt lat="44.512082706572706" lon="7.914265497762986"><ele>266.2</ele><time>2026-04-07T17:04:27.999Z</time></trkpt><trkpt lat="44.512123103288914" lon="7.914197582077848"><ele>265.8</ele><time>2026-04-07T17:04:28.999Z</time></trkpt><trkpt lat="44.51220667643571" lon="7.9140857587053475"><ele>265.4</ele><time>2026-04-07T17:04:30.999Z</time></trkpt><trkpt lat="44.51225503569801" lon="7.913913558647937"><ele>265.0</ele><time>2026-04-07T17:04:32.999Z</time></trkpt><trkpt lat="44.5122637910181" lon="7.913797076453324"><ele>264.8333333333333</ele><time>2026-04-07T17:04:33.999Z</time></trkpt><trkpt lat="44.51226125210168" lon="7.913693491846976"><ele>264.66666666666663</ele><time>2026-04-07T17:04:34.999Z</time></trkpt><trkpt lat="44.51224830823374" lon="7.913598676335848"><ele>264.5</ele><time>2026-04-07T17:04:35.999Z</time></trkpt><trkpt lat="44.512233438750364" lon="7.913470675487422"><ele>264.3333333333333</ele><time>2026-04-07T17:04:37.999Z</time></trkpt><trkpt lat="44.512310408667744" lon="7.913341297114538"><ele>264.1666666666667</ele><time>2026-04-07T17:04:40.999Z</time></trkpt><trkpt lat="44.51237684240077" lon="7.913334876186325"><ele>264.0</ele><time>2026-04-07T17:04:41.999Z</time></trkpt><trkpt lat="44.512454404321765" lon="7.913326331454261"><ele>263.59999999999997</ele><time>2026-04-07T17:04:42.999Z</time></trkpt><trkpt lat="44.51253856333858" lon="7.913303024495017"><ele>263.2</ele><time>2026-04-07T17:04:43.999Z</time></trkpt><trkpt lat="44.51262042471905" lon="7.9132812433981305"><ele>262.79999999999995</ele><time>2026-04-07T17:04:44.999Z</time></trkpt><trkpt lat="44.51271111905112" lon="7.913250909909199"><ele>262.4</ele><time>2026-04-07T17:04:45.999Z</time></trkpt><trkpt lat="44.51280225979854" lon="7.913214886366954"><ele>262.0</ele><time>2026-04-07T17:04:46.999Z</time></trkpt><trkpt lat="44.512947662292135" lon="7.913165980314503"><ele>262.0</ele><time>2026-04-07T17:04:48.999Z</time></trkpt><trkpt lat="44.51303023645" lon="7.9131465350538"><ele>262.0</ele><time>2026-04-07T17:04:49.999Z</time></trkpt><trkpt lat="44.51309933052379" lon="7.913135687198479"><ele>262.0</ele><time>2026-04-07T17:04:50.999Z</time></trkpt><trkpt lat="44.51318112179" lon="7.913104396147399"><ele>262.0</ele><time>2026-04-07T17:04:51.998Z</time></trkpt><trkpt lat="44.51325383187129" lon="7.913066030394345"><ele>262.0</ele><time>2026-04-07T17:04:52.998Z</time></trkpt><trkpt lat="44.51331754002761" lon="7.9130358653917305"><ele>262.0</ele><time>2026-04-07T17:04:53.998Z</time></trkpt><trkpt lat="44.5134093027528" lon="7.912998567200571"><ele>262.0</ele><time>2026-04-07T17:04:55.998Z</time></trkpt><trkpt lat="44.51352201229353" lon="7.912951810689418"><ele>262.0</ele><time>2026-04-07T17:04:58.998Z</time></trkpt><trkpt lat="44.51359870932436" lon="7.912930622463357"><ele>262.0</ele><time>2026-04-07T17:04:59.998Z</time></trkpt><trkpt lat="44.513680807152134" lon="7.912905219467006"><ele>262.0</ele><time>2026-04-07T17:05:00.998Z</time></trkpt><trkpt lat="44.51377976683035" lon="7.912870649549008"><ele>262.0</ele><time>2026-04-07T17:05:01.998Z</time></trkpt><trkpt lat="44.513873397352704" lon="7.912831218879537"><ele>261.8333333333333</ele><time>2026-04-07T17:05:02.998Z</time></trkpt><trkpt lat="44.51395978519891" lon="7.912800192892719"><ele>261.66666666666663</ele><time>2026-04-07T17:05:03.998Z</time></trkpt><trkpt lat="44.514038626571086" lon="7.912765416106011"><ele>261.5</ele><time>2026-04-07T17:05:04.998Z</time></trkpt><trkpt lat="44.51412264589526" lon="7.9127315169682655"><ele>261.3333333333333</ele><time>2026-04-07T17:05:05.998Z</time></trkpt><trkpt lat="44.514201980000685" lon="7.912698129026778"><ele>261.1666666666667</ele><time>2026-04-07T17:05:06.998Z</time></trkpt><trkpt lat="44.51426860268109" lon="7.912666733925766"><ele>261.0</ele><time>2026-04-07T17:05:07.998Z</time></trkpt><trkpt lat="44.51434572128553" lon="7.912632646973093"><ele>261.0</ele><time>2026-04-07T17:05:08.998Z</time></trkpt><trkpt lat="44.514426164056076" lon="7.91260842269894"><ele>261.0</ele><time>2026-04-07T17:05:09.998Z</time></trkpt><trkpt lat="44.51450380650758" lon="7.912577118644621"><ele>261.0</ele><time>2026-04-07T17:05:10.998Z</time></trkpt><trkpt lat="44.514579275288355" lon="7.912545442603527"><ele>261.0</ele><time>2026-04-07T17:05:11.998Z</time></trkpt><trkpt lat="44.51465444915786" lon="7.912511112960163"><ele>261.0</ele><time>2026-04-07T17:05:12.998Z</time></trkpt><trkpt lat="44.514730049706316" lon="7.912482862303037"><ele>261.0</ele><time>2026-04-07T17:05:13.998Z</time></trkpt><trkpt lat="44.514796493526575" lon="7.912449920922179"><ele>260.6666666666667</ele><time>2026-04-07T17:05:15Z</time></trkpt><trkpt lat="44.514892488909624" lon="7.912432813848487"><ele>260.3333333333333</ele><time>2026-04-07T17:05:16Z</time></trkpt><trkpt lat="44.51496115778907" lon="7.912382071623569"><ele>260.0</ele><time>2026-04-07T17:05:17Z</time></trkpt><trkpt lat="44.51503447249166" lon="7.912357010615914"><ele>259.66666666666663</ele><time>2026-04-07T17:05:18Z</time></trkpt><trkpt lat="44.51511415826492" lon="7.912329167226902"><ele>259.3333333333333</ele><time>2026-04-07T17:05:19Z</time></trkpt><trkpt lat="44.51520564792244" lon="7.912296408711064"><ele>259.0</ele><time>2026-04-07T17:05:20Z</time></trkpt><trkpt lat="44.51528187377739" lon="7.912264042177706"><ele>259.0</ele><time>2026-04-07T17:05:21Z</time></trkpt><trkpt lat="44.5153639290848" lon="7.912257419665401"><ele>259.0</ele><time>2026-04-07T17:05:22Z</time></trkpt><trkpt lat="44.5154567053999" lon="7.912225683890248"><ele>259.0</ele><time>2026-04-07T17:05:23Z</time></trkpt><trkpt lat="44.51554706345832" lon="7.912191503067665"><ele>259.0</ele><time>2026-04-07T17:05:24Z</time></trkpt><trkpt lat="44.51562474805982" lon="7.912159398026202"><ele>259.0</ele><time>2026-04-07T17:05:25Z</time></trkpt><trkpt lat="44.515718414134376" lon="7.912122205823551"><ele>258.75</ele><time>2026-04-07T17:05:26Z</time></trkpt><trkpt lat="44.51581995772018" lon="7.912068103843864"><ele>258.5</ele><time>2026-04-07T17:05:27Z</time></trkpt><trkpt lat="44.51594049936129" lon="7.912023369468181"><ele>258.25</ele><time>2026-04-07T17:05:28Z</time></trkpt><trkpt lat="44.516060303441236" lon="7.911980895204608"><ele>258.0</ele><time>2026-04-07T17:05:29Z</time></trkpt><trkpt lat="44.51617502183458" lon="7.911937424484934"><ele>258.25</ele><time>2026-04-07T17:05:30Z</time></trkpt><trkpt lat="44.516304538042405" lon="7.911898772045903"><ele>258.5</ele><time>2026-04-07T17:05:31Z</time></trkpt><trkpt lat="44.51642415824216" lon="7.911854182384027"><ele>258.75</ele><time>2026-04-07T17:05:32Z</time></trkpt><trkpt lat="44.516525909296405" lon="7.911814878311023"><ele>259.0</ele><time>2026-04-07T17:05:33Z</time></trkpt><trkpt lat="44.51662272093725" lon="7.91178158534405"><ele>259.0</ele><time>2026-04-07T17:05:34Z</time></trkpt><trkpt lat="44.51671424863122" lon="7.911751154276897"><ele>259.0</ele><time>2026-04-07T17:05:35Z</time></trkpt><trkpt lat="44.51679585151052" lon="7.911721979666108"><ele>259.0</ele><time>2026-04-07T17:05:36Z</time></trkpt><trkpt lat="44.51687258292079" lon="7.911693369070223"><ele>259.0</ele><time>2026-04-07T17:05:37Z</time></trkpt><trkpt lat="44.516946890113594" lon="7.911668673918696"><ele>259.0</ele><time>2026-04-07T17:05:38Z</time></trkpt><trkpt lat="44.517010946689346" lon="7.911652332940081"><ele>259.0</ele><time>2026-04-07T17:05:39Z</time></trkpt><trkpt lat="44.517080958896145" lon="7.911632079629783"><ele>258.8</ele><time>2026-04-07T17:05:40Z</time></trkpt><trkpt lat="44.51718634268784" lon="7.911594454401719"><ele>258.59999999999997</ele><time>2026-04-07T17:05:42Z</time></trkpt><trkpt lat="44.517255675144796" lon="7.9115729000281005"><ele>258.4</ele><time>2026-04-07T17:05:44Z</time></trkpt><trkpt lat="44.51719775641951" lon="7.911330021691415"><ele>258.2</ele><time>2026-04-07T17:05:50Z</time></trkpt><trkpt lat="44.5171447652593" lon="7.911234970303381"><ele>258.0</ele><time>2026-04-07T17:05:51Z</time></trkpt><trkpt lat="44.51707850664957" lon="7.911097530144854"><ele>258.0</ele><time>2026-04-07T17:05:52Z</time></trkpt><trkpt lat="44.517000328411" lon="7.910987949618136"><ele>258.0</ele><time>2026-04-07T17:05:53Z</time></trkpt><trkpt lat="44.51694201080693" lon="7.910890300290126"><ele>258.0</ele><time>2026-04-07T17:05:54Z</time></trkpt><trkpt lat="44.5168922643579" lon="7.910785898323419"><ele>258.0</ele><time>2026-04-07T17:05:55Z</time></trkpt><trkpt lat="44.516843452741576" lon="7.91069251449584"><ele>258.0</ele><time>2026-04-07T17:05:56Z</time></trkpt><trkpt lat="44.516782905184314" lon="7.910614564483091"><ele>257.6666666666667</ele><time>2026-04-07T17:05:57Z</time></trkpt><trkpt lat="44.51672880407507" lon="7.91052275595272"><ele>257.3333333333333</ele><time>2026-04-07T17:05:58Z</time></trkpt><trkpt lat="44.51667063302044" lon="7.910447547851977"><ele>257.0</ele><time>2026-04-07T17:05:59Z</time></trkpt><trkpt lat="44.51661711109276" lon="7.910398706044421"><ele>256.66666666666663</ele><time>2026-04-07T17:05:59.999Z</time></trkpt><trkpt lat="44.5165703671026" lon="7.910331621322963"><ele>256.3333333333333</ele><time>2026-04-07T17:06:00.999Z</time></trkpt><trkpt lat="44.51648545135531" lon="7.910289702000443"><ele>256.0</ele><time>2026-04-07T17:06:01.999Z</time></trkpt><trkpt lat="44.516378119212995" lon="7.910309580586451"><ele>256.0</ele><time>2026-04-07T17:06:02.999Z</time></trkpt><trkpt lat="44.51627198444873" lon="7.910355244827662"><ele>256.0</ele><time>2026-04-07T17:06:03.999Z</time></trkpt><trkpt lat="44.51616341824925" lon="7.910407482264842"><ele>256.0</ele><time>2026-04-07T17:06:04.999Z</time></trkpt><trkpt lat="44.516058522778515" lon="7.910454640247029"><ele>256.0</ele><time>2026-04-07T17:06:05.999Z</time></trkpt><trkpt lat="44.515953787759145" lon="7.91046983624382"><ele>256.0</ele><time>2026-04-07T17:06:06.999Z</time></trkpt><trkpt lat="44.51585141158257" lon="7.910500660343778"><ele>256.3333333333333</ele><time>2026-04-07T17:06:07.999Z</time></trkpt><trkpt lat="44.51575336053722" lon="7.910529595530547"><ele>256.66666666666663</ele><time>2026-04-07T17:06:08.999Z</time></trkpt><trkpt lat="44.515666935368806" lon="7.910554482251963"><ele>257.0</ele><time>2026-04-07T17:06:09.999Z</time></trkpt><trkpt lat="44.51558400378452" lon="7.910589876845279"><ele>257.3333333333333</ele><time>2026-04-07T17:06:10.999Z</time></trkpt><trkpt lat="44.5154990954376" lon="7.910619989892972"><ele>257.6666666666667</ele><time>2026-04-07T17:06:11.999Z</time></trkpt><trkpt lat="44.51541767424567" lon="7.910649322661191"><ele>258.0</ele><time>2026-04-07T17:06:12.999Z</time></trkpt><trkpt lat="44.51533674809193" lon="7.910677400210776"><ele>258.1666666666667</ele><time>2026-04-07T17:06:13.999Z</time></trkpt><trkpt lat="44.51525446078009" lon="7.910710987028582"><ele>258.3333333333333</ele><time>2026-04-07T17:06:14.999Z</time></trkpt><trkpt lat="44.51517886179678" lon="7.910735945274898"><ele>258.5</ele><time>2026-04-07T17:06:15.999Z</time></trkpt><trkpt lat="44.5151132997062" lon="7.910758675632484"><ele>258.66666666666663</ele><time>2026-04-07T17:06:16.999Z</time></trkpt><trkpt lat="44.51503745927759" lon="7.910793772596148"><ele>258.8333333333333</ele><time>2026-04-07T17:06:17.999Z</time></trkpt><trkpt lat="44.51495697543046" lon="7.910820821480682"><ele>259.0</ele><time>2026-04-07T17:06:18.999Z</time></trkpt><trkpt lat="44.51487076216664" lon="7.910851320803748"><ele>259.0</ele><time>2026-04-07T17:06:19.999Z</time></trkpt><trkpt lat="44.514785106937396" lon="7.91088509879493"><ele>259.0</ele><time>2026-04-07T17:06:20.999Z</time></trkpt><trkpt lat="44.51471332115403" lon="7.910911897077755"><ele>259.0</ele><time>2026-04-07T17:06:21.999Z</time></trkpt><trkpt lat="44.514642682539666" lon="7.910939494626381"><ele>259.0</ele><time>2026-04-07T17:06:22.999Z</time></trkpt><trkpt lat="44.51457582980812" lon="7.9109570357345875"><ele>259.0</ele><time>2026-04-07T17:06:23.999Z</time></trkpt><trkpt lat="44.51451104559129" lon="7.91096675018987"><ele>259.0</ele><time>2026-04-07T17:06:24.999Z</time></trkpt><trkpt lat="44.51443985752556" lon="7.910999900381233"><ele>259.0</ele><time>2026-04-07T17:06:25.999Z</time></trkpt><trkpt lat="44.514354421751825" lon="7.911036097240198"><ele>259.3333333333333</ele><time>2026-04-07T17:06:26.999Z</time></trkpt><trkpt lat="44.51427028089231" lon="7.9110637711917855"><ele>259.66666666666663</ele><time>2026-04-07T17:06:27.999Z</time></trkpt><trkpt lat="44.51420000314187" lon="7.911091749997406"><ele>260.0</ele><time>2026-04-07T17:06:28.999Z</time></trkpt><trkpt lat="44.51412613475545" lon="7.911126509937464"><ele>260.3333333333333</ele><time>2026-04-07T17:06:29.999Z</time></trkpt><trkpt lat="44.514047047705056" lon="7.911156321326641"><ele>260.6666666666667</ele><time>2026-04-07T17:06:30.999Z</time></trkpt><trkpt lat="44.5139683330495" lon="7.911185194058996"><ele>261.0</ele><time>2026-04-07T17:06:31.999Z</time></trkpt><trkpt lat="44.51389154872626" lon="7.911211106519928"><ele>261.0</ele><time>2026-04-07T17:06:32.999Z</time></trkpt><trkpt lat="44.51381091123307" lon="7.911239349805679"><ele>261.0</ele><time>2026-04-07T17:06:33.999Z</time></trkpt><trkpt lat="44.513731378748645" lon="7.911267416128123"><ele>261.0</ele><time>2026-04-07T17:06:34.999Z</time></trkpt><trkpt lat="44.51365337922563" lon="7.911291646055543"><ele>261.0</ele><time>2026-04-07T17:06:35.999Z</time></trkpt><trkpt lat="44.513565664764705" lon="7.911319700475292"><ele>261.0</ele><time>2026-04-07T17:06:36.999Z</time></trkpt><trkpt lat="44.513474875769845" lon="7.911358168976738"><ele>261.0</ele><time>2026-04-07T17:06:37.999Z</time></trkpt><trkpt lat="44.5133962286594" lon="7.911384265096685"><ele>260.8</ele><time>2026-04-07T17:06:38.999Z</time></trkpt><trkpt lat="44.513322224283236" lon="7.911407808370744"><ele>260.6</ele><time>2026-04-07T17:06:39.999Z</time></trkpt><trkpt lat="44.513193192220385" lon="7.911448731791031"><ele>260.4</ele><time>2026-04-07T17:06:41.999Z</time></trkpt><trkpt lat="44.51310919214065" lon="7.911478671841487"><ele>260.2</ele><time>2026-04-07T17:06:42.999Z</time></trkpt><trkpt lat="44.513025336689594" lon="7.911495697871159"><ele>260.0</ele><time>2026-04-07T17:06:43.999Z</time></trkpt><trkpt lat="44.512941859029496" lon="7.911524467815899"><ele>260.0</ele><time>2026-04-07T17:06:44.999Z</time></trkpt><trkpt lat="44.51283949535704" lon="7.911562374933193"><ele>260.0</ele><time>2026-04-07T17:06:45.999Z</time></trkpt><trkpt lat="44.51272124041371" lon="7.9116075746203265"><ele>260.0</ele><time>2026-04-07T17:06:46.999Z</time></trkpt><trkpt lat="44.51260722420463" lon="7.911650872122225"><ele>260.0</ele><time>2026-04-07T17:06:47.999Z</time></trkpt><trkpt lat="44.51250829957942" lon="7.911685408924716"><ele>260.0</ele><time>2026-04-07T17:06:48.999Z</time></trkpt><trkpt lat="44.512417923649224" lon="7.911717021447884"><ele>260.0</ele><time>2026-04-07T17:06:49.999Z</time></trkpt><trkpt lat="44.51233585477407" lon="7.911761455855616"><ele>260.0</ele><time>2026-04-07T17:06:50.999Z</time></trkpt><trkpt lat="44.51225954177773" lon="7.911784637635481"><ele>260.0</ele><time>2026-04-07T17:06:51.999Z</time></trkpt><trkpt lat="44.512184586432255" lon="7.911819916101221"><ele>260.0</ele><time>2026-04-07T17:06:52.999Z</time></trkpt><trkpt lat="44.51207803711268" lon="7.911853093562593"><ele>260.0</ele><time>2026-04-07T17:06:54.999Z</time></trkpt><trkpt lat="44.51198330224945" lon="7.911847244254871"><ele>260.0</ele><time>2026-04-07T17:06:56.999Z</time></trkpt><trkpt lat="44.51188252869983" lon="7.91171118544442"><ele>259.6</ele><time>2026-04-07T17:06:59.998Z</time></trkpt><trkpt lat="44.511861525306074" lon="7.911614054455839"><ele>259.2</ele><time>2026-04-07T17:07:00.998Z</time></trkpt><trkpt lat="44.5118384850896" lon="7.911451364961996"><ele>258.8</ele><time>2026-04-07T17:07:02.998Z</time></trkpt><trkpt lat="44.51182624918061" lon="7.911341386949579"><ele>258.4</ele><time>2026-04-07T17:07:03.998Z</time></trkpt><trkpt lat="44.51182095881751" lon="7.911205773094525"><ele>258.0</ele><time>2026-04-07T17:07:04.998Z</time></trkpt><trkpt lat="44.5118029051466" lon="7.911086741508146"><ele>258.0</ele><time>2026-04-07T17:07:05.998Z</time></trkpt><trkpt lat="44.51179647964359" lon="7.9109899997421795"><ele>258.0</ele><time>2026-04-07T17:07:06.998Z</time></trkpt><trkpt lat="44.511793344569114" lon="7.9108181064912495"><ele>258.0</ele><time>2026-04-07T17:07:08.998Z</time></trkpt><trkpt lat="44.51179821558779" lon="7.910705581879527"><ele>258.0</ele><time>2026-04-07T17:07:09.998Z</time></trkpt><trkpt lat="44.51181192896108" lon="7.910596864612499"><ele>258.0</ele><time>2026-04-07T17:07:10.998Z</time></trkpt><trkpt lat="44.5118614798632" lon="7.910444497478256"><ele>257.6</ele><time>2026-04-07T17:07:12.998Z</time></trkpt><trkpt lat="44.51189359359984" lon="7.910311297917904"><ele>257.20000000000005</ele><time>2026-04-07T17:07:14.998Z</time></trkpt><trkpt lat="44.511900098740306" lon="7.910213851025365"><ele>256.8</ele><time>2026-04-07T17:07:15.998Z</time></trkpt><trkpt lat="44.51189774110361" lon="7.910052496752563"><ele>256.40000000000003</ele><time>2026-04-07T17:07:17.998Z</time></trkpt><trkpt lat="44.511889986205375" lon="7.909900619316211"><ele>256.0</ele><time>2026-04-07T17:07:19.998Z</time></trkpt><trkpt lat="44.51188363312988" lon="7.909794501176831"><ele>256.0</ele><time>2026-04-07T17:07:22Z</time></trkpt><trkpt lat="44.51185018018241" lon="7.909674475936017"><ele>256.0</ele><time>2026-04-07T17:07:25Z</time></trkpt><trkpt lat="44.511719860933944" lon="7.909793754373157"><ele>256.0</ele><time>2026-04-07T17:07:29Z</time></trkpt><trkpt lat="44.51168537929467" lon="7.909912675994179"><ele>256.0</ele><time>2026-04-07T17:07:30Z</time></trkpt><trkpt lat="44.51165055523632" lon="7.9100369866105655"><ele>256.0</ele><time>2026-04-07T17:07:31Z</time></trkpt><trkpt lat="44.51159880024397" lon="7.910157323820755"><ele>255.99999999999997</ele><time>2026-04-07T17:07:32Z</time></trkpt><trkpt lat="44.51154832035446" lon="7.910300126273205"><ele>256.0</ele><time>2026-04-07T17:07:33Z</time></trkpt><trkpt lat="44.51151869916728" lon="7.910418026424929"><ele>256.0</ele><time>2026-04-07T17:07:34Z</time></trkpt><trkpt lat="44.51147254404882" lon="7.910522687369719"><ele>256.0</ele><time>2026-04-07T17:07:35Z</time></trkpt><trkpt lat="44.511437140082954" lon="7.910631105824989"><ele>255.99999999999997</ele><time>2026-04-07T17:07:36Z</time></trkpt><trkpt lat="44.51141014895018" lon="7.910718567496551"><ele>256.0</ele><time>2026-04-07T17:07:37Z</time></trkpt><trkpt lat="44.51138356446381" lon="7.910802463366721"><ele>256.40000000000003</ele><time>2026-04-07T17:07:38Z</time></trkpt><trkpt lat="44.51133036134765" lon="7.910920077413931"><ele>256.8</ele><time>2026-04-07T17:07:40Z</time></trkpt><trkpt lat="44.5112786997535" lon="7.910980159953227"><ele>257.20000000000005</ele><time>2026-04-07T17:07:42Z</time></trkpt><trkpt lat="44.51120161503234" lon="7.911064538823211"><ele>257.6</ele><time>2026-04-07T17:07:44Z</time></trkpt><trkpt lat="44.51108466775394" lon="7.910876757945389"><ele>258.0</ele><time>2026-04-07T17:07:45Z</time></trkpt><trkpt lat="44.511012119683066" lon="7.910809415944465"><ele>255.60000000000002</ele><time>2026-04-07T17:07:46Z</time></trkpt><trkpt lat="44.51093334517694" lon="7.91073626871854"><ele>253.20000000000002</ele><time>2026-04-07T17:07:47Z</time></trkpt><trkpt lat="44.510836060342676" lon="7.910655504049516"><ele>250.8</ele><time>2026-04-07T17:07:48Z</time></trkpt><trkpt lat="44.51073407012789" lon="7.910561068774642"><ele>248.4</ele><time>2026-04-07T17:07:49Z</time></trkpt><trkpt lat="44.510635952428494" lon="7.910473491961615"><ele>246.0</ele><time>2026-04-07T17:07:50Z</time></trkpt><trkpt lat="44.510545959786924" lon="7.910395559211687"><ele>246.0</ele><time>2026-04-07T17:07:51Z</time></trkpt><trkpt lat="44.510457401903906" lon="7.910312492175536"><ele>246.00000000000003</ele><time>2026-04-07T17:07:52Z</time></trkpt><trkpt lat="44.51035840643767" lon="7.910227249586807"><ele>246.00000000000003</ele><time>2026-04-07T17:07:53Z</time></trkpt><trkpt lat="44.510268366194786" lon="7.910143135658978"><ele>246.0</ele><time>2026-04-07T17:07:54Z</time></trkpt><trkpt lat="44.510179958394964" lon="7.910061843446756"><ele>246.0</ele><time>2026-04-07T17:07:55Z</time></trkpt><trkpt lat="44.51008857519451" lon="7.909988308149578"><ele>245.0</ele><time>2026-04-07T17:07:56Z</time></trkpt><trkpt lat="44.510000505620205" lon="7.909920617398862"><ele>244.00000000000003</ele><time>2026-04-07T17:07:57Z</time></trkpt><trkpt lat="44.509919816660066" lon="7.909859652670407"><ele>243.00000000000003</ele><time>2026-04-07T17:07:58Z</time></trkpt><trkpt lat="44.509832904655745" lon="7.909783324850379"><ele>242.0</ele><time>2026-04-07T17:07:59Z</time></trkpt><trkpt lat="44.50974412684997" lon="7.909705564499549"><ele>241.0</ele><time>2026-04-07T17:08:00Z</time></trkpt><trkpt lat="44.50964886930625" lon="7.909619820691686"><ele>242.0</ele><time>2026-04-07T17:08:01Z</time></trkpt><trkpt lat="44.509540608422" lon="7.909515522342144"><ele>243.0</ele><time>2026-04-07T17:08:02Z</time></trkpt><trkpt lat="44.509434578191396" lon="7.909422318674066"><ele>244.0</ele><time>2026-04-07T17:08:03Z</time></trkpt><trkpt lat="44.50933306212777" lon="7.909295984081373"><ele>245.0</ele><time>2026-04-07T17:08:03.999Z</time></trkpt><trkpt lat="44.50922840167581" lon="7.909157820805902"><ele>245.25</ele><time>2026-04-07T17:08:04.999Z</time></trkpt><trkpt lat="44.509144362071346" lon="7.908980900135781"><ele>245.5</ele><time>2026-04-07T17:08:05.999Z</time></trkpt><trkpt lat="44.50903151810593" lon="7.908869900705097"><ele>245.75</ele><time>2026-04-07T17:08:06.999Z</time></trkpt><trkpt lat="44.508910962020366" lon="7.908769413870295"><ele>246.0</ele><time>2026-04-07T17:08:07.999Z</time></trkpt><trkpt lat="44.50877291124401" lon="7.908662686662065"><ele>246.33333333333331</ele><time>2026-04-07T17:08:08.999Z</time></trkpt><trkpt lat="44.50861611400564" lon="7.908564958130416"><ele>246.66666666666666</ele><time>2026-04-07T17:08:09.999Z</time></trkpt><trkpt lat="44.50847237727698" lon="7.908475502898662"><ele>247.0</ele><time>2026-04-07T17:08:10.999Z</time></trkpt><trkpt lat="44.5083160376288" lon="7.908371217827687"><ele>248.0</ele><time>2026-04-07T17:08:11.999Z</time></trkpt><trkpt lat="44.50815612611357" lon="7.908263858978862"><ele>249.0</ele><time>2026-04-07T17:08:12.999Z</time></trkpt><trkpt lat="44.50799654170183" lon="7.908149004378017"><ele>250.0</ele><time>2026-04-07T17:08:13.999Z</time></trkpt><trkpt lat="44.507836367410114" lon="7.908023163905456"><ele>253.33333333333331</ele><time>2026-04-07T17:08:14.999Z</time></trkpt><trkpt lat="44.507674925923055" lon="7.907884533469638"><ele>256.6666666666667</ele><time>2026-04-07T17:08:15.999Z</time></trkpt><trkpt lat="44.50753267783842" lon="7.907743394032899"><ele>260.0</ele><time>2026-04-07T17:08:16.999Z</time></trkpt><trkpt lat="44.50741095427201" lon="7.907607642597144"><ele>260.6666666666667</ele><time>2026-04-07T17:08:17.999Z</time></trkpt><trkpt lat="44.507297559604474" lon="7.907454161229641"><ele>261.3333333333333</ele><time>2026-04-07T17:08:18.999Z</time></trkpt><trkpt lat="44.50720697045426" lon="7.9072891928621285"><ele>262.0</ele><time>2026-04-07T17:08:19.999Z</time></trkpt><trkpt lat="44.50711337956386" lon="7.907095919534225"><ele>262.0</ele><time>2026-04-07T17:08:20.999Z</time></trkpt><trkpt lat="44.50702442598551" lon="7.906890631501075"><ele>262.0</ele><time>2026-04-07T17:08:21.999Z</time></trkpt><trkpt lat="44.50695821202768" lon="7.9066728612312"><ele>262.0</ele><time>2026-04-07T17:08:22.999Z</time></trkpt><trkpt lat="44.506890896209654" lon="7.906447723462327"><ele>261.66666666666663</ele><time>2026-04-07T17:08:23.999Z</time></trkpt><trkpt lat="44.506837903594196" lon="7.906222689595982"><ele>261.3333333333333</ele><time>2026-04-07T17:08:24.999Z</time></trkpt><trkpt lat="44.5068011159857" lon="7.905990423635629"><ele>261.0</ele><time>2026-04-07T17:08:25.999Z</time></trkpt><trkpt lat="44.506762817903265" lon="7.905748841954515"><ele>260.3333333333333</ele><time>2026-04-07T17:08:26.999Z</time></trkpt><trkpt lat="44.506725706763405" lon="7.905516334665452"><ele>259.66666666666663</ele><time>2026-04-07T17:08:27.999Z</time></trkpt><trkpt lat="44.50669317844703" lon="7.905276442077795"><ele>259.0</ele><time>2026-04-07T17:08:28.999Z</time></trkpt><trkpt lat="44.50667634770038" lon="7.9050227083235765"><ele>259.0</ele><time>2026-04-07T17:08:29.999Z</time></trkpt><trkpt lat="44.50669027786955" lon="7.904748135662365"><ele>259.0</ele><time>2026-04-07T17:08:30.999Z</time></trkpt><trkpt lat="44.50669221149294" lon="7.904494781602848"><ele>259.0</ele><time>2026-04-07T17:08:31.999Z</time></trkpt><trkpt lat="44.50669446796955" lon="7.90425004854338"><ele>259.3333333333333</ele><time>2026-04-07T17:08:32.999Z</time></trkpt><trkpt lat="44.50669662001319" lon="7.903990450463195"><ele>259.6666666666667</ele><time>2026-04-07T17:08:33.999Z</time></trkpt><trkpt lat="44.506698875597884" lon="7.903727381658168"><ele>260.0</ele><time>2026-04-07T17:08:34.999Z</time></trkpt><trkpt lat="44.50670138989846" lon="7.903457571001332"><ele>259.33333333333337</ele><time>2026-04-07T17:08:35.999Z</time></trkpt><trkpt lat="44.5067038585592" lon="7.903182953423469"><ele>258.6666666666667</ele><time>2026-04-07T17:08:36.999Z</time></trkpt><trkpt lat="44.50670602030808" lon="7.902900062095626"><ele>258.0</ele><time>2026-04-07T17:08:37.999Z</time></trkpt><trkpt lat="44.506706776863076" lon="7.902614675205888"><ele>258.6666666666667</ele><time>2026-04-07T17:08:38.999Z</time></trkpt><trkpt lat="44.506707133692835" lon="7.902327050223609"><ele>259.33333333333337</ele><time>2026-04-07T17:08:39.999Z</time></trkpt><trkpt lat="44.50670276487746" lon="7.902033820603506"><ele>260.0</ele><time>2026-04-07T17:08:40.999Z</time></trkpt><trkpt lat="44.50668228917665" lon="7.901743277881762"><ele>261.6666666666667</ele><time>2026-04-07T17:08:41.999Z</time></trkpt><trkpt lat="44.50665866842775" lon="7.901462572670885"><ele>263.3333333333333</ele><time>2026-04-07T17:08:42.999Z</time></trkpt><trkpt lat="44.50663790323874" lon="7.901215802459304"><ele>265.0</ele><time>2026-04-07T17:08:43.999Z</time></trkpt><trkpt lat="44.50661880686022" lon="7.900988864103898"><ele>266.5</ele><time>2026-04-07T17:08:44.999Z</time></trkpt><trkpt lat="44.50660148776157" lon="7.900783046618319"><ele>268.0</ele><time>2026-04-07T17:08:45.999Z</time></trkpt><trkpt lat="44.5065782291405" lon="7.900585484022646"><ele>269.5</ele><time>2026-04-07T17:08:46.999Z</time></trkpt><trkpt lat="44.50653534267064" lon="7.900392902010716"><ele>271.0</ele><time>2026-04-07T17:08:47.999Z</time></trkpt><trkpt lat="44.50647995021424" lon="7.900192843033094"><ele>273.3333333333333</ele><time>2026-04-07T17:08:48.999Z</time></trkpt><trkpt lat="44.50640196245763" lon="7.900003369111972"><ele>275.6666666666667</ele><time>2026-04-07T17:08:49.999Z</time></trkpt><trkpt lat="44.50631640779822" lon="7.899824651280125"><ele>278.0</ele><time>2026-04-07T17:08:50.999Z</time></trkpt><trkpt lat="44.50623252254959" lon="7.899621647973475"><ele>276.6666666666667</ele><time>2026-04-07T17:08:51.999Z</time></trkpt><trkpt lat="44.50614333561246" lon="7.899429258900024"><ele>275.3333333333333</ele><time>2026-04-07T17:08:52.999Z</time></trkpt><trkpt lat="44.50606669260809" lon="7.899214369197941"><ele>274.0</ele><time>2026-04-07T17:08:53.999Z</time></trkpt><trkpt lat="44.505997253903125" lon="7.898985543467778"><ele>274.0</ele><time>2026-04-07T17:08:54.999Z</time></trkpt><trkpt lat="44.50592903774191" lon="7.89874148376389"><ele>274.0</ele><time>2026-04-07T17:08:55.999Z</time></trkpt><trkpt lat="44.505858692152856" lon="7.898500602349532"><ele>274.0</ele><time>2026-04-07T17:08:56.999Z</time></trkpt><trkpt lat="44.50578920743057" lon="7.89824480461218"><ele>276.66666666666663</ele><time>2026-04-07T17:08:57.999Z</time></trkpt><trkpt lat="44.50571418996559" lon="7.897989822549845"><ele>279.3333333333333</ele><time>2026-04-07T17:08:58.999Z</time></trkpt><trkpt lat="44.505636811250604" lon="7.8977244620450735"><ele>282.0</ele><time>2026-04-07T17:08:59.999Z</time></trkpt><trkpt lat="44.505561201244596" lon="7.897450679300369"><ele>282.3333333333333</ele><time>2026-04-07T17:09:00.999Z</time></trkpt><trkpt lat="44.505494350755946" lon="7.897169003910502"><ele>282.66666666666663</ele><time>2026-04-07T17:09:01.999Z</time></trkpt><trkpt lat="44.5054149960021" lon="7.896881596407752"><ele>283.0</ele><time>2026-04-07T17:09:02.998Z</time></trkpt><trkpt lat="44.505344509347914" lon="7.896626307451247"><ele>280.66666666666663</ele><time>2026-04-07T17:09:03.998Z</time></trkpt><trkpt lat="44.505277283289495" lon="7.896382827718027"><ele>278.3333333333333</ele><time>2026-04-07T17:09:04.998Z</time></trkpt><trkpt lat="44.50520108468754" lon="7.896168698176977"><ele>276.0</ele><time>2026-04-07T17:09:05.998Z</time></trkpt><trkpt lat="44.505147506156774" lon="7.8959609956390935"><ele>277.6666666666667</ele><time>2026-04-07T17:09:06.998Z</time></trkpt><trkpt lat="44.50510020195389" lon="7.895760907033053"><ele>279.33333333333337</ele><time>2026-04-07T17:09:07.998Z</time></trkpt><trkpt lat="44.505033316571264" lon="7.895579727474639"><ele>281.0</ele><time>2026-04-07T17:09:08.998Z</time></trkpt><trkpt lat="44.504947769475734" lon="7.895393990934382"><ele>281.0</ele><time>2026-04-07T17:09:09.998Z</time></trkpt><trkpt lat="44.5048452041877" lon="7.895226335278271"><ele>281.0</ele><time>2026-04-07T17:09:10.998Z</time></trkpt><trkpt lat="44.504718134489956" lon="7.895066569507211"><ele>281.0</ele><time>2026-04-07T17:09:11.998Z</time></trkpt><trkpt lat="44.504569022841544" lon="7.894924644552165"><ele>282.6666666666667</ele><time>2026-04-07T17:09:12.998Z</time></trkpt><trkpt lat="44.504408272110545" lon="7.894811435275629"><ele>284.3333333333333</ele><time>2026-04-07T17:09:13.998Z</time></trkpt><trkpt lat="44.50423892867452" lon="7.8947055461022355"><ele>286.0</ele><time>2026-04-07T17:09:14.998Z</time></trkpt><trkpt lat="44.504068816327845" lon="7.894599713214988"><ele>286.0</ele><time>2026-04-07T17:09:15.998Z</time></trkpt><trkpt lat="44.50389073646611" lon="7.894490207363029"><ele>286.0</ele><time>2026-04-07T17:09:16.998Z</time></trkpt><trkpt lat="44.503717655277775" lon="7.894389105580847"><ele>286.0</ele><time>2026-04-07T17:09:17.998Z</time></trkpt><trkpt lat="44.50353944089355" lon="7.894304285513273"><ele>290.66666666666663</ele><time>2026-04-07T17:09:18.998Z</time></trkpt><trkpt lat="44.5033569049817" lon="7.894232150939977"><ele>295.3333333333333</ele><time>2026-04-07T17:09:19.998Z</time></trkpt><trkpt lat="44.50316514924885" lon="7.894174477058641"><ele>300.0</ele><time>2026-04-07T17:09:20.998Z</time></trkpt><trkpt lat="44.5029722848813" lon="7.894136529600149"><ele>300.6666666666667</ele><time>2026-04-07T17:09:21.998Z</time></trkpt><trkpt lat="44.50277527241768" lon="7.894102160499884"><ele>301.33333333333337</ele><time>2026-04-07T17:09:22.998Z</time></trkpt><trkpt lat="44.50258419550175" lon="7.894068826867676"><ele>302.0</ele><time>2026-04-07T17:09:23.998Z</time></trkpt><trkpt lat="44.50238542575043" lon="7.894034119408071"><ele>302.0</ele><time>2026-04-07T17:09:24.998Z</time></trkpt><trkpt lat="44.50218974389749" lon="7.893999542500416"><ele>302.0</ele><time>2026-04-07T17:09:25.998Z</time></trkpt><trkpt lat="44.501993030001564" lon="7.893966075766264"><ele>302.0</ele><time>2026-04-07T17:09:27Z</time></trkpt><trkpt lat="44.501798015588804" lon="7.893939765672699"><ele>302.33333333333337</ele><time>2026-04-07T17:09:28Z</time></trkpt><trkpt lat="44.50158859132906" lon="7.893922914072528"><ele>302.6666666666667</ele><time>2026-04-07T17:09:29Z</time></trkpt><trkpt lat="44.50135541169512" lon="7.893929049493561"><ele>303.0</ele><time>2026-04-07T17:09:30Z</time></trkpt><trkpt lat="44.50113593414885" lon="7.893947187873799"><ele>304.6666666666667</ele><time>2026-04-07T17:09:31Z</time></trkpt><trkpt lat="44.50094933714152" lon="7.893991360254138"><ele>306.33333333333337</ele><time>2026-04-07T17:09:32Z</time></trkpt><trkpt lat="44.50073572594525" lon="7.89399511547232"><ele>308.0</ele><time>2026-04-07T17:09:33Z</time></trkpt><trkpt lat="44.50054044653181" lon="7.894001528729174"><ele>311.0</ele><time>2026-04-07T17:09:34Z</time></trkpt><trkpt lat="44.50033302555227" lon="7.89399946600562"><ele>314.0</ele><time>2026-04-07T17:09:35Z</time></trkpt><trkpt lat="44.500121121094146" lon="7.893997199064586"><ele>317.0</ele><time>2026-04-07T17:09:36Z</time></trkpt><trkpt lat="44.499931334238674" lon="7.894003989933137"><ele>317.0</ele><time>2026-04-07T17:09:37Z</time></trkpt><trkpt lat="44.49973660034499" lon="7.894021665003738"><ele>317.0</ele><time>2026-04-07T17:09:38Z</time></trkpt><trkpt lat="44.499542462868746" lon="7.894066843107007"><ele>317.0</ele><time>2026-04-07T17:09:39Z</time></trkpt><trkpt lat="44.49934690823958" lon="7.89412714487387"><ele>319.33333333333337</ele><time>2026-04-07T17:09:40Z</time></trkpt><trkpt lat="44.49917567612461" lon="7.894201514569982"><ele>321.6666666666667</ele><time>2026-04-07T17:09:41Z</time></trkpt><trkpt lat="44.49901303506806" lon="7.894264542221018"><ele>324.0</ele><time>2026-04-07T17:09:42Z</time></trkpt><trkpt lat="44.49886080025151" lon="7.894343216803385"><ele>323.75</ele><time>2026-04-07T17:09:43Z</time></trkpt><trkpt lat="44.49871640151325" lon="7.894402216613182"><ele>323.5</ele><time>2026-04-07T17:09:44Z</time></trkpt><trkpt lat="44.49857918552729" lon="7.894459535430887"><ele>323.25</ele><time>2026-04-07T17:09:45Z</time></trkpt><trkpt lat="44.49846478436285" lon="7.894502903767128"><ele>323.0</ele><time>2026-04-07T17:09:46Z</time></trkpt><trkpt lat="44.498364199060596" lon="7.894530096542302"><ele>323.0</ele><time>2026-04-07T17:09:47Z</time></trkpt><trkpt lat="44.49825133560801" lon="7.89453802348636"><ele>323.0</ele><time>2026-04-07T17:09:48Z</time></trkpt><trkpt lat="44.49813608609637" lon="7.894546422631836"><ele>323.0</ele><time>2026-04-07T17:09:49Z</time></trkpt><trkpt lat="44.49801154093643" lon="7.894536641185816"><ele>323.0</ele><time>2026-04-07T17:09:50Z</time></trkpt><trkpt lat="44.49789219206384" lon="7.894505996873219"><ele>324.59999999999997</ele><time>2026-04-07T17:09:51Z</time></trkpt><trkpt lat="44.49778350742249" lon="7.894470393373998"><ele>326.2</ele><time>2026-04-07T17:09:52Z</time></trkpt><trkpt lat="44.497676756120114" lon="7.89443823770966"><ele>327.8</ele><time>2026-04-07T17:09:53Z</time></trkpt><trkpt lat="44.4975635578553" lon="7.894390563070905"><ele>329.4</ele><time>2026-04-07T17:09:54Z</time></trkpt><trkpt lat="44.4974654205965" lon="7.894351103564088"><ele>331.0</ele><time>2026-04-07T17:09:55Z</time></trkpt><trkpt lat="44.497365060999655" lon="7.894311465861126"><ele>331.0</ele><time>2026-04-07T17:09:56Z</time></trkpt><trkpt lat="44.49725896499486" lon="7.894266770404848"><ele>331.0</ele><time>2026-04-07T17:09:57Z</time></trkpt><trkpt lat="44.49715274902372" lon="7.894227336010097"><ele>331.0</ele><time>2026-04-07T17:09:58Z</time></trkpt><trkpt lat="44.49705703927921" lon="7.894189243335561"><ele>331.0</ele><time>2026-04-07T17:09:59Z</time></trkpt><trkpt lat="44.49694772191866" lon="7.894145294497696"><ele>331.0</ele><time>2026-04-07T17:10:00Z</time></trkpt><trkpt lat="44.49684126858719" lon="7.8941044379027"><ele>331.75</ele><time>2026-04-07T17:10:01Z</time></trkpt><trkpt lat="44.49672417207051" lon="7.894068313290412"><ele>332.5</ele><time>2026-04-07T17:10:02Z</time></trkpt><trkpt lat="44.496609243324386" lon="7.893999718212018"><ele>333.25</ele><time>2026-04-07T17:10:03Z</time></trkpt><trkpt lat="44.49648938896036" lon="7.893949608000618"><ele>334.0</ele><time>2026-04-07T17:10:04Z</time></trkpt><trkpt lat="44.49635108293445" lon="7.893889270385271"><ele>334.0</ele><time>2026-04-07T17:10:05Z</time></trkpt><trkpt lat="44.4962015384589" lon="7.893827149622474"><ele>334.0</ele><time>2026-04-07T17:10:06Z</time></trkpt><trkpt lat="44.49604537874104" lon="7.8937619710020055"><ele>334.0</ele><time>2026-04-07T17:10:07Z</time></trkpt><trkpt lat="44.49588876760485" lon="7.893699642560225"><ele>334.0</ele><time>2026-04-07T17:10:08Z</time></trkpt><trkpt lat="44.495720359968104" lon="7.893634396667947"><ele>334.0</ele><time>2026-04-07T17:10:09Z</time></trkpt><trkpt lat="44.49554838317441" lon="7.893564486138014"><ele>334.0</ele><time>2026-04-07T17:10:10Z</time></trkpt><trkpt lat="44.49536680316735" lon="7.893485258802159"><ele>334.0</ele><time>2026-04-07T17:10:10.999Z</time></trkpt><trkpt lat="44.4951925467472" lon="7.8934035542371115"><ele>334.0</ele><time>2026-04-07T17:10:11.999Z</time></trkpt><trkpt lat="44.495017910633386" lon="7.893315502573978"><ele>334.0</ele><time>2026-04-07T17:10:12.999Z</time></trkpt><trkpt lat="44.494839595561984" lon="7.89320353830035"><ele>334.0</ele><time>2026-04-07T17:10:13.999Z</time></trkpt><trkpt lat="44.49465180952106" lon="7.893092331512601"><ele>334.0</ele><time>2026-04-07T17:10:14.999Z</time></trkpt><trkpt lat="44.494457856377615" lon="7.892963572871689"><ele>334.0</ele><time>2026-04-07T17:10:15.999Z</time></trkpt><trkpt lat="44.494267452536945" lon="7.892842835701258"><ele>334.3333333333333</ele><time>2026-04-07T17:10:16.999Z</time></trkpt><trkpt lat="44.49407421910508" lon="7.8927202886421775"><ele>334.6666666666667</ele><time>2026-04-07T17:10:17.999Z</time></trkpt><trkpt lat="44.493878242270135" lon="7.8926011755199"><ele>335.0</ele><time>2026-04-07T17:10:18.999Z</time></trkpt><trkpt lat="44.49370118182321" lon="7.892494734636217"><ele>335.0</ele><time>2026-04-07T17:10:19.999Z</time></trkpt><trkpt lat="44.493525128897026" lon="7.892384369847988"><ele>335.0</ele><time>2026-04-07T17:10:20.999Z</time></trkpt><trkpt lat="44.49335486381492" lon="7.8922794221539885"><ele>335.0</ele><time>2026-04-07T17:10:21.999Z</time></trkpt><trkpt lat="44.49317273840459" lon="7.892171581078786"><ele>335.0</ele><time>2026-04-07T17:10:22.999Z</time></trkpt><trkpt lat="44.49298794542413" lon="7.892068696044958"><ele>335.0</ele><time>2026-04-07T17:10:23.999Z</time></trkpt><trkpt lat="44.49280077514547" lon="7.891971640054287"><ele>335.0</ele><time>2026-04-07T17:10:24.999Z</time></trkpt><trkpt lat="44.49260536252873" lon="7.891890987232411"><ele>335.0</ele><time>2026-04-07T17:10:25.999Z</time></trkpt><trkpt lat="44.492402920412964" lon="7.891821320672116"><ele>335.0</ele><time>2026-04-07T17:10:26.999Z</time></trkpt><trkpt lat="44.49219390985906" lon="7.891761795209965"><ele>335.0</ele><time>2026-04-07T17:10:27.999Z</time></trkpt><trkpt lat="44.491981509850376" lon="7.891706477301573"><ele>336.0</ele><time>2026-04-07T17:10:28.999Z</time></trkpt><trkpt lat="44.49175991910955" lon="7.891668232476188"><ele>337.0</ele><time>2026-04-07T17:10:29.999Z</time></trkpt><trkpt lat="44.49152978746582" lon="7.891619173121407"><ele>337.0</ele><time>2026-04-07T17:10:30.999Z</time></trkpt><trkpt lat="44.491292736524066" lon="7.891569340224781"><ele>337.0</ele><time>2026-04-07T17:10:31.999Z</time></trkpt><trkpt lat="44.491055892910445" lon="7.89151966093404"><ele>336.0</ele><time>2026-04-07T17:10:32.999Z</time></trkpt><trkpt lat="44.490813508989106" lon="7.8914731171801185"><ele>335.0</ele><time>2026-04-07T17:10:33.999Z</time></trkpt><trkpt lat="44.49056558209023" lon="7.891414216429266"><ele>335.0</ele><time>2026-04-07T17:10:34.999Z</time></trkpt><trkpt lat="44.4903270307371" lon="7.8913656144337105"><ele>335.0</ele><time>2026-04-07T17:10:35.999Z</time></trkpt><trkpt lat="44.490086423357646" lon="7.89132113414929"><ele>335.0</ele><time>2026-04-07T17:10:36.999Z</time></trkpt><trkpt lat="44.4898671016424" lon="7.891252242630215"><ele>335.0</ele><time>2026-04-07T17:10:37.999Z</time></trkpt><trkpt lat="44.489654582416215" lon="7.8912044858085935"><ele>335.0</ele><time>2026-04-07T17:10:38.999Z</time></trkpt><trkpt lat="44.48944354407624" lon="7.891175389807451"><ele>335.0</ele><time>2026-04-07T17:10:39.999Z</time></trkpt><trkpt lat="44.489250049574665" lon="7.891132277229892"><ele>335.0</ele><time>2026-04-07T17:10:40.999Z</time></trkpt><trkpt lat="44.489067771916034" lon="7.891093800752163"><ele>335.0</ele><time>2026-04-07T17:10:41.999Z</time></trkpt><trkpt lat="44.48888532392191" lon="7.891046964900882"><ele>335.0</ele><time>2026-04-07T17:10:42.999Z</time></trkpt><trkpt lat="44.488709014133406" lon="7.890991421935358"><ele>335.0</ele><time>2026-04-07T17:10:43.999Z</time></trkpt><trkpt lat="44.488524944177556" lon="7.8909291081399395"><ele>335.0</ele><time>2026-04-07T17:10:44.999Z</time></trkpt><trkpt lat="44.488345890215456" lon="7.890829711922952"><ele>335.6666666666667</ele><time>2026-04-07T17:10:45.999Z</time></trkpt><trkpt lat="44.48816260568625" lon="7.890713443978294"><ele>336.3333333333333</ele><time>2026-04-07T17:10:46.999Z</time></trkpt><trkpt lat="44.487979424995935" lon="7.890589796795569"><ele>337.0</ele><time>2026-04-07T17:10:47.999Z</time></trkpt><trkpt lat="44.487786504375954" lon="7.890464217129948"><ele>337.0</ele><time>2026-04-07T17:10:48.999Z</time></trkpt><trkpt lat="44.48759939526196" lon="7.890322903565888"><ele>337.0</ele><time>2026-04-07T17:10:49.999Z</time></trkpt><trkpt lat="44.48740940114887" lon="7.890197422057007"><ele>337.0</ele><time>2026-04-07T17:10:50.999Z</time></trkpt><trkpt lat="44.487225137775354" lon="7.890043077946137"><ele>337.0</ele><time>2026-04-07T17:10:51.999Z</time></trkpt><trkpt lat="44.487016538662765" lon="7.889896838009901"><ele>337.0</ele><time>2026-04-07T17:10:52.999Z</time></trkpt><trkpt lat="44.48680713687242" lon="7.889755342188206"><ele>337.0</ele><time>2026-04-07T17:10:53.999Z</time></trkpt><trkpt lat="44.4865980373555" lon="7.88959614812026"><ele>337.0</ele><time>2026-04-07T17:10:54.999Z</time></trkpt><trkpt lat="44.486381402677154" lon="7.889443422129927"><ele>336.5</ele><time>2026-04-07T17:10:55.999Z</time></trkpt><trkpt lat="44.48616630558003" lon="7.8892915904751"><ele>336.0</ele><time>2026-04-07T17:10:56.999Z</time></trkpt><trkpt lat="44.485969767528665" lon="7.889163677139742"><ele>336.0</ele><time>2026-04-07T17:10:57.999Z</time></trkpt><trkpt lat="44.4857993411323" lon="7.889034491925309"><ele>336.0</ele><time>2026-04-07T17:10:58.999Z</time></trkpt><trkpt lat="44.48563704182505" lon="7.888927440613026"><ele>336.0</ele><time>2026-04-07T17:10:59.999Z</time></trkpt><trkpt lat="44.48548361596481" lon="7.888825165954459"><ele>336.0</ele><time>2026-04-07T17:11:00.999Z</time></trkpt><trkpt lat="44.485345720686446" lon="7.88871967631446"><ele>336.0</ele><time>2026-04-07T17:11:01.999Z</time></trkpt><trkpt lat="44.485211138975835" lon="7.888620298604527"><ele>336.0</ele><time>2026-04-07T17:11:02.999Z</time></trkpt><trkpt lat="44.48508237429472" lon="7.888526286358721"><ele>336.5</ele><time>2026-04-07T17:11:03.999Z</time></trkpt><trkpt lat="44.4849664699824" lon="7.888421913777444"><ele>337.0</ele><time>2026-04-07T17:11:04.999Z</time></trkpt><trkpt lat="44.48487150744432" lon="7.8883233027704325"><ele>337.5</ele><time>2026-04-07T17:11:05.999Z</time></trkpt><trkpt lat="44.48478033449285" lon="7.888227385132079"><ele>338.0</ele><time>2026-04-07T17:11:06.999Z</time></trkpt><trkpt lat="44.48471770116779" lon="7.888148270802713"><ele>338.0</ele><time>2026-04-07T17:11:07.999Z</time></trkpt><trkpt lat="44.48465339987362" lon="7.8880653658443345"><ele>338.0</ele><time>2026-04-07T17:11:08.999Z</time></trkpt><trkpt lat="44.484594930708724" lon="7.8879892561857625"><ele>338.0</ele><time>2026-04-07T17:11:09.998Z</time></trkpt><trkpt lat="44.484531579616444" lon="7.887906744418213"><ele>338.0</ele><time>2026-04-07T17:11:10.998Z</time></trkpt><trkpt lat="44.4844751502705" lon="7.887828868976871"><ele>338.0</ele><time>2026-04-07T17:11:11.998Z</time></trkpt><trkpt lat="44.484432626343086" lon="7.887759252126436"><ele>338.0</ele><time>2026-04-07T17:11:12.998Z</time></trkpt><trkpt lat="44.484374817912304" lon="7.887697682999984"><ele>338.0</ele><time>2026-04-07T17:11:13.998Z</time></trkpt><trkpt lat="44.48434812400146" lon="7.887607128063852"><ele>338.0</ele><time>2026-04-07T17:11:14.998Z</time></trkpt><trkpt lat="44.48428014432941" lon="7.887458544011403"><ele>338.0</ele><time>2026-04-07T17:11:16.998Z</time></trkpt><trkpt lat="44.48422728318063" lon="7.887402256772843"><ele>338.0</ele><time>2026-04-07T17:11:17.998Z</time></trkpt><trkpt lat="44.48417736037124" lon="7.887342519696564"><ele>338.0</ele><time>2026-04-07T17:11:18.998Z</time></trkpt><trkpt lat="44.484079478125935" lon="7.887366884060192"><ele>338.0</ele><time>2026-04-07T17:11:19.998Z</time></trkpt><trkpt lat="44.48400420720221" lon="7.887369737305949"><ele>338.0</ele><time>2026-04-07T17:11:20.998Z</time></trkpt><trkpt lat="44.48387616889746" lon="7.887313802070289"><ele>338.0</ele><time>2026-04-07T17:11:22.998Z</time></trkpt><trkpt lat="44.48380403360861" lon="7.88722074922439"><ele>338.0</ele><time>2026-04-07T17:11:23.998Z</time></trkpt><trkpt lat="44.48372551673047" lon="7.887124331293021"><ele>338.0</ele><time>2026-04-07T17:11:24.998Z</time></trkpt><trkpt lat="44.48362151386031" lon="7.887018131690889"><ele>338.0</ele><time>2026-04-07T17:11:25.998Z</time></trkpt><trkpt lat="44.4835185961713" lon="7.886909132646367"><ele>338.0</ele><time>2026-04-07T17:11:26.998Z</time></trkpt><trkpt lat="44.48340798508916" lon="7.886787199555098"><ele>338.0</ele><time>2026-04-07T17:11:27.998Z</time></trkpt><trkpt lat="44.48328736651562" lon="7.886658277679145"><ele>338.0</ele><time>2026-04-07T17:11:28.998Z</time></trkpt><trkpt lat="44.48318246611119" lon="7.886543131306217"><ele>338.0</ele><time>2026-04-07T17:11:29.998Z</time></trkpt><trkpt lat="44.4830779848898" lon="7.886436125446105"><ele>338.0</ele><time>2026-04-07T17:11:30.998Z</time></trkpt><trkpt lat="44.482954687650874" lon="7.8863220883358425"><ele>338.0</ele><time>2026-04-07T17:11:31.998Z</time></trkpt><trkpt lat="44.48284448324384" lon="7.8862017180487225"><ele>338.0</ele><time>2026-04-07T17:11:33Z</time></trkpt><trkpt lat="44.48274885075359" lon="7.886096742799338"><ele>338.0</ele><time>2026-04-07T17:11:34Z</time></trkpt><trkpt lat="44.482666660843904" lon="7.885997938812376"><ele>338.0</ele><time>2026-04-07T17:11:35Z</time></trkpt><trkpt lat="44.482603389057836" lon="7.885897520582562"><ele>338.0</ele><time>2026-04-07T17:11:36Z</time></trkpt><trkpt lat="44.482541061911945" lon="7.885794697625251"><ele>338.0</ele><time>2026-04-07T17:11:37Z</time></trkpt><trkpt lat="44.48248299163917" lon="7.885674899442234"><ele>338.0</ele><time>2026-04-07T17:11:38Z</time></trkpt><trkpt lat="44.4824401305061" lon="7.885557331921512"><ele>338.33333333333337</ele><time>2026-04-07T17:11:39Z</time></trkpt><trkpt lat="44.48240295105136" lon="7.885443043019225"><ele>338.6666666666667</ele><time>2026-04-07T17:11:40Z</time></trkpt><trkpt lat="44.48237492156064" lon="7.88533682847817"><ele>339.0</ele><time>2026-04-07T17:11:41Z</time></trkpt><trkpt lat="44.48235008284036" lon="7.885245687871696"><ele>339.3333333333333</ele><time>2026-04-07T17:11:42Z</time></trkpt><trkpt lat="44.4823293441817" lon="7.88515713656915"><ele>339.66666666666663</ele><time>2026-04-07T17:11:43Z</time></trkpt><trkpt lat="44.48229815618863" lon="7.885029612756901"><ele>340.0</ele><time>2026-04-07T17:11:45Z</time></trkpt><trkpt lat="44.48226290618812" lon="7.884880970374052"><ele>340.2</ele><time>2026-04-07T17:11:47Z</time></trkpt><trkpt lat="44.48224098352112" lon="7.884761205476794"><ele>340.4</ele><time>2026-04-07T17:11:49Z</time></trkpt><trkpt lat="44.482208924201" lon="7.884610270411606"><ele>340.6</ele><time>2026-04-07T17:11:51Z</time></trkpt><trkpt lat="44.48216901545926" lon="7.884448141147926"><ele>340.8</ele><time>2026-04-07T17:11:53Z</time></trkpt><trkpt lat="44.48215070479453" lon="7.884352733890798"><ele>341.0</ele><time>2026-04-07T17:11:54Z</time></trkpt><trkpt lat="44.482135991905984" lon="7.884252068114619"><ele>341.1666666666667</ele><time>2026-04-07T17:11:55Z</time></trkpt><trkpt lat="44.48211259838604" lon="7.884146595723312"><ele>341.33333333333337</ele><time>2026-04-07T17:11:56Z</time></trkpt><trkpt lat="44.48209636733712" lon="7.8840568472852475"><ele>341.5</ele><time>2026-04-07T17:11:57Z</time></trkpt><trkpt lat="44.48207603962049" lon="7.883964699146088"><ele>341.6666666666667</ele><time>2026-04-07T17:11:58Z</time></trkpt><trkpt lat="44.48205269678943" lon="7.883862062847356"><ele>341.8333333333333</ele><time>2026-04-07T17:11:59Z</time></trkpt><trkpt lat="44.48202958049012" lon="7.883747162728074"><ele>342.0</ele><time>2026-04-07T17:12:00Z</time></trkpt><trkpt lat="44.482011192223794" lon="7.88364011490485"><ele>342.0</ele><time>2026-04-07T17:12:01Z</time></trkpt><trkpt lat="44.48198639723945" lon="7.883537758252373"><ele>342.0</ele><time>2026-04-07T17:12:02Z</time></trkpt><trkpt lat="44.48193886149278" lon="7.8833591451284"><ele>342.0</ele><time>2026-04-07T17:12:04Z</time></trkpt><trkpt lat="44.48191539338529" lon="7.8832691438223685"><ele>342.0</ele><time>2026-04-07T17:12:05Z</time></trkpt><trkpt lat="44.48189181620768" lon="7.883177521182188"><ele>342.0</ele><time>2026-04-07T17:12:06Z</time></trkpt><trkpt lat="44.48186177367799" lon="7.883068419817439"><ele>342.0</ele><time>2026-04-07T17:12:07Z</time></trkpt><trkpt lat="44.481832114436926" lon="7.882954950354668"><ele>343.20000000000005</ele><time>2026-04-07T17:12:08Z</time></trkpt><trkpt lat="44.481793491121856" lon="7.88282497221666"><ele>344.4</ele><time>2026-04-07T17:12:09Z</time></trkpt><trkpt lat="44.48174336312953" lon="7.882703023732821"><ele>345.6</ele><time>2026-04-07T17:12:10Z</time></trkpt><trkpt lat="44.48169372710777" lon="7.882554857726213"><ele>346.79999999999995</ele><time>2026-04-07T17:12:11Z</time></trkpt><trkpt lat="44.481642340616034" lon="7.882433870632777"><ele>348.0</ele><time>2026-04-07T17:12:12Z</time></trkpt><trkpt lat="44.48159140555373" lon="7.882307357435269"><ele>349.2</ele><time>2026-04-07T17:12:13Z</time></trkpt><trkpt lat="44.48152899519608" lon="7.882174630835949"><ele>350.4</ele><time>2026-04-07T17:12:14Z</time></trkpt><trkpt lat="44.48146630552239" lon="7.882039055807939"><ele>351.59999999999997</ele><time>2026-04-07T17:12:15Z</time></trkpt><trkpt lat="44.48141715360962" lon="7.881922138347563"><ele>352.79999999999995</ele><time>2026-04-07T17:12:15.999Z</time></trkpt><trkpt lat="44.48137114972707" lon="7.881826755602461"><ele>354.0</ele><time>2026-04-07T17:12:16.999Z</time></trkpt><trkpt lat="44.48132651035074" lon="7.881729189855293"><ele>354.6</ele><time>2026-04-07T17:12:17.999Z</time></trkpt><trkpt lat="44.481273594932404" lon="7.88162488560133"><ele>355.2</ele><time>2026-04-07T17:12:18.999Z</time></trkpt><trkpt lat="44.48121991946986" lon="7.881509505105431"><ele>355.8</ele><time>2026-04-07T17:12:19.999Z</time></trkpt><trkpt lat="44.48118551013373" lon="7.881368395378134"><ele>356.40000000000003</ele><time>2026-04-07T17:12:20.999Z</time></trkpt><trkpt lat="44.48115961465785" lon="7.88123130668664"><ele>357.0</ele><time>2026-04-07T17:12:21.999Z</time></trkpt><trkpt lat="44.48113186480495" lon="7.881098334073392"><ele>357.0</ele><time>2026-04-07T17:12:22.999Z</time></trkpt><trkpt lat="44.48111002503459" lon="7.88095634796084"><ele>357.0</ele><time>2026-04-07T17:12:23.999Z</time></trkpt><trkpt lat="44.48108947760191" lon="7.880837117031626"><ele>357.0</ele><time>2026-04-07T17:12:24.999Z</time></trkpt><trkpt lat="44.48106253255503" lon="7.880696873933969"><ele>357.0</ele><time>2026-04-07T17:12:25.999Z</time></trkpt><trkpt lat="44.48102193352253" lon="7.880578366988343"><ele>357.0</ele><time>2026-04-07T17:12:26.999Z</time></trkpt><trkpt lat="44.48098054287987" lon="7.880476883609926"><ele>357.1666666666667</ele><time>2026-04-07T17:12:27.999Z</time></trkpt><trkpt lat="44.4809494115058" lon="7.880399358718801"><ele>357.3333333333333</ele><time>2026-04-07T17:12:28.999Z</time></trkpt><trkpt lat="44.480912409146704" lon="7.880311434356869"><ele>357.5</ele><time>2026-04-07T17:12:29.999Z</time></trkpt><trkpt lat="44.480875002129224" lon="7.880200335254278"><ele>357.66666666666663</ele><time>2026-04-07T17:12:30.999Z</time></trkpt><trkpt lat="44.480844312921384" lon="7.880051195967004"><ele>357.8333333333333</ele><time>2026-04-07T17:12:31.999Z</time></trkpt><trkpt lat="44.48081500187542" lon="7.879947093718641"><ele>358.0</ele><time>2026-04-07T17:12:32.999Z</time></trkpt><trkpt lat="44.48077904956377" lon="7.879842096785573"><ele>358.2</ele><time>2026-04-07T17:12:33.999Z</time></trkpt><trkpt lat="44.48073719768315" lon="7.879731412664371"><ele>358.4</ele><time>2026-04-07T17:12:34.999Z</time></trkpt><trkpt lat="44.48066606896903" lon="7.879622782587766"><ele>358.59999999999997</ele><time>2026-04-07T17:12:35.999Z</time></trkpt><trkpt lat="44.480580602685265" lon="7.879522545046745"><ele>358.79999999999995</ele><time>2026-04-07T17:12:36.999Z</time></trkpt><trkpt lat="44.480503177551334" lon="7.8794401536420375"><ele>359.0</ele><time>2026-04-07T17:12:37.999Z</time></trkpt><trkpt lat="44.48041606654675" lon="7.879361129578603"><ele>359.0</ele><time>2026-04-07T17:12:38.999Z</time></trkpt><trkpt lat="44.4803481912164" lon="7.879308602534232"><ele>359.0</ele><time>2026-04-07T17:12:39.999Z</time></trkpt><trkpt lat="44.48028837892051" lon="7.87926234108028"><ele>359.0</ele><time>2026-04-07T17:12:40.999Z</time></trkpt><trkpt lat="44.4801883941279" lon="7.879195414925099"><ele>359.0</ele><time>2026-04-07T17:12:42.999Z</time></trkpt><trkpt lat="44.480126798119386" lon="7.879145708327085"><ele>359.0</ele><time>2026-04-07T17:12:43.999Z</time></trkpt><trkpt lat="44.47995931916682" lon="7.879287668059064"><ele>359.0</ele><time>2026-04-07T17:12:45.999Z</time></trkpt><trkpt lat="44.47988362516493" lon="7.879319931051023"><ele>359.0</ele><time>2026-04-07T17:12:47.999Z</time></trkpt><trkpt lat="44.479820649508724" lon="7.879362289073005"><ele>359.0</ele><time>2026-04-07T17:12:48.999Z</time></trkpt><trkpt lat="44.479758259762185" lon="7.879420917644605"><ele>359.0</ele><time>2026-04-07T17:12:49.999Z</time></trkpt><trkpt lat="44.47964963230969" lon="7.8794844235342225"><ele>359.0</ele><time>2026-04-07T17:12:51.999Z</time></trkpt><trkpt lat="44.47954487166752" lon="7.879530079162246"><ele>359.79999999999995</ele><time>2026-04-07T17:12:53.999Z</time></trkpt><trkpt lat="44.47945161241532" lon="7.879586742129984"><ele>360.59999999999997</ele><time>2026-04-07T17:12:55.999Z</time></trkpt><trkpt lat="44.4793611075704" lon="7.879581891797294"><ele>361.4</ele><time>2026-04-07T17:12:57.999Z</time></trkpt><trkpt lat="44.47924562514113" lon="7.879559479581589"><ele>362.2</ele><time>2026-04-07T17:12:59.999Z</time></trkpt><trkpt lat="44.47918012841186" lon="7.879535125017205"><ele>363.0</ele><time>2026-04-07T17:13:00.999Z</time></trkpt><trkpt lat="44.47906612678084" lon="7.879512868579493"><ele>363.0</ele><time>2026-04-07T17:13:02.999Z</time></trkpt><trkpt lat="44.47898368845923" lon="7.879493801255851"><ele>363.0</ele><time>2026-04-07T17:13:04.999Z</time></trkpt><trkpt lat="44.47885882192207" lon="7.879467088281865"><ele>363.0</ele><time>2026-04-07T17:13:06.999Z</time></trkpt><trkpt lat="44.478771236250196" lon="7.879478979626373"><ele>363.0</ele><time>2026-04-07T17:13:09.999Z</time></trkpt><trkpt lat="44.47867954371673" lon="7.879439474988088"><ele>363.0</ele><time>2026-04-07T17:13:12.999Z</time></trkpt><trkpt lat="44.478571043938715" lon="7.879462201444519"><ele>362.8333333333333</ele><time>2026-04-07T17:13:14.998Z</time></trkpt><trkpt lat="44.47846536639933" lon="7.879428980336913"><ele>362.6666666666667</ele><time>2026-04-07T17:13:16.998Z</time></trkpt><trkpt lat="44.478392867695824" lon="7.8794153437618615"><ele>362.5</ele><time>2026-04-07T17:13:18.998Z</time></trkpt><trkpt lat="44.478328201956096" lon="7.8793908305425955"><ele>362.33333333333337</ele><time>2026-04-07T17:13:20.998Z</time></trkpt><trkpt lat="44.47831961423356" lon="7.879274510362244"><ele>362.1666666666667</ele><time>2026-04-07T17:13:22.998Z</time></trkpt><trkpt lat="44.478282731575334" lon="7.879195583803948"><ele>362.0</ele><time>2026-04-07T17:13:24.998Z</time></trkpt><trkpt lat="44.47829582720371" lon="7.879075857617011"><ele>362.0</ele><time>2026-04-07T17:13:27.998Z</time></trkpt><trkpt lat="44.47831076138475" lon="7.878909029449361"><ele>362.0</ele><time>2026-04-07T17:13:30.998Z</time></trkpt><trkpt lat="44.47833230413202" lon="7.878806502131523"><ele>362.0</ele><time>2026-04-07T17:13:31.998Z</time></trkpt><trkpt lat="44.478351080876415" lon="7.878721389301909"><ele>362.0</ele><time>2026-04-07T17:13:33.998Z</time></trkpt><trkpt lat="44.478365659490365" lon="7.878619038837328"><ele>362.0</ele><time>2026-04-07T17:13:45Z</time></trkpt><trkpt lat="44.478154879585894" lon="7.8785928285313584"><ele>362.0</ele><time>2026-04-07T17:13:53Z</time></trkpt><trkpt lat="44.47811498846492" lon="7.878442979937407"><ele>362.0</ele><time>2026-04-07T17:13:54Z</time></trkpt><trkpt lat="44.478067886503275" lon="7.878372561780591"><ele>362.0</ele><time>2026-04-07T17:13:55Z</time></trkpt><trkpt lat="44.47800931359195" lon="7.878279749446505"><ele>362.0</ele><time>2026-04-07T17:13:56Z</time></trkpt><trkpt lat="44.47797608188085" lon="7.878199242587467"><ele>362.0</ele><time>2026-04-07T17:13:57Z</time></trkpt><trkpt lat="44.477906718354006" lon="7.8780976904902325"><ele>362.0</ele><time>2026-04-07T17:13:59Z</time></trkpt><trkpt lat="44.47789363604245" lon="7.877969710953785"><ele>362.0</ele><time>2026-04-07T17:14:01Z</time></trkpt><trkpt lat="44.47785645730352" lon="7.877865861651504"><ele>362.0</ele><time>2026-04-07T17:14:04Z</time></trkpt><trkpt lat="44.47786930836324" lon="7.877726035989025"><ele>362.0</ele><time>2026-04-07T17:14:06Z</time></trkpt><trkpt lat="44.47795746066803" lon="7.877546290648328"><ele>362.0</ele><time>2026-04-07T17:14:08Z</time></trkpt><trkpt lat="44.477986123962594" lon="7.877439274562649"><ele>362.0</ele><time>2026-04-07T17:14:10Z</time></trkpt><trkpt lat="44.478027097424" lon="7.8773336448282985"><ele>362.0</ele><time>2026-04-07T17:14:12Z</time></trkpt><trkpt lat="44.47805697220893" lon="7.877255011227931"><ele>362.0</ele><time>2026-04-07T17:14:14Z</time></trkpt><trkpt lat="44.47813236060507" lon="7.877159832442121"><ele>362.0</ele><time>2026-04-07T17:14:16Z</time></trkpt><trkpt lat="44.47819783623153" lon="7.877059535394372"><ele>362.0</ele><time>2026-04-07T17:14:18Z</time></trkpt><trkpt lat="44.47822446137611" lon="7.87697344139213"><ele>362.0</ele><time>2026-04-07T17:14:19Z</time></trkpt><trkpt lat="44.47825460841286" lon="7.876843003011695"><ele>362.0</ele><time>2026-04-07T17:14:21Z</time></trkpt><trkpt lat="44.47831979517772" lon="7.876701877402417"><ele>361.8</ele><time>2026-04-07T17:14:22.999Z</time></trkpt><trkpt lat="44.47834532525174" lon="7.8765930091692775"><ele>361.6</ele><time>2026-04-07T17:14:23.999Z</time></trkpt><trkpt lat="44.478335719940844" lon="7.87646220618663"><ele>361.40000000000003</ele><time>2026-04-07T17:14:24.999Z</time></trkpt><trkpt lat="44.47833466838301" lon="7.87633041751649"><ele>361.20000000000005</ele><time>2026-04-07T17:14:25.999Z</time></trkpt><trkpt lat="44.47833968758459" lon="7.876182545677821"><ele>361.0</ele><time>2026-04-07T17:14:26.999Z</time></trkpt><trkpt lat="44.478341913826895" lon="7.876044251801257"><ele>361.0</ele><time>2026-04-07T17:14:27.999Z</time></trkpt><trkpt lat="44.47834431587702" lon="7.8759282391986565"><ele>361.0</ele><time>2026-04-07T17:14:28.999Z</time></trkpt><trkpt lat="44.47833847212883" lon="7.875805592550012"><ele>361.0</ele><time>2026-04-07T17:14:29.999Z</time></trkpt><trkpt lat="44.47834218837828" lon="7.875693128002557"><ele>361.0</ele><time>2026-04-07T17:14:30.999Z</time></trkpt><trkpt lat="44.478339409623416" lon="7.8755923610323775"><ele>361.0</ele><time>2026-04-07T17:14:31.999Z</time></trkpt><trkpt lat="44.47833826650161" lon="7.875498115794544"><ele>361.0</ele><time>2026-04-07T17:14:32.999Z</time></trkpt><trkpt lat="44.4783365289598" lon="7.87540540548685"><ele>361.0</ele><time>2026-04-07T17:14:33.999Z</time></trkpt><trkpt lat="44.47831912579474" lon="7.875271408344622"><ele>361.0</ele><time>2026-04-07T17:14:35.999Z</time></trkpt><trkpt lat="44.47830413929166" lon="7.875130875747496"><ele>361.0</ele><time>2026-04-07T17:14:37.999Z</time></trkpt><trkpt lat="44.47828875901293" lon="7.874962585718689"><ele>361.0</ele><time>2026-04-07T17:14:39.999Z</time></trkpt><trkpt lat="44.47829670910089" lon="7.874806836918052"><ele>361.0</ele><time>2026-04-07T17:14:41.999Z</time></trkpt><trkpt lat="44.47827238938364" lon="7.874674954415203"><ele>361.0</ele><time>2026-04-07T17:14:43.999Z</time></trkpt><trkpt lat="44.47828283299893" lon="7.874517473847163"><ele>361.0</ele><time>2026-04-07T17:14:45.999Z</time></trkpt><trkpt lat="44.4782861648306" lon="7.874408564823775"><ele>361.0</ele><time>2026-04-07T17:14:47.999Z</time></trkpt><trkpt lat="44.47845376994355" lon="7.874387770774359"><ele>361.0</ele><time>2026-04-07T17:14:50.999Z</time></trkpt><trkpt lat="44.47855464611117" lon="7.87436754926747"><ele>361.0</ele><time>2026-04-07T17:14:52.999Z</time></trkpt><trkpt lat="44.478641115780086" lon="7.8743568737314344"><ele>361.0</ele><time>2026-04-07T17:14:54.999Z</time></trkpt><trkpt lat="44.4787032517146" lon="7.874511550310955"><ele>361.0</ele><time>2026-04-07T17:14:59.999Z</time></trkpt><trkpt lat="44.478714051062866" lon="7.8746110010360315"><ele>361.0</ele><time>2026-04-07T17:15:01.999Z</time></trkpt><trkpt lat="44.478722057053545" lon="7.874701267111083"><ele>361.0</ele><time>2026-04-07T17:15:05.999Z</time></trkpt><trkpt lat="44.4788936482589" lon="7.8746851436995335"><ele>361.0</ele><time>2026-04-07T17:15:07.999Z</time></trkpt><trkpt lat="44.478956644018176" lon="7.874693516416493"><ele>361.0</ele><time>2026-04-07T17:15:09.999Z</time></trkpt><trkpt lat="44.47904550134877" lon="7.874678141200322"><ele>361.0</ele><time>2026-04-07T17:15:11.999Z</time></trkpt><trkpt lat="44.47911689079786" lon="7.874665788443098"><ele>361.0</ele><time>2026-04-07T17:15:13.999Z</time></trkpt><trkpt lat="44.47913774748266" lon="7.874530994603411"><ele>361.0</ele><time>2026-04-07T17:15:17.999Z</time></trkpt><trkpt lat="44.47914094618979" lon="7.874435056615769"><ele>361.0</ele><time>2026-04-07T17:15:20.999Z</time></trkpt><trkpt lat="44.479150753657606" lon="7.874343224282263"><ele>361.3333333333333</ele><time>2026-04-07T17:15:25.998Z</time></trkpt><trkpt lat="44.47913270387966" lon="7.8742244431797035"><ele>361.6666666666667</ele><time>2026-04-07T17:15:54Z</time></trkpt><trkpt lat="44.479313075066855" lon="7.874216296180937"><ele>362.0</ele><time>2026-04-07T17:15:58Z</time></trkpt><trkpt lat="44.479444995470764" lon="7.874038523204609"><ele>362.0</ele><time>2026-04-07T17:16:08Z</time></trkpt><trkpt lat="44.47941213792267" lon="7.873853808322427"><ele>362.0</ele><time>2026-04-07T17:16:10Z</time></trkpt><trkpt lat="44.479369400451155" lon="7.873741422554815"><ele>362.0</ele><time>2026-04-07T17:16:11Z</time></trkpt><trkpt lat="44.47932490242372" lon="7.873610952416479"><ele>362.0</ele><time>2026-04-07T17:16:12Z</time></trkpt><trkpt lat="44.47927730150634" lon="7.873443841222994"><ele>362.33333333333337</ele><time>2026-04-07T17:16:13Z</time></trkpt><trkpt lat="44.479239764652235" lon="7.873327229561664"><ele>362.6666666666667</ele><time>2026-04-07T17:16:14Z</time></trkpt><trkpt lat="44.47920383528672" lon="7.873218713689482"><ele>363.0</ele><time>2026-04-07T17:16:15Z</time></trkpt><trkpt lat="44.47915486828556" lon="7.873102635310941"><ele>363.3333333333333</ele><time>2026-04-07T17:16:16Z</time></trkpt><trkpt lat="44.47908602946365" lon="7.873027391003244"><ele>363.66666666666663</ele><time>2026-04-07T17:16:17Z</time></trkpt><trkpt lat="44.479086844075" lon="7.87292673897843"><ele>364.0</ele><time>2026-04-07T17:16:18Z</time></trkpt><trkpt lat="44.479062447427566" lon="7.872828932842273"><ele>364.0</ele><time>2026-04-07T17:16:19Z</time></trkpt><trkpt lat="44.47904431038375" lon="7.872719330989296"><ele>364.0</ele><time>2026-04-07T17:16:20Z</time></trkpt><trkpt lat="44.47901615825019" lon="7.872626192745606"><ele>364.0</ele><time>2026-04-07T17:16:21Z</time></trkpt><trkpt lat="44.47897335165701" lon="7.872502371555194"><ele>364.0</ele><time>2026-04-07T17:16:22Z</time></trkpt><trkpt lat="44.478938575313514" lon="7.872355479350095"><ele>364.0</ele><time>2026-04-07T17:16:23Z</time></trkpt><trkpt lat="44.47889442576278" lon="7.872213397583028"><ele>364.0</ele><time>2026-04-07T17:16:24Z</time></trkpt><trkpt lat="44.47883779418492" lon="7.872036092568612"><ele>364.0</ele><time>2026-04-07T17:16:25Z</time></trkpt><trkpt lat="44.478797556472855" lon="7.87190401607565"><ele>364.0</ele><time>2026-04-07T17:16:26Z</time></trkpt><trkpt lat="44.47875553937549" lon="7.871739229060543"><ele>364.0</ele><time>2026-04-07T17:16:27Z</time></trkpt><trkpt lat="44.478724217020904" lon="7.871609705490917"><ele>364.0</ele><time>2026-04-07T17:16:27.999Z</time></trkpt><trkpt lat="44.47867488239386" lon="7.8714742170078225"><ele>364.0</ele><time>2026-04-07T17:16:28.999Z</time></trkpt><trkpt lat="44.478629454056446" lon="7.871369556583428"><ele>364.0</ele><time>2026-04-07T17:16:29.999Z</time></trkpt><trkpt lat="44.47859318533025" lon="7.871256157881286"><ele>364.0</ele><time>2026-04-07T17:16:30.999Z</time></trkpt><trkpt lat="44.47857577417415" lon="7.871156667570026"><ele>364.0</ele><time>2026-04-07T17:16:31.999Z</time></trkpt><trkpt lat="44.478560280539114" lon="7.870996688275916"><ele>363.79999999999995</ele><time>2026-04-07T17:16:33.999Z</time></trkpt><trkpt lat="44.47852806907351" lon="7.87089533378473"><ele>363.59999999999997</ele><time>2026-04-07T17:16:34.999Z</time></trkpt><trkpt lat="44.47861728408611" lon="7.870772405181866"><ele>363.4</ele><time>2026-04-07T17:16:35.999Z</time></trkpt><trkpt lat="44.4786750298206" lon="7.870658102316463"><ele>363.2</ele><time>2026-04-07T17:16:36.999Z</time></trkpt><trkpt lat="44.478740205421516" lon="7.870535941114081"><ele>363.0</ele><time>2026-04-07T17:16:37.999Z</time></trkpt><trkpt lat="44.47879495588476" lon="7.87042624644618"><ele>363.0</ele><time>2026-04-07T17:16:38.999Z</time></trkpt><trkpt lat="44.47885505630625" lon="7.870316473704659"><ele>363.0</ele><time>2026-04-07T17:16:39.999Z</time></trkpt><trkpt lat="44.47890451933939" lon="7.870203182295675"><ele>363.0</ele><time>2026-04-07T17:16:40.999Z</time></trkpt><trkpt lat="44.478960266090255" lon="7.8701183766300336"><ele>363.0</ele><time>2026-04-07T17:16:41.999Z</time></trkpt><trkpt lat="44.47901324279286" lon="7.8699764958466485"><ele>363.0</ele><time>2026-04-07T17:16:43.999Z</time></trkpt><trkpt lat="44.47905441183342" lon="7.869908774591443"><ele>363.0</ele><time>2026-04-07T17:16:45.999Z</time></trkpt><trkpt lat="44.47915446655841" lon="7.869975777420919"><ele>363.0</ele><time>2026-04-07T17:16:49.999Z</time></trkpt><trkpt lat="44.4792741209422" lon="7.87009271376439"><ele>363.0</ele><time>2026-04-07T17:16:51.999Z</time></trkpt><trkpt lat="44.47934638742653" lon="7.870156763141828"><ele>363.0</ele><time>2026-04-07T17:16:52.999Z</time></trkpt><trkpt lat="44.479429100980475" lon="7.870235158998458"><ele>363.0</ele><time>2026-04-07T17:16:53.999Z</time></trkpt><trkpt lat="44.47952466651139" lon="7.870324017781563"><ele>363.0</ele><time>2026-04-07T17:16:54.999Z</time></trkpt><trkpt lat="44.479614238889006" lon="7.870420196847262"><ele>363.0</ele><time>2026-04-07T17:16:55.999Z</time></trkpt><trkpt lat="44.47969313303761" lon="7.870496351727696"><ele>363.0</ele><time>2026-04-07T17:16:56.999Z</time></trkpt><trkpt lat="44.47976840795663" lon="7.8705734529700075"><ele>363.0</ele><time>2026-04-07T17:16:57.999Z</time></trkpt><trkpt lat="44.47984559473587" lon="7.870650557448428"><ele>363.0</ele><time>2026-04-07T17:16:58.999Z</time></trkpt><trkpt lat="44.47992415589201" lon="7.87072670760091"><ele>363.0</ele><time>2026-04-07T17:16:59.999Z</time></trkpt><trkpt lat="44.48000214554408" lon="7.8708040315733925"><ele>363.0</ele><time>2026-04-07T17:17:00.999Z</time></trkpt><trkpt lat="44.480078463778376" lon="7.87088068352215"><ele>363.0</ele><time>2026-04-07T17:17:01.999Z</time></trkpt><trkpt lat="44.480152491606844" lon="7.870959592855605"><ele>363.0</ele><time>2026-04-07T17:17:02.999Z</time></trkpt><trkpt lat="44.48022360876505" lon="7.871028788078039"><ele>363.0</ele><time>2026-04-07T17:17:03.999Z</time></trkpt><trkpt lat="44.48030330035456" lon="7.871113861989732"><ele>363.0</ele><time>2026-04-07T17:17:04.999Z</time></trkpt><trkpt lat="44.48038786837849" lon="7.871215618940733"><ele>363.0</ele><time>2026-04-07T17:17:05.999Z</time></trkpt><trkpt lat="44.48047234997218" lon="7.871341539942297"><ele>363.0</ele><time>2026-04-07T17:17:06.999Z</time></trkpt><trkpt lat="44.48053186849152" lon="7.871464184468047"><ele>363.0</ele><time>2026-04-07T17:17:07.999Z</time></trkpt><trkpt lat="44.480579592677095" lon="7.87158144540844"><ele>363.0</ele><time>2026-04-07T17:17:08.999Z</time></trkpt><trkpt lat="44.48062527455446" lon="7.871695761488433"><ele>363.0</ele><time>2026-04-07T17:17:09.999Z</time></trkpt><trkpt lat="44.480668012548485" lon="7.8717950477983045"><ele>363.0</ele><time>2026-04-07T17:17:10.999Z</time></trkpt><trkpt lat="44.480702121461675" lon="7.87188692727597"><ele>363.0</ele><time>2026-04-07T17:17:11.999Z</time></trkpt><trkpt lat="44.48074921042794" lon="7.872046822408149"><ele>363.0</ele><time>2026-04-07T17:17:13.999Z</time></trkpt><trkpt lat="44.48075405254064" lon="7.8721463941373795"><ele>363.0</ele><time>2026-04-07T17:17:15.999Z</time></trkpt><trkpt lat="44.480666471056686" lon="7.872252953525074"><ele>363.0</ele><time>2026-04-07T17:17:18.999Z</time></trkpt><trkpt lat="44.48060815165744" lon="7.8722885924390615"><ele>363.0</ele><time>2026-04-07T17:17:19.999Z</time></trkpt><trkpt lat="44.480542046970875" lon="7.872322625714952"><ele>363.0</ele><time>2026-04-07T17:17:20.999Z</time></trkpt><trkpt lat="44.48047431410757" lon="7.872345886453398"><ele>363.0</ele><time>2026-04-07T17:17:21.999Z</time></trkpt><trkpt lat="44.48036376432477" lon="7.872401168039729"><ele>363.0</ele><time>2026-04-07T17:17:23.999Z</time></trkpt><trkpt lat="44.48027512628176" lon="7.872453696168856"><ele>363.0</ele><time>2026-04-07T17:17:25.999Z</time></trkpt><trkpt lat="44.48023841779387" lon="7.872653331865086"><ele>363.0</ele><time>2026-04-07T17:17:51Z</time></trkpt><trkpt lat="44.48023195847272" lon="7.872755428002822"><ele>363.0</ele><time>2026-04-07T17:17:54Z</time></trkpt><trkpt lat="44.4802379890893" lon="7.872871060740961"><ele>363.0</ele><time>2026-04-07T17:17:57Z</time></trkpt><trkpt lat="44.48024042054103" lon="7.873017154816829"><ele>363.0</ele><time>2026-04-07T17:18:00.016Z</time></trkpt><trkpt lat="44.48025643535484" lon="7.873125511254372"><ele>363.0</ele><time>2026-04-07T17:18:02.017Z</time></trkpt><trkpt lat="44.47971594338371" lon="7.872889439357406"><ele>363.0</ele><time>2026-04-07T17:18:18.28Z</time></trkpt><trkpt lat="44.4797225685054" lon="7.873034515279705"><ele>363.0</ele><time>2026-04-07T17:18:22.375Z</time></trkpt><trkpt lat="44.4795968139673" lon="7.8729314384685996"><ele>364.0</ele><time>2026-04-07T17:18:46.754Z</time></trkpt></trkseg></trk></gpx>